<?xml version="1.0" encoding="UTF-8"?>
<gpx version="1.1" creator="https://www.youtrack.es" xsi:schemaLocation="http://www.topografix.com/GPX/1/1 http://www.topografix.com/GPX/1/1/gpx.xsd http://www.garmin.com/xmlschemas/GpxExtensions/v3 http://www.garmin.com/xmlschemas/GpxExtensionsv3.xsd http://www.garmin.com/xmlschemas/TrackPointExtension/v1 http://www.garmin.com/xmlschemas/TrackPointExtensionv1.xsd" xmlns:gpxtpx="http://www.garmin.com/xmlschemas/TrackPointExtension/v1" xmlns:gpxx="http://www.garmin.com/xmlschemas/GpxExtensions/v3" xmlns:xsi="http://www.w3.org/2001/XMLSchema-instance">
  <metadata>
    <link href="https://www.youtrack.es">
      <text>YouTrack.es</text>
    </link>
    <time>2026-05-10T23:35:25Z</time>
  </metadata>
  <trk>
    <src>https://www.youtrack.es</src>
    <link href="https://www.youtrack.es/ruta/11303-fx">
      <text>YouTrack.es</text>
    </link>
    <trkseg>
      <trkpt lat="39.5541760" lon="2.5868910">
        <ele>84.7</ele>
        <time>2020-02-23T10:28:13Z</time>
      </trkpt>
      <trkpt lat="39.5540050" lon="2.5867880">
        <ele>86.2</ele>
        <time>2020-02-23T10:28:23Z</time>
      </trkpt>
      <trkpt lat="39.5538260" lon="2.5867280">
        <ele>87.8</ele>
        <time>2020-02-23T10:28:35Z</time>
      </trkpt>
      <trkpt lat="39.5536600" lon="2.5866160">
        <ele>89.3</ele>
        <time>2020-02-23T10:28:56Z</time>
      </trkpt>
      <trkpt lat="39.5534950" lon="2.5865260">
        <ele>91.9</ele>
        <time>2020-02-23T10:29:35Z</time>
      </trkpt>
      <trkpt lat="39.5533880" lon="2.5863270">
        <ele>95.4</ele>
        <time>2020-02-23T10:30:24Z</time>
      </trkpt>
      <trkpt lat="39.5532610" lon="2.5861720">
        <ele>98.3</ele>
        <time>2020-02-23T10:32:19Z</time>
      </trkpt>
      <trkpt lat="39.5531210" lon="2.5860150">
        <ele>100.5</ele>
        <time>2020-02-23T10:32:49Z</time>
      </trkpt>
      <trkpt lat="39.5529640" lon="2.5858960">
        <ele>103.3</ele>
        <time>2020-02-23T10:33:14Z</time>
      </trkpt>
      <trkpt lat="39.5527990" lon="2.5858820">
        <ele>106.6</ele>
        <time>2020-02-23T10:34:41Z</time>
      </trkpt>
      <trkpt lat="39.5527370" lon="2.5858290">
        <ele>107.4</ele>
        <time>2020-02-23T10:34:47Z</time>
      </trkpt>
      <trkpt lat="39.5528220" lon="2.5856540">
        <ele>109.2</ele>
        <time>2020-02-23T10:35:34Z</time>
      </trkpt>
      <trkpt lat="39.5529940" lon="2.5856080">
        <ele>112.6</ele>
        <time>2020-02-23T10:35:45Z</time>
      </trkpt>
      <trkpt lat="39.5530920" lon="2.5854030">
        <ele>115.2</ele>
        <time>2020-02-23T10:35:58Z</time>
      </trkpt>
      <trkpt lat="39.5531840" lon="2.5851960">
        <ele>116.4</ele>
        <time>2020-02-23T10:36:11Z</time>
      </trkpt>
      <trkpt lat="39.5532580" lon="2.5849800">
        <ele>118.4</ele>
        <time>2020-02-23T10:36:24Z</time>
      </trkpt>
      <trkpt lat="39.5533490" lon="2.5847640">
        <ele>118.7</ele>
        <time>2020-02-23T10:36:36Z</time>
      </trkpt>
      <trkpt lat="39.5533780" lon="2.5845350">
        <ele>120.2</ele>
        <time>2020-02-23T10:36:47Z</time>
      </trkpt>
      <trkpt lat="39.5533500" lon="2.5842950">
        <ele>123.5</ele>
        <time>2020-02-23T10:36:59Z</time>
      </trkpt>
      <trkpt lat="39.5533160" lon="2.5840650">
        <ele>128.7</ele>
        <time>2020-02-23T10:37:11Z</time>
      </trkpt>
      <trkpt lat="39.5532830" lon="2.5838370">
        <ele>134.2</ele>
        <time>2020-02-23T10:37:28Z</time>
      </trkpt>
      <trkpt lat="39.5532560" lon="2.5835950">
        <ele>139.6</ele>
        <time>2020-02-23T10:37:41Z</time>
      </trkpt>
      <trkpt lat="39.5532520" lon="2.5833710">
        <ele>144.1</ele>
        <time>2020-02-23T10:38:07Z</time>
      </trkpt>
      <trkpt lat="39.5532750" lon="2.5831400">
        <ele>148.6</ele>
        <time>2020-02-23T10:38:35Z</time>
      </trkpt>
      <trkpt lat="39.5532970" lon="2.5829110">
        <ele>152.3</ele>
        <time>2020-02-23T10:38:56Z</time>
      </trkpt>
      <trkpt lat="39.5533160" lon="2.5826830">
        <ele>154.9</ele>
        <time>2020-02-23T10:42:52Z</time>
      </trkpt>
      <trkpt lat="39.5533220" lon="2.5824380">
        <ele>157.2</ele>
        <time>2020-02-23T10:43:03Z</time>
      </trkpt>
      <trkpt lat="39.5533480" lon="2.5822050">
        <ele>158.7</ele>
        <time>2020-02-23T10:43:14Z</time>
      </trkpt>
      <trkpt lat="39.5533530" lon="2.5819660">
        <ele>160.2</ele>
        <time>2020-02-23T10:43:26Z</time>
      </trkpt>
      <trkpt lat="39.5534200" lon="2.5817360">
        <ele>161.9</ele>
        <time>2020-02-23T10:43:57Z</time>
      </trkpt>
      <trkpt lat="39.5534800" lon="2.5814950">
        <ele>163.2</ele>
        <time>2020-02-23T10:44:34Z</time>
      </trkpt>
      <trkpt lat="39.5535410" lon="2.5812540">
        <ele>164.4</ele>
        <time>2020-02-23T10:44:44Z</time>
      </trkpt>
      <trkpt lat="39.5536170" lon="2.5810170">
        <ele>165.2</ele>
        <time>2020-02-23T10:44:52Z</time>
      </trkpt>
      <trkpt lat="39.5537200" lon="2.5808150">
        <ele>165.8</ele>
        <time>2020-02-23T10:44:59Z</time>
      </trkpt>
      <trkpt lat="39.5538270" lon="2.5806240">
        <ele>166.1</ele>
        <time>2020-02-23T10:45:06Z</time>
      </trkpt>
      <trkpt lat="39.5539610" lon="2.5804500">
        <ele>166.2</ele>
        <time>2020-02-23T10:45:13Z</time>
      </trkpt>
      <trkpt lat="39.5541110" lon="2.5802860">
        <ele>166.4</ele>
        <time>2020-02-23T10:45:20Z</time>
      </trkpt>
      <trkpt lat="39.5542440" lon="2.5801250">
        <ele>166.6</ele>
        <time>2020-02-23T10:45:26Z</time>
      </trkpt>
      <trkpt lat="39.5543760" lon="2.5799500">
        <ele>166.9</ele>
        <time>2020-02-23T10:45:32Z</time>
      </trkpt>
      <trkpt lat="39.5545150" lon="2.5797550">
        <ele>167.3</ele>
        <time>2020-02-23T10:45:39Z</time>
      </trkpt>
      <trkpt lat="39.5546500" lon="2.5795980">
        <ele>167.9</ele>
        <time>2020-02-23T10:45:45Z</time>
      </trkpt>
      <trkpt lat="39.5547760" lon="2.5794090">
        <ele>168.5</ele>
        <time>2020-02-23T10:45:51Z</time>
      </trkpt>
      <trkpt lat="39.5547920" lon="2.5791600">
        <ele>169.7</ele>
        <time>2020-02-23T10:45:57Z</time>
      </trkpt>
      <trkpt lat="39.5547670" lon="2.5789270">
        <ele>170.7</ele>
        <time>2020-02-23T10:46:05Z</time>
      </trkpt>
      <trkpt lat="39.5547080" lon="2.5788560">
        <ele>171.4</ele>
        <time>2020-02-23T10:46:50Z</time>
      </trkpt>
      <trkpt lat="39.5548510" lon="2.5787020">
        <ele>174.6</ele>
        <time>2020-02-23T10:47:11Z</time>
      </trkpt>
      <trkpt lat="39.5547820" lon="2.5785030">
        <ele>178.5</ele>
        <time>2020-02-23T10:47:36Z</time>
      </trkpt>
      <trkpt lat="39.5547730" lon="2.5782900">
        <ele>182.8</ele>
        <time>2020-02-23T10:48:03Z</time>
      </trkpt>
      <trkpt lat="39.5547360" lon="2.5780690">
        <ele>186.3</ele>
        <time>2020-02-23T10:50:05Z</time>
      </trkpt>
      <trkpt lat="39.5547330" lon="2.5778300">
        <ele>187.6</ele>
        <time>2020-02-23T10:50:18Z</time>
      </trkpt>
      <trkpt lat="39.5547330" lon="2.5776120">
        <ele>188.3</ele>
        <time>2020-02-23T10:50:31Z</time>
      </trkpt>
      <trkpt lat="39.5547350" lon="2.5776280">
        <ele>188.3</ele>
        <time>2020-02-23T10:51:17Z</time>
      </trkpt>
      <trkpt lat="39.5547380" lon="2.5776440">
        <ele>188.2</ele>
        <time>2020-02-23T10:53:41Z</time>
      </trkpt>
      <trkpt lat="39.5547400" lon="2.5776600">
        <ele>188.1</ele>
        <time>2020-02-23T10:53:42Z</time>
      </trkpt>
      <trkpt lat="39.5547500" lon="2.5779040">
        <ele>187.3</ele>
        <time>2020-02-23T10:53:45Z</time>
      </trkpt>
      <trkpt lat="39.5547780" lon="2.5781570">
        <ele>184.9</ele>
        <time>2020-02-23T10:53:48Z</time>
      </trkpt>
      <trkpt lat="39.5547760" lon="2.5782430">
        <ele>183.3</ele>
        <time>2020-02-23T10:53:49Z</time>
      </trkpt>
      <trkpt lat="39.5547970" lon="2.5784120">
        <ele>179.8</ele>
        <time>2020-02-23T10:53:52Z</time>
      </trkpt>
      <trkpt lat="39.5548330" lon="2.5786670">
        <ele>174.9</ele>
        <time>2020-02-23T10:53:58Z</time>
      </trkpt>
      <trkpt lat="39.5547700" lon="2.5788130">
        <ele>171.5</ele>
        <time>2020-02-23T10:55:29Z</time>
      </trkpt>
      <trkpt lat="39.5546680" lon="2.5785840">
        <ele>172.0</ele>
        <time>2020-02-23T10:55:39Z</time>
      </trkpt>
      <trkpt lat="39.5546510" lon="2.5785330">
        <ele>172.1</ele>
        <time>2020-02-23T10:55:40Z</time>
      </trkpt>
      <trkpt lat="39.5545890" lon="2.5783020">
        <ele>172.3</ele>
        <time>2020-02-23T10:55:44Z</time>
      </trkpt>
      <trkpt lat="39.5544850" lon="2.5780350">
        <ele>172.0</ele>
        <time>2020-02-23T10:55:48Z</time>
      </trkpt>
      <trkpt lat="39.5544140" lon="2.5778470">
        <ele>170.7</ele>
        <time>2020-02-23T10:55:51Z</time>
      </trkpt>
      <trkpt lat="39.5542770" lon="2.5776310">
        <ele>168.3</ele>
        <time>2020-02-23T10:55:56Z</time>
      </trkpt>
      <trkpt lat="39.5542620" lon="2.5774030">
        <ele>167.0</ele>
        <time>2020-02-23T10:56:16Z</time>
      </trkpt>
      <trkpt lat="39.5542900" lon="2.5771740">
        <ele>166.3</ele>
        <time>2020-02-23T10:56:33Z</time>
      </trkpt>
      <trkpt lat="39.5543480" lon="2.5769350">
        <ele>166.4</ele>
        <time>2020-02-23T10:56:46Z</time>
      </trkpt>
      <trkpt lat="39.5541620" lon="2.5768730">
        <ele>166.9</ele>
        <time>2020-02-23T10:56:58Z</time>
      </trkpt>
      <trkpt lat="39.5539860" lon="2.5770000">
        <ele>165.7</ele>
        <time>2020-02-23T10:57:03Z</time>
      </trkpt>
      <trkpt lat="39.5539540" lon="2.5772680">
        <ele>165.0</ele>
        <time>2020-02-23T10:57:08Z</time>
      </trkpt>
      <trkpt lat="39.5538890" lon="2.5775090">
        <ele>164.5</ele>
        <time>2020-02-23T10:57:12Z</time>
      </trkpt>
      <trkpt lat="39.5538750" lon="2.5775530">
        <ele>164.5</ele>
        <time>2020-02-23T10:57:13Z</time>
      </trkpt>
      <trkpt lat="39.5538140" lon="2.5777920">
        <ele>164.6</ele>
        <time>2020-02-23T10:57:18Z</time>
      </trkpt>
      <trkpt lat="39.5537710" lon="2.5779010">
        <ele>164.8</ele>
        <time>2020-02-23T10:57:21Z</time>
      </trkpt>
      <trkpt lat="39.5536200" lon="2.5777920">
        <ele>165.5</ele>
        <time>2020-02-23T10:57:45Z</time>
      </trkpt>
      <trkpt lat="39.5535100" lon="2.5775940">
        <ele>166.7</ele>
        <time>2020-02-23T10:58:03Z</time>
      </trkpt>
      <trkpt lat="39.5534420" lon="2.5773860">
        <ele>167.7</ele>
        <time>2020-02-23T10:58:29Z</time>
      </trkpt>
      <trkpt lat="39.5533190" lon="2.5772210">
        <ele>168.1</ele>
        <time>2020-02-23T10:59:01Z</time>
      </trkpt>
      <trkpt lat="39.5531650" lon="2.5771740">
        <ele>168.4</ele>
        <time>2020-02-23T10:59:28Z</time>
      </trkpt>
      <trkpt lat="39.5533240" lon="2.5772490">
        <ele>168.7</ele>
        <time>2020-02-23T11:00:01Z</time>
      </trkpt>
      <trkpt lat="39.5534470" lon="2.5774300">
        <ele>168.0</ele>
        <time>2020-02-23T11:00:10Z</time>
      </trkpt>
      <trkpt lat="39.5534770" lon="2.5775180">
        <ele>167.6</ele>
        <time>2020-02-23T11:00:14Z</time>
      </trkpt>
      <trkpt lat="39.5533720" lon="2.5776040">
        <ele>166.5</ele>
        <time>2020-02-23T11:00:57Z</time>
      </trkpt>
      <trkpt lat="39.5532950" lon="2.5775990">
        <ele>165.8</ele>
        <time>2020-02-23T11:01:01Z</time>
      </trkpt>
      <trkpt lat="39.5531210" lon="2.5775200">
        <ele>164.3</ele>
        <time>2020-02-23T11:01:09Z</time>
      </trkpt>
      <trkpt lat="39.5529370" lon="2.5775260">
        <ele>162.0</ele>
        <time>2020-02-23T11:01:17Z</time>
      </trkpt>
      <trkpt lat="39.5528090" lon="2.5775370">
        <ele>160.5</ele>
        <time>2020-02-23T11:01:24Z</time>
      </trkpt>
      <trkpt lat="39.5526480" lon="2.5776180">
        <ele>158.1</ele>
        <time>2020-02-23T11:01:34Z</time>
      </trkpt>
      <trkpt lat="39.5525100" lon="2.5778090">
        <ele>155.4</ele>
        <time>2020-02-23T11:01:44Z</time>
      </trkpt>
      <trkpt lat="39.5523500" lon="2.5779220">
        <ele>153.6</ele>
        <time>2020-02-23T11:01:51Z</time>
      </trkpt>
      <trkpt lat="39.5521610" lon="2.5779890">
        <ele>151.6</ele>
        <time>2020-02-23T11:01:57Z</time>
      </trkpt>
      <trkpt lat="39.5520700" lon="2.5779550">
        <ele>150.4</ele>
        <time>2020-02-23T11:09:52Z</time>
      </trkpt>
      <trkpt lat="39.5518930" lon="2.5779140">
        <ele>147.8</ele>
        <time>2020-02-23T11:12:16Z</time>
      </trkpt>
      <trkpt lat="39.5516730" lon="2.5778370">
        <ele>144.2</ele>
        <time>2020-02-23T11:12:21Z</time>
      </trkpt>
      <trkpt lat="39.5514690" lon="2.5777640">
        <ele>140.9</ele>
        <time>2020-02-23T11:12:25Z</time>
      </trkpt>
      <trkpt lat="39.5512920" lon="2.5776920">
        <ele>137.6</ele>
        <time>2020-02-23T11:12:30Z</time>
      </trkpt>
      <trkpt lat="39.5511320" lon="2.5775900">
        <ele>134.5</ele>
        <time>2020-02-23T11:12:36Z</time>
      </trkpt>
      <trkpt lat="39.5510680" lon="2.5773540">
        <ele>132.1</ele>
        <time>2020-02-23T11:12:47Z</time>
      </trkpt>
      <trkpt lat="39.5510850" lon="2.5771150">
        <ele>131.7</ele>
        <time>2020-02-23T11:12:59Z</time>
      </trkpt>
      <trkpt lat="39.5510970" lon="2.5768750">
        <ele>131.5</ele>
        <time>2020-02-23T11:13:10Z</time>
      </trkpt>
      <trkpt lat="39.5510830" lon="2.5767820">
        <ele>131.3</ele>
        <time>2020-02-23T11:13:16Z</time>
      </trkpt>
      <trkpt lat="39.5510350" lon="2.5765480">
        <ele>131.0</ele>
        <time>2020-02-23T11:13:30Z</time>
      </trkpt>
      <trkpt lat="39.5510150" lon="2.5763480">
        <ele>130.9</ele>
        <time>2020-02-23T11:13:41Z</time>
      </trkpt>
      <trkpt lat="39.5509890" lon="2.5762180">
        <ele>131.0</ele>
        <time>2020-02-23T11:13:49Z</time>
      </trkpt>
      <trkpt lat="39.5509160" lon="2.5760090">
        <ele>131.2</ele>
        <time>2020-02-23T11:14:04Z</time>
      </trkpt>
      <trkpt lat="39.5508640" lon="2.5758530">
        <ele>131.7</ele>
        <time>2020-02-23T11:14:13Z</time>
      </trkpt>
      <trkpt lat="39.5508530" lon="2.5757660">
        <ele>132.1</ele>
        <time>2020-02-23T11:14:18Z</time>
      </trkpt>
      <trkpt lat="39.5508070" lon="2.5756560">
        <ele>132.7</ele>
        <time>2020-02-23T11:14:23Z</time>
      </trkpt>
      <trkpt lat="39.5507240" lon="2.5754380">
        <ele>133.8</ele>
        <time>2020-02-23T11:14:35Z</time>
      </trkpt>
      <trkpt lat="39.5506760" lon="2.5752070">
        <ele>135.1</ele>
        <time>2020-02-23T11:14:46Z</time>
      </trkpt>
      <trkpt lat="39.5506310" lon="2.5749710">
        <ele>137.0</ele>
        <time>2020-02-23T11:15:02Z</time>
      </trkpt>
      <trkpt lat="39.5505860" lon="2.5748600">
        <ele>138.0</ele>
        <time>2020-02-23T11:15:07Z</time>
      </trkpt>
      <trkpt lat="39.5505790" lon="2.5746030">
        <ele>139.6</ele>
        <time>2020-02-23T11:15:15Z</time>
      </trkpt>
      <trkpt lat="39.5505920" lon="2.5745230">
        <ele>140.1</ele>
        <time>2020-02-23T11:15:18Z</time>
      </trkpt>
      <trkpt lat="39.5506600" lon="2.5742960">
        <ele>145.5</ele>
        <time>2020-02-23T11:15:31Z</time>
      </trkpt>
      <trkpt lat="39.5507610" lon="2.5741040">
        <ele>150.5</ele>
        <time>2020-02-23T11:15:44Z</time>
      </trkpt>
      <trkpt lat="39.5508930" lon="2.5739200">
        <ele>154.9</ele>
        <time>2020-02-23T11:16:17Z</time>
      </trkpt>
      <trkpt lat="39.5510300" lon="2.5737700">
        <ele>158.7</ele>
        <time>2020-02-23T11:16:35Z</time>
      </trkpt>
      <trkpt lat="39.5511400" lon="2.5736230">
        <ele>161.1</ele>
        <time>2020-02-23T11:17:26Z</time>
      </trkpt>
      <trkpt lat="39.5513060" lon="2.5734970">
        <ele>162.7</ele>
        <time>2020-02-23T11:17:45Z</time>
      </trkpt>
      <trkpt lat="39.5514490" lon="2.5733470">
        <ele>161.9</ele>
        <time>2020-02-23T11:18:08Z</time>
      </trkpt>
      <trkpt lat="39.5516040" lon="2.5732180">
        <ele>159.7</ele>
        <time>2020-02-23T11:18:26Z</time>
      </trkpt>
      <trkpt lat="39.5517460" lon="2.5730770">
        <ele>156.9</ele>
        <time>2020-02-23T11:18:43Z</time>
      </trkpt>
      <trkpt lat="39.5518400" lon="2.5728630">
        <ele>153.9</ele>
        <time>2020-02-23T11:19:05Z</time>
      </trkpt>
      <trkpt lat="39.5519360" lon="2.5726530">
        <ele>152.3</ele>
        <time>2020-02-23T11:19:24Z</time>
      </trkpt>
      <trkpt lat="39.5520120" lon="2.5724180">
        <ele>151.3</ele>
        <time>2020-02-23T11:19:43Z</time>
      </trkpt>
      <trkpt lat="39.5521180" lon="2.5722220">
        <ele>151.4</ele>
        <time>2020-02-23T11:20:02Z</time>
      </trkpt>
      <trkpt lat="39.5522300" lon="2.5720410">
        <ele>153.1</ele>
        <time>2020-02-23T11:20:29Z</time>
      </trkpt>
      <trkpt lat="39.5520920" lon="2.5721320">
        <ele>153.3</ele>
        <time>2020-02-23T11:20:54Z</time>
      </trkpt>
      <trkpt lat="39.5519280" lon="2.5722540">
        <ele>156.0</ele>
        <time>2020-02-23T11:21:13Z</time>
      </trkpt>
      <trkpt lat="39.5517800" lon="2.5723840">
        <ele>158.1</ele>
        <time>2020-02-23T11:21:35Z</time>
      </trkpt>
      <trkpt lat="39.5516590" lon="2.5725580">
        <ele>160.4</ele>
        <time>2020-02-23T11:21:56Z</time>
      </trkpt>
      <trkpt lat="39.5514960" lon="2.5726500">
        <ele>164.4</ele>
        <time>2020-02-23T11:22:15Z</time>
      </trkpt>
      <trkpt lat="39.5513110" lon="2.5726690">
        <ele>169.8</ele>
        <time>2020-02-23T11:22:37Z</time>
      </trkpt>
      <trkpt lat="39.5511340" lon="2.5726200">
        <ele>176.3</ele>
        <time>2020-02-23T11:22:59Z</time>
      </trkpt>
      <trkpt lat="39.5509710" lon="2.5725190">
        <ele>182.4</ele>
        <time>2020-02-23T11:23:23Z</time>
      </trkpt>
      <trkpt lat="39.5508070" lon="2.5724020">
        <ele>189.3</ele>
        <time>2020-02-23T11:23:43Z</time>
      </trkpt>
      <trkpt lat="39.5507180" lon="2.5722080">
        <ele>196.2</ele>
        <time>2020-02-23T11:24:02Z</time>
      </trkpt>
      <trkpt lat="39.5506610" lon="2.5719890">
        <ele>202.9</ele>
        <time>2020-02-23T11:24:24Z</time>
      </trkpt>
      <trkpt lat="39.5505090" lon="2.5718750">
        <ele>206.7</ele>
        <time>2020-02-23T11:24:45Z</time>
      </trkpt>
      <trkpt lat="39.5505510" lon="2.5716410">
        <ele>214.0</ele>
        <time>2020-02-23T11:25:05Z</time>
      </trkpt>
      <trkpt lat="39.5507130" lon="2.5715240">
        <ele>216.3</ele>
        <time>2020-02-23T11:25:26Z</time>
      </trkpt>
      <trkpt lat="39.5508910" lon="2.5714740">
        <ele>213.6</ele>
        <time>2020-02-23T11:25:44Z</time>
      </trkpt>
      <trkpt lat="39.5510670" lon="2.5714010">
        <ele>212.1</ele>
        <time>2020-02-23T11:26:04Z</time>
      </trkpt>
      <trkpt lat="39.5511590" lon="2.5712120">
        <ele>214.1</ele>
        <time>2020-02-23T11:26:24Z</time>
      </trkpt>
      <trkpt lat="39.5512270" lon="2.5709860">
        <ele>218.0</ele>
        <time>2020-02-23T11:26:42Z</time>
      </trkpt>
      <trkpt lat="39.5512820" lon="2.5707630">
        <ele>222.5</ele>
        <time>2020-02-23T11:26:59Z</time>
      </trkpt>
      <trkpt lat="39.5513310" lon="2.5705370">
        <ele>228.3</ele>
        <time>2020-02-23T11:27:17Z</time>
      </trkpt>
      <trkpt lat="39.5514410" lon="2.5703480">
        <ele>230.6</ele>
        <time>2020-02-23T11:27:37Z</time>
      </trkpt>
      <trkpt lat="39.5514070" lon="2.5702450">
        <ele>233.9</ele>
        <time>2020-02-23T11:28:05Z</time>
      </trkpt>
      <trkpt lat="39.5513440" lon="2.5702260">
        <ele>236.0</ele>
        <time>2020-02-23T11:28:09Z</time>
      </trkpt>
      <trkpt lat="39.5511520" lon="2.5702170">
        <ele>239.7</ele>
        <time>2020-02-23T11:28:19Z</time>
      </trkpt>
      <trkpt lat="39.5509680" lon="2.5702150">
        <ele>243.0</ele>
        <time>2020-02-23T11:28:30Z</time>
      </trkpt>
      <trkpt lat="39.5509240" lon="2.5702030">
        <ele>243.8</ele>
        <time>2020-02-23T11:28:33Z</time>
      </trkpt>
      <trkpt lat="39.5507370" lon="2.5701990">
        <ele>247.7</ele>
        <time>2020-02-23T11:28:44Z</time>
      </trkpt>
      <trkpt lat="39.5505500" lon="2.5702230">
        <ele>248.9</ele>
        <time>2020-02-23T11:28:55Z</time>
      </trkpt>
      <trkpt lat="39.5503860" lon="2.5703400">
        <ele>248.7</ele>
        <time>2020-02-23T11:29:06Z</time>
      </trkpt>
      <trkpt lat="39.5502190" lon="2.5704610">
        <ele>247.6</ele>
        <time>2020-02-23T11:29:18Z</time>
      </trkpt>
      <trkpt lat="39.5500420" lon="2.5704270">
        <ele>247.7</ele>
        <time>2020-02-23T11:29:29Z</time>
      </trkpt>
      <trkpt lat="39.5499540" lon="2.5702540">
        <ele>249.0</ele>
        <time>2020-02-23T11:29:54Z</time>
      </trkpt>
      <trkpt lat="39.5499990" lon="2.5700150">
        <ele>253.4</ele>
        <time>2020-02-23T11:39:13Z</time>
      </trkpt>
      <trkpt lat="39.5500030" lon="2.5700060">
        <ele>253.5</ele>
        <time>2020-02-23T11:39:15Z</time>
      </trkpt>
      <trkpt lat="39.5500110" lon="2.5699910">
        <ele>253.6</ele>
        <time>2020-02-23T11:39:17Z</time>
      </trkpt>
      <trkpt lat="39.5500190" lon="2.5699730">
        <ele>253.7</ele>
        <time>2020-02-23T11:39:18Z</time>
      </trkpt>
      <trkpt lat="39.5500430" lon="2.5699260">
        <ele>254.1</ele>
        <time>2020-02-23T11:39:20Z</time>
      </trkpt>
      <trkpt lat="39.5500630" lon="2.5698810">
        <ele>254.4</ele>
        <time>2020-02-23T11:39:22Z</time>
      </trkpt>
      <trkpt lat="39.5500950" lon="2.5698200">
        <ele>254.9</ele>
        <time>2020-02-23T11:39:24Z</time>
      </trkpt>
      <trkpt lat="39.5501170" lon="2.5697910">
        <ele>255.1</ele>
        <time>2020-02-23T11:39:26Z</time>
      </trkpt>
      <trkpt lat="39.5501510" lon="2.5697470">
        <ele>255.5</ele>
        <time>2020-02-23T11:39:28Z</time>
      </trkpt>
      <trkpt lat="39.5501660" lon="2.5697230">
        <ele>255.6</ele>
        <time>2020-02-23T11:39:29Z</time>
      </trkpt>
      <trkpt lat="39.5501810" lon="2.5697050">
        <ele>255.8</ele>
        <time>2020-02-23T11:39:31Z</time>
      </trkpt>
      <trkpt lat="39.5502130" lon="2.5696540">
        <ele>256.2</ele>
        <time>2020-02-23T11:39:33Z</time>
      </trkpt>
      <trkpt lat="39.5502340" lon="2.5696290">
        <ele>256.4</ele>
        <time>2020-02-23T11:39:36Z</time>
      </trkpt>
      <trkpt lat="39.5502560" lon="2.5696040">
        <ele>256.6</ele>
        <time>2020-02-23T11:39:37Z</time>
      </trkpt>
      <trkpt lat="39.5502860" lon="2.5695690">
        <ele>256.9</ele>
        <time>2020-02-23T11:39:39Z</time>
      </trkpt>
      <trkpt lat="39.5503010" lon="2.5695540">
        <ele>257.1</ele>
        <time>2020-02-23T11:39:40Z</time>
      </trkpt>
      <trkpt lat="39.5503180" lon="2.5695280">
        <ele>257.3</ele>
        <time>2020-02-23T11:39:41Z</time>
      </trkpt>
      <trkpt lat="39.5503460" lon="2.5695040">
        <ele>257.5</ele>
        <time>2020-02-23T11:39:44Z</time>
      </trkpt>
      <trkpt lat="39.5503640" lon="2.5694880">
        <ele>257.7</ele>
        <time>2020-02-23T11:39:45Z</time>
      </trkpt>
      <trkpt lat="39.5503850" lon="2.5694610">
        <ele>258.0</ele>
        <time>2020-02-23T11:39:47Z</time>
      </trkpt>
      <trkpt lat="39.5503930" lon="2.5694510">
        <ele>258.1</ele>
        <time>2020-02-23T11:39:49Z</time>
      </trkpt>
      <trkpt lat="39.5504070" lon="2.5694350">
        <ele>258.2</ele>
        <time>2020-02-23T11:39:51Z</time>
      </trkpt>
      <trkpt lat="39.5504160" lon="2.5694280">
        <ele>258.3</ele>
        <time>2020-02-23T11:39:52Z</time>
      </trkpt>
      <trkpt lat="39.5504340" lon="2.5694200">
        <ele>258.5</ele>
        <time>2020-02-23T11:39:53Z</time>
      </trkpt>
      <trkpt lat="39.5504510" lon="2.5694170">
        <ele>258.7</ele>
        <time>2020-02-23T11:39:55Z</time>
      </trkpt>
      <trkpt lat="39.5504650" lon="2.5694100">
        <ele>258.9</ele>
        <time>2020-02-23T11:39:56Z</time>
      </trkpt>
      <trkpt lat="39.5505110" lon="2.5693700">
        <ele>259.5</ele>
        <time>2020-02-23T11:39:58Z</time>
      </trkpt>
      <trkpt lat="39.5505250" lon="2.5693570">
        <ele>259.6</ele>
        <time>2020-02-23T11:40:00Z</time>
      </trkpt>
      <trkpt lat="39.5505370" lon="2.5693470">
        <ele>259.8</ele>
        <time>2020-02-23T11:40:02Z</time>
      </trkpt>
      <trkpt lat="39.5505620" lon="2.5693260">
        <ele>260.1</ele>
        <time>2020-02-23T11:40:03Z</time>
      </trkpt>
      <trkpt lat="39.5505740" lon="2.5693130">
        <ele>260.3</ele>
        <time>2020-02-23T11:40:05Z</time>
      </trkpt>
      <trkpt lat="39.5506040" lon="2.5692940">
        <ele>260.7</ele>
        <time>2020-02-23T11:40:07Z</time>
      </trkpt>
      <trkpt lat="39.5506330" lon="2.5692760">
        <ele>261.1</ele>
        <time>2020-02-23T11:40:09Z</time>
      </trkpt>
      <trkpt lat="39.5506430" lon="2.5692660">
        <ele>261.2</ele>
        <time>2020-02-23T11:40:11Z</time>
      </trkpt>
      <trkpt lat="39.5506530" lon="2.5692570">
        <ele>261.4</ele>
        <time>2020-02-23T11:40:12Z</time>
      </trkpt>
      <trkpt lat="39.5506790" lon="2.5692330">
        <ele>261.7</ele>
        <time>2020-02-23T11:40:13Z</time>
      </trkpt>
      <trkpt lat="39.5506850" lon="2.5692260">
        <ele>261.8</ele>
        <time>2020-02-23T11:40:14Z</time>
      </trkpt>
      <trkpt lat="39.5507010" lon="2.5692140">
        <ele>262.0</ele>
        <time>2020-02-23T11:40:16Z</time>
      </trkpt>
      <trkpt lat="39.5507590" lon="2.5691640">
        <ele>262.9</ele>
        <time>2020-02-23T11:40:18Z</time>
      </trkpt>
      <trkpt lat="39.5507830" lon="2.5691420">
        <ele>263.2</ele>
        <time>2020-02-23T11:40:20Z</time>
      </trkpt>
      <trkpt lat="39.5507910" lon="2.5691350">
        <ele>263.3</ele>
        <time>2020-02-23T11:40:21Z</time>
      </trkpt>
      <trkpt lat="39.5508130" lon="2.5691120">
        <ele>263.6</ele>
        <time>2020-02-23T11:40:23Z</time>
      </trkpt>
      <trkpt lat="39.5508310" lon="2.5690920">
        <ele>263.8</ele>
        <time>2020-02-23T11:40:25Z</time>
      </trkpt>
      <trkpt lat="39.5508440" lon="2.5690820">
        <ele>264.0</ele>
        <time>2020-02-23T11:40:27Z</time>
      </trkpt>
      <trkpt lat="39.5508710" lon="2.5690560">
        <ele>264.3</ele>
        <time>2020-02-23T11:40:28Z</time>
      </trkpt>
      <trkpt lat="39.5508770" lon="2.5690490">
        <ele>264.4</ele>
        <time>2020-02-23T11:40:29Z</time>
      </trkpt>
      <trkpt lat="39.5508880" lon="2.5690380">
        <ele>264.5</ele>
        <time>2020-02-23T11:40:30Z</time>
      </trkpt>
      <trkpt lat="39.5509070" lon="2.5690300">
        <ele>264.7</ele>
        <time>2020-02-23T11:40:32Z</time>
      </trkpt>
      <trkpt lat="39.5509270" lon="2.5690350">
        <ele>264.9</ele>
        <time>2020-02-23T11:40:33Z</time>
      </trkpt>
      <trkpt lat="39.5509420" lon="2.5690270">
        <ele>265.1</ele>
        <time>2020-02-23T11:40:35Z</time>
      </trkpt>
      <trkpt lat="39.5509520" lon="2.5690140">
        <ele>265.2</ele>
        <time>2020-02-23T11:40:36Z</time>
      </trkpt>
      <trkpt lat="39.5509630" lon="2.5689980">
        <ele>265.4</ele>
        <time>2020-02-23T11:40:37Z</time>
      </trkpt>
      <trkpt lat="39.5509850" lon="2.5689850">
        <ele>265.6</ele>
        <time>2020-02-23T11:40:38Z</time>
      </trkpt>
      <trkpt lat="39.5509970" lon="2.5689790">
        <ele>265.7</ele>
        <time>2020-02-23T11:40:40Z</time>
      </trkpt>
      <trkpt lat="39.5510160" lon="2.5689660">
        <ele>265.9</ele>
        <time>2020-02-23T11:40:41Z</time>
      </trkpt>
      <trkpt lat="39.5510240" lon="2.5689590">
        <ele>266.0</ele>
        <time>2020-02-23T11:40:42Z</time>
      </trkpt>
      <trkpt lat="39.5510320" lon="2.5689530">
        <ele>266.1</ele>
        <time>2020-02-23T11:40:43Z</time>
      </trkpt>
      <trkpt lat="39.5510440" lon="2.5689410">
        <ele>266.3</ele>
        <time>2020-02-23T11:40:45Z</time>
      </trkpt>
      <trkpt lat="39.5510740" lon="2.5689170">
        <ele>266.6</ele>
        <time>2020-02-23T11:40:47Z</time>
      </trkpt>
      <trkpt lat="39.5510860" lon="2.5689080">
        <ele>266.7</ele>
        <time>2020-02-23T11:40:49Z</time>
      </trkpt>
      <trkpt lat="39.5510970" lon="2.5689010">
        <ele>266.8</ele>
        <time>2020-02-23T11:40:50Z</time>
      </trkpt>
      <trkpt lat="39.5511100" lon="2.5688910">
        <ele>266.9</ele>
        <time>2020-02-23T11:40:52Z</time>
      </trkpt>
      <trkpt lat="39.5511470" lon="2.5688690">
        <ele>267.3</ele>
        <time>2020-02-23T11:40:54Z</time>
      </trkpt>
      <trkpt lat="39.5511800" lon="2.5688530">
        <ele>267.5</ele>
        <time>2020-02-23T11:40:55Z</time>
      </trkpt>
      <trkpt lat="39.5511910" lon="2.5688470">
        <ele>267.6</ele>
        <time>2020-02-23T11:40:56Z</time>
      </trkpt>
      <trkpt lat="39.5512220" lon="2.5688260">
        <ele>267.9</ele>
        <time>2020-02-23T11:40:58Z</time>
      </trkpt>
      <trkpt lat="39.5512330" lon="2.5688170">
        <ele>268.0</ele>
        <time>2020-02-23T11:40:59Z</time>
      </trkpt>
      <trkpt lat="39.5512650" lon="2.5687870">
        <ele>268.4</ele>
        <time>2020-02-23T11:41:02Z</time>
      </trkpt>
      <trkpt lat="39.5512770" lon="2.5687730">
        <ele>268.5</ele>
        <time>2020-02-23T11:41:03Z</time>
      </trkpt>
      <trkpt lat="39.5513110" lon="2.5687360">
        <ele>268.8</ele>
        <time>2020-02-23T11:41:05Z</time>
      </trkpt>
      <trkpt lat="39.5513260" lon="2.5687150">
        <ele>269.0</ele>
        <time>2020-02-23T11:41:06Z</time>
      </trkpt>
      <trkpt lat="39.5513350" lon="2.5687060">
        <ele>269.1</ele>
        <time>2020-02-23T11:41:09Z</time>
      </trkpt>
      <trkpt lat="39.5513430" lon="2.5686990">
        <ele>269.2</ele>
        <time>2020-02-23T11:41:10Z</time>
      </trkpt>
      <trkpt lat="39.5513530" lon="2.5686790">
        <ele>269.3</ele>
        <time>2020-02-23T11:41:11Z</time>
      </trkpt>
      <trkpt lat="39.5513690" lon="2.5686640">
        <ele>269.4</ele>
        <time>2020-02-23T11:41:12Z</time>
      </trkpt>
      <trkpt lat="39.5513920" lon="2.5686470">
        <ele>269.7</ele>
        <time>2020-02-23T11:41:15Z</time>
      </trkpt>
      <trkpt lat="39.5514240" lon="2.5686490">
        <ele>269.9</ele>
        <time>2020-02-23T11:41:16Z</time>
      </trkpt>
      <trkpt lat="39.5514430" lon="2.5686400">
        <ele>270.1</ele>
        <time>2020-02-23T11:41:18Z</time>
      </trkpt>
      <trkpt lat="39.5514680" lon="2.5686180">
        <ele>270.3</ele>
        <time>2020-02-23T11:41:20Z</time>
      </trkpt>
      <trkpt lat="39.5514790" lon="2.5686070">
        <ele>270.4</ele>
        <time>2020-02-23T11:41:21Z</time>
      </trkpt>
      <trkpt lat="39.5514980" lon="2.5685920">
        <ele>270.6</ele>
        <time>2020-02-23T11:41:23Z</time>
      </trkpt>
      <trkpt lat="39.5515090" lon="2.5685850">
        <ele>270.7</ele>
        <time>2020-02-23T11:41:24Z</time>
      </trkpt>
      <trkpt lat="39.5515190" lon="2.5685790">
        <ele>270.8</ele>
        <time>2020-02-23T11:41:25Z</time>
      </trkpt>
      <trkpt lat="39.5515460" lon="2.5685430">
        <ele>271.1</ele>
        <time>2020-02-23T11:41:28Z</time>
      </trkpt>
      <trkpt lat="39.5515530" lon="2.5685230">
        <ele>271.2</ele>
        <time>2020-02-23T11:41:29Z</time>
      </trkpt>
      <trkpt lat="39.5515810" lon="2.5684860">
        <ele>271.5</ele>
        <time>2020-02-23T11:41:31Z</time>
      </trkpt>
      <trkpt lat="39.5515960" lon="2.5684700">
        <ele>271.6</ele>
        <time>2020-02-23T11:41:32Z</time>
      </trkpt>
      <trkpt lat="39.5516160" lon="2.5684540">
        <ele>271.8</ele>
        <time>2020-02-23T11:41:34Z</time>
      </trkpt>
      <trkpt lat="39.5516490" lon="2.5684280">
        <ele>272.1</ele>
        <time>2020-02-23T11:41:36Z</time>
      </trkpt>
      <trkpt lat="39.5516760" lon="2.5684200">
        <ele>272.4</ele>
        <time>2020-02-23T11:41:39Z</time>
      </trkpt>
      <trkpt lat="39.5516930" lon="2.5684120">
        <ele>272.5</ele>
        <time>2020-02-23T11:41:40Z</time>
      </trkpt>
      <trkpt lat="39.5517470" lon="2.5683980">
        <ele>273.0</ele>
        <time>2020-02-23T11:41:42Z</time>
      </trkpt>
      <trkpt lat="39.5517620" lon="2.5683960">
        <ele>273.1</ele>
        <time>2020-02-23T11:41:43Z</time>
      </trkpt>
      <trkpt lat="39.5517720" lon="2.5683820">
        <ele>273.2</ele>
        <time>2020-02-23T11:41:45Z</time>
      </trkpt>
      <trkpt lat="39.5517840" lon="2.5683730">
        <ele>273.4</ele>
        <time>2020-02-23T11:41:47Z</time>
      </trkpt>
      <trkpt lat="39.5518020" lon="2.5683670">
        <ele>273.5</ele>
        <time>2020-02-23T11:41:49Z</time>
      </trkpt>
      <trkpt lat="39.5518030" lon="2.5683640">
        <ele>273.5</ele>
        <time>2020-02-23T11:41:50Z</time>
      </trkpt>
      <trkpt lat="39.5518390" lon="2.5683150">
        <ele>274.0</ele>
        <time>2020-02-23T11:41:52Z</time>
      </trkpt>
      <trkpt lat="39.5518690" lon="2.5682830">
        <ele>274.4</ele>
        <time>2020-02-23T11:41:55Z</time>
      </trkpt>
      <trkpt lat="39.5518870" lon="2.5682680">
        <ele>274.6</ele>
        <time>2020-02-23T11:41:56Z</time>
      </trkpt>
      <trkpt lat="39.5518950" lon="2.5682560">
        <ele>274.7</ele>
        <time>2020-02-23T11:41:57Z</time>
      </trkpt>
      <trkpt lat="39.5519120" lon="2.5682440">
        <ele>274.9</ele>
        <time>2020-02-23T11:41:58Z</time>
      </trkpt>
      <trkpt lat="39.5519190" lon="2.5682390">
        <ele>275.0</ele>
        <time>2020-02-23T11:41:59Z</time>
      </trkpt>
      <trkpt lat="39.5519300" lon="2.5682190">
        <ele>275.2</ele>
        <time>2020-02-23T11:42:01Z</time>
      </trkpt>
      <trkpt lat="39.5519430" lon="2.5682120">
        <ele>275.3</ele>
        <time>2020-02-23T11:42:02Z</time>
      </trkpt>
      <trkpt lat="39.5519600" lon="2.5681950">
        <ele>275.5</ele>
        <time>2020-02-23T11:42:05Z</time>
      </trkpt>
      <trkpt lat="39.5519850" lon="2.5681840">
        <ele>275.8</ele>
        <time>2020-02-23T11:42:06Z</time>
      </trkpt>
      <trkpt lat="39.5520090" lon="2.5681770">
        <ele>276.1</ele>
        <time>2020-02-23T11:42:08Z</time>
      </trkpt>
      <trkpt lat="39.5520520" lon="2.5681630">
        <ele>276.5</ele>
        <time>2020-02-23T11:42:10Z</time>
      </trkpt>
      <trkpt lat="39.5520650" lon="2.5681580">
        <ele>276.7</ele>
        <time>2020-02-23T11:42:12Z</time>
      </trkpt>
      <trkpt lat="39.5520780" lon="2.5681520">
        <ele>276.8</ele>
        <time>2020-02-23T11:42:13Z</time>
      </trkpt>
      <trkpt lat="39.5521050" lon="2.5681230">
        <ele>277.2</ele>
        <time>2020-02-23T11:42:15Z</time>
      </trkpt>
      <trkpt lat="39.5521530" lon="2.5680290">
        <ele>278.1</ele>
        <time>2020-02-23T11:42:17Z</time>
      </trkpt>
      <trkpt lat="39.5521780" lon="2.5680050">
        <ele>278.5</ele>
        <time>2020-02-23T11:42:18Z</time>
      </trkpt>
      <trkpt lat="39.5522080" lon="2.5679750">
        <ele>279.0</ele>
        <time>2020-02-23T11:42:20Z</time>
      </trkpt>
      <trkpt lat="39.5522150" lon="2.5679640">
        <ele>279.1</ele>
        <time>2020-02-23T11:42:21Z</time>
      </trkpt>
      <trkpt lat="39.5522340" lon="2.5679380">
        <ele>279.5</ele>
        <time>2020-02-23T11:42:22Z</time>
      </trkpt>
      <trkpt lat="39.5522500" lon="2.5679180">
        <ele>279.8</ele>
        <time>2020-02-23T11:42:23Z</time>
      </trkpt>
      <trkpt lat="39.5522680" lon="2.5678980">
        <ele>280.1</ele>
        <time>2020-02-23T11:42:25Z</time>
      </trkpt>
      <trkpt lat="39.5523070" lon="2.5678600">
        <ele>280.8</ele>
        <time>2020-02-23T11:42:27Z</time>
      </trkpt>
      <trkpt lat="39.5523400" lon="2.5678320">
        <ele>281.4</ele>
        <time>2020-02-23T11:42:29Z</time>
      </trkpt>
      <trkpt lat="39.5523640" lon="2.5678130">
        <ele>281.8</ele>
        <time>2020-02-23T11:42:32Z</time>
      </trkpt>
      <trkpt lat="39.5523920" lon="2.5677890">
        <ele>282.3</ele>
        <time>2020-02-23T11:42:34Z</time>
      </trkpt>
      <trkpt lat="39.5524310" lon="2.5677630">
        <ele>282.9</ele>
        <time>2020-02-23T11:42:35Z</time>
      </trkpt>
      <trkpt lat="39.5524640" lon="2.5677330">
        <ele>283.5</ele>
        <time>2020-02-23T11:42:37Z</time>
      </trkpt>
      <trkpt lat="39.5524790" lon="2.5677210">
        <ele>283.8</ele>
        <time>2020-02-23T11:42:38Z</time>
      </trkpt>
      <trkpt lat="39.5525040" lon="2.5676970">
        <ele>284.2</ele>
        <time>2020-02-23T11:42:40Z</time>
      </trkpt>
      <trkpt lat="39.5525950" lon="2.5676010">
        <ele>286.0</ele>
        <time>2020-02-23T11:42:42Z</time>
      </trkpt>
      <trkpt lat="39.5526570" lon="2.5675360">
        <ele>287.3</ele>
        <time>2020-02-23T11:42:44Z</time>
      </trkpt>
      <trkpt lat="39.5527130" lon="2.5674720">
        <ele>288.3</ele>
        <time>2020-02-23T11:42:46Z</time>
      </trkpt>
      <trkpt lat="39.5527570" lon="2.5674240">
        <ele>289.1</ele>
        <time>2020-02-23T11:42:47Z</time>
      </trkpt>
      <trkpt lat="39.5528020" lon="2.5674040">
        <ele>289.7</ele>
        <time>2020-02-23T11:42:49Z</time>
      </trkpt>
      <trkpt lat="39.5528130" lon="2.5673900">
        <ele>289.9</ele>
        <time>2020-02-23T11:42:51Z</time>
      </trkpt>
      <trkpt lat="39.5528240" lon="2.5673760">
        <ele>290.2</ele>
        <time>2020-02-23T11:42:52Z</time>
      </trkpt>
      <trkpt lat="39.5528470" lon="2.5673400">
        <ele>290.6</ele>
        <time>2020-02-23T11:42:53Z</time>
      </trkpt>
      <trkpt lat="39.5528590" lon="2.5673180">
        <ele>290.9</ele>
        <time>2020-02-23T11:42:54Z</time>
      </trkpt>
      <trkpt lat="39.5528810" lon="2.5672940">
        <ele>291.4</ele>
        <time>2020-02-23T11:42:56Z</time>
      </trkpt>
      <trkpt lat="39.5528920" lon="2.5672840">
        <ele>291.5</ele>
        <time>2020-02-23T11:42:58Z</time>
      </trkpt>
      <trkpt lat="39.5529090" lon="2.5672670">
        <ele>291.9</ele>
        <time>2020-02-23T11:42:59Z</time>
      </trkpt>
      <trkpt lat="39.5529410" lon="2.5672350">
        <ele>292.4</ele>
        <time>2020-02-23T11:43:01Z</time>
      </trkpt>
      <trkpt lat="39.5529670" lon="2.5672120">
        <ele>292.9</ele>
        <time>2020-02-23T11:43:02Z</time>
      </trkpt>
      <trkpt lat="39.5529770" lon="2.5672040">
        <ele>293.1</ele>
        <time>2020-02-23T11:43:03Z</time>
      </trkpt>
      <trkpt lat="39.5530100" lon="2.5671800">
        <ele>293.6</ele>
        <time>2020-02-23T11:43:06Z</time>
      </trkpt>
      <trkpt lat="39.5530220" lon="2.5671700">
        <ele>293.8</ele>
        <time>2020-02-23T11:43:07Z</time>
      </trkpt>
      <trkpt lat="39.5530350" lon="2.5671580">
        <ele>294.0</ele>
        <time>2020-02-23T11:43:09Z</time>
      </trkpt>
      <trkpt lat="39.5530480" lon="2.5671460">
        <ele>294.2</ele>
        <time>2020-02-23T11:43:10Z</time>
      </trkpt>
      <trkpt lat="39.5530690" lon="2.5671300">
        <ele>294.5</ele>
        <time>2020-02-23T11:43:11Z</time>
      </trkpt>
      <trkpt lat="39.5530840" lon="2.5671180">
        <ele>294.8</ele>
        <time>2020-02-23T11:43:12Z</time>
      </trkpt>
      <trkpt lat="39.5531060" lon="2.5670970">
        <ele>295.2</ele>
        <time>2020-02-23T11:43:14Z</time>
      </trkpt>
      <trkpt lat="39.5531180" lon="2.5670900">
        <ele>295.3</ele>
        <time>2020-02-23T11:43:16Z</time>
      </trkpt>
      <trkpt lat="39.5531390" lon="2.5670760">
        <ele>295.7</ele>
        <time>2020-02-23T11:43:18Z</time>
      </trkpt>
      <trkpt lat="39.5531610" lon="2.5670460">
        <ele>296.1</ele>
        <time>2020-02-23T11:43:19Z</time>
      </trkpt>
      <trkpt lat="39.5531740" lon="2.5670290">
        <ele>296.4</ele>
        <time>2020-02-23T11:43:20Z</time>
      </trkpt>
      <trkpt lat="39.5532000" lon="2.5670030">
        <ele>296.8</ele>
        <time>2020-02-23T11:43:21Z</time>
      </trkpt>
      <trkpt lat="39.5532150" lon="2.5669870">
        <ele>297.1</ele>
        <time>2020-02-23T11:43:25Z</time>
      </trkpt>
      <trkpt lat="39.5532330" lon="2.5669640">
        <ele>297.4</ele>
        <time>2020-02-23T11:43:26Z</time>
      </trkpt>
      <trkpt lat="39.5532470" lon="2.5669530">
        <ele>297.7</ele>
        <time>2020-02-23T11:43:28Z</time>
      </trkpt>
      <trkpt lat="39.5532720" lon="2.5669420">
        <ele>298.1</ele>
        <time>2020-02-23T11:43:29Z</time>
      </trkpt>
      <trkpt lat="39.5532830" lon="2.5669370">
        <ele>298.3</ele>
        <time>2020-02-23T11:43:30Z</time>
      </trkpt>
      <trkpt lat="39.5533000" lon="2.5669210">
        <ele>298.7</ele>
        <time>2020-02-23T11:43:32Z</time>
      </trkpt>
      <trkpt lat="39.5533250" lon="2.5669000">
        <ele>299.2</ele>
        <time>2020-02-23T11:43:34Z</time>
      </trkpt>
      <trkpt lat="39.5533510" lon="2.5668660">
        <ele>299.9</ele>
        <time>2020-02-23T11:43:35Z</time>
      </trkpt>
      <trkpt lat="39.5533710" lon="2.5668370">
        <ele>300.2</ele>
        <time>2020-02-23T11:43:37Z</time>
      </trkpt>
      <trkpt lat="39.5533820" lon="2.5668230">
        <ele>300.3</ele>
        <time>2020-02-23T11:43:39Z</time>
      </trkpt>
      <trkpt lat="39.5533920" lon="2.5668080">
        <ele>300.5</ele>
        <time>2020-02-23T11:43:40Z</time>
      </trkpt>
      <trkpt lat="39.5534020" lon="2.5667940">
        <ele>300.7</ele>
        <time>2020-02-23T11:43:41Z</time>
      </trkpt>
      <trkpt lat="39.5534470" lon="2.5667940">
        <ele>301.2</ele>
        <time>2020-02-23T11:43:43Z</time>
      </trkpt>
      <trkpt lat="39.5534650" lon="2.5668100">
        <ele>301.5</ele>
        <time>2020-02-23T11:43:44Z</time>
      </trkpt>
      <trkpt lat="39.5534760" lon="2.5668180">
        <ele>301.6</ele>
        <time>2020-02-23T11:43:45Z</time>
      </trkpt>
      <trkpt lat="39.5534830" lon="2.5668070">
        <ele>301.7</ele>
        <time>2020-02-23T11:43:47Z</time>
      </trkpt>
      <trkpt lat="39.5534840" lon="2.5668020">
        <ele>301.8</ele>
        <time>2020-02-23T11:43:49Z</time>
      </trkpt>
      <trkpt lat="39.5534840" lon="2.5668000">
        <ele>301.8</ele>
        <time>2020-02-23T11:43:50Z</time>
      </trkpt>
      <trkpt lat="39.5534840" lon="2.5668000">
        <ele>301.8</ele>
        <time>2020-02-23T11:43:51Z</time>
      </trkpt>
      <trkpt lat="39.5534830" lon="2.5668000">
        <ele>301.8</ele>
        <time>2020-02-23T11:43:53Z</time>
      </trkpt>
      <trkpt lat="39.5534630" lon="2.5668190">
        <ele>302.1</ele>
        <time>2020-02-23T11:43:55Z</time>
      </trkpt>
      <trkpt lat="39.5534480" lon="2.5668330">
        <ele>302.3</ele>
        <time>2020-02-23T11:43:57Z</time>
      </trkpt>
      <trkpt lat="39.5534470" lon="2.5668330">
        <ele>302.3</ele>
        <time>2020-02-23T11:43:58Z</time>
      </trkpt>
      <trkpt lat="39.5534470" lon="2.5668330">
        <ele>302.3</ele>
        <time>2020-02-23T11:44:00Z</time>
      </trkpt>
      <trkpt lat="39.5534480" lon="2.5668330">
        <ele>302.3</ele>
        <time>2020-02-23T11:44:01Z</time>
      </trkpt>
      <trkpt lat="39.5534480" lon="2.5668330">
        <ele>302.3</ele>
        <time>2020-02-23T11:44:03Z</time>
      </trkpt>
      <trkpt lat="39.5534480" lon="2.5668320">
        <ele>302.4</ele>
        <time>2020-02-23T11:44:04Z</time>
      </trkpt>
      <trkpt lat="39.5534480" lon="2.5668320">
        <ele>302.4</ele>
        <time>2020-02-23T11:44:05Z</time>
      </trkpt>
      <trkpt lat="39.5534480" lon="2.5668320">
        <ele>302.4</ele>
        <time>2020-02-23T11:44:06Z</time>
      </trkpt>
      <trkpt lat="39.5534480" lon="2.5668320">
        <ele>302.4</ele>
        <time>2020-02-23T11:44:08Z</time>
      </trkpt>
      <trkpt lat="39.5534480" lon="2.5668320">
        <ele>302.4</ele>
        <time>2020-02-23T11:44:09Z</time>
      </trkpt>
      <trkpt lat="39.5534480" lon="2.5668320">
        <ele>302.4</ele>
        <time>2020-02-23T11:44:11Z</time>
      </trkpt>
      <trkpt lat="39.5534470" lon="2.5668320">
        <ele>302.4</ele>
        <time>2020-02-23T11:44:12Z</time>
      </trkpt>
      <trkpt lat="39.5534460" lon="2.5668330">
        <ele>302.4</ele>
        <time>2020-02-23T11:44:13Z</time>
      </trkpt>
      <trkpt lat="39.5534390" lon="2.5668350">
        <ele>302.5</ele>
        <time>2020-02-23T11:44:15Z</time>
      </trkpt>
      <trkpt lat="39.5534380" lon="2.5668360">
        <ele>302.5</ele>
        <time>2020-02-23T11:44:17Z</time>
      </trkpt>
      <trkpt lat="39.5534390" lon="2.5668370">
        <ele>302.5</ele>
        <time>2020-02-23T11:44:18Z</time>
      </trkpt>
      <trkpt lat="39.5534400" lon="2.5668370">
        <ele>302.5</ele>
        <time>2020-02-23T11:44:19Z</time>
      </trkpt>
      <trkpt lat="39.5534400" lon="2.5668370">
        <ele>302.5</ele>
        <time>2020-02-23T11:44:20Z</time>
      </trkpt>
      <trkpt lat="39.5534400" lon="2.5668370">
        <ele>302.5</ele>
        <time>2020-02-23T11:44:22Z</time>
      </trkpt>
      <trkpt lat="39.5534360" lon="2.5668340">
        <ele>302.6</ele>
        <time>2020-02-23T11:44:23Z</time>
      </trkpt>
      <trkpt lat="39.5534290" lon="2.5668280">
        <ele>302.7</ele>
        <time>2020-02-23T11:44:25Z</time>
      </trkpt>
      <trkpt lat="39.5534240" lon="2.5668300">
        <ele>302.8</ele>
        <time>2020-02-23T11:44:27Z</time>
      </trkpt>
      <trkpt lat="39.5534220" lon="2.5668300">
        <ele>302.8</ele>
        <time>2020-02-23T11:44:29Z</time>
      </trkpt>
      <trkpt lat="39.5534230" lon="2.5668280">
        <ele>302.8</ele>
        <time>2020-02-23T11:44:30Z</time>
      </trkpt>
      <trkpt lat="39.5534240" lon="2.5668270">
        <ele>302.8</ele>
        <time>2020-02-23T11:44:32Z</time>
      </trkpt>
      <trkpt lat="39.5534240" lon="2.5668270">
        <ele>302.8</ele>
        <time>2020-02-23T11:44:33Z</time>
      </trkpt>
      <trkpt lat="39.5534240" lon="2.5668270">
        <ele>302.8</ele>
        <time>2020-02-23T11:44:35Z</time>
      </trkpt>
      <trkpt lat="39.5534240" lon="2.5668270">
        <ele>302.8</ele>
        <time>2020-02-23T11:44:36Z</time>
      </trkpt>
      <trkpt lat="39.5534240" lon="2.5668270">
        <ele>302.8</ele>
        <time>2020-02-23T11:44:37Z</time>
      </trkpt>
      <trkpt lat="39.5534240" lon="2.5668270">
        <ele>302.8</ele>
        <time>2020-02-23T11:44:39Z</time>
      </trkpt>
      <trkpt lat="39.5534240" lon="2.5668270">
        <ele>302.8</ele>
        <time>2020-02-23T11:44:41Z</time>
      </trkpt>
      <trkpt lat="39.5534240" lon="2.5668270">
        <ele>302.8</ele>
        <time>2020-02-23T11:44:42Z</time>
      </trkpt>
      <trkpt lat="39.5534250" lon="2.5668280">
        <ele>302.9</ele>
        <time>2020-02-23T11:44:43Z</time>
      </trkpt>
      <trkpt lat="39.5534250" lon="2.5668290">
        <ele>302.9</ele>
        <time>2020-02-23T11:44:44Z</time>
      </trkpt>
      <trkpt lat="39.5534260" lon="2.5668260">
        <ele>302.9</ele>
        <time>2020-02-23T11:44:45Z</time>
      </trkpt>
      <trkpt lat="39.5534300" lon="2.5668220">
        <ele>302.9</ele>
        <time>2020-02-23T11:44:47Z</time>
      </trkpt>
      <trkpt lat="39.5534360" lon="2.5668230">
        <ele>303.0</ele>
        <time>2020-02-23T11:44:48Z</time>
      </trkpt>
      <trkpt lat="39.5534440" lon="2.5668240">
        <ele>303.1</ele>
        <time>2020-02-23T11:44:50Z</time>
      </trkpt>
      <trkpt lat="39.5534410" lon="2.5668240">
        <ele>303.1</ele>
        <time>2020-02-23T11:44:51Z</time>
      </trkpt>
      <trkpt lat="39.5534560" lon="2.5668200">
        <ele>303.3</ele>
        <time>2020-02-23T11:44:53Z</time>
      </trkpt>
      <trkpt lat="39.5534790" lon="2.5668040">
        <ele>303.6</ele>
        <time>2020-02-23T11:44:55Z</time>
      </trkpt>
      <trkpt lat="39.5535040" lon="2.5667820">
        <ele>303.9</ele>
        <time>2020-02-23T11:44:56Z</time>
      </trkpt>
      <trkpt lat="39.5535130" lon="2.5667730">
        <ele>304.0</ele>
        <time>2020-02-23T11:44:57Z</time>
      </trkpt>
      <trkpt lat="39.5535290" lon="2.5667610">
        <ele>304.3</ele>
        <time>2020-02-23T11:44:58Z</time>
      </trkpt>
      <trkpt lat="39.5535410" lon="2.5667490">
        <ele>304.5</ele>
        <time>2020-02-23T11:44:59Z</time>
      </trkpt>
      <trkpt lat="39.5535530" lon="2.5667290">
        <ele>304.8</ele>
        <time>2020-02-23T11:45:01Z</time>
      </trkpt>
      <trkpt lat="39.5535640" lon="2.5667070">
        <ele>305.1</ele>
        <time>2020-02-23T11:45:03Z</time>
      </trkpt>
      <trkpt lat="39.5535750" lon="2.5666990">
        <ele>305.3</ele>
        <time>2020-02-23T11:45:05Z</time>
      </trkpt>
      <trkpt lat="39.5536200" lon="2.5666790">
        <ele>306.0</ele>
        <time>2020-02-23T11:45:07Z</time>
      </trkpt>
      <trkpt lat="39.5536380" lon="2.5666740">
        <ele>306.2</ele>
        <time>2020-02-23T11:45:09Z</time>
      </trkpt>
      <trkpt lat="39.5536680" lon="2.5666720">
        <ele>306.7</ele>
        <time>2020-02-23T11:45:11Z</time>
      </trkpt>
      <trkpt lat="39.5537010" lon="2.5666700">
        <ele>307.1</ele>
        <time>2020-02-23T11:45:12Z</time>
      </trkpt>
      <trkpt lat="39.5537340" lon="2.5666620">
        <ele>307.7</ele>
        <time>2020-02-23T11:45:14Z</time>
      </trkpt>
      <trkpt lat="39.5537490" lon="2.5666570">
        <ele>308.0</ele>
        <time>2020-02-23T11:45:15Z</time>
      </trkpt>
      <trkpt lat="39.5537660" lon="2.5666520">
        <ele>308.3</ele>
        <time>2020-02-23T11:45:16Z</time>
      </trkpt>
      <trkpt lat="39.5537880" lon="2.5666490">
        <ele>308.6</ele>
        <time>2020-02-23T11:45:19Z</time>
      </trkpt>
      <trkpt lat="39.5538090" lon="2.5666470">
        <ele>308.9</ele>
        <time>2020-02-23T11:45:20Z</time>
      </trkpt>
      <trkpt lat="39.5538210" lon="2.5666460">
        <ele>309.1</ele>
        <time>2020-02-23T11:45:21Z</time>
      </trkpt>
      <trkpt lat="39.5538470" lon="2.5666520">
        <ele>309.5</ele>
        <time>2020-02-23T11:45:23Z</time>
      </trkpt>
      <trkpt lat="39.5538580" lon="2.5666560">
        <ele>309.6</ele>
        <time>2020-02-23T11:45:25Z</time>
      </trkpt>
      <trkpt lat="39.5538680" lon="2.5666610">
        <ele>309.7</ele>
        <time>2020-02-23T11:45:26Z</time>
      </trkpt>
      <trkpt lat="39.5538790" lon="2.5666650">
        <ele>309.9</ele>
        <time>2020-02-23T11:45:27Z</time>
      </trkpt>
      <trkpt lat="39.5538900" lon="2.5666700">
        <ele>310.0</ele>
        <time>2020-02-23T11:45:28Z</time>
      </trkpt>
      <trkpt lat="39.5539040" lon="2.5666770">
        <ele>310.2</ele>
        <time>2020-02-23T11:45:29Z</time>
      </trkpt>
      <trkpt lat="39.5539240" lon="2.5666820">
        <ele>310.5</ele>
        <time>2020-02-23T11:45:31Z</time>
      </trkpt>
      <trkpt lat="39.5539580" lon="2.5667010">
        <ele>310.9</ele>
        <time>2020-02-23T11:45:32Z</time>
      </trkpt>
      <trkpt lat="39.5539850" lon="2.5667150">
        <ele>311.3</ele>
        <time>2020-02-23T11:45:35Z</time>
      </trkpt>
      <trkpt lat="39.5539920" lon="2.5667200">
        <ele>311.4</ele>
        <time>2020-02-23T11:45:36Z</time>
      </trkpt>
      <trkpt lat="39.5540200" lon="2.5667360">
        <ele>311.7</ele>
        <time>2020-02-23T11:45:38Z</time>
      </trkpt>
      <trkpt lat="39.5540320" lon="2.5667450">
        <ele>311.9</ele>
        <time>2020-02-23T11:45:40Z</time>
      </trkpt>
      <trkpt lat="39.5540430" lon="2.5667540">
        <ele>312.0</ele>
        <time>2020-02-23T11:45:41Z</time>
      </trkpt>
      <trkpt lat="39.5540550" lon="2.5667630">
        <ele>312.2</ele>
        <time>2020-02-23T11:45:42Z</time>
      </trkpt>
      <trkpt lat="39.5540940" lon="2.5667840">
        <ele>312.8</ele>
        <time>2020-02-23T11:45:45Z</time>
      </trkpt>
      <trkpt lat="39.5541120" lon="2.5667990">
        <ele>313.1</ele>
        <time>2020-02-23T11:45:47Z</time>
      </trkpt>
      <trkpt lat="39.5541350" lon="2.5668230">
        <ele>313.5</ele>
        <time>2020-02-23T11:45:49Z</time>
      </trkpt>
      <trkpt lat="39.5541500" lon="2.5668370">
        <ele>313.8</ele>
        <time>2020-02-23T11:45:51Z</time>
      </trkpt>
      <trkpt lat="39.5541730" lon="2.5668540">
        <ele>314.1</ele>
        <time>2020-02-23T11:45:53Z</time>
      </trkpt>
      <trkpt lat="39.5541960" lon="2.5668830">
        <ele>314.6</ele>
        <time>2020-02-23T11:45:56Z</time>
      </trkpt>
      <trkpt lat="39.5542010" lon="2.5668930">
        <ele>314.7</ele>
        <time>2020-02-23T11:45:58Z</time>
      </trkpt>
      <trkpt lat="39.5542110" lon="2.5669090">
        <ele>314.9</ele>
        <time>2020-02-23T11:46:00Z</time>
      </trkpt>
      <trkpt lat="39.5542380" lon="2.5669460">
        <ele>315.5</ele>
        <time>2020-02-23T11:46:01Z</time>
      </trkpt>
      <trkpt lat="39.5542490" lon="2.5669600">
        <ele>315.7</ele>
        <time>2020-02-23T11:46:03Z</time>
      </trkpt>
      <trkpt lat="39.5542700" lon="2.5669760">
        <ele>316.0</ele>
        <time>2020-02-23T11:46:05Z</time>
      </trkpt>
      <trkpt lat="39.5542900" lon="2.5669910">
        <ele>316.4</ele>
        <time>2020-02-23T11:46:06Z</time>
      </trkpt>
      <trkpt lat="39.5543040" lon="2.5670040">
        <ele>316.7</ele>
        <time>2020-02-23T11:46:08Z</time>
      </trkpt>
      <trkpt lat="39.5543480" lon="2.5670370">
        <ele>317.5</ele>
        <time>2020-02-23T11:46:10Z</time>
      </trkpt>
      <trkpt lat="39.5543620" lon="2.5670460">
        <ele>317.8</ele>
        <time>2020-02-23T11:46:12Z</time>
      </trkpt>
      <trkpt lat="39.5543760" lon="2.5670560">
        <ele>318.0</ele>
        <time>2020-02-23T11:46:14Z</time>
      </trkpt>
      <trkpt lat="39.5543900" lon="2.5670650">
        <ele>318.3</ele>
        <time>2020-02-23T11:46:15Z</time>
      </trkpt>
      <trkpt lat="39.5544040" lon="2.5670750">
        <ele>318.5</ele>
        <time>2020-02-23T11:46:16Z</time>
      </trkpt>
      <trkpt lat="39.5544180" lon="2.5670860">
        <ele>318.7</ele>
        <time>2020-02-23T11:46:18Z</time>
      </trkpt>
      <trkpt lat="39.5544480" lon="2.5671080">
        <ele>319.2</ele>
        <time>2020-02-23T11:46:20Z</time>
      </trkpt>
      <trkpt lat="39.5544650" lon="2.5671220">
        <ele>319.5</ele>
        <time>2020-02-23T11:46:21Z</time>
      </trkpt>
      <trkpt lat="39.5544870" lon="2.5671440">
        <ele>319.8</ele>
        <time>2020-02-23T11:46:23Z</time>
      </trkpt>
      <trkpt lat="39.5545010" lon="2.5671590">
        <ele>320.0</ele>
        <time>2020-02-23T11:46:25Z</time>
      </trkpt>
      <trkpt lat="39.5545270" lon="2.5671820">
        <ele>320.4</ele>
        <time>2020-02-23T11:46:26Z</time>
      </trkpt>
      <trkpt lat="39.5545470" lon="2.5671940">
        <ele>320.7</ele>
        <time>2020-02-23T11:46:28Z</time>
      </trkpt>
      <trkpt lat="39.5545530" lon="2.5672000">
        <ele>320.8</ele>
        <time>2020-02-23T11:46:30Z</time>
      </trkpt>
      <trkpt lat="39.5545650" lon="2.5672100">
        <ele>321.0</ele>
        <time>2020-02-23T11:46:31Z</time>
      </trkpt>
      <trkpt lat="39.5545750" lon="2.5672220">
        <ele>321.2</ele>
        <time>2020-02-23T11:46:32Z</time>
      </trkpt>
      <trkpt lat="39.5546010" lon="2.5672470">
        <ele>321.7</ele>
        <time>2020-02-23T11:46:33Z</time>
      </trkpt>
      <trkpt lat="39.5546170" lon="2.5672610">
        <ele>322.0</ele>
        <time>2020-02-23T11:46:34Z</time>
      </trkpt>
      <trkpt lat="39.5546330" lon="2.5672690">
        <ele>322.2</ele>
        <time>2020-02-23T11:46:36Z</time>
      </trkpt>
      <trkpt lat="39.5546570" lon="2.5672900">
        <ele>322.6</ele>
        <time>2020-02-23T11:46:38Z</time>
      </trkpt>
      <trkpt lat="39.5546720" lon="2.5673040">
        <ele>322.8</ele>
        <time>2020-02-23T11:46:39Z</time>
      </trkpt>
      <trkpt lat="39.5547050" lon="2.5673250">
        <ele>323.2</ele>
        <time>2020-02-23T11:46:41Z</time>
      </trkpt>
      <trkpt lat="39.5547220" lon="2.5673300">
        <ele>323.3</ele>
        <time>2020-02-23T11:46:43Z</time>
      </trkpt>
      <trkpt lat="39.5547370" lon="2.5673310">
        <ele>323.5</ele>
        <time>2020-02-23T11:46:44Z</time>
      </trkpt>
      <trkpt lat="39.5547510" lon="2.5673340">
        <ele>323.6</ele>
        <time>2020-02-23T11:46:45Z</time>
      </trkpt>
      <trkpt lat="39.5547650" lon="2.5673410">
        <ele>323.8</ele>
        <time>2020-02-23T11:46:46Z</time>
      </trkpt>
      <trkpt lat="39.5547780" lon="2.5673520">
        <ele>324.0</ele>
        <time>2020-02-23T11:46:47Z</time>
      </trkpt>
      <trkpt lat="39.5548160" lon="2.5673850">
        <ele>324.4</ele>
        <time>2020-02-23T11:46:49Z</time>
      </trkpt>
      <trkpt lat="39.5548290" lon="2.5673920">
        <ele>324.6</ele>
        <time>2020-02-23T11:46:50Z</time>
      </trkpt>
      <trkpt lat="39.5548410" lon="2.5673980">
        <ele>324.8</ele>
        <time>2020-02-23T11:46:52Z</time>
      </trkpt>
      <trkpt lat="39.5548540" lon="2.5674050">
        <ele>324.9</ele>
        <time>2020-02-23T11:46:54Z</time>
      </trkpt>
      <trkpt lat="39.5548670" lon="2.5674120">
        <ele>325.1</ele>
        <time>2020-02-23T11:46:55Z</time>
      </trkpt>
      <trkpt lat="39.5548790" lon="2.5674200">
        <ele>325.3</ele>
        <time>2020-02-23T11:46:57Z</time>
      </trkpt>
      <trkpt lat="39.5548940" lon="2.5674350">
        <ele>325.5</ele>
        <time>2020-02-23T11:46:58Z</time>
      </trkpt>
      <trkpt lat="39.5549040" lon="2.5674430">
        <ele>325.7</ele>
        <time>2020-02-23T11:47:00Z</time>
      </trkpt>
      <trkpt lat="39.5549190" lon="2.5674560">
        <ele>325.9</ele>
        <time>2020-02-23T11:47:01Z</time>
      </trkpt>
      <trkpt lat="39.5549290" lon="2.5674670">
        <ele>326.0</ele>
        <time>2020-02-23T11:47:02Z</time>
      </trkpt>
      <trkpt lat="39.5549410" lon="2.5674760">
        <ele>326.2</ele>
        <time>2020-02-23T11:47:03Z</time>
      </trkpt>
      <trkpt lat="39.5549610" lon="2.5674810">
        <ele>326.4</ele>
        <time>2020-02-23T11:47:04Z</time>
      </trkpt>
      <trkpt lat="39.5549730" lon="2.5674880">
        <ele>326.6</ele>
        <time>2020-02-23T11:47:05Z</time>
      </trkpt>
      <trkpt lat="39.5549850" lon="2.5674960">
        <ele>326.8</ele>
        <time>2020-02-23T11:47:07Z</time>
      </trkpt>
      <trkpt lat="39.5549980" lon="2.5675060">
        <ele>327.1</ele>
        <time>2020-02-23T11:47:09Z</time>
      </trkpt>
      <trkpt lat="39.5550110" lon="2.5675140">
        <ele>327.3</ele>
        <time>2020-02-23T11:47:10Z</time>
      </trkpt>
      <trkpt lat="39.5550380" lon="2.5675270">
        <ele>327.8</ele>
        <time>2020-02-23T11:47:11Z</time>
      </trkpt>
      <trkpt lat="39.5550520" lon="2.5675320">
        <ele>328.0</ele>
        <time>2020-02-23T11:47:12Z</time>
      </trkpt>
      <trkpt lat="39.5550650" lon="2.5675360">
        <ele>328.2</ele>
        <time>2020-02-23T11:47:13Z</time>
      </trkpt>
      <trkpt lat="39.5550780" lon="2.5675410">
        <ele>328.5</ele>
        <time>2020-02-23T11:47:14Z</time>
      </trkpt>
      <trkpt lat="39.5550910" lon="2.5675460">
        <ele>328.7</ele>
        <time>2020-02-23T11:47:16Z</time>
      </trkpt>
      <trkpt lat="39.5551190" lon="2.5675560">
        <ele>329.3</ele>
        <time>2020-02-23T11:47:18Z</time>
      </trkpt>
      <trkpt lat="39.5551320" lon="2.5675600">
        <ele>329.5</ele>
        <time>2020-02-23T11:47:19Z</time>
      </trkpt>
      <trkpt lat="39.5551700" lon="2.5675690">
        <ele>330.1</ele>
        <time>2020-02-23T11:47:21Z</time>
      </trkpt>
      <trkpt lat="39.5551840" lon="2.5675710">
        <ele>330.3</ele>
        <time>2020-02-23T11:47:23Z</time>
      </trkpt>
      <trkpt lat="39.5552000" lon="2.5675750">
        <ele>330.5</ele>
        <time>2020-02-23T11:47:24Z</time>
      </trkpt>
      <trkpt lat="39.5552160" lon="2.5675770">
        <ele>330.7</ele>
        <time>2020-02-23T11:47:25Z</time>
      </trkpt>
      <trkpt lat="39.5552310" lon="2.5675790">
        <ele>331.0</ele>
        <time>2020-02-23T11:47:27Z</time>
      </trkpt>
      <trkpt lat="39.5552580" lon="2.5675870">
        <ele>331.4</ele>
        <time>2020-02-23T11:47:28Z</time>
      </trkpt>
      <trkpt lat="39.5552720" lon="2.5675930">
        <ele>331.7</ele>
        <time>2020-02-23T11:47:29Z</time>
      </trkpt>
      <trkpt lat="39.5552860" lon="2.5675990">
        <ele>331.9</ele>
        <time>2020-02-23T11:47:30Z</time>
      </trkpt>
      <trkpt lat="39.5553170" lon="2.5676060">
        <ele>332.3</ele>
        <time>2020-02-23T11:47:31Z</time>
      </trkpt>
      <trkpt lat="39.5553340" lon="2.5676090">
        <ele>332.5</ele>
        <time>2020-02-23T11:47:34Z</time>
      </trkpt>
      <trkpt lat="39.5553500" lon="2.5676120">
        <ele>332.7</ele>
        <time>2020-02-23T11:47:35Z</time>
      </trkpt>
      <trkpt lat="39.5553670" lon="2.5676150">
        <ele>332.9</ele>
        <time>2020-02-23T11:47:36Z</time>
      </trkpt>
      <trkpt lat="39.5553830" lon="2.5676190">
        <ele>333.1</ele>
        <time>2020-02-23T11:47:37Z</time>
      </trkpt>
      <trkpt lat="39.5553970" lon="2.5676230">
        <ele>333.4</ele>
        <time>2020-02-23T11:47:39Z</time>
      </trkpt>
      <trkpt lat="39.5554180" lon="2.5676300">
        <ele>333.7</ele>
        <time>2020-02-23T11:47:41Z</time>
      </trkpt>
      <trkpt lat="39.5554380" lon="2.5676380">
        <ele>334.0</ele>
        <time>2020-02-23T11:47:43Z</time>
      </trkpt>
      <trkpt lat="39.5554590" lon="2.5676430">
        <ele>334.3</ele>
        <time>2020-02-23T11:47:44Z</time>
      </trkpt>
      <trkpt lat="39.5554830" lon="2.5676530">
        <ele>334.7</ele>
        <time>2020-02-23T11:47:46Z</time>
      </trkpt>
      <trkpt lat="39.5554950" lon="2.5676550">
        <ele>334.9</ele>
        <time>2020-02-23T11:47:47Z</time>
      </trkpt>
      <trkpt lat="39.5555040" lon="2.5676600">
        <ele>335.0</ele>
        <time>2020-02-23T11:47:48Z</time>
      </trkpt>
      <trkpt lat="39.5555190" lon="2.5676660">
        <ele>335.3</ele>
        <time>2020-02-23T11:47:50Z</time>
      </trkpt>
      <trkpt lat="39.5555570" lon="2.5676700">
        <ele>335.9</ele>
        <time>2020-02-23T11:47:52Z</time>
      </trkpt>
      <trkpt lat="39.5555920" lon="2.5676670">
        <ele>336.5</ele>
        <time>2020-02-23T11:47:55Z</time>
      </trkpt>
      <trkpt lat="39.5556070" lon="2.5676660">
        <ele>336.6</ele>
        <time>2020-02-23T11:47:56Z</time>
      </trkpt>
      <trkpt lat="39.5556210" lon="2.5676660">
        <ele>336.8</ele>
        <time>2020-02-23T11:47:57Z</time>
      </trkpt>
      <trkpt lat="39.5556380" lon="2.5676680">
        <ele>337.0</ele>
        <time>2020-02-23T11:47:59Z</time>
      </trkpt>
      <trkpt lat="39.5556640" lon="2.5676750">
        <ele>337.3</ele>
        <time>2020-02-23T11:48:00Z</time>
      </trkpt>
      <trkpt lat="39.5556760" lon="2.5676770">
        <ele>337.4</ele>
        <time>2020-02-23T11:48:01Z</time>
      </trkpt>
      <trkpt lat="39.5556880" lon="2.5676800">
        <ele>337.5</ele>
        <time>2020-02-23T11:48:02Z</time>
      </trkpt>
      <trkpt lat="39.5556990" lon="2.5676840">
        <ele>337.7</ele>
        <time>2020-02-23T11:48:04Z</time>
      </trkpt>
      <trkpt lat="39.5557120" lon="2.5676890">
        <ele>337.8</ele>
        <time>2020-02-23T11:48:05Z</time>
      </trkpt>
      <trkpt lat="39.5557270" lon="2.5676910">
        <ele>338.1</ele>
        <time>2020-02-23T11:48:07Z</time>
      </trkpt>
      <trkpt lat="39.5557570" lon="2.5676990">
        <ele>338.6</ele>
        <time>2020-02-23T11:48:08Z</time>
      </trkpt>
      <trkpt lat="39.5557870" lon="2.5677060">
        <ele>339.0</ele>
        <time>2020-02-23T11:48:11Z</time>
      </trkpt>
      <trkpt lat="39.5557970" lon="2.5677080">
        <ele>339.1</ele>
        <time>2020-02-23T11:48:12Z</time>
      </trkpt>
      <trkpt lat="39.5558180" lon="2.5677150">
        <ele>339.3</ele>
        <time>2020-02-23T11:48:13Z</time>
      </trkpt>
      <trkpt lat="39.5558350" lon="2.5677200">
        <ele>339.5</ele>
        <time>2020-02-23T11:48:15Z</time>
      </trkpt>
      <trkpt lat="39.5558720" lon="2.5677330">
        <ele>339.9</ele>
        <time>2020-02-23T11:48:17Z</time>
      </trkpt>
      <trkpt lat="39.5558890" lon="2.5677370">
        <ele>340.2</ele>
        <time>2020-02-23T11:48:18Z</time>
      </trkpt>
      <trkpt lat="39.5559050" lon="2.5677400">
        <ele>340.4</ele>
        <time>2020-02-23T11:48:20Z</time>
      </trkpt>
      <trkpt lat="39.5559290" lon="2.5677430">
        <ele>340.8</ele>
        <time>2020-02-23T11:48:21Z</time>
      </trkpt>
      <trkpt lat="39.5559470" lon="2.5677440">
        <ele>341.1</ele>
        <time>2020-02-23T11:48:23Z</time>
      </trkpt>
      <trkpt lat="39.5559820" lon="2.5677460">
        <ele>341.6</ele>
        <time>2020-02-23T11:48:25Z</time>
      </trkpt>
      <trkpt lat="39.5560190" lon="2.5677510">
        <ele>342.2</ele>
        <time>2020-02-23T11:48:27Z</time>
      </trkpt>
      <trkpt lat="39.5560330" lon="2.5677520">
        <ele>342.4</ele>
        <time>2020-02-23T11:48:29Z</time>
      </trkpt>
      <trkpt lat="39.5560480" lon="2.5677500">
        <ele>342.6</ele>
        <time>2020-02-23T11:48:30Z</time>
      </trkpt>
      <trkpt lat="39.5560760" lon="2.5677420">
        <ele>342.9</ele>
        <time>2020-02-23T11:48:31Z</time>
      </trkpt>
      <trkpt lat="39.5560900" lon="2.5677360">
        <ele>343.1</ele>
        <time>2020-02-23T11:48:33Z</time>
      </trkpt>
      <trkpt lat="39.5561030" lon="2.5677310">
        <ele>343.2</ele>
        <time>2020-02-23T11:48:34Z</time>
      </trkpt>
      <trkpt lat="39.5561160" lon="2.5677250">
        <ele>343.4</ele>
        <time>2020-02-23T11:48:35Z</time>
      </trkpt>
      <trkpt lat="39.5561380" lon="2.5677060">
        <ele>343.7</ele>
        <time>2020-02-23T11:48:37Z</time>
      </trkpt>
      <trkpt lat="39.5561480" lon="2.5676970">
        <ele>343.8</ele>
        <time>2020-02-23T11:48:38Z</time>
      </trkpt>
      <trkpt lat="39.5561580" lon="2.5676880">
        <ele>344.0</ele>
        <time>2020-02-23T11:48:39Z</time>
      </trkpt>
      <trkpt lat="39.5561900" lon="2.5676660">
        <ele>344.5</ele>
        <time>2020-02-23T11:48:42Z</time>
      </trkpt>
      <trkpt lat="39.5561990" lon="2.5676600">
        <ele>344.6</ele>
        <time>2020-02-23T11:48:43Z</time>
      </trkpt>
      <trkpt lat="39.5562300" lon="2.5676400">
        <ele>345.1</ele>
        <time>2020-02-23T11:48:45Z</time>
      </trkpt>
      <trkpt lat="39.5562480" lon="2.5676230">
        <ele>345.4</ele>
        <time>2020-02-23T11:48:46Z</time>
      </trkpt>
      <trkpt lat="39.5562830" lon="2.5676070">
        <ele>345.7</ele>
        <time>2020-02-23T11:48:49Z</time>
      </trkpt>
      <trkpt lat="39.5563020" lon="2.5675970">
        <ele>345.9</ele>
        <time>2020-02-23T11:48:51Z</time>
      </trkpt>
      <trkpt lat="39.5563340" lon="2.5675890">
        <ele>346.2</ele>
        <time>2020-02-23T11:48:53Z</time>
      </trkpt>
      <trkpt lat="39.5563410" lon="2.5675880">
        <ele>346.2</ele>
        <time>2020-02-23T11:48:54Z</time>
      </trkpt>
      <trkpt lat="39.5563610" lon="2.5675840">
        <ele>346.4</ele>
        <time>2020-02-23T11:48:57Z</time>
      </trkpt>
      <trkpt lat="39.5563780" lon="2.5675760">
        <ele>346.6</ele>
        <time>2020-02-23T11:48:59Z</time>
      </trkpt>
      <trkpt lat="39.5563890" lon="2.5675690">
        <ele>346.7</ele>
        <time>2020-02-23T11:49:00Z</time>
      </trkpt>
      <trkpt lat="39.5564050" lon="2.5675580">
        <ele>346.9</ele>
        <time>2020-02-23T11:49:01Z</time>
      </trkpt>
      <trkpt lat="39.5564160" lon="2.5675500">
        <ele>347.1</ele>
        <time>2020-02-23T11:49:02Z</time>
      </trkpt>
      <trkpt lat="39.5564370" lon="2.5675430">
        <ele>347.4</ele>
        <time>2020-02-23T11:49:03Z</time>
      </trkpt>
      <trkpt lat="39.5564710" lon="2.5675290">
        <ele>347.8</ele>
        <time>2020-02-23T11:49:05Z</time>
      </trkpt>
      <trkpt lat="39.5564820" lon="2.5675220">
        <ele>348.0</ele>
        <time>2020-02-23T11:49:07Z</time>
      </trkpt>
      <trkpt lat="39.5564940" lon="2.5675150">
        <ele>348.2</ele>
        <time>2020-02-23T11:49:08Z</time>
      </trkpt>
      <trkpt lat="39.5565050" lon="2.5675080">
        <ele>348.3</ele>
        <time>2020-02-23T11:49:09Z</time>
      </trkpt>
      <trkpt lat="39.5565300" lon="2.5674940">
        <ele>348.7</ele>
        <time>2020-02-23T11:49:11Z</time>
      </trkpt>
      <trkpt lat="39.5565430" lon="2.5674870">
        <ele>348.8</ele>
        <time>2020-02-23T11:49:13Z</time>
      </trkpt>
      <trkpt lat="39.5565550" lon="2.5674800">
        <ele>349.0</ele>
        <time>2020-02-23T11:49:14Z</time>
      </trkpt>
      <trkpt lat="39.5565680" lon="2.5674730">
        <ele>349.3</ele>
        <time>2020-02-23T11:49:15Z</time>
      </trkpt>
      <trkpt lat="39.5565800" lon="2.5674660">
        <ele>349.5</ele>
        <time>2020-02-23T11:49:16Z</time>
      </trkpt>
      <trkpt lat="39.5566130" lon="2.5674330">
        <ele>350.1</ele>
        <time>2020-02-23T11:49:18Z</time>
      </trkpt>
      <trkpt lat="39.5566290" lon="2.5674100">
        <ele>350.5</ele>
        <time>2020-02-23T11:49:20Z</time>
      </trkpt>
      <trkpt lat="39.5566520" lon="2.5673820">
        <ele>350.8</ele>
        <time>2020-02-23T11:49:22Z</time>
      </trkpt>
      <trkpt lat="39.5566620" lon="2.5673680">
        <ele>351.0</ele>
        <time>2020-02-23T11:49:23Z</time>
      </trkpt>
      <trkpt lat="39.5566860" lon="2.5673340">
        <ele>351.4</ele>
        <time>2020-02-23T11:49:26Z</time>
      </trkpt>
      <trkpt lat="39.5566990" lon="2.5673130">
        <ele>351.6</ele>
        <time>2020-02-23T11:49:28Z</time>
      </trkpt>
      <trkpt lat="39.5567100" lon="2.5673010">
        <ele>351.8</ele>
        <time>2020-02-23T11:49:30Z</time>
      </trkpt>
      <trkpt lat="39.5567270" lon="2.5672750">
        <ele>352.1</ele>
        <time>2020-02-23T11:49:31Z</time>
      </trkpt>
      <trkpt lat="39.5567350" lon="2.5672570">
        <ele>352.3</ele>
        <time>2020-02-23T11:49:33Z</time>
      </trkpt>
      <trkpt lat="39.5567480" lon="2.5672440">
        <ele>352.4</ele>
        <time>2020-02-23T11:49:35Z</time>
      </trkpt>
      <trkpt lat="39.5567580" lon="2.5672310">
        <ele>352.6</ele>
        <time>2020-02-23T11:49:36Z</time>
      </trkpt>
      <trkpt lat="39.5567810" lon="2.5671870">
        <ele>352.9</ele>
        <time>2020-02-23T11:49:38Z</time>
      </trkpt>
      <trkpt lat="39.5567890" lon="2.5671730">
        <ele>353.1</ele>
        <time>2020-02-23T11:49:39Z</time>
      </trkpt>
      <trkpt lat="39.5567970" lon="2.5671580">
        <ele>353.2</ele>
        <time>2020-02-23T11:49:40Z</time>
      </trkpt>
      <trkpt lat="39.5568040" lon="2.5671430">
        <ele>353.3</ele>
        <time>2020-02-23T11:49:43Z</time>
      </trkpt>
      <trkpt lat="39.5568120" lon="2.5671290">
        <ele>353.4</ele>
        <time>2020-02-23T11:49:44Z</time>
      </trkpt>
      <trkpt lat="39.5568200" lon="2.5671140">
        <ele>353.6</ele>
        <time>2020-02-23T11:49:45Z</time>
      </trkpt>
      <trkpt lat="39.5568360" lon="2.5670830">
        <ele>353.9</ele>
        <time>2020-02-23T11:49:47Z</time>
      </trkpt>
      <trkpt lat="39.5568440" lon="2.5670700">
        <ele>354.0</ele>
        <time>2020-02-23T11:49:48Z</time>
      </trkpt>
      <trkpt lat="39.5568570" lon="2.5670540">
        <ele>354.3</ele>
        <time>2020-02-23T11:49:50Z</time>
      </trkpt>
      <trkpt lat="39.5568700" lon="2.5670390">
        <ele>354.5</ele>
        <time>2020-02-23T11:49:51Z</time>
      </trkpt>
      <trkpt lat="39.5568940" lon="2.5670090">
        <ele>354.9</ele>
        <time>2020-02-23T11:49:52Z</time>
      </trkpt>
      <trkpt lat="39.5569100" lon="2.5669870">
        <ele>355.2</ele>
        <time>2020-02-23T11:49:54Z</time>
      </trkpt>
      <trkpt lat="39.5569190" lon="2.5669740">
        <ele>355.3</ele>
        <time>2020-02-23T11:49:56Z</time>
      </trkpt>
      <trkpt lat="39.5569420" lon="2.5669490">
        <ele>355.6</ele>
        <time>2020-02-23T11:49:57Z</time>
      </trkpt>
      <trkpt lat="39.5569690" lon="2.5669310">
        <ele>356.0</ele>
        <time>2020-02-23T11:49:58Z</time>
      </trkpt>
      <trkpt lat="39.5569820" lon="2.5669220">
        <ele>356.1</ele>
        <time>2020-02-23T11:50:00Z</time>
      </trkpt>
      <trkpt lat="39.5569960" lon="2.5669130">
        <ele>356.3</ele>
        <time>2020-02-23T11:50:01Z</time>
      </trkpt>
      <trkpt lat="39.5570100" lon="2.5669040">
        <ele>356.5</ele>
        <time>2020-02-23T11:50:03Z</time>
      </trkpt>
      <trkpt lat="39.5570230" lon="2.5668950">
        <ele>356.7</ele>
        <time>2020-02-23T11:50:04Z</time>
      </trkpt>
      <trkpt lat="39.5570370" lon="2.5668860">
        <ele>356.8</ele>
        <time>2020-02-23T11:50:05Z</time>
      </trkpt>
      <trkpt lat="39.5570480" lon="2.5668800">
        <ele>357.0</ele>
        <time>2020-02-23T11:50:06Z</time>
      </trkpt>
      <trkpt lat="39.5570630" lon="2.5668750">
        <ele>357.1</ele>
        <time>2020-02-23T11:50:08Z</time>
      </trkpt>
      <trkpt lat="39.5570760" lon="2.5668700">
        <ele>357.3</ele>
        <time>2020-02-23T11:50:10Z</time>
      </trkpt>
      <trkpt lat="39.5570960" lon="2.5668590">
        <ele>357.5</ele>
        <time>2020-02-23T11:50:12Z</time>
      </trkpt>
      <trkpt lat="39.5571120" lon="2.5668500">
        <ele>357.7</ele>
        <time>2020-02-23T11:50:13Z</time>
      </trkpt>
      <trkpt lat="39.5571490" lon="2.5668430">
        <ele>358.1</ele>
        <time>2020-02-23T11:50:15Z</time>
      </trkpt>
      <trkpt lat="39.5571760" lon="2.5668390">
        <ele>358.4</ele>
        <time>2020-02-23T11:50:18Z</time>
      </trkpt>
      <trkpt lat="39.5571950" lon="2.5668290">
        <ele>358.6</ele>
        <time>2020-02-23T11:50:19Z</time>
      </trkpt>
      <trkpt lat="39.5572200" lon="2.5668170">
        <ele>359.0</ele>
        <time>2020-02-23T11:50:21Z</time>
      </trkpt>
      <trkpt lat="39.5572290" lon="2.5668100">
        <ele>359.1</ele>
        <time>2020-02-23T11:50:22Z</time>
      </trkpt>
      <trkpt lat="39.5572420" lon="2.5668000">
        <ele>359.2</ele>
        <time>2020-02-23T11:50:23Z</time>
      </trkpt>
      <trkpt lat="39.5572630" lon="2.5667820">
        <ele>359.5</ele>
        <time>2020-02-23T11:50:25Z</time>
      </trkpt>
      <trkpt lat="39.5572780" lon="2.5667700">
        <ele>359.7</ele>
        <time>2020-02-23T11:50:26Z</time>
      </trkpt>
      <trkpt lat="39.5573020" lon="2.5667530">
        <ele>360.0</ele>
        <time>2020-02-23T11:50:28Z</time>
      </trkpt>
      <trkpt lat="39.5573150" lon="2.5667360">
        <ele>360.2</ele>
        <time>2020-02-23T11:50:29Z</time>
      </trkpt>
      <trkpt lat="39.5573270" lon="2.5667190">
        <ele>360.3</ele>
        <time>2020-02-23T11:50:30Z</time>
      </trkpt>
      <trkpt lat="39.5573380" lon="2.5667020">
        <ele>360.5</ele>
        <time>2020-02-23T11:50:32Z</time>
      </trkpt>
      <trkpt lat="39.5573480" lon="2.5666810">
        <ele>360.7</ele>
        <time>2020-02-23T11:50:34Z</time>
      </trkpt>
      <trkpt lat="39.5573690" lon="2.5666450">
        <ele>361.0</ele>
        <time>2020-02-23T11:50:35Z</time>
      </trkpt>
      <trkpt lat="39.5573740" lon="2.5666350">
        <ele>361.1</ele>
        <time>2020-02-23T11:50:36Z</time>
      </trkpt>
      <trkpt lat="39.5573910" lon="2.5666070">
        <ele>361.4</ele>
        <time>2020-02-23T11:50:37Z</time>
      </trkpt>
      <trkpt lat="39.5574120" lon="2.5665800">
        <ele>361.7</ele>
        <time>2020-02-23T11:50:39Z</time>
      </trkpt>
      <trkpt lat="39.5574190" lon="2.5665700">
        <ele>361.8</ele>
        <time>2020-02-23T11:50:40Z</time>
      </trkpt>
      <trkpt lat="39.5574310" lon="2.5665560">
        <ele>362.0</ele>
        <time>2020-02-23T11:50:41Z</time>
      </trkpt>
      <trkpt lat="39.5574560" lon="2.5665260">
        <ele>362.4</ele>
        <time>2020-02-23T11:50:43Z</time>
      </trkpt>
      <trkpt lat="39.5574890" lon="2.5665040">
        <ele>362.7</ele>
        <time>2020-02-23T11:50:46Z</time>
      </trkpt>
      <trkpt lat="39.5575290" lon="2.5664720">
        <ele>363.1</ele>
        <time>2020-02-23T11:50:49Z</time>
      </trkpt>
      <trkpt lat="39.5575420" lon="2.5664590">
        <ele>363.3</ele>
        <time>2020-02-23T11:50:51Z</time>
      </trkpt>
      <trkpt lat="39.5575780" lon="2.5664360">
        <ele>363.7</ele>
        <time>2020-02-23T11:50:53Z</time>
      </trkpt>
      <trkpt lat="39.5575940" lon="2.5664260">
        <ele>363.9</ele>
        <time>2020-02-23T11:50:54Z</time>
      </trkpt>
      <trkpt lat="39.5576100" lon="2.5664160">
        <ele>364.2</ele>
        <time>2020-02-23T11:50:56Z</time>
      </trkpt>
      <trkpt lat="39.5576270" lon="2.5664060">
        <ele>364.4</ele>
        <time>2020-02-23T11:50:57Z</time>
      </trkpt>
      <trkpt lat="39.5576530" lon="2.5663950">
        <ele>364.7</ele>
        <time>2020-02-23T11:50:59Z</time>
      </trkpt>
      <trkpt lat="39.5577120" lon="2.5663750">
        <ele>365.3</ele>
        <time>2020-02-23T11:51:02Z</time>
      </trkpt>
      <trkpt lat="39.5577230" lon="2.5663710">
        <ele>365.4</ele>
        <time>2020-02-23T11:51:03Z</time>
      </trkpt>
      <trkpt lat="39.5577490" lon="2.5663620">
        <ele>365.6</ele>
        <time>2020-02-23T11:51:06Z</time>
      </trkpt>
      <trkpt lat="39.5577900" lon="2.5663420">
        <ele>365.9</ele>
        <time>2020-02-23T11:51:08Z</time>
      </trkpt>
      <trkpt lat="39.5578060" lon="2.5663390">
        <ele>366.0</ele>
        <time>2020-02-23T11:51:10Z</time>
      </trkpt>
      <trkpt lat="39.5578370" lon="2.5663310">
        <ele>366.2</ele>
        <time>2020-02-23T11:51:11Z</time>
      </trkpt>
      <trkpt lat="39.5578520" lon="2.5663240">
        <ele>366.3</ele>
        <time>2020-02-23T11:51:12Z</time>
      </trkpt>
      <trkpt lat="39.5578810" lon="2.5663170">
        <ele>366.5</ele>
        <time>2020-02-23T11:51:13Z</time>
      </trkpt>
      <trkpt lat="39.5578960" lon="2.5663140">
        <ele>366.7</ele>
        <time>2020-02-23T11:51:15Z</time>
      </trkpt>
      <trkpt lat="39.5579120" lon="2.5663110">
        <ele>366.8</ele>
        <time>2020-02-23T11:51:17Z</time>
      </trkpt>
      <trkpt lat="39.5579270" lon="2.5663080">
        <ele>366.9</ele>
        <time>2020-02-23T11:51:18Z</time>
      </trkpt>
      <trkpt lat="39.5579510" lon="2.5663080">
        <ele>367.1</ele>
        <time>2020-02-23T11:51:20Z</time>
      </trkpt>
      <trkpt lat="39.5579660" lon="2.5663070">
        <ele>367.2</ele>
        <time>2020-02-23T11:51:22Z</time>
      </trkpt>
      <trkpt lat="39.5579970" lon="2.5662970">
        <ele>367.4</ele>
        <time>2020-02-23T11:51:23Z</time>
      </trkpt>
      <trkpt lat="39.5580150" lon="2.5662970">
        <ele>367.5</ele>
        <time>2020-02-23T11:51:24Z</time>
      </trkpt>
      <trkpt lat="39.5580410" lon="2.5662960">
        <ele>367.7</ele>
        <time>2020-02-23T11:51:26Z</time>
      </trkpt>
      <trkpt lat="39.5580650" lon="2.5662910">
        <ele>367.8</ele>
        <time>2020-02-23T11:51:28Z</time>
      </trkpt>
      <trkpt lat="39.5580710" lon="2.5662900">
        <ele>367.9</ele>
        <time>2020-02-23T11:51:29Z</time>
      </trkpt>
      <trkpt lat="39.5581140" lon="2.5662930">
        <ele>368.2</ele>
        <time>2020-02-23T11:51:31Z</time>
      </trkpt>
      <trkpt lat="39.5581330" lon="2.5662950">
        <ele>368.3</ele>
        <time>2020-02-23T11:51:33Z</time>
      </trkpt>
      <trkpt lat="39.5581590" lon="2.5662990">
        <ele>368.6</ele>
        <time>2020-02-23T11:51:35Z</time>
      </trkpt>
      <trkpt lat="39.5581800" lon="2.5663060">
        <ele>368.8</ele>
        <time>2020-02-23T11:51:36Z</time>
      </trkpt>
      <trkpt lat="39.5582180" lon="2.5663110">
        <ele>369.1</ele>
        <time>2020-02-23T11:51:38Z</time>
      </trkpt>
      <trkpt lat="39.5582350" lon="2.5663160">
        <ele>369.3</ele>
        <time>2020-02-23T11:51:41Z</time>
      </trkpt>
      <trkpt lat="39.5582780" lon="2.5663490">
        <ele>369.8</ele>
        <time>2020-02-23T11:51:43Z</time>
      </trkpt>
      <trkpt lat="39.5582910" lon="2.5663620">
        <ele>369.9</ele>
        <time>2020-02-23T11:51:44Z</time>
      </trkpt>
      <trkpt lat="39.5583070" lon="2.5663860">
        <ele>370.1</ele>
        <time>2020-02-23T11:51:46Z</time>
      </trkpt>
      <trkpt lat="39.5583160" lon="2.5664140">
        <ele>370.3</ele>
        <time>2020-02-23T11:51:48Z</time>
      </trkpt>
      <trkpt lat="39.5583180" lon="2.5664280">
        <ele>370.4</ele>
        <time>2020-02-23T11:51:49Z</time>
      </trkpt>
      <trkpt lat="39.5583200" lon="2.5664450">
        <ele>370.6</ele>
        <time>2020-02-23T11:51:50Z</time>
      </trkpt>
      <trkpt lat="39.5583170" lon="2.5664830">
        <ele>370.8</ele>
        <time>2020-02-23T11:51:52Z</time>
      </trkpt>
      <trkpt lat="39.5583110" lon="2.5665050">
        <ele>370.9</ele>
        <time>2020-02-23T11:51:53Z</time>
      </trkpt>
      <trkpt lat="39.5582980" lon="2.5665320">
        <ele>371.1</ele>
        <time>2020-02-23T11:51:55Z</time>
      </trkpt>
      <trkpt lat="39.5582880" lon="2.5665460">
        <ele>371.2</ele>
        <time>2020-02-23T11:51:57Z</time>
      </trkpt>
      <trkpt lat="39.5582640" lon="2.5665810">
        <ele>371.5</ele>
        <time>2020-02-23T11:51:58Z</time>
      </trkpt>
      <trkpt lat="39.5582570" lon="2.5665910">
        <ele>371.6</ele>
        <time>2020-02-23T11:51:59Z</time>
      </trkpt>
      <trkpt lat="39.5582400" lon="2.5666220">
        <ele>371.9</ele>
        <time>2020-02-23T11:52:02Z</time>
      </trkpt>
      <trkpt lat="39.5582120" lon="2.5666460">
        <ele>372.2</ele>
        <time>2020-02-23T11:52:05Z</time>
      </trkpt>
      <trkpt lat="39.5582040" lon="2.5666590">
        <ele>372.4</ele>
        <time>2020-02-23T11:52:08Z</time>
      </trkpt>
      <trkpt lat="39.5581840" lon="2.5666960">
        <ele>372.6</ele>
        <time>2020-02-23T11:52:09Z</time>
      </trkpt>
      <trkpt lat="39.5581750" lon="2.5667200">
        <ele>372.7</ele>
        <time>2020-02-23T11:52:11Z</time>
      </trkpt>
      <trkpt lat="39.5581570" lon="2.5667620">
        <ele>372.9</ele>
        <time>2020-02-23T11:52:14Z</time>
      </trkpt>
      <trkpt lat="39.5581480" lon="2.5667780">
        <ele>373.0</ele>
        <time>2020-02-23T11:52:15Z</time>
      </trkpt>
      <trkpt lat="39.5581400" lon="2.5667920">
        <ele>373.1</ele>
        <time>2020-02-23T11:52:16Z</time>
      </trkpt>
      <trkpt lat="39.5581230" lon="2.5668380">
        <ele>373.4</ele>
        <time>2020-02-23T11:52:19Z</time>
      </trkpt>
      <trkpt lat="39.5581140" lon="2.5668640">
        <ele>373.5</ele>
        <time>2020-02-23T11:52:20Z</time>
      </trkpt>
      <trkpt lat="39.5581080" lon="2.5668990">
        <ele>373.7</ele>
        <time>2020-02-23T11:52:23Z</time>
      </trkpt>
      <trkpt lat="39.5581060" lon="2.5669110">
        <ele>373.7</ele>
        <time>2020-02-23T11:52:24Z</time>
      </trkpt>
      <trkpt lat="39.5580960" lon="2.5669590">
        <ele>374.0</ele>
        <time>2020-02-23T11:52:25Z</time>
      </trkpt>
      <trkpt lat="39.5580910" lon="2.5669950">
        <ele>374.1</ele>
        <time>2020-02-23T11:52:26Z</time>
      </trkpt>
      <trkpt lat="39.5580890" lon="2.5670080">
        <ele>374.2</ele>
        <time>2020-02-23T11:52:27Z</time>
      </trkpt>
      <trkpt lat="39.5580870" lon="2.5670430">
        <ele>374.4</ele>
        <time>2020-02-23T11:52:28Z</time>
      </trkpt>
      <trkpt lat="39.5580870" lon="2.5670550">
        <ele>374.4</ele>
        <time>2020-02-23T11:52:29Z</time>
      </trkpt>
      <trkpt lat="39.5580890" lon="2.5670800">
        <ele>374.5</ele>
        <time>2020-02-23T11:52:30Z</time>
      </trkpt>
      <trkpt lat="39.5580900" lon="2.5671270">
        <ele>374.8</ele>
        <time>2020-02-23T11:52:33Z</time>
      </trkpt>
      <trkpt lat="39.5581050" lon="2.5671920">
        <ele>375.1</ele>
        <time>2020-02-23T11:52:36Z</time>
      </trkpt>
      <trkpt lat="39.5581130" lon="2.5672150">
        <ele>375.2</ele>
        <time>2020-02-23T11:52:37Z</time>
      </trkpt>
      <trkpt lat="39.5581320" lon="2.5672660">
        <ele>375.5</ele>
        <time>2020-02-23T11:52:40Z</time>
      </trkpt>
      <trkpt lat="39.5581430" lon="2.5672990">
        <ele>375.6</ele>
        <time>2020-02-23T11:52:42Z</time>
      </trkpt>
      <trkpt lat="39.5581490" lon="2.5673180">
        <ele>375.7</ele>
        <time>2020-02-23T11:52:43Z</time>
      </trkpt>
      <trkpt lat="39.5581580" lon="2.5673330">
        <ele>375.8</ele>
        <time>2020-02-23T11:52:44Z</time>
      </trkpt>
      <trkpt lat="39.5581650" lon="2.5673460">
        <ele>375.9</ele>
        <time>2020-02-23T11:52:45Z</time>
      </trkpt>
      <trkpt lat="39.5582000" lon="2.5673820">
        <ele>376.3</ele>
        <time>2020-02-23T11:52:48Z</time>
      </trkpt>
      <trkpt lat="39.5582140" lon="2.5673900">
        <ele>376.4</ele>
        <time>2020-02-23T11:52:51Z</time>
      </trkpt>
      <trkpt lat="39.5582680" lon="2.5674130">
        <ele>377.4</ele>
        <time>2020-02-23T11:52:53Z</time>
      </trkpt>
      <trkpt lat="39.5583150" lon="2.5674250">
        <ele>378.2</ele>
        <time>2020-02-23T11:52:56Z</time>
      </trkpt>
      <trkpt lat="39.5583270" lon="2.5674290">
        <ele>378.4</ele>
        <time>2020-02-23T11:52:57Z</time>
      </trkpt>
      <trkpt lat="39.5583400" lon="2.5674330">
        <ele>378.7</ele>
        <time>2020-02-23T11:52:58Z</time>
      </trkpt>
      <trkpt lat="39.5583670" lon="2.5674550">
        <ele>379.1</ele>
        <time>2020-02-23T11:53:01Z</time>
      </trkpt>
      <trkpt lat="39.5584140" lon="2.5674860">
        <ele>379.8</ele>
        <time>2020-02-23T11:53:04Z</time>
      </trkpt>
      <trkpt lat="39.5584260" lon="2.5674990">
        <ele>380.0</ele>
        <time>2020-02-23T11:53:05Z</time>
      </trkpt>
      <trkpt lat="39.5584530" lon="2.5675180">
        <ele>380.5</ele>
        <time>2020-02-23T11:53:07Z</time>
      </trkpt>
      <trkpt lat="39.5584820" lon="2.5675280">
        <ele>380.9</ele>
        <time>2020-02-23T11:53:10Z</time>
      </trkpt>
      <trkpt lat="39.5585050" lon="2.5675350">
        <ele>381.2</ele>
        <time>2020-02-23T11:53:11Z</time>
      </trkpt>
      <trkpt lat="39.5585360" lon="2.5675450">
        <ele>381.7</ele>
        <time>2020-02-23T11:53:14Z</time>
      </trkpt>
      <trkpt lat="39.5585590" lon="2.5675560">
        <ele>382.0</ele>
        <time>2020-02-23T11:53:15Z</time>
      </trkpt>
      <trkpt lat="39.5585660" lon="2.5675590">
        <ele>382.1</ele>
        <time>2020-02-23T11:53:16Z</time>
      </trkpt>
      <trkpt lat="39.5585900" lon="2.5675660">
        <ele>382.4</ele>
        <time>2020-02-23T11:53:18Z</time>
      </trkpt>
      <trkpt lat="39.5586050" lon="2.5675670">
        <ele>382.6</ele>
        <time>2020-02-23T11:53:19Z</time>
      </trkpt>
      <trkpt lat="39.5586230" lon="2.5675700">
        <ele>382.8</ele>
        <time>2020-02-23T11:53:22Z</time>
      </trkpt>
      <trkpt lat="39.5586500" lon="2.5675790">
        <ele>383.2</ele>
        <time>2020-02-23T11:53:23Z</time>
      </trkpt>
      <trkpt lat="39.5586830" lon="2.5675960">
        <ele>383.6</ele>
        <time>2020-02-23T11:53:26Z</time>
      </trkpt>
      <trkpt lat="39.5587040" lon="2.5676070">
        <ele>383.9</ele>
        <time>2020-02-23T11:53:27Z</time>
      </trkpt>
      <trkpt lat="39.5587430" lon="2.5676150">
        <ele>384.3</ele>
        <time>2020-02-23T11:53:30Z</time>
      </trkpt>
      <trkpt lat="39.5587990" lon="2.5676180">
        <ele>385.0</ele>
        <time>2020-02-23T11:53:33Z</time>
      </trkpt>
      <trkpt lat="39.5588160" lon="2.5676200">
        <ele>385.2</ele>
        <time>2020-02-23T11:53:36Z</time>
      </trkpt>
      <trkpt lat="39.5588470" lon="2.5676250">
        <ele>385.5</ele>
        <time>2020-02-23T11:53:38Z</time>
      </trkpt>
      <trkpt lat="39.5588840" lon="2.5676210">
        <ele>385.8</ele>
        <time>2020-02-23T11:53:39Z</time>
      </trkpt>
      <trkpt lat="39.5589440" lon="2.5676270">
        <ele>386.4</ele>
        <time>2020-02-23T11:53:42Z</time>
      </trkpt>
      <trkpt lat="39.5589780" lon="2.5676320">
        <ele>386.7</ele>
        <time>2020-02-23T11:53:44Z</time>
      </trkpt>
      <trkpt lat="39.5590250" lon="2.5676680">
        <ele>387.2</ele>
        <time>2020-02-23T11:53:47Z</time>
      </trkpt>
      <trkpt lat="39.5590650" lon="2.5676690">
        <ele>387.6</ele>
        <time>2020-02-23T11:53:50Z</time>
      </trkpt>
      <trkpt lat="39.5590850" lon="2.5676710">
        <ele>387.9</ele>
        <time>2020-02-23T11:53:51Z</time>
      </trkpt>
      <trkpt lat="39.5591130" lon="2.5676760">
        <ele>388.2</ele>
        <time>2020-02-23T11:53:52Z</time>
      </trkpt>
      <trkpt lat="39.5591500" lon="2.5676900">
        <ele>388.8</ele>
        <time>2020-02-23T11:53:55Z</time>
      </trkpt>
      <trkpt lat="39.5592020" lon="2.5676970">
        <ele>389.4</ele>
        <time>2020-02-23T11:53:58Z</time>
      </trkpt>
      <trkpt lat="39.5592210" lon="2.5677000">
        <ele>389.7</ele>
        <time>2020-02-23T11:53:59Z</time>
      </trkpt>
      <trkpt lat="39.5592570" lon="2.5677110">
        <ele>390.2</ele>
        <time>2020-02-23T11:54:02Z</time>
      </trkpt>
      <trkpt lat="39.5592740" lon="2.5677160">
        <ele>390.4</ele>
        <time>2020-02-23T11:54:03Z</time>
      </trkpt>
      <trkpt lat="39.5593010" lon="2.5677250">
        <ele>390.7</ele>
        <time>2020-02-23T11:54:04Z</time>
      </trkpt>
      <trkpt lat="39.5593100" lon="2.5677280">
        <ele>390.9</ele>
        <time>2020-02-23T11:54:05Z</time>
      </trkpt>
      <trkpt lat="39.5593270" lon="2.5677370">
        <ele>391.1</ele>
        <time>2020-02-23T11:54:06Z</time>
      </trkpt>
      <trkpt lat="39.5593490" lon="2.5677500">
        <ele>391.3</ele>
        <time>2020-02-23T11:54:08Z</time>
      </trkpt>
      <trkpt lat="39.5593930" lon="2.5677750">
        <ele>391.8</ele>
        <time>2020-02-23T11:54:11Z</time>
      </trkpt>
      <trkpt lat="39.5594160" lon="2.5677900">
        <ele>392.1</ele>
        <time>2020-02-23T11:54:12Z</time>
      </trkpt>
      <trkpt lat="39.5594470" lon="2.5678220">
        <ele>392.5</ele>
        <time>2020-02-23T11:54:15Z</time>
      </trkpt>
      <trkpt lat="39.5594700" lon="2.5678430">
        <ele>392.7</ele>
        <time>2020-02-23T11:54:18Z</time>
      </trkpt>
      <trkpt lat="39.5595010" lon="2.5678710">
        <ele>393.1</ele>
        <time>2020-02-23T11:54:19Z</time>
      </trkpt>
      <trkpt lat="39.5595160" lon="2.5678850">
        <ele>393.3</ele>
        <time>2020-02-23T11:54:20Z</time>
      </trkpt>
      <trkpt lat="39.5595290" lon="2.5679000">
        <ele>393.5</ele>
        <time>2020-02-23T11:54:21Z</time>
      </trkpt>
      <trkpt lat="39.5595410" lon="2.5679150">
        <ele>393.6</ele>
        <time>2020-02-23T11:54:22Z</time>
      </trkpt>
      <trkpt lat="39.5595540" lon="2.5679310">
        <ele>393.8</ele>
        <time>2020-02-23T11:54:23Z</time>
      </trkpt>
      <trkpt lat="39.5595690" lon="2.5679560">
        <ele>394.1</ele>
        <time>2020-02-23T11:54:25Z</time>
      </trkpt>
      <trkpt lat="39.5595830" lon="2.5679850">
        <ele>394.3</ele>
        <time>2020-02-23T11:54:27Z</time>
      </trkpt>
      <trkpt lat="39.5595940" lon="2.5680150">
        <ele>394.6</ele>
        <time>2020-02-23T11:54:28Z</time>
      </trkpt>
      <trkpt lat="39.5596010" lon="2.5680490">
        <ele>394.9</ele>
        <time>2020-02-23T11:54:30Z</time>
      </trkpt>
      <trkpt lat="39.5596040" lon="2.5680900">
        <ele>395.3</ele>
        <time>2020-02-23T11:54:32Z</time>
      </trkpt>
      <trkpt lat="39.5596040" lon="2.5681010">
        <ele>395.4</ele>
        <time>2020-02-23T11:54:33Z</time>
      </trkpt>
      <trkpt lat="39.5596000" lon="2.5681340">
        <ele>395.7</ele>
        <time>2020-02-23T11:54:34Z</time>
      </trkpt>
      <trkpt lat="39.5595990" lon="2.5681540">
        <ele>395.9</ele>
        <time>2020-02-23T11:54:36Z</time>
      </trkpt>
      <trkpt lat="39.5595910" lon="2.5682100">
        <ele>396.3</ele>
        <time>2020-02-23T11:54:39Z</time>
      </trkpt>
      <trkpt lat="39.5595870" lon="2.5682350">
        <ele>396.5</ele>
        <time>2020-02-23T11:54:40Z</time>
      </trkpt>
      <trkpt lat="39.5595800" lon="2.5682710">
        <ele>396.8</ele>
        <time>2020-02-23T11:54:43Z</time>
      </trkpt>
      <trkpt lat="39.5595760" lon="2.5682890">
        <ele>397.0</ele>
        <time>2020-02-23T11:54:44Z</time>
      </trkpt>
      <trkpt lat="39.5595720" lon="2.5683080">
        <ele>397.1</ele>
        <time>2020-02-23T11:54:45Z</time>
      </trkpt>
      <trkpt lat="39.5595540" lon="2.5683770">
        <ele>397.7</ele>
        <time>2020-02-23T11:54:48Z</time>
      </trkpt>
      <trkpt lat="39.5595500" lon="2.5684230">
        <ele>398.0</ele>
        <time>2020-02-23T11:54:50Z</time>
      </trkpt>
      <trkpt lat="39.5595460" lon="2.5684450">
        <ele>398.2</ele>
        <time>2020-02-23T11:54:51Z</time>
      </trkpt>
      <trkpt lat="39.5595390" lon="2.5684760">
        <ele>398.5</ele>
        <time>2020-02-23T11:54:53Z</time>
      </trkpt>
      <trkpt lat="39.5595240" lon="2.5685390">
        <ele>399.0</ele>
        <time>2020-02-23T11:54:56Z</time>
      </trkpt>
      <trkpt lat="39.5595210" lon="2.5685830">
        <ele>399.4</ele>
        <time>2020-02-23T11:54:59Z</time>
      </trkpt>
      <trkpt lat="39.5595210" lon="2.5686080">
        <ele>399.7</ele>
        <time>2020-02-23T11:55:00Z</time>
      </trkpt>
      <trkpt lat="39.5595110" lon="2.5686700">
        <ele>400.3</ele>
        <time>2020-02-23T11:55:03Z</time>
      </trkpt>
      <trkpt lat="39.5595080" lon="2.5687160">
        <ele>400.7</ele>
        <time>2020-02-23T11:55:06Z</time>
      </trkpt>
      <trkpt lat="39.5595090" lon="2.5687590">
        <ele>401.1</ele>
        <time>2020-02-23T11:55:08Z</time>
      </trkpt>
      <trkpt lat="39.5595080" lon="2.5687810">
        <ele>401.4</ele>
        <time>2020-02-23T11:55:11Z</time>
      </trkpt>
      <trkpt lat="39.5595070" lon="2.5688070">
        <ele>401.7</ele>
        <time>2020-02-23T11:55:13Z</time>
      </trkpt>
      <trkpt lat="39.5595070" lon="2.5688150">
        <ele>401.8</ele>
        <time>2020-02-23T11:55:14Z</time>
      </trkpt>
      <trkpt lat="39.5595040" lon="2.5688150">
        <ele>401.8</ele>
        <time>2020-02-23T11:55:15Z</time>
      </trkpt>
      <trkpt lat="39.5595040" lon="2.5688200">
        <ele>401.9</ele>
        <time>2020-02-23T11:55:18Z</time>
      </trkpt>
      <trkpt lat="39.5595040" lon="2.5688390">
        <ele>402.1</ele>
        <time>2020-02-23T11:55:20Z</time>
      </trkpt>
      <trkpt lat="39.5595060" lon="2.5688530">
        <ele>402.2</ele>
        <time>2020-02-23T11:55:22Z</time>
      </trkpt>
      <trkpt lat="39.5595060" lon="2.5688610">
        <ele>402.3</ele>
        <time>2020-02-23T11:55:24Z</time>
      </trkpt>
      <trkpt lat="39.5595060" lon="2.5688660">
        <ele>402.4</ele>
        <time>2020-02-23T11:55:25Z</time>
      </trkpt>
      <trkpt lat="39.5595060" lon="2.5688680">
        <ele>402.4</ele>
        <time>2020-02-23T11:55:29Z</time>
      </trkpt>
      <trkpt lat="39.5595060" lon="2.5688680">
        <ele>402.4</ele>
        <time>2020-02-23T11:55:31Z</time>
      </trkpt>
      <trkpt lat="39.5595050" lon="2.5688930">
        <ele>402.7</ele>
        <time>2020-02-23T11:55:32Z</time>
      </trkpt>
      <trkpt lat="39.5595080" lon="2.5688930">
        <ele>402.8</ele>
        <time>2020-02-23T11:55:35Z</time>
      </trkpt>
      <trkpt lat="39.5595080" lon="2.5688940">
        <ele>402.8</ele>
        <time>2020-02-23T11:55:37Z</time>
      </trkpt>
      <trkpt lat="39.5595080" lon="2.5688940">
        <ele>402.8</ele>
        <time>2020-02-23T11:55:38Z</time>
      </trkpt>
      <trkpt lat="39.5595080" lon="2.5688950">
        <ele>402.8</ele>
        <time>2020-02-23T11:55:39Z</time>
      </trkpt>
      <trkpt lat="39.5595080" lon="2.5688960">
        <ele>402.8</ele>
        <time>2020-02-23T11:55:40Z</time>
      </trkpt>
      <trkpt lat="39.5595080" lon="2.5688970">
        <ele>402.8</ele>
        <time>2020-02-23T11:55:41Z</time>
      </trkpt>
      <trkpt lat="39.5595080" lon="2.5688970">
        <ele>402.8</ele>
        <time>2020-02-23T11:55:43Z</time>
      </trkpt>
      <trkpt lat="39.5595070" lon="2.5688980">
        <ele>402.8</ele>
        <time>2020-02-23T11:55:44Z</time>
      </trkpt>
      <trkpt lat="39.5595070" lon="2.5688990">
        <ele>402.8</ele>
        <time>2020-02-23T11:55:47Z</time>
      </trkpt>
      <trkpt lat="39.5595070" lon="2.5689000">
        <ele>402.8</ele>
        <time>2020-02-23T11:55:50Z</time>
      </trkpt>
      <trkpt lat="39.5595070" lon="2.5689000">
        <ele>402.8</ele>
        <time>2020-02-23T11:55:52Z</time>
      </trkpt>
      <trkpt lat="39.5595070" lon="2.5689010">
        <ele>402.9</ele>
        <time>2020-02-23T11:55:53Z</time>
      </trkpt>
      <trkpt lat="39.5595070" lon="2.5689020">
        <ele>402.9</ele>
        <time>2020-02-23T11:55:56Z</time>
      </trkpt>
      <trkpt lat="39.5595070" lon="2.5689030">
        <ele>402.9</ele>
        <time>2020-02-23T11:55:57Z</time>
      </trkpt>
      <trkpt lat="39.5595070" lon="2.5689030">
        <ele>402.9</ele>
        <time>2020-02-23T11:55:59Z</time>
      </trkpt>
      <trkpt lat="39.5595070" lon="2.5689040">
        <ele>402.9</ele>
        <time>2020-02-23T11:56:01Z</time>
      </trkpt>
      <trkpt lat="39.5595070" lon="2.5689050">
        <ele>402.9</ele>
        <time>2020-02-23T11:56:03Z</time>
      </trkpt>
      <trkpt lat="39.5595070" lon="2.5689060">
        <ele>402.9</ele>
        <time>2020-02-23T11:56:04Z</time>
      </trkpt>
      <trkpt lat="39.5595070" lon="2.5689060">
        <ele>402.9</ele>
        <time>2020-02-23T11:56:06Z</time>
      </trkpt>
      <trkpt lat="39.5595070" lon="2.5689070">
        <ele>402.9</ele>
        <time>2020-02-23T11:56:07Z</time>
      </trkpt>
      <trkpt lat="39.5595070" lon="2.5689080">
        <ele>402.9</ele>
        <time>2020-02-23T11:56:08Z</time>
      </trkpt>
      <trkpt lat="39.5595070" lon="2.5689090">
        <ele>402.9</ele>
        <time>2020-02-23T11:56:10Z</time>
      </trkpt>
      <trkpt lat="39.5595070" lon="2.5689100">
        <ele>403.0</ele>
        <time>2020-02-23T11:56:11Z</time>
      </trkpt>
      <trkpt lat="39.5595060" lon="2.5689100">
        <ele>403.0</ele>
        <time>2020-02-23T11:56:13Z</time>
      </trkpt>
      <trkpt lat="39.5595060" lon="2.5689110">
        <ele>403.0</ele>
        <time>2020-02-23T11:56:14Z</time>
      </trkpt>
      <trkpt lat="39.5595060" lon="2.5689120">
        <ele>403.0</ele>
        <time>2020-02-23T11:56:15Z</time>
      </trkpt>
      <trkpt lat="39.5595060" lon="2.5689130">
        <ele>403.0</ele>
        <time>2020-02-23T11:56:16Z</time>
      </trkpt>
      <trkpt lat="39.5595060" lon="2.5689130">
        <ele>403.0</ele>
        <time>2020-02-23T11:56:18Z</time>
      </trkpt>
      <trkpt lat="39.5595060" lon="2.5689140">
        <ele>403.0</ele>
        <time>2020-02-23T11:56:20Z</time>
      </trkpt>
      <trkpt lat="39.5595060" lon="2.5689150">
        <ele>403.0</ele>
        <time>2020-02-23T11:56:22Z</time>
      </trkpt>
      <trkpt lat="39.5595060" lon="2.5689160">
        <ele>403.0</ele>
        <time>2020-02-23T11:56:23Z</time>
      </trkpt>
      <trkpt lat="39.5595060" lon="2.5689160">
        <ele>403.0</ele>
        <time>2020-02-23T11:56:25Z</time>
      </trkpt>
      <trkpt lat="39.5595060" lon="2.5689170">
        <ele>403.1</ele>
        <time>2020-02-23T11:56:26Z</time>
      </trkpt>
      <trkpt lat="39.5595060" lon="2.5689180">
        <ele>403.1</ele>
        <time>2020-02-23T11:56:28Z</time>
      </trkpt>
      <trkpt lat="39.5595060" lon="2.5689190">
        <ele>403.1</ele>
        <time>2020-02-23T11:56:29Z</time>
      </trkpt>
      <trkpt lat="39.5595060" lon="2.5689190">
        <ele>403.1</ele>
        <time>2020-02-23T11:56:31Z</time>
      </trkpt>
      <trkpt lat="39.5595060" lon="2.5689200">
        <ele>403.1</ele>
        <time>2020-02-23T11:56:32Z</time>
      </trkpt>
      <trkpt lat="39.5595060" lon="2.5689210">
        <ele>403.1</ele>
        <time>2020-02-23T11:56:33Z</time>
      </trkpt>
      <trkpt lat="39.5595050" lon="2.5689220">
        <ele>403.1</ele>
        <time>2020-02-23T11:56:34Z</time>
      </trkpt>
      <trkpt lat="39.5595050" lon="2.5689220">
        <ele>403.1</ele>
        <time>2020-02-23T11:56:36Z</time>
      </trkpt>
      <trkpt lat="39.5595050" lon="2.5689230">
        <ele>403.1</ele>
        <time>2020-02-23T11:56:38Z</time>
      </trkpt>
      <trkpt lat="39.5595050" lon="2.5689240">
        <ele>403.1</ele>
        <time>2020-02-23T11:56:39Z</time>
      </trkpt>
      <trkpt lat="39.5595050" lon="2.5689250">
        <ele>403.2</ele>
        <time>2020-02-23T11:56:40Z</time>
      </trkpt>
      <trkpt lat="39.5595050" lon="2.5689250">
        <ele>403.2</ele>
        <time>2020-02-23T11:56:43Z</time>
      </trkpt>
      <trkpt lat="39.5595050" lon="2.5689260">
        <ele>403.2</ele>
        <time>2020-02-23T11:56:45Z</time>
      </trkpt>
      <trkpt lat="39.5595050" lon="2.5689270">
        <ele>403.2</ele>
        <time>2020-02-23T11:56:45Z</time>
      </trkpt>
      <trkpt lat="39.5595050" lon="2.5689270">
        <ele>403.2</ele>
        <time>2020-02-23T11:56:46Z</time>
      </trkpt>
      <trkpt lat="39.5595050" lon="2.5689270">
        <ele>403.2</ele>
        <time>2020-02-23T11:56:46Z</time>
      </trkpt>
      <trkpt lat="39.5595090" lon="2.5689310">
        <ele>403.3</ele>
        <time>2020-02-23T11:56:48Z</time>
      </trkpt>
      <trkpt lat="39.5595180" lon="2.5689520">
        <ele>403.5</ele>
        <time>2020-02-23T11:56:51Z</time>
      </trkpt>
      <trkpt lat="39.5595280" lon="2.5689670">
        <ele>403.8</ele>
        <time>2020-02-23T11:56:53Z</time>
      </trkpt>
      <trkpt lat="39.5595500" lon="2.5690020">
        <ele>404.3</ele>
        <time>2020-02-23T11:56:56Z</time>
      </trkpt>
      <trkpt lat="39.5595760" lon="2.5690430">
        <ele>405.0</ele>
        <time>2020-02-23T11:56:59Z</time>
      </trkpt>
      <trkpt lat="39.5596050" lon="2.5690930">
        <ele>405.7</ele>
        <time>2020-02-23T11:57:02Z</time>
      </trkpt>
      <trkpt lat="39.5596340" lon="2.5691290">
        <ele>406.2</ele>
        <time>2020-02-23T11:57:04Z</time>
      </trkpt>
      <trkpt lat="39.5596710" lon="2.5691680">
        <ele>406.9</ele>
        <time>2020-02-23T11:57:05Z</time>
      </trkpt>
      <trkpt lat="39.5597120" lon="2.5692160">
        <ele>407.5</ele>
        <time>2020-02-23T11:57:07Z</time>
      </trkpt>
      <trkpt lat="39.5597600" lon="2.5692870">
        <ele>408.4</ele>
        <time>2020-02-23T11:57:10Z</time>
      </trkpt>
      <trkpt lat="39.5597820" lon="2.5693270">
        <ele>408.7</ele>
        <time>2020-02-23T11:57:12Z</time>
      </trkpt>
      <trkpt lat="39.5598190" lon="2.5693780">
        <ele>409.3</ele>
        <time>2020-02-23T11:57:15Z</time>
      </trkpt>
      <trkpt lat="39.5598590" lon="2.5694470">
        <ele>410.2</ele>
        <time>2020-02-23T11:57:18Z</time>
      </trkpt>
      <trkpt lat="39.5598810" lon="2.5694770">
        <ele>410.6</ele>
        <time>2020-02-23T11:57:20Z</time>
      </trkpt>
      <trkpt lat="39.5598990" lon="2.5695070">
        <ele>411.0</ele>
        <time>2020-02-23T11:57:23Z</time>
      </trkpt>
      <trkpt lat="39.5599220" lon="2.5695470">
        <ele>411.5</ele>
        <time>2020-02-23T11:57:24Z</time>
      </trkpt>
      <trkpt lat="39.5599550" lon="2.5695880">
        <ele>412.0</ele>
        <time>2020-02-23T11:57:27Z</time>
      </trkpt>
      <trkpt lat="39.5599980" lon="2.5696320">
        <ele>412.7</ele>
        <time>2020-02-23T11:57:30Z</time>
      </trkpt>
      <trkpt lat="39.5600450" lon="2.5696690">
        <ele>413.3</ele>
        <time>2020-02-23T11:57:33Z</time>
      </trkpt>
      <trkpt lat="39.5600640" lon="2.5696770">
        <ele>413.5</ele>
        <time>2020-02-23T11:57:34Z</time>
      </trkpt>
      <trkpt lat="39.5600770" lon="2.5696840">
        <ele>413.7</ele>
        <time>2020-02-23T11:57:37Z</time>
      </trkpt>
      <trkpt lat="39.5601090" lon="2.5697150">
        <ele>414.2</ele>
        <time>2020-02-23T11:57:38Z</time>
      </trkpt>
      <trkpt lat="39.5601290" lon="2.5697320">
        <ele>414.5</ele>
        <time>2020-02-23T11:57:41Z</time>
      </trkpt>
      <trkpt lat="39.5601530" lon="2.5697250">
        <ele>414.8</ele>
        <time>2020-02-23T11:57:42Z</time>
      </trkpt>
      <trkpt lat="39.5601760" lon="2.5697210">
        <ele>415.1</ele>
        <time>2020-02-23T11:57:43Z</time>
      </trkpt>
      <trkpt lat="39.5601940" lon="2.5697210">
        <ele>415.4</ele>
        <time>2020-02-23T11:57:46Z</time>
      </trkpt>
      <trkpt lat="39.5602270" lon="2.5697120">
        <ele>416.0</ele>
        <time>2020-02-23T11:57:49Z</time>
      </trkpt>
      <trkpt lat="39.5602430" lon="2.5697060">
        <ele>416.2</ele>
        <time>2020-02-23T11:57:51Z</time>
      </trkpt>
      <trkpt lat="39.5602580" lon="2.5697000">
        <ele>416.4</ele>
        <time>2020-02-23T11:57:52Z</time>
      </trkpt>
      <trkpt lat="39.5602940" lon="2.5696800">
        <ele>417.0</ele>
        <time>2020-02-23T11:57:55Z</time>
      </trkpt>
      <trkpt lat="39.5603150" lon="2.5696610">
        <ele>417.5</ele>
        <time>2020-02-23T11:57:56Z</time>
      </trkpt>
      <trkpt lat="39.5603410" lon="2.5696430">
        <ele>418.0</ele>
        <time>2020-02-23T11:57:59Z</time>
      </trkpt>
      <trkpt lat="39.5603580" lon="2.5696330">
        <ele>418.3</ele>
        <time>2020-02-23T11:58:00Z</time>
      </trkpt>
      <trkpt lat="39.5603740" lon="2.5696260">
        <ele>418.6</ele>
        <time>2020-02-23T11:58:01Z</time>
      </trkpt>
      <trkpt lat="39.5604100" lon="2.5695990">
        <ele>419.4</ele>
        <time>2020-02-23T11:58:04Z</time>
      </trkpt>
      <trkpt lat="39.5604230" lon="2.5695910">
        <ele>419.6</ele>
        <time>2020-02-23T11:58:05Z</time>
      </trkpt>
      <trkpt lat="39.5604560" lon="2.5695690">
        <ele>420.3</ele>
        <time>2020-02-23T11:58:08Z</time>
      </trkpt>
      <trkpt lat="39.5604750" lon="2.5695570">
        <ele>420.7</ele>
        <time>2020-02-23T11:58:09Z</time>
      </trkpt>
      <trkpt lat="39.5604880" lon="2.5695470">
        <ele>421.0</ele>
        <time>2020-02-23T11:58:12Z</time>
      </trkpt>
      <trkpt lat="39.5605110" lon="2.5695280">
        <ele>421.4</ele>
        <time>2020-02-23T11:58:13Z</time>
      </trkpt>
      <trkpt lat="39.5605280" lon="2.5695110">
        <ele>421.8</ele>
        <time>2020-02-23T11:58:14Z</time>
      </trkpt>
      <trkpt lat="39.5605600" lon="2.5694830">
        <ele>422.4</ele>
        <time>2020-02-23T11:58:17Z</time>
      </trkpt>
      <trkpt lat="39.5605730" lon="2.5694720">
        <ele>422.7</ele>
        <time>2020-02-23T11:58:18Z</time>
      </trkpt>
      <trkpt lat="39.5605920" lon="2.5694540">
        <ele>423.0</ele>
        <time>2020-02-23T11:58:20Z</time>
      </trkpt>
      <trkpt lat="39.5606070" lon="2.5694450">
        <ele>423.3</ele>
        <time>2020-02-23T11:58:23Z</time>
      </trkpt>
      <trkpt lat="39.5606260" lon="2.5694370">
        <ele>423.6</ele>
        <time>2020-02-23T11:58:25Z</time>
      </trkpt>
      <trkpt lat="39.5606580" lon="2.5694220">
        <ele>423.9</ele>
        <time>2020-02-23T11:58:26Z</time>
      </trkpt>
      <trkpt lat="39.5606850" lon="2.5693990">
        <ele>424.2</ele>
        <time>2020-02-23T11:58:29Z</time>
      </trkpt>
      <trkpt lat="39.5606980" lon="2.5693890">
        <ele>424.3</ele>
        <time>2020-02-23T11:58:30Z</time>
      </trkpt>
      <trkpt lat="39.5607240" lon="2.5693700">
        <ele>424.6</ele>
        <time>2020-02-23T11:58:32Z</time>
      </trkpt>
      <trkpt lat="39.5607450" lon="2.5693470">
        <ele>424.9</ele>
        <time>2020-02-23T11:58:33Z</time>
      </trkpt>
      <trkpt lat="39.5607680" lon="2.5693170">
        <ele>425.2</ele>
        <time>2020-02-23T11:58:36Z</time>
      </trkpt>
      <trkpt lat="39.5607800" lon="2.5693020">
        <ele>425.4</ele>
        <time>2020-02-23T11:58:37Z</time>
      </trkpt>
      <trkpt lat="39.5608160" lon="2.5692630">
        <ele>425.7</ele>
        <time>2020-02-23T11:58:40Z</time>
      </trkpt>
      <trkpt lat="39.5608280" lon="2.5692500">
        <ele>425.9</ele>
        <time>2020-02-23T11:58:41Z</time>
      </trkpt>
      <trkpt lat="39.5608500" lon="2.5692260">
        <ele>426.0</ele>
        <time>2020-02-23T11:58:42Z</time>
      </trkpt>
      <trkpt lat="39.5608570" lon="2.5692170">
        <ele>426.1</ele>
        <time>2020-02-23T11:58:43Z</time>
      </trkpt>
      <trkpt lat="39.5609060" lon="2.5691570">
        <ele>426.5</ele>
        <time>2020-02-23T11:58:46Z</time>
      </trkpt>
      <trkpt lat="39.5609240" lon="2.5691400">
        <ele>426.7</ele>
        <time>2020-02-23T11:58:49Z</time>
      </trkpt>
      <trkpt lat="39.5609420" lon="2.5691240">
        <ele>426.8</ele>
        <time>2020-02-23T11:58:50Z</time>
      </trkpt>
      <trkpt lat="39.5609600" lon="2.5691070">
        <ele>426.9</ele>
        <time>2020-02-23T11:58:51Z</time>
      </trkpt>
      <trkpt lat="39.5609890" lon="2.5690930">
        <ele>427.1</ele>
        <time>2020-02-23T11:58:53Z</time>
      </trkpt>
      <trkpt lat="39.5610090" lon="2.5690870">
        <ele>427.2</ele>
        <time>2020-02-23T11:58:54Z</time>
      </trkpt>
      <trkpt lat="39.5610580" lon="2.5690800">
        <ele>427.5</ele>
        <time>2020-02-23T11:58:57Z</time>
      </trkpt>
      <trkpt lat="39.5610890" lon="2.5690770">
        <ele>427.7</ele>
        <time>2020-02-23T11:58:58Z</time>
      </trkpt>
      <trkpt lat="39.5611270" lon="2.5690680">
        <ele>427.9</ele>
        <time>2020-02-23T11:59:01Z</time>
      </trkpt>
      <trkpt lat="39.5611480" lon="2.5690690">
        <ele>428.0</ele>
        <time>2020-02-23T11:59:02Z</time>
      </trkpt>
      <trkpt lat="39.5611970" lon="2.5690690">
        <ele>428.3</ele>
        <time>2020-02-23T11:59:05Z</time>
      </trkpt>
      <trkpt lat="39.5612260" lon="2.5690760">
        <ele>428.5</ele>
        <time>2020-02-23T11:59:06Z</time>
      </trkpt>
      <trkpt lat="39.5612550" lon="2.5690810">
        <ele>428.6</ele>
        <time>2020-02-23T11:59:08Z</time>
      </trkpt>
      <trkpt lat="39.5613080" lon="2.5690960">
        <ele>429.0</ele>
        <time>2020-02-23T11:59:11Z</time>
      </trkpt>
      <trkpt lat="39.5613590" lon="2.5691170">
        <ele>429.3</ele>
        <time>2020-02-23T11:59:14Z</time>
      </trkpt>
      <trkpt lat="39.5613810" lon="2.5691200">
        <ele>429.4</ele>
        <time>2020-02-23T11:59:15Z</time>
      </trkpt>
      <trkpt lat="39.5614350" lon="2.5691320">
        <ele>429.6</ele>
        <time>2020-02-23T11:59:18Z</time>
      </trkpt>
      <trkpt lat="39.5614690" lon="2.5691350">
        <ele>429.7</ele>
        <time>2020-02-23T11:59:21Z</time>
      </trkpt>
      <trkpt lat="39.5615090" lon="2.5691410">
        <ele>429.8</ele>
        <time>2020-02-23T11:59:22Z</time>
      </trkpt>
      <trkpt lat="39.5615320" lon="2.5691380">
        <ele>429.9</ele>
        <time>2020-02-23T11:59:25Z</time>
      </trkpt>
      <trkpt lat="39.5615750" lon="2.5691290">
        <ele>430.1</ele>
        <time>2020-02-23T11:59:27Z</time>
      </trkpt>
      <trkpt lat="39.5616470" lon="2.5691180">
        <ele>430.5</ele>
        <time>2020-02-23T11:59:29Z</time>
      </trkpt>
      <trkpt lat="39.5616620" lon="2.5691130">
        <ele>430.6</ele>
        <time>2020-02-23T11:59:30Z</time>
      </trkpt>
      <trkpt lat="39.5617350" lon="2.5690980">
        <ele>431.2</ele>
        <time>2020-02-23T11:59:34Z</time>
      </trkpt>
      <trkpt lat="39.5618000" lon="2.5690760">
        <ele>431.7</ele>
        <time>2020-02-23T11:59:37Z</time>
      </trkpt>
      <trkpt lat="39.5618220" lon="2.5690730">
        <ele>431.9</ele>
        <time>2020-02-23T11:59:39Z</time>
      </trkpt>
      <trkpt lat="39.5618500" lon="2.5690610">
        <ele>432.1</ele>
        <time>2020-02-23T11:59:42Z</time>
      </trkpt>
      <trkpt lat="39.5619080" lon="2.5690290">
        <ele>432.7</ele>
        <time>2020-02-23T11:59:44Z</time>
      </trkpt>
      <trkpt lat="39.5619330" lon="2.5690150">
        <ele>432.9</ele>
        <time>2020-02-23T11:59:47Z</time>
      </trkpt>
      <trkpt lat="39.5619420" lon="2.5690100">
        <ele>432.9</ele>
        <time>2020-02-23T11:59:48Z</time>
      </trkpt>
      <trkpt lat="39.5619530" lon="2.5690040">
        <ele>433.0</ele>
        <time>2020-02-23T11:59:49Z</time>
      </trkpt>
      <trkpt lat="39.5620090" lon="2.5689600">
        <ele>433.5</ele>
        <time>2020-02-23T11:59:51Z</time>
      </trkpt>
      <trkpt lat="39.5620410" lon="2.5689420">
        <ele>433.9</ele>
        <time>2020-02-23T11:59:53Z</time>
      </trkpt>
      <trkpt lat="39.5621040" lon="2.5688910">
        <ele>434.6</ele>
        <time>2020-02-23T11:59:56Z</time>
      </trkpt>
      <trkpt lat="39.5621490" lon="2.5688390">
        <ele>435.3</ele>
        <time>2020-02-23T11:59:59Z</time>
      </trkpt>
      <trkpt lat="39.5621760" lon="2.5688090">
        <ele>435.7</ele>
        <time>2020-02-23T12:00:01Z</time>
      </trkpt>
      <trkpt lat="39.5622050" lon="2.5687750">
        <ele>436.1</ele>
        <time>2020-02-23T12:00:04Z</time>
      </trkpt>
      <trkpt lat="39.5622100" lon="2.5687710">
        <ele>436.2</ele>
        <time>2020-02-23T12:00:04Z</time>
      </trkpt>
      <trkpt lat="39.5622100" lon="2.5687710">
        <ele>436.2</ele>
        <time>2020-02-23T12:00:05Z</time>
      </trkpt>
      <trkpt lat="39.5622100" lon="2.5687710">
        <ele>436.2</ele>
        <time>2020-02-23T12:00:05Z</time>
      </trkpt>
      <trkpt lat="39.5622380" lon="2.5687460">
        <ele>436.5</ele>
        <time>2020-02-23T12:00:07Z</time>
      </trkpt>
      <trkpt lat="39.5622870" lon="2.5687060">
        <ele>437.2</ele>
        <time>2020-02-23T12:00:10Z</time>
      </trkpt>
      <trkpt lat="39.5623040" lon="2.5686910">
        <ele>437.4</ele>
        <time>2020-02-23T12:00:11Z</time>
      </trkpt>
      <trkpt lat="39.5623330" lon="2.5686660">
        <ele>437.8</ele>
        <time>2020-02-23T12:00:12Z</time>
      </trkpt>
      <trkpt lat="39.5623430" lon="2.5686550">
        <ele>438.0</ele>
        <time>2020-02-23T12:00:13Z</time>
      </trkpt>
      <trkpt lat="39.5623960" lon="2.5685990">
        <ele>438.9</ele>
        <time>2020-02-23T12:00:16Z</time>
      </trkpt>
      <trkpt lat="39.5624370" lon="2.5685540">
        <ele>439.6</ele>
        <time>2020-02-23T12:00:19Z</time>
      </trkpt>
      <trkpt lat="39.5624570" lon="2.5685290">
        <ele>439.9</ele>
        <time>2020-02-23T12:00:20Z</time>
      </trkpt>
      <trkpt lat="39.5624810" lon="2.5684920">
        <ele>440.4</ele>
        <time>2020-02-23T12:00:21Z</time>
      </trkpt>
      <trkpt lat="39.5624890" lon="2.5684800">
        <ele>440.6</ele>
        <time>2020-02-23T12:00:22Z</time>
      </trkpt>
      <trkpt lat="39.5625050" lon="2.5684610">
        <ele>440.9</ele>
        <time>2020-02-23T12:00:23Z</time>
      </trkpt>
      <trkpt lat="39.5625400" lon="2.5684000">
        <ele>441.7</ele>
        <time>2020-02-23T12:00:26Z</time>
      </trkpt>
      <trkpt lat="39.5625530" lon="2.5683770">
        <ele>442.0</ele>
        <time>2020-02-23T12:00:27Z</time>
      </trkpt>
      <trkpt lat="39.5625710" lon="2.5683460">
        <ele>442.4</ele>
        <time>2020-02-23T12:00:29Z</time>
      </trkpt>
      <trkpt lat="39.5626300" lon="2.5682930">
        <ele>443.2</ele>
        <time>2020-02-23T12:00:32Z</time>
      </trkpt>
      <trkpt lat="39.5626500" lon="2.5682750">
        <ele>443.6</ele>
        <time>2020-02-23T12:00:33Z</time>
      </trkpt>
      <trkpt lat="39.5626700" lon="2.5682560">
        <ele>444.0</ele>
        <time>2020-02-23T12:00:36Z</time>
      </trkpt>
      <trkpt lat="39.5626900" lon="2.5682380">
        <ele>444.4</ele>
        <time>2020-02-23T12:00:38Z</time>
      </trkpt>
      <trkpt lat="39.5627100" lon="2.5682200">
        <ele>444.8</ele>
        <time>2020-02-23T12:00:39Z</time>
      </trkpt>
      <trkpt lat="39.5627320" lon="2.5681790">
        <ele>444.9</ele>
        <time>2020-02-23T12:00:42Z</time>
      </trkpt>
      <trkpt lat="39.5627390" lon="2.5681690">
        <ele>444.9</ele>
        <time>2020-02-23T12:00:43Z</time>
      </trkpt>
      <trkpt lat="39.5627460" lon="2.5681600">
        <ele>444.9</ele>
        <time>2020-02-23T12:00:43Z</time>
      </trkpt>
      <trkpt lat="39.5627460" lon="2.5681600">
        <ele>444.9</ele>
        <time>2020-02-23T12:00:44Z</time>
      </trkpt>
      <trkpt lat="39.5627460" lon="2.5681600">
        <ele>444.9</ele>
        <time>2020-02-23T12:00:44Z</time>
      </trkpt>
      <trkpt lat="39.5627510" lon="2.5681540">
        <ele>445.0</ele>
        <time>2020-02-23T12:00:48Z</time>
      </trkpt>
      <trkpt lat="39.5627510" lon="2.5681540">
        <ele>445.0</ele>
        <time>2020-02-23T12:00:49Z</time>
      </trkpt>
      <trkpt lat="39.5627520" lon="2.5681530">
        <ele>445.0</ele>
        <time>2020-02-23T12:00:51Z</time>
      </trkpt>
      <trkpt lat="39.5627530" lon="2.5681530">
        <ele>445.0</ele>
        <time>2020-02-23T12:00:53Z</time>
      </trkpt>
      <trkpt lat="39.5627540" lon="2.5681520">
        <ele>445.0</ele>
        <time>2020-02-23T12:00:55Z</time>
      </trkpt>
      <trkpt lat="39.5627540" lon="2.5681520">
        <ele>445.0</ele>
        <time>2020-02-23T12:00:57Z</time>
      </trkpt>
      <trkpt lat="39.5627550" lon="2.5681510">
        <ele>445.0</ele>
        <time>2020-02-23T12:00:58Z</time>
      </trkpt>
      <trkpt lat="39.5627560" lon="2.5681510">
        <ele>445.0</ele>
        <time>2020-02-23T12:00:59Z</time>
      </trkpt>
      <trkpt lat="39.5627560" lon="2.5681500">
        <ele>445.0</ele>
        <time>2020-02-23T12:01:01Z</time>
      </trkpt>
      <trkpt lat="39.5627570" lon="2.5681490">
        <ele>445.0</ele>
        <time>2020-02-23T12:01:03Z</time>
      </trkpt>
      <trkpt lat="39.5627580" lon="2.5681490">
        <ele>445.0</ele>
        <time>2020-02-23T12:01:04Z</time>
      </trkpt>
      <trkpt lat="39.5627580" lon="2.5681480">
        <ele>445.0</ele>
        <time>2020-02-23T12:01:05Z</time>
      </trkpt>
      <trkpt lat="39.5627590" lon="2.5681480">
        <ele>445.0</ele>
        <time>2020-02-23T12:01:07Z</time>
      </trkpt>
      <trkpt lat="39.5627600" lon="2.5681470">
        <ele>445.0</ele>
        <time>2020-02-23T12:01:08Z</time>
      </trkpt>
      <trkpt lat="39.5627610" lon="2.5681470">
        <ele>445.0</ele>
        <time>2020-02-23T12:01:10Z</time>
      </trkpt>
      <trkpt lat="39.5627610" lon="2.5681460">
        <ele>445.0</ele>
        <time>2020-02-23T12:01:11Z</time>
      </trkpt>
      <trkpt lat="39.5627620" lon="2.5681460">
        <ele>445.0</ele>
        <time>2020-02-23T12:01:13Z</time>
      </trkpt>
      <trkpt lat="39.5627630" lon="2.5681450">
        <ele>445.0</ele>
        <time>2020-02-23T12:01:15Z</time>
      </trkpt>
      <trkpt lat="39.5627630" lon="2.5681440">
        <ele>445.0</ele>
        <time>2020-02-23T12:01:17Z</time>
      </trkpt>
      <trkpt lat="39.5627640" lon="2.5681440">
        <ele>445.0</ele>
        <time>2020-02-23T12:01:19Z</time>
      </trkpt>
      <trkpt lat="39.5627650" lon="2.5681430">
        <ele>445.0</ele>
        <time>2020-02-23T12:01:21Z</time>
      </trkpt>
      <trkpt lat="39.5627660" lon="2.5681430">
        <ele>445.0</ele>
        <time>2020-02-23T12:01:23Z</time>
      </trkpt>
      <trkpt lat="39.5627660" lon="2.5681420">
        <ele>445.0</ele>
        <time>2020-02-23T12:01:24Z</time>
      </trkpt>
      <trkpt lat="39.5627670" lon="2.5681420">
        <ele>445.0</ele>
        <time>2020-02-23T12:01:26Z</time>
      </trkpt>
      <trkpt lat="39.5627680" lon="2.5681410">
        <ele>445.0</ele>
        <time>2020-02-23T12:01:28Z</time>
      </trkpt>
      <trkpt lat="39.5627680" lon="2.5681400">
        <ele>445.0</ele>
        <time>2020-02-23T12:01:30Z</time>
      </trkpt>
      <trkpt lat="39.5627690" lon="2.5681400">
        <ele>445.0</ele>
        <time>2020-02-23T12:01:32Z</time>
      </trkpt>
      <trkpt lat="39.5627700" lon="2.5681390">
        <ele>445.0</ele>
        <time>2020-02-23T12:01:34Z</time>
      </trkpt>
      <trkpt lat="39.5627700" lon="2.5681390">
        <ele>445.0</ele>
        <time>2020-02-23T12:01:35Z</time>
      </trkpt>
      <trkpt lat="39.5627710" lon="2.5681380">
        <ele>445.0</ele>
        <time>2020-02-23T12:01:36Z</time>
      </trkpt>
      <trkpt lat="39.5627720" lon="2.5681380">
        <ele>445.0</ele>
        <time>2020-02-23T12:01:38Z</time>
      </trkpt>
      <trkpt lat="39.5627730" lon="2.5681370">
        <ele>445.0</ele>
        <time>2020-02-23T12:01:39Z</time>
      </trkpt>
      <trkpt lat="39.5627730" lon="2.5681370">
        <ele>445.0</ele>
        <time>2020-02-23T12:01:40Z</time>
      </trkpt>
      <trkpt lat="39.5627740" lon="2.5681360">
        <ele>445.0</ele>
        <time>2020-02-23T12:01:40Z</time>
      </trkpt>
      <trkpt lat="39.5627740" lon="2.5681360">
        <ele>445.0</ele>
        <time>2020-02-23T12:01:41Z</time>
      </trkpt>
      <trkpt lat="39.5627740" lon="2.5681360">
        <ele>445.0</ele>
        <time>2020-02-23T12:01:41Z</time>
      </trkpt>
      <trkpt lat="39.5627930" lon="2.5681110">
        <ele>445.1</ele>
        <time>2020-02-23T12:01:43Z</time>
      </trkpt>
      <trkpt lat="39.5628200" lon="2.5680780">
        <ele>445.2</ele>
        <time>2020-02-23T12:01:44Z</time>
      </trkpt>
      <trkpt lat="39.5628540" lon="2.5680370">
        <ele>445.2</ele>
        <time>2020-02-23T12:01:47Z</time>
      </trkpt>
      <trkpt lat="39.5628630" lon="2.5680260">
        <ele>445.3</ele>
        <time>2020-02-23T12:01:50Z</time>
      </trkpt>
      <trkpt lat="39.5628730" lon="2.5680150">
        <ele>445.3</ele>
        <time>2020-02-23T12:01:51Z</time>
      </trkpt>
      <trkpt lat="39.5629090" lon="2.5680170">
        <ele>445.4</ele>
        <time>2020-02-23T12:01:53Z</time>
      </trkpt>
      <trkpt lat="39.5629150" lon="2.5680270">
        <ele>445.4</ele>
        <time>2020-02-23T12:01:54Z</time>
      </trkpt>
      <trkpt lat="39.5629200" lon="2.5680380">
        <ele>445.4</ele>
        <time>2020-02-23T12:01:56Z</time>
      </trkpt>
      <trkpt lat="39.5629260" lon="2.5680480">
        <ele>445.4</ele>
        <time>2020-02-23T12:01:57Z</time>
      </trkpt>
      <trkpt lat="39.5629310" lon="2.5680580">
        <ele>445.5</ele>
        <time>2020-02-23T12:01:57Z</time>
      </trkpt>
      <trkpt lat="39.5629310" lon="2.5680580">
        <ele>445.5</ele>
        <time>2020-02-23T12:01:58Z</time>
      </trkpt>
      <trkpt lat="39.5629310" lon="2.5680580">
        <ele>445.5</ele>
        <time>2020-02-23T12:01:58Z</time>
      </trkpt>
      <trkpt lat="39.5629480" lon="2.5680040">
        <ele>445.6</ele>
        <time>2020-02-23T12:02:01Z</time>
      </trkpt>
      <trkpt lat="39.5629330" lon="2.5679830">
        <ele>445.6</ele>
        <time>2020-02-23T12:02:04Z</time>
      </trkpt>
      <trkpt lat="39.5629120" lon="2.5679550">
        <ele>445.7</ele>
        <time>2020-02-23T12:02:06Z</time>
      </trkpt>
      <trkpt lat="39.5629080" lon="2.5679560">
        <ele>445.7</ele>
        <time>2020-02-23T12:02:07Z</time>
      </trkpt>
      <trkpt lat="39.5629040" lon="2.5679590">
        <ele>445.7</ele>
        <time>2020-02-23T12:02:09Z</time>
      </trkpt>
      <trkpt lat="39.5629030" lon="2.5679600">
        <ele>445.7</ele>
        <time>2020-02-23T12:02:10Z</time>
      </trkpt>
      <trkpt lat="39.5629010" lon="2.5679620">
        <ele>445.7</ele>
        <time>2020-02-23T12:02:11Z</time>
      </trkpt>
      <trkpt lat="39.5628990" lon="2.5679630">
        <ele>445.7</ele>
        <time>2020-02-23T12:02:12Z</time>
      </trkpt>
      <trkpt lat="39.5628990" lon="2.5679630">
        <ele>445.7</ele>
        <time>2020-02-23T12:02:14Z</time>
      </trkpt>
      <trkpt lat="39.5628990" lon="2.5679630">
        <ele>445.7</ele>
        <time>2020-02-23T12:02:15Z</time>
      </trkpt>
      <trkpt lat="39.5628990" lon="2.5679630">
        <ele>445.7</ele>
        <time>2020-02-23T12:02:17Z</time>
      </trkpt>
      <trkpt lat="39.5628990" lon="2.5679630">
        <ele>445.7</ele>
        <time>2020-02-23T12:02:18Z</time>
      </trkpt>
      <trkpt lat="39.5628980" lon="2.5679640">
        <ele>445.7</ele>
        <time>2020-02-23T12:02:19Z</time>
      </trkpt>
      <trkpt lat="39.5628960" lon="2.5679630">
        <ele>445.7</ele>
        <time>2020-02-23T12:02:20Z</time>
      </trkpt>
      <trkpt lat="39.5628850" lon="2.5679800">
        <ele>445.7</ele>
        <time>2020-02-23T12:02:22Z</time>
      </trkpt>
      <trkpt lat="39.5628810" lon="2.5679890">
        <ele>445.7</ele>
        <time>2020-02-23T12:02:23Z</time>
      </trkpt>
      <trkpt lat="39.5628790" lon="2.5679970">
        <ele>445.8</ele>
        <time>2020-02-23T12:02:25Z</time>
      </trkpt>
      <trkpt lat="39.5628790" lon="2.5679960">
        <ele>445.8</ele>
        <time>2020-02-23T12:02:27Z</time>
      </trkpt>
      <trkpt lat="39.5628790" lon="2.5679960">
        <ele>445.8</ele>
        <time>2020-02-23T12:02:28Z</time>
      </trkpt>
      <trkpt lat="39.5628790" lon="2.5679960">
        <ele>445.8</ele>
        <time>2020-02-23T12:02:29Z</time>
      </trkpt>
      <trkpt lat="39.5628790" lon="2.5679960">
        <ele>445.8</ele>
        <time>2020-02-23T12:02:31Z</time>
      </trkpt>
      <trkpt lat="39.5628790" lon="2.5679960">
        <ele>445.8</ele>
        <time>2020-02-23T12:02:32Z</time>
      </trkpt>
      <trkpt lat="39.5628790" lon="2.5679960">
        <ele>445.8</ele>
        <time>2020-02-23T12:02:33Z</time>
      </trkpt>
      <trkpt lat="39.5628820" lon="2.5679920">
        <ele>445.8</ele>
        <time>2020-02-23T12:02:34Z</time>
      </trkpt>
      <trkpt lat="39.5628840" lon="2.5679860">
        <ele>445.8</ele>
        <time>2020-02-23T12:02:36Z</time>
      </trkpt>
      <trkpt lat="39.5628820" lon="2.5679910">
        <ele>445.8</ele>
        <time>2020-02-23T12:02:37Z</time>
      </trkpt>
      <trkpt lat="39.5628800" lon="2.5679960">
        <ele>445.8</ele>
        <time>2020-02-23T12:02:38Z</time>
      </trkpt>
      <trkpt lat="39.5628750" lon="2.5680050">
        <ele>445.8</ele>
        <time>2020-02-23T12:02:40Z</time>
      </trkpt>
      <trkpt lat="39.5628710" lon="2.5680120">
        <ele>445.8</ele>
        <time>2020-02-23T12:02:41Z</time>
      </trkpt>
      <trkpt lat="39.5628660" lon="2.5680230">
        <ele>445.9</ele>
        <time>2020-02-23T12:02:42Z</time>
      </trkpt>
      <trkpt lat="39.5628650" lon="2.5680290">
        <ele>445.9</ele>
        <time>2020-02-23T12:02:44Z</time>
      </trkpt>
      <trkpt lat="39.5628640" lon="2.5680350">
        <ele>445.9</ele>
        <time>2020-02-23T12:02:45Z</time>
      </trkpt>
      <trkpt lat="39.5628630" lon="2.5680410">
        <ele>445.9</ele>
        <time>2020-02-23T12:02:47Z</time>
      </trkpt>
      <trkpt lat="39.5628620" lon="2.5680470">
        <ele>445.9</ele>
        <time>2020-02-23T12:02:49Z</time>
      </trkpt>
      <trkpt lat="39.5628600" lon="2.5680520">
        <ele>445.9</ele>
        <time>2020-02-23T12:02:50Z</time>
      </trkpt>
      <trkpt lat="39.5628590" lon="2.5680580">
        <ele>445.9</ele>
        <time>2020-02-23T12:02:51Z</time>
      </trkpt>
      <trkpt lat="39.5628580" lon="2.5680640">
        <ele>445.9</ele>
        <time>2020-02-23T12:02:52Z</time>
      </trkpt>
      <trkpt lat="39.5628570" lon="2.5680700">
        <ele>445.9</ele>
        <time>2020-02-23T12:02:55Z</time>
      </trkpt>
      <trkpt lat="39.5628560" lon="2.5680760">
        <ele>445.9</ele>
        <time>2020-02-23T12:02:58Z</time>
      </trkpt>
      <trkpt lat="39.5628550" lon="2.5680820">
        <ele>445.9</ele>
        <time>2020-02-23T12:02:59Z</time>
      </trkpt>
      <trkpt lat="39.5628590" lon="2.5681200">
        <ele>446.0</ele>
        <time>2020-02-23T12:03:00Z</time>
      </trkpt>
      <trkpt lat="39.5628650" lon="2.5681640">
        <ele>446.1</ele>
        <time>2020-02-23T12:03:03Z</time>
      </trkpt>
      <trkpt lat="39.5628720" lon="2.5681790">
        <ele>446.1</ele>
        <time>2020-02-23T12:03:04Z</time>
      </trkpt>
      <trkpt lat="39.5628780" lon="2.5681960">
        <ele>446.1</ele>
        <time>2020-02-23T12:03:07Z</time>
      </trkpt>
      <trkpt lat="39.5628760" lon="2.5681980">
        <ele>446.1</ele>
        <time>2020-02-23T12:03:08Z</time>
      </trkpt>
      <trkpt lat="39.5628620" lon="2.5681900">
        <ele>446.2</ele>
        <time>2020-02-23T12:03:09Z</time>
      </trkpt>
      <trkpt lat="39.5628570" lon="2.5681710">
        <ele>446.2</ele>
        <time>2020-02-23T12:03:11Z</time>
      </trkpt>
      <trkpt lat="39.5628550" lon="2.5681550">
        <ele>446.2</ele>
        <time>2020-02-23T12:03:12Z</time>
      </trkpt>
      <trkpt lat="39.5628500" lon="2.5681360">
        <ele>446.3</ele>
        <time>2020-02-23T12:03:15Z</time>
      </trkpt>
      <trkpt lat="39.5628480" lon="2.5681170">
        <ele>446.3</ele>
        <time>2020-02-23T12:03:16Z</time>
      </trkpt>
      <trkpt lat="39.5628480" lon="2.5681080">
        <ele>446.3</ele>
        <time>2020-02-23T12:03:17Z</time>
      </trkpt>
      <trkpt lat="39.5628500" lon="2.5680970">
        <ele>446.3</ele>
        <time>2020-02-23T12:03:20Z</time>
      </trkpt>
      <trkpt lat="39.5628530" lon="2.5680860">
        <ele>446.3</ele>
        <time>2020-02-23T12:03:21Z</time>
      </trkpt>
      <trkpt lat="39.5628530" lon="2.5680630">
        <ele>446.4</ele>
        <time>2020-02-23T12:03:23Z</time>
      </trkpt>
      <trkpt lat="39.5628540" lon="2.5680580">
        <ele>446.4</ele>
        <time>2020-02-23T12:03:24Z</time>
      </trkpt>
      <trkpt lat="39.5628540" lon="2.5680470">
        <ele>446.4</ele>
        <time>2020-02-23T12:03:25Z</time>
      </trkpt>
      <trkpt lat="39.5628470" lon="2.5680450">
        <ele>446.4</ele>
        <time>2020-02-23T12:03:27Z</time>
      </trkpt>
      <trkpt lat="39.5628540" lon="2.5680440">
        <ele>446.4</ele>
        <time>2020-02-23T12:03:29Z</time>
      </trkpt>
      <trkpt lat="39.5628580" lon="2.5680420">
        <ele>446.5</ele>
        <time>2020-02-23T12:03:30Z</time>
      </trkpt>
      <trkpt lat="39.5628600" lon="2.5680410">
        <ele>446.5</ele>
        <time>2020-02-23T12:03:31Z</time>
      </trkpt>
      <trkpt lat="39.5628630" lon="2.5680390">
        <ele>446.5</ele>
        <time>2020-02-23T12:03:33Z</time>
      </trkpt>
      <trkpt lat="39.5628650" lon="2.5680520">
        <ele>446.5</ele>
        <time>2020-02-23T12:03:37Z</time>
      </trkpt>
      <trkpt lat="39.5628710" lon="2.5680550">
        <ele>446.5</ele>
        <time>2020-02-23T12:03:38Z</time>
      </trkpt>
      <trkpt lat="39.5628690" lon="2.5680480">
        <ele>446.5</ele>
        <time>2020-02-23T12:03:41Z</time>
      </trkpt>
      <trkpt lat="39.5628700" lon="2.5680450">
        <ele>446.5</ele>
        <time>2020-02-23T12:03:43Z</time>
      </trkpt>
      <trkpt lat="39.5628740" lon="2.5680440">
        <ele>446.5</ele>
        <time>2020-02-23T12:03:44Z</time>
      </trkpt>
      <trkpt lat="39.5628790" lon="2.5680340">
        <ele>446.5</ele>
        <time>2020-02-23T12:03:45Z</time>
      </trkpt>
      <trkpt lat="39.5628820" lon="2.5680080">
        <ele>446.6</ele>
        <time>2020-02-23T12:03:47Z</time>
      </trkpt>
      <trkpt lat="39.5628810" lon="2.5680050">
        <ele>446.6</ele>
        <time>2020-02-23T12:03:47Z</time>
      </trkpt>
      <trkpt lat="39.5628810" lon="2.5680050">
        <ele>446.6</ele>
        <time>2020-02-23T12:03:48Z</time>
      </trkpt>
      <trkpt lat="39.5628810" lon="2.5680050">
        <ele>446.6</ele>
        <time>2020-02-23T12:03:48Z</time>
      </trkpt>
      <trkpt lat="39.5628680" lon="2.5680120">
        <ele>446.6</ele>
        <time>2020-02-23T12:03:52Z</time>
      </trkpt>
      <trkpt lat="39.5628670" lon="2.5680100">
        <ele>446.6</ele>
        <time>2020-02-23T12:03:53Z</time>
      </trkpt>
      <trkpt lat="39.5628650" lon="2.5680090">
        <ele>446.6</ele>
        <time>2020-02-23T12:03:55Z</time>
      </trkpt>
      <trkpt lat="39.5628640" lon="2.5680070">
        <ele>446.6</ele>
        <time>2020-02-23T12:03:58Z</time>
      </trkpt>
      <trkpt lat="39.5628620" lon="2.5680050">
        <ele>446.6</ele>
        <time>2020-02-23T12:03:58Z</time>
      </trkpt>
      <trkpt lat="39.5628620" lon="2.5680050">
        <ele>446.6</ele>
        <time>2020-02-23T12:03:59Z</time>
      </trkpt>
      <trkpt lat="39.5628620" lon="2.5680050">
        <ele>446.6</ele>
        <time>2020-02-23T12:03:59Z</time>
      </trkpt>
      <trkpt lat="39.5628650" lon="2.5680080">
        <ele>446.6</ele>
        <time>2020-02-23T12:04:03Z</time>
      </trkpt>
      <trkpt lat="39.5628660" lon="2.5680080">
        <ele>446.6</ele>
        <time>2020-02-23T12:04:04Z</time>
      </trkpt>
      <trkpt lat="39.5628670" lon="2.5680090">
        <ele>446.6</ele>
        <time>2020-02-23T12:04:06Z</time>
      </trkpt>
      <trkpt lat="39.5628670" lon="2.5680090">
        <ele>446.6</ele>
        <time>2020-02-23T12:04:07Z</time>
      </trkpt>
      <trkpt lat="39.5628800" lon="2.5680030">
        <ele>446.7</ele>
        <time>2020-02-23T12:04:09Z</time>
      </trkpt>
      <trkpt lat="39.5628840" lon="2.5680020">
        <ele>446.7</ele>
        <time>2020-02-23T12:04:11Z</time>
      </trkpt>
      <trkpt lat="39.5628840" lon="2.5680020">
        <ele>446.7</ele>
        <time>2020-02-23T12:04:12Z</time>
      </trkpt>
      <trkpt lat="39.5628840" lon="2.5680040">
        <ele>446.7</ele>
        <time>2020-02-23T12:04:14Z</time>
      </trkpt>
      <trkpt lat="39.5628840" lon="2.5680060">
        <ele>446.7</ele>
        <time>2020-02-23T12:04:15Z</time>
      </trkpt>
      <trkpt lat="39.5628850" lon="2.5680070">
        <ele>446.7</ele>
        <time>2020-02-23T12:04:16Z</time>
      </trkpt>
      <trkpt lat="39.5628860" lon="2.5680070">
        <ele>446.7</ele>
        <time>2020-02-23T12:04:18Z</time>
      </trkpt>
      <trkpt lat="39.5628880" lon="2.5680080">
        <ele>446.7</ele>
        <time>2020-02-23T12:04:20Z</time>
      </trkpt>
      <trkpt lat="39.5628860" lon="2.5680120">
        <ele>446.7</ele>
        <time>2020-02-23T12:04:22Z</time>
      </trkpt>
      <trkpt lat="39.5628840" lon="2.5680120">
        <ele>446.7</ele>
        <time>2020-02-23T12:04:24Z</time>
      </trkpt>
      <trkpt lat="39.5628830" lon="2.5680120">
        <ele>446.7</ele>
        <time>2020-02-23T12:04:25Z</time>
      </trkpt>
      <trkpt lat="39.5628830" lon="2.5680120">
        <ele>446.7</ele>
        <time>2020-02-23T12:04:26Z</time>
      </trkpt>
      <trkpt lat="39.5628830" lon="2.5680120">
        <ele>446.7</ele>
        <time>2020-02-23T12:04:28Z</time>
      </trkpt>
      <trkpt lat="39.5628830" lon="2.5680120">
        <ele>446.7</ele>
        <time>2020-02-23T12:04:29Z</time>
      </trkpt>
      <trkpt lat="39.5628830" lon="2.5680120">
        <ele>446.7</ele>
        <time>2020-02-23T12:04:31Z</time>
      </trkpt>
      <trkpt lat="39.5628830" lon="2.5680120">
        <ele>446.7</ele>
        <time>2020-02-23T12:04:32Z</time>
      </trkpt>
      <trkpt lat="39.5628830" lon="2.5680120">
        <ele>446.7</ele>
        <time>2020-02-23T12:04:33Z</time>
      </trkpt>
      <trkpt lat="39.5628830" lon="2.5680120">
        <ele>446.7</ele>
        <time>2020-02-23T12:04:35Z</time>
      </trkpt>
      <trkpt lat="39.5628830" lon="2.5680120">
        <ele>446.7</ele>
        <time>2020-02-23T12:04:36Z</time>
      </trkpt>
      <trkpt lat="39.5628830" lon="2.5680120">
        <ele>446.7</ele>
        <time>2020-02-23T12:04:38Z</time>
      </trkpt>
      <trkpt lat="39.5628830" lon="2.5680120">
        <ele>446.7</ele>
        <time>2020-02-23T12:04:39Z</time>
      </trkpt>
      <trkpt lat="39.5628830" lon="2.5680120">
        <ele>446.7</ele>
        <time>2020-02-23T12:04:40Z</time>
      </trkpt>
      <trkpt lat="39.5628830" lon="2.5680120">
        <ele>446.7</ele>
        <time>2020-02-23T12:04:41Z</time>
      </trkpt>
      <trkpt lat="39.5628830" lon="2.5680120">
        <ele>446.7</ele>
        <time>2020-02-23T12:04:43Z</time>
      </trkpt>
      <trkpt lat="39.5628850" lon="2.5680100">
        <ele>446.7</ele>
        <time>2020-02-23T12:04:45Z</time>
      </trkpt>
      <trkpt lat="39.5628850" lon="2.5680090">
        <ele>446.7</ele>
        <time>2020-02-23T12:04:46Z</time>
      </trkpt>
      <trkpt lat="39.5628850" lon="2.5680090">
        <ele>446.7</ele>
        <time>2020-02-23T12:04:47Z</time>
      </trkpt>
      <trkpt lat="39.5628850" lon="2.5680090">
        <ele>446.7</ele>
        <time>2020-02-23T12:04:48Z</time>
      </trkpt>
      <trkpt lat="39.5628850" lon="2.5680090">
        <ele>446.7</ele>
        <time>2020-02-23T12:04:49Z</time>
      </trkpt>
      <trkpt lat="39.5628850" lon="2.5680090">
        <ele>446.7</ele>
        <time>2020-02-23T12:04:51Z</time>
      </trkpt>
      <trkpt lat="39.5628850" lon="2.5680140">
        <ele>446.7</ele>
        <time>2020-02-23T12:04:52Z</time>
      </trkpt>
      <trkpt lat="39.5628800" lon="2.5680200">
        <ele>446.7</ele>
        <time>2020-02-23T12:04:54Z</time>
      </trkpt>
      <trkpt lat="39.5628810" lon="2.5680090">
        <ele>446.8</ele>
        <time>2020-02-23T12:04:56Z</time>
      </trkpt>
      <trkpt lat="39.5628830" lon="2.5680040">
        <ele>446.8</ele>
        <time>2020-02-23T12:04:58Z</time>
      </trkpt>
      <trkpt lat="39.5628820" lon="2.5680040">
        <ele>446.8</ele>
        <time>2020-02-23T12:05:00Z</time>
      </trkpt>
      <trkpt lat="39.5628820" lon="2.5680040">
        <ele>446.8</ele>
        <time>2020-02-23T12:05:01Z</time>
      </trkpt>
      <trkpt lat="39.5628820" lon="2.5680050">
        <ele>446.8</ele>
        <time>2020-02-23T12:05:02Z</time>
      </trkpt>
      <trkpt lat="39.5628820" lon="2.5680050">
        <ele>446.8</ele>
        <time>2020-02-23T12:05:03Z</time>
      </trkpt>
      <trkpt lat="39.5628820" lon="2.5680050">
        <ele>446.8</ele>
        <time>2020-02-23T12:05:05Z</time>
      </trkpt>
      <trkpt lat="39.5628820" lon="2.5680050">
        <ele>446.8</ele>
        <time>2020-02-23T12:05:06Z</time>
      </trkpt>
      <trkpt lat="39.5628820" lon="2.5680050">
        <ele>446.8</ele>
        <time>2020-02-23T12:05:08Z</time>
      </trkpt>
      <trkpt lat="39.5628820" lon="2.5680050">
        <ele>446.8</ele>
        <time>2020-02-23T12:05:10Z</time>
      </trkpt>
      <trkpt lat="39.5628820" lon="2.5680050">
        <ele>446.8</ele>
        <time>2020-02-23T12:05:12Z</time>
      </trkpt>
      <trkpt lat="39.5628820" lon="2.5680050">
        <ele>446.8</ele>
        <time>2020-02-23T12:05:13Z</time>
      </trkpt>
      <trkpt lat="39.5628820" lon="2.5680040">
        <ele>446.8</ele>
        <time>2020-02-23T12:05:14Z</time>
      </trkpt>
      <trkpt lat="39.5628820" lon="2.5680040">
        <ele>446.8</ele>
        <time>2020-02-23T12:05:16Z</time>
      </trkpt>
      <trkpt lat="39.5628820" lon="2.5680040">
        <ele>446.8</ele>
        <time>2020-02-23T12:05:17Z</time>
      </trkpt>
      <trkpt lat="39.5628820" lon="2.5680040">
        <ele>446.8</ele>
        <time>2020-02-23T12:05:18Z</time>
      </trkpt>
      <trkpt lat="39.5628820" lon="2.5680050">
        <ele>446.8</ele>
        <time>2020-02-23T12:05:20Z</time>
      </trkpt>
      <trkpt lat="39.5628820" lon="2.5680050">
        <ele>446.8</ele>
        <time>2020-02-23T12:05:22Z</time>
      </trkpt>
      <trkpt lat="39.5628820" lon="2.5680050">
        <ele>446.8</ele>
        <time>2020-02-23T12:05:23Z</time>
      </trkpt>
      <trkpt lat="39.5628800" lon="2.5680030">
        <ele>446.8</ele>
        <time>2020-02-23T12:05:24Z</time>
      </trkpt>
      <trkpt lat="39.5628800" lon="2.5680070">
        <ele>446.8</ele>
        <time>2020-02-23T12:05:26Z</time>
      </trkpt>
      <trkpt lat="39.5628800" lon="2.5680210">
        <ele>446.8</ele>
        <time>2020-02-23T12:05:28Z</time>
      </trkpt>
      <trkpt lat="39.5628810" lon="2.5680280">
        <ele>446.8</ele>
        <time>2020-02-23T12:05:29Z</time>
      </trkpt>
      <trkpt lat="39.5628820" lon="2.5680340">
        <ele>446.8</ele>
        <time>2020-02-23T12:05:30Z</time>
      </trkpt>
      <trkpt lat="39.5628860" lon="2.5680420">
        <ele>446.8</ele>
        <time>2020-02-23T12:05:32Z</time>
      </trkpt>
      <trkpt lat="39.5628880" lon="2.5680420">
        <ele>446.9</ele>
        <time>2020-02-23T12:05:33Z</time>
      </trkpt>
      <trkpt lat="39.5628890" lon="2.5680400">
        <ele>446.9</ele>
        <time>2020-02-23T12:05:35Z</time>
      </trkpt>
      <trkpt lat="39.5628890" lon="2.5680400">
        <ele>446.9</ele>
        <time>2020-02-23T12:05:37Z</time>
      </trkpt>
      <trkpt lat="39.5628900" lon="2.5680400">
        <ele>446.9</ele>
        <time>2020-02-23T12:05:39Z</time>
      </trkpt>
      <trkpt lat="39.5628900" lon="2.5680360">
        <ele>446.9</ele>
        <time>2020-02-23T12:05:41Z</time>
      </trkpt>
      <trkpt lat="39.5628890" lon="2.5680290">
        <ele>446.9</ele>
        <time>2020-02-23T12:05:43Z</time>
      </trkpt>
      <trkpt lat="39.5628880" lon="2.5680280">
        <ele>446.9</ele>
        <time>2020-02-23T12:05:44Z</time>
      </trkpt>
      <trkpt lat="39.5628880" lon="2.5680270">
        <ele>446.9</ele>
        <time>2020-02-23T12:05:45Z</time>
      </trkpt>
      <trkpt lat="39.5628880" lon="2.5680280">
        <ele>446.9</ele>
        <time>2020-02-23T12:05:46Z</time>
      </trkpt>
      <trkpt lat="39.5628890" lon="2.5680290">
        <ele>446.9</ele>
        <time>2020-02-23T12:05:48Z</time>
      </trkpt>
      <trkpt lat="39.5628900" lon="2.5680290">
        <ele>446.9</ele>
        <time>2020-02-23T12:05:50Z</time>
      </trkpt>
      <trkpt lat="39.5628910" lon="2.5680290">
        <ele>446.9</ele>
        <time>2020-02-23T12:05:51Z</time>
      </trkpt>
      <trkpt lat="39.5628920" lon="2.5680300">
        <ele>446.9</ele>
        <time>2020-02-23T12:05:52Z</time>
      </trkpt>
      <trkpt lat="39.5628920" lon="2.5680300">
        <ele>446.9</ele>
        <time>2020-02-23T12:05:54Z</time>
      </trkpt>
      <trkpt lat="39.5628920" lon="2.5680300">
        <ele>446.9</ele>
        <time>2020-02-23T12:05:56Z</time>
      </trkpt>
      <trkpt lat="39.5628920" lon="2.5680280">
        <ele>446.9</ele>
        <time>2020-02-23T12:05:58Z</time>
      </trkpt>
      <trkpt lat="39.5628910" lon="2.5680270">
        <ele>446.9</ele>
        <time>2020-02-23T12:06:00Z</time>
      </trkpt>
      <trkpt lat="39.5628910" lon="2.5680260">
        <ele>446.9</ele>
        <time>2020-02-23T12:06:02Z</time>
      </trkpt>
      <trkpt lat="39.5628910" lon="2.5680260">
        <ele>446.9</ele>
        <time>2020-02-23T12:06:03Z</time>
      </trkpt>
      <trkpt lat="39.5628910" lon="2.5680260">
        <ele>446.9</ele>
        <time>2020-02-23T12:06:04Z</time>
      </trkpt>
      <trkpt lat="39.5628910" lon="2.5680260">
        <ele>446.9</ele>
        <time>2020-02-23T12:06:06Z</time>
      </trkpt>
      <trkpt lat="39.5628910" lon="2.5680260">
        <ele>446.9</ele>
        <time>2020-02-23T12:06:07Z</time>
      </trkpt>
      <trkpt lat="39.5628910" lon="2.5680260">
        <ele>446.9</ele>
        <time>2020-02-23T12:06:09Z</time>
      </trkpt>
      <trkpt lat="39.5628910" lon="2.5680260">
        <ele>446.9</ele>
        <time>2020-02-23T12:06:11Z</time>
      </trkpt>
      <trkpt lat="39.5628910" lon="2.5680260">
        <ele>446.9</ele>
        <time>2020-02-23T12:06:13Z</time>
      </trkpt>
      <trkpt lat="39.5628910" lon="2.5680260">
        <ele>446.9</ele>
        <time>2020-02-23T12:06:15Z</time>
      </trkpt>
      <trkpt lat="39.5628900" lon="2.5680260">
        <ele>446.9</ele>
        <time>2020-02-23T12:06:16Z</time>
      </trkpt>
      <trkpt lat="39.5628920" lon="2.5680260">
        <ele>446.9</ele>
        <time>2020-02-23T12:06:18Z</time>
      </trkpt>
      <trkpt lat="39.5628950" lon="2.5680300">
        <ele>446.9</ele>
        <time>2020-02-23T12:06:20Z</time>
      </trkpt>
      <trkpt lat="39.5628940" lon="2.5680290">
        <ele>446.9</ele>
        <time>2020-02-23T12:06:21Z</time>
      </trkpt>
      <trkpt lat="39.5628880" lon="2.5680280">
        <ele>446.9</ele>
        <time>2020-02-23T12:06:23Z</time>
      </trkpt>
      <trkpt lat="39.5628860" lon="2.5680270">
        <ele>446.9</ele>
        <time>2020-02-23T12:06:24Z</time>
      </trkpt>
      <trkpt lat="39.5628850" lon="2.5680270">
        <ele>446.9</ele>
        <time>2020-02-23T12:06:25Z</time>
      </trkpt>
      <trkpt lat="39.5628850" lon="2.5680270">
        <ele>446.9</ele>
        <time>2020-02-23T12:06:26Z</time>
      </trkpt>
      <trkpt lat="39.5628850" lon="2.5680270">
        <ele>446.9</ele>
        <time>2020-02-23T12:06:27Z</time>
      </trkpt>
      <trkpt lat="39.5628850" lon="2.5680270">
        <ele>446.9</ele>
        <time>2020-02-23T12:06:29Z</time>
      </trkpt>
      <trkpt lat="39.5628850" lon="2.5680270">
        <ele>446.9</ele>
        <time>2020-02-23T12:06:31Z</time>
      </trkpt>
      <trkpt lat="39.5628850" lon="2.5680270">
        <ele>446.9</ele>
        <time>2020-02-23T12:06:32Z</time>
      </trkpt>
      <trkpt lat="39.5628850" lon="2.5680270">
        <ele>446.9</ele>
        <time>2020-02-23T12:06:34Z</time>
      </trkpt>
      <trkpt lat="39.5628850" lon="2.5680270">
        <ele>446.9</ele>
        <time>2020-02-23T12:06:35Z</time>
      </trkpt>
      <trkpt lat="39.5628850" lon="2.5680270">
        <ele>446.9</ele>
        <time>2020-02-23T12:06:37Z</time>
      </trkpt>
      <trkpt lat="39.5628850" lon="2.5680270">
        <ele>446.9</ele>
        <time>2020-02-23T12:06:39Z</time>
      </trkpt>
      <trkpt lat="39.5628850" lon="2.5680270">
        <ele>446.9</ele>
        <time>2020-02-23T12:06:41Z</time>
      </trkpt>
      <trkpt lat="39.5628850" lon="2.5680270">
        <ele>446.9</ele>
        <time>2020-02-23T12:06:42Z</time>
      </trkpt>
      <trkpt lat="39.5628850" lon="2.5680270">
        <ele>446.9</ele>
        <time>2020-02-23T12:06:44Z</time>
      </trkpt>
      <trkpt lat="39.5628770" lon="2.5680180">
        <ele>447.0</ele>
        <time>2020-02-23T12:06:46Z</time>
      </trkpt>
      <trkpt lat="39.5628720" lon="2.5680230">
        <ele>447.0</ele>
        <time>2020-02-23T12:06:48Z</time>
      </trkpt>
      <trkpt lat="39.5628710" lon="2.5680290">
        <ele>447.0</ele>
        <time>2020-02-23T12:06:50Z</time>
      </trkpt>
      <trkpt lat="39.5628720" lon="2.5680300">
        <ele>447.0</ele>
        <time>2020-02-23T12:06:51Z</time>
      </trkpt>
      <trkpt lat="39.5628710" lon="2.5680310">
        <ele>447.0</ele>
        <time>2020-02-23T12:06:53Z</time>
      </trkpt>
      <trkpt lat="39.5628700" lon="2.5680320">
        <ele>447.0</ele>
        <time>2020-02-23T12:06:54Z</time>
      </trkpt>
      <trkpt lat="39.5628720" lon="2.5680290">
        <ele>447.0</ele>
        <time>2020-02-23T12:06:56Z</time>
      </trkpt>
      <trkpt lat="39.5628770" lon="2.5680260">
        <ele>447.0</ele>
        <time>2020-02-23T12:06:58Z</time>
      </trkpt>
      <trkpt lat="39.5628790" lon="2.5680290">
        <ele>447.0</ele>
        <time>2020-02-23T12:06:59Z</time>
      </trkpt>
      <trkpt lat="39.5628810" lon="2.5680290">
        <ele>447.0</ele>
        <time>2020-02-23T12:07:02Z</time>
      </trkpt>
      <trkpt lat="39.5628810" lon="2.5680300">
        <ele>447.0</ele>
        <time>2020-02-23T12:07:03Z</time>
      </trkpt>
      <trkpt lat="39.5628820" lon="2.5680300">
        <ele>447.0</ele>
        <time>2020-02-23T12:07:05Z</time>
      </trkpt>
      <trkpt lat="39.5628820" lon="2.5680300">
        <ele>447.0</ele>
        <time>2020-02-23T12:07:07Z</time>
      </trkpt>
      <trkpt lat="39.5628820" lon="2.5680310">
        <ele>447.0</ele>
        <time>2020-02-23T12:07:08Z</time>
      </trkpt>
      <trkpt lat="39.5628820" lon="2.5680400">
        <ele>447.0</ele>
        <time>2020-02-23T12:07:09Z</time>
      </trkpt>
      <trkpt lat="39.5628820" lon="2.5680440">
        <ele>447.0</ele>
        <time>2020-02-23T12:07:11Z</time>
      </trkpt>
      <trkpt lat="39.5628820" lon="2.5680450">
        <ele>447.0</ele>
        <time>2020-02-23T12:07:12Z</time>
      </trkpt>
      <trkpt lat="39.5628820" lon="2.5680440">
        <ele>447.0</ele>
        <time>2020-02-23T12:07:14Z</time>
      </trkpt>
      <trkpt lat="39.5628810" lon="2.5680440">
        <ele>447.0</ele>
        <time>2020-02-23T12:07:15Z</time>
      </trkpt>
      <trkpt lat="39.5628790" lon="2.5680440">
        <ele>447.1</ele>
        <time>2020-02-23T12:07:17Z</time>
      </trkpt>
      <trkpt lat="39.5628790" lon="2.5680440">
        <ele>447.1</ele>
        <time>2020-02-23T12:07:18Z</time>
      </trkpt>
      <trkpt lat="39.5628780" lon="2.5680440">
        <ele>447.1</ele>
        <time>2020-02-23T12:07:20Z</time>
      </trkpt>
      <trkpt lat="39.5628780" lon="2.5680440">
        <ele>447.1</ele>
        <time>2020-02-23T12:07:22Z</time>
      </trkpt>
      <trkpt lat="39.5628780" lon="2.5680440">
        <ele>447.1</ele>
        <time>2020-02-23T12:07:23Z</time>
      </trkpt>
      <trkpt lat="39.5628780" lon="2.5680440">
        <ele>447.1</ele>
        <time>2020-02-23T12:07:25Z</time>
      </trkpt>
      <trkpt lat="39.5628770" lon="2.5680420">
        <ele>447.1</ele>
        <time>2020-02-23T12:07:27Z</time>
      </trkpt>
      <trkpt lat="39.5628760" lon="2.5680370">
        <ele>447.1</ele>
        <time>2020-02-23T12:07:29Z</time>
      </trkpt>
      <trkpt lat="39.5628770" lon="2.5680350">
        <ele>447.1</ele>
        <time>2020-02-23T12:07:30Z</time>
      </trkpt>
      <trkpt lat="39.5628770" lon="2.5680350">
        <ele>447.1</ele>
        <time>2020-02-23T12:07:32Z</time>
      </trkpt>
      <trkpt lat="39.5628770" lon="2.5680350">
        <ele>447.1</ele>
        <time>2020-02-23T12:07:33Z</time>
      </trkpt>
      <trkpt lat="39.5628770" lon="2.5680350">
        <ele>447.1</ele>
        <time>2020-02-23T12:07:34Z</time>
      </trkpt>
      <trkpt lat="39.5628770" lon="2.5680350">
        <ele>447.1</ele>
        <time>2020-02-23T12:07:36Z</time>
      </trkpt>
      <trkpt lat="39.5628770" lon="2.5680350">
        <ele>447.1</ele>
        <time>2020-02-23T12:07:37Z</time>
      </trkpt>
      <trkpt lat="39.5628770" lon="2.5680350">
        <ele>447.1</ele>
        <time>2020-02-23T12:07:38Z</time>
      </trkpt>
      <trkpt lat="39.5628830" lon="2.5680400">
        <ele>447.1</ele>
        <time>2020-02-23T12:07:40Z</time>
      </trkpt>
      <trkpt lat="39.5628840" lon="2.5680430">
        <ele>447.1</ele>
        <time>2020-02-23T12:07:41Z</time>
      </trkpt>
      <trkpt lat="39.5628830" lon="2.5680460">
        <ele>447.1</ele>
        <time>2020-02-23T12:07:43Z</time>
      </trkpt>
      <trkpt lat="39.5628820" lon="2.5680460">
        <ele>447.1</ele>
        <time>2020-02-23T12:07:44Z</time>
      </trkpt>
      <trkpt lat="39.5628820" lon="2.5680460">
        <ele>447.1</ele>
        <time>2020-02-23T12:07:45Z</time>
      </trkpt>
      <trkpt lat="39.5628820" lon="2.5680460">
        <ele>447.1</ele>
        <time>2020-02-23T12:07:47Z</time>
      </trkpt>
      <trkpt lat="39.5628820" lon="2.5680460">
        <ele>447.1</ele>
        <time>2020-02-23T12:07:49Z</time>
      </trkpt>
      <trkpt lat="39.5628860" lon="2.5680460">
        <ele>447.1</ele>
        <time>2020-02-23T12:07:50Z</time>
      </trkpt>
      <trkpt lat="39.5628870" lon="2.5680460">
        <ele>447.1</ele>
        <time>2020-02-23T12:07:52Z</time>
      </trkpt>
      <trkpt lat="39.5628850" lon="2.5680460">
        <ele>447.1</ele>
        <time>2020-02-23T12:07:53Z</time>
      </trkpt>
      <trkpt lat="39.5628840" lon="2.5680460">
        <ele>447.1</ele>
        <time>2020-02-23T12:07:54Z</time>
      </trkpt>
      <trkpt lat="39.5628830" lon="2.5680460">
        <ele>447.1</ele>
        <time>2020-02-23T12:07:56Z</time>
      </trkpt>
      <trkpt lat="39.5628840" lon="2.5680440">
        <ele>447.1</ele>
        <time>2020-02-23T12:07:58Z</time>
      </trkpt>
      <trkpt lat="39.5628800" lon="2.5680400">
        <ele>447.1</ele>
        <time>2020-02-23T12:07:59Z</time>
      </trkpt>
      <trkpt lat="39.5628730" lon="2.5680390">
        <ele>447.1</ele>
        <time>2020-02-23T12:08:01Z</time>
      </trkpt>
      <trkpt lat="39.5628720" lon="2.5680390">
        <ele>447.1</ele>
        <time>2020-02-23T12:08:02Z</time>
      </trkpt>
      <trkpt lat="39.5628730" lon="2.5680380">
        <ele>447.1</ele>
        <time>2020-02-23T12:08:04Z</time>
      </trkpt>
      <trkpt lat="39.5628730" lon="2.5680380">
        <ele>447.1</ele>
        <time>2020-02-23T12:08:05Z</time>
      </trkpt>
      <trkpt lat="39.5628730" lon="2.5680380">
        <ele>447.1</ele>
        <time>2020-02-23T12:08:06Z</time>
      </trkpt>
      <trkpt lat="39.5628760" lon="2.5680420">
        <ele>447.2</ele>
        <time>2020-02-23T12:08:07Z</time>
      </trkpt>
      <trkpt lat="39.5628790" lon="2.5680420">
        <ele>447.2</ele>
        <time>2020-02-23T12:08:09Z</time>
      </trkpt>
      <trkpt lat="39.5628790" lon="2.5680400">
        <ele>447.2</ele>
        <time>2020-02-23T12:08:10Z</time>
      </trkpt>
      <trkpt lat="39.5628790" lon="2.5680380">
        <ele>447.2</ele>
        <time>2020-02-23T12:08:11Z</time>
      </trkpt>
      <trkpt lat="39.5628780" lon="2.5680380">
        <ele>447.2</ele>
        <time>2020-02-23T12:08:13Z</time>
      </trkpt>
      <trkpt lat="39.5628780" lon="2.5680380">
        <ele>447.2</ele>
        <time>2020-02-23T12:08:14Z</time>
      </trkpt>
      <trkpt lat="39.5628780" lon="2.5680380">
        <ele>447.2</ele>
        <time>2020-02-23T12:08:16Z</time>
      </trkpt>
      <trkpt lat="39.5628780" lon="2.5680380">
        <ele>447.2</ele>
        <time>2020-02-23T12:08:18Z</time>
      </trkpt>
      <trkpt lat="39.5628780" lon="2.5680380">
        <ele>447.2</ele>
        <time>2020-02-23T12:08:20Z</time>
      </trkpt>
      <trkpt lat="39.5628780" lon="2.5680380">
        <ele>447.2</ele>
        <time>2020-02-23T12:08:22Z</time>
      </trkpt>
      <trkpt lat="39.5628780" lon="2.5680380">
        <ele>447.2</ele>
        <time>2020-02-23T12:08:24Z</time>
      </trkpt>
      <trkpt lat="39.5628780" lon="2.5680380">
        <ele>447.2</ele>
        <time>2020-02-23T12:08:26Z</time>
      </trkpt>
      <trkpt lat="39.5628780" lon="2.5680380">
        <ele>447.2</ele>
        <time>2020-02-23T12:08:27Z</time>
      </trkpt>
      <trkpt lat="39.5628780" lon="2.5680360">
        <ele>447.2</ele>
        <time>2020-02-23T12:08:29Z</time>
      </trkpt>
      <trkpt lat="39.5628780" lon="2.5680330">
        <ele>447.2</ele>
        <time>2020-02-23T12:08:31Z</time>
      </trkpt>
      <trkpt lat="39.5628770" lon="2.5680350">
        <ele>447.2</ele>
        <time>2020-02-23T12:08:33Z</time>
      </trkpt>
      <trkpt lat="39.5628720" lon="2.5680330">
        <ele>447.2</ele>
        <time>2020-02-23T12:08:35Z</time>
      </trkpt>
      <trkpt lat="39.5628710" lon="2.5680330">
        <ele>447.2</ele>
        <time>2020-02-23T12:08:36Z</time>
      </trkpt>
      <trkpt lat="39.5628680" lon="2.5680330">
        <ele>447.2</ele>
        <time>2020-02-23T12:08:38Z</time>
      </trkpt>
      <trkpt lat="39.5628650" lon="2.5680320">
        <ele>447.2</ele>
        <time>2020-02-23T12:08:40Z</time>
      </trkpt>
      <trkpt lat="39.5628660" lon="2.5680310">
        <ele>447.2</ele>
        <time>2020-02-23T12:08:42Z</time>
      </trkpt>
      <trkpt lat="39.5628680" lon="2.5680300">
        <ele>447.2</ele>
        <time>2020-02-23T12:08:44Z</time>
      </trkpt>
      <trkpt lat="39.5628680" lon="2.5680310">
        <ele>447.2</ele>
        <time>2020-02-23T12:08:45Z</time>
      </trkpt>
      <trkpt lat="39.5628680" lon="2.5680300">
        <ele>447.2</ele>
        <time>2020-02-23T12:08:47Z</time>
      </trkpt>
      <trkpt lat="39.5628680" lon="2.5680300">
        <ele>447.2</ele>
        <time>2020-02-23T12:08:49Z</time>
      </trkpt>
      <trkpt lat="39.5628680" lon="2.5680300">
        <ele>447.2</ele>
        <time>2020-02-23T12:08:50Z</time>
      </trkpt>
      <trkpt lat="39.5628680" lon="2.5680300">
        <ele>447.2</ele>
        <time>2020-02-23T12:08:52Z</time>
      </trkpt>
      <trkpt lat="39.5628680" lon="2.5680300">
        <ele>447.2</ele>
        <time>2020-02-23T12:08:54Z</time>
      </trkpt>
      <trkpt lat="39.5628680" lon="2.5680300">
        <ele>447.2</ele>
        <time>2020-02-23T12:08:56Z</time>
      </trkpt>
      <trkpt lat="39.5628680" lon="2.5680300">
        <ele>447.2</ele>
        <time>2020-02-23T12:08:57Z</time>
      </trkpt>
      <trkpt lat="39.5628630" lon="2.5680260">
        <ele>447.2</ele>
        <time>2020-02-23T12:08:59Z</time>
      </trkpt>
      <trkpt lat="39.5628660" lon="2.5680220">
        <ele>447.2</ele>
        <time>2020-02-23T12:09:02Z</time>
      </trkpt>
      <trkpt lat="39.5628680" lon="2.5680200">
        <ele>447.2</ele>
        <time>2020-02-23T12:09:03Z</time>
      </trkpt>
      <trkpt lat="39.5628760" lon="2.5680070">
        <ele>447.3</ele>
        <time>2020-02-23T12:09:05Z</time>
      </trkpt>
      <trkpt lat="39.5628800" lon="2.5680080">
        <ele>447.3</ele>
        <time>2020-02-23T12:09:07Z</time>
      </trkpt>
      <trkpt lat="39.5628790" lon="2.5680110">
        <ele>447.3</ele>
        <time>2020-02-23T12:09:09Z</time>
      </trkpt>
      <trkpt lat="39.5628790" lon="2.5680130">
        <ele>447.3</ele>
        <time>2020-02-23T12:09:10Z</time>
      </trkpt>
      <trkpt lat="39.5628790" lon="2.5680140">
        <ele>447.3</ele>
        <time>2020-02-23T12:09:11Z</time>
      </trkpt>
      <trkpt lat="39.5628790" lon="2.5680150">
        <ele>447.3</ele>
        <time>2020-02-23T12:09:12Z</time>
      </trkpt>
      <trkpt lat="39.5628790" lon="2.5680160">
        <ele>447.3</ele>
        <time>2020-02-23T12:09:14Z</time>
      </trkpt>
      <trkpt lat="39.5628790" lon="2.5680160">
        <ele>447.3</ele>
        <time>2020-02-23T12:09:15Z</time>
      </trkpt>
      <trkpt lat="39.5628790" lon="2.5680160">
        <ele>447.3</ele>
        <time>2020-02-23T12:09:17Z</time>
      </trkpt>
      <trkpt lat="39.5628790" lon="2.5680160">
        <ele>447.3</ele>
        <time>2020-02-23T12:09:18Z</time>
      </trkpt>
      <trkpt lat="39.5628790" lon="2.5680150">
        <ele>447.3</ele>
        <time>2020-02-23T12:09:19Z</time>
      </trkpt>
      <trkpt lat="39.5628790" lon="2.5680150">
        <ele>447.3</ele>
        <time>2020-02-23T12:09:21Z</time>
      </trkpt>
      <trkpt lat="39.5628790" lon="2.5680150">
        <ele>447.3</ele>
        <time>2020-02-23T12:09:22Z</time>
      </trkpt>
      <trkpt lat="39.5628790" lon="2.5680150">
        <ele>447.3</ele>
        <time>2020-02-23T12:09:23Z</time>
      </trkpt>
      <trkpt lat="39.5628790" lon="2.5680160">
        <ele>447.3</ele>
        <time>2020-02-23T12:09:25Z</time>
      </trkpt>
      <trkpt lat="39.5628780" lon="2.5680150">
        <ele>447.3</ele>
        <time>2020-02-23T12:09:26Z</time>
      </trkpt>
      <trkpt lat="39.5628770" lon="2.5680180">
        <ele>447.3</ele>
        <time>2020-02-23T12:09:28Z</time>
      </trkpt>
      <trkpt lat="39.5628790" lon="2.5680240">
        <ele>447.3</ele>
        <time>2020-02-23T12:09:30Z</time>
      </trkpt>
      <trkpt lat="39.5628800" lon="2.5680260">
        <ele>447.3</ele>
        <time>2020-02-23T12:09:31Z</time>
      </trkpt>
      <trkpt lat="39.5628830" lon="2.5680300">
        <ele>447.3</ele>
        <time>2020-02-23T12:09:33Z</time>
      </trkpt>
      <trkpt lat="39.5628840" lon="2.5680300">
        <ele>447.3</ele>
        <time>2020-02-23T12:09:35Z</time>
      </trkpt>
      <trkpt lat="39.5628840" lon="2.5680300">
        <ele>447.3</ele>
        <time>2020-02-23T12:09:36Z</time>
      </trkpt>
      <trkpt lat="39.5628840" lon="2.5680300">
        <ele>447.3</ele>
        <time>2020-02-23T12:09:38Z</time>
      </trkpt>
      <trkpt lat="39.5628840" lon="2.5680300">
        <ele>447.3</ele>
        <time>2020-02-23T12:09:40Z</time>
      </trkpt>
      <trkpt lat="39.5628840" lon="2.5680300">
        <ele>447.3</ele>
        <time>2020-02-23T12:09:42Z</time>
      </trkpt>
      <trkpt lat="39.5628850" lon="2.5680310">
        <ele>447.3</ele>
        <time>2020-02-23T12:09:43Z</time>
      </trkpt>
      <trkpt lat="39.5628850" lon="2.5680320">
        <ele>447.3</ele>
        <time>2020-02-23T12:09:44Z</time>
      </trkpt>
      <trkpt lat="39.5628850" lon="2.5680310">
        <ele>447.3</ele>
        <time>2020-02-23T12:09:45Z</time>
      </trkpt>
      <trkpt lat="39.5628830" lon="2.5680280">
        <ele>447.3</ele>
        <time>2020-02-23T12:09:47Z</time>
      </trkpt>
      <trkpt lat="39.5628790" lon="2.5680290">
        <ele>447.4</ele>
        <time>2020-02-23T12:09:49Z</time>
      </trkpt>
      <trkpt lat="39.5628780" lon="2.5680280">
        <ele>447.4</ele>
        <time>2020-02-23T12:09:50Z</time>
      </trkpt>
      <trkpt lat="39.5628790" lon="2.5680260">
        <ele>447.4</ele>
        <time>2020-02-23T12:09:52Z</time>
      </trkpt>
      <trkpt lat="39.5628790" lon="2.5680250">
        <ele>447.4</ele>
        <time>2020-02-23T12:09:53Z</time>
      </trkpt>
      <trkpt lat="39.5628790" lon="2.5680250">
        <ele>447.4</ele>
        <time>2020-02-23T12:09:55Z</time>
      </trkpt>
      <trkpt lat="39.5628790" lon="2.5680250">
        <ele>447.4</ele>
        <time>2020-02-23T12:09:56Z</time>
      </trkpt>
      <trkpt lat="39.5628790" lon="2.5680250">
        <ele>447.4</ele>
        <time>2020-02-23T12:09:58Z</time>
      </trkpt>
      <trkpt lat="39.5628790" lon="2.5680250">
        <ele>447.4</ele>
        <time>2020-02-23T12:10:00Z</time>
      </trkpt>
      <trkpt lat="39.5628790" lon="2.5680250">
        <ele>447.4</ele>
        <time>2020-02-23T12:10:02Z</time>
      </trkpt>
      <trkpt lat="39.5628790" lon="2.5680250">
        <ele>447.4</ele>
        <time>2020-02-23T12:10:04Z</time>
      </trkpt>
      <trkpt lat="39.5628790" lon="2.5680250">
        <ele>447.4</ele>
        <time>2020-02-23T12:10:06Z</time>
      </trkpt>
      <trkpt lat="39.5628790" lon="2.5680250">
        <ele>447.4</ele>
        <time>2020-02-23T12:10:07Z</time>
      </trkpt>
      <trkpt lat="39.5628790" lon="2.5680250">
        <ele>447.4</ele>
        <time>2020-02-23T12:10:09Z</time>
      </trkpt>
      <trkpt lat="39.5628790" lon="2.5680250">
        <ele>447.4</ele>
        <time>2020-02-23T12:10:11Z</time>
      </trkpt>
      <trkpt lat="39.5628790" lon="2.5680250">
        <ele>447.4</ele>
        <time>2020-02-23T12:10:12Z</time>
      </trkpt>
      <trkpt lat="39.5628790" lon="2.5680250">
        <ele>447.4</ele>
        <time>2020-02-23T12:10:14Z</time>
      </trkpt>
      <trkpt lat="39.5628790" lon="2.5680250">
        <ele>447.4</ele>
        <time>2020-02-23T12:10:15Z</time>
      </trkpt>
      <trkpt lat="39.5628790" lon="2.5680250">
        <ele>447.4</ele>
        <time>2020-02-23T12:10:16Z</time>
      </trkpt>
      <trkpt lat="39.5628790" lon="2.5680260">
        <ele>447.4</ele>
        <time>2020-02-23T12:10:17Z</time>
      </trkpt>
      <trkpt lat="39.5628790" lon="2.5680300">
        <ele>447.4</ele>
        <time>2020-02-23T12:10:19Z</time>
      </trkpt>
      <trkpt lat="39.5628800" lon="2.5680320">
        <ele>447.4</ele>
        <time>2020-02-23T12:10:20Z</time>
      </trkpt>
      <trkpt lat="39.5628840" lon="2.5680360">
        <ele>447.4</ele>
        <time>2020-02-23T12:10:22Z</time>
      </trkpt>
      <trkpt lat="39.5628850" lon="2.5680370">
        <ele>447.4</ele>
        <time>2020-02-23T12:10:23Z</time>
      </trkpt>
      <trkpt lat="39.5628840" lon="2.5680360">
        <ele>447.4</ele>
        <time>2020-02-23T12:10:25Z</time>
      </trkpt>
      <trkpt lat="39.5628840" lon="2.5680360">
        <ele>447.4</ele>
        <time>2020-02-23T12:10:26Z</time>
      </trkpt>
      <trkpt lat="39.5628830" lon="2.5680370">
        <ele>447.4</ele>
        <time>2020-02-23T12:10:28Z</time>
      </trkpt>
      <trkpt lat="39.5628830" lon="2.5680370">
        <ele>447.4</ele>
        <time>2020-02-23T12:10:29Z</time>
      </trkpt>
      <trkpt lat="39.5628830" lon="2.5680370">
        <ele>447.4</ele>
        <time>2020-02-23T12:10:31Z</time>
      </trkpt>
      <trkpt lat="39.5628830" lon="2.5680370">
        <ele>447.4</ele>
        <time>2020-02-23T12:10:33Z</time>
      </trkpt>
      <trkpt lat="39.5628830" lon="2.5680370">
        <ele>447.4</ele>
        <time>2020-02-23T12:10:34Z</time>
      </trkpt>
      <trkpt lat="39.5628830" lon="2.5680370">
        <ele>447.4</ele>
        <time>2020-02-23T12:10:36Z</time>
      </trkpt>
      <trkpt lat="39.5628830" lon="2.5680370">
        <ele>447.4</ele>
        <time>2020-02-23T12:10:37Z</time>
      </trkpt>
      <trkpt lat="39.5628830" lon="2.5680370">
        <ele>447.4</ele>
        <time>2020-02-23T12:10:39Z</time>
      </trkpt>
      <trkpt lat="39.5628830" lon="2.5680370">
        <ele>447.4</ele>
        <time>2020-02-23T12:10:40Z</time>
      </trkpt>
      <trkpt lat="39.5628830" lon="2.5680370">
        <ele>447.4</ele>
        <time>2020-02-23T12:10:41Z</time>
      </trkpt>
      <trkpt lat="39.5628820" lon="2.5680370">
        <ele>447.4</ele>
        <time>2020-02-23T12:10:43Z</time>
      </trkpt>
      <trkpt lat="39.5628830" lon="2.5680370">
        <ele>447.4</ele>
        <time>2020-02-23T12:10:45Z</time>
      </trkpt>
      <trkpt lat="39.5628850" lon="2.5680380">
        <ele>447.4</ele>
        <time>2020-02-23T12:10:47Z</time>
      </trkpt>
      <trkpt lat="39.5628850" lon="2.5680390">
        <ele>447.4</ele>
        <time>2020-02-23T12:10:49Z</time>
      </trkpt>
      <trkpt lat="39.5628840" lon="2.5680400">
        <ele>447.4</ele>
        <time>2020-02-23T12:10:50Z</time>
      </trkpt>
      <trkpt lat="39.5628820" lon="2.5680400">
        <ele>447.4</ele>
        <time>2020-02-23T12:10:52Z</time>
      </trkpt>
      <trkpt lat="39.5628810" lon="2.5680390">
        <ele>447.4</ele>
        <time>2020-02-23T12:10:54Z</time>
      </trkpt>
      <trkpt lat="39.5628810" lon="2.5680380">
        <ele>447.4</ele>
        <time>2020-02-23T12:10:55Z</time>
      </trkpt>
      <trkpt lat="39.5628810" lon="2.5680380">
        <ele>447.4</ele>
        <time>2020-02-23T12:10:56Z</time>
      </trkpt>
      <trkpt lat="39.5628800" lon="2.5680400">
        <ele>447.4</ele>
        <time>2020-02-23T12:10:58Z</time>
      </trkpt>
      <trkpt lat="39.5628800" lon="2.5680400">
        <ele>447.4</ele>
        <time>2020-02-23T12:11:00Z</time>
      </trkpt>
      <trkpt lat="39.5628800" lon="2.5680400">
        <ele>447.4</ele>
        <time>2020-02-23T12:11:01Z</time>
      </trkpt>
      <trkpt lat="39.5628800" lon="2.5680400">
        <ele>447.4</ele>
        <time>2020-02-23T12:11:03Z</time>
      </trkpt>
      <trkpt lat="39.5628800" lon="2.5680400">
        <ele>447.4</ele>
        <time>2020-02-23T12:11:05Z</time>
      </trkpt>
      <trkpt lat="39.5628800" lon="2.5680400">
        <ele>447.4</ele>
        <time>2020-02-23T12:11:06Z</time>
      </trkpt>
      <trkpt lat="39.5628800" lon="2.5680400">
        <ele>447.4</ele>
        <time>2020-02-23T12:11:08Z</time>
      </trkpt>
      <trkpt lat="39.5628800" lon="2.5680400">
        <ele>447.4</ele>
        <time>2020-02-23T12:11:09Z</time>
      </trkpt>
      <trkpt lat="39.5628810" lon="2.5680420">
        <ele>447.4</ele>
        <time>2020-02-23T12:11:11Z</time>
      </trkpt>
      <trkpt lat="39.5628820" lon="2.5680430">
        <ele>447.4</ele>
        <time>2020-02-23T12:11:13Z</time>
      </trkpt>
      <trkpt lat="39.5628820" lon="2.5680390">
        <ele>447.4</ele>
        <time>2020-02-23T12:11:14Z</time>
      </trkpt>
      <trkpt lat="39.5628850" lon="2.5680330">
        <ele>447.4</ele>
        <time>2020-02-23T12:11:16Z</time>
      </trkpt>
      <trkpt lat="39.5628880" lon="2.5680340">
        <ele>447.4</ele>
        <time>2020-02-23T12:11:17Z</time>
      </trkpt>
      <trkpt lat="39.5628900" lon="2.5680350">
        <ele>447.4</ele>
        <time>2020-02-23T12:11:18Z</time>
      </trkpt>
      <trkpt lat="39.5628920" lon="2.5680370">
        <ele>447.5</ele>
        <time>2020-02-23T12:11:20Z</time>
      </trkpt>
      <trkpt lat="39.5628910" lon="2.5680360">
        <ele>447.5</ele>
        <time>2020-02-23T12:11:22Z</time>
      </trkpt>
      <trkpt lat="39.5628910" lon="2.5680370">
        <ele>447.5</ele>
        <time>2020-02-23T12:11:23Z</time>
      </trkpt>
      <trkpt lat="39.5628910" lon="2.5680370">
        <ele>447.5</ele>
        <time>2020-02-23T12:11:25Z</time>
      </trkpt>
      <trkpt lat="39.5628910" lon="2.5680380">
        <ele>447.5</ele>
        <time>2020-02-23T12:11:27Z</time>
      </trkpt>
      <trkpt lat="39.5628890" lon="2.5680370">
        <ele>447.5</ele>
        <time>2020-02-23T12:11:28Z</time>
      </trkpt>
      <trkpt lat="39.5628890" lon="2.5680370">
        <ele>447.5</ele>
        <time>2020-02-23T12:11:29Z</time>
      </trkpt>
      <trkpt lat="39.5628880" lon="2.5680380">
        <ele>447.5</ele>
        <time>2020-02-23T12:11:31Z</time>
      </trkpt>
      <trkpt lat="39.5628880" lon="2.5680370">
        <ele>447.5</ele>
        <time>2020-02-23T12:11:33Z</time>
      </trkpt>
      <trkpt lat="39.5628890" lon="2.5680370">
        <ele>447.5</ele>
        <time>2020-02-23T12:11:34Z</time>
      </trkpt>
      <trkpt lat="39.5628890" lon="2.5680370">
        <ele>447.5</ele>
        <time>2020-02-23T12:11:35Z</time>
      </trkpt>
      <trkpt lat="39.5628870" lon="2.5680430">
        <ele>447.5</ele>
        <time>2020-02-23T12:11:37Z</time>
      </trkpt>
      <trkpt lat="39.5628870" lon="2.5680470">
        <ele>447.5</ele>
        <time>2020-02-23T12:11:38Z</time>
      </trkpt>
      <trkpt lat="39.5628880" lon="2.5680500">
        <ele>447.5</ele>
        <time>2020-02-23T12:11:39Z</time>
      </trkpt>
      <trkpt lat="39.5628930" lon="2.5680570">
        <ele>447.5</ele>
        <time>2020-02-23T12:11:41Z</time>
      </trkpt>
      <trkpt lat="39.5628940" lon="2.5680600">
        <ele>447.5</ele>
        <time>2020-02-23T12:11:42Z</time>
      </trkpt>
      <trkpt lat="39.5628960" lon="2.5680620">
        <ele>447.5</ele>
        <time>2020-02-23T12:11:44Z</time>
      </trkpt>
      <trkpt lat="39.5628950" lon="2.5680610">
        <ele>447.5</ele>
        <time>2020-02-23T12:11:46Z</time>
      </trkpt>
      <trkpt lat="39.5628920" lon="2.5680530">
        <ele>447.5</ele>
        <time>2020-02-23T12:11:48Z</time>
      </trkpt>
      <trkpt lat="39.5628900" lon="2.5680480">
        <ele>447.5</ele>
        <time>2020-02-23T12:11:50Z</time>
      </trkpt>
      <trkpt lat="39.5628900" lon="2.5680480">
        <ele>447.5</ele>
        <time>2020-02-23T12:11:52Z</time>
      </trkpt>
      <trkpt lat="39.5628900" lon="2.5680480">
        <ele>447.5</ele>
        <time>2020-02-23T12:11:54Z</time>
      </trkpt>
      <trkpt lat="39.5628900" lon="2.5680480">
        <ele>447.5</ele>
        <time>2020-02-23T12:11:55Z</time>
      </trkpt>
      <trkpt lat="39.5628900" lon="2.5680480">
        <ele>447.5</ele>
        <time>2020-02-23T12:11:57Z</time>
      </trkpt>
      <trkpt lat="39.5628900" lon="2.5680480">
        <ele>447.5</ele>
        <time>2020-02-23T12:11:59Z</time>
      </trkpt>
      <trkpt lat="39.5628900" lon="2.5680480">
        <ele>447.5</ele>
        <time>2020-02-23T12:12:00Z</time>
      </trkpt>
      <trkpt lat="39.5628900" lon="2.5680480">
        <ele>447.5</ele>
        <time>2020-02-23T12:12:02Z</time>
      </trkpt>
      <trkpt lat="39.5628900" lon="2.5680480">
        <ele>447.5</ele>
        <time>2020-02-23T12:12:04Z</time>
      </trkpt>
      <trkpt lat="39.5628900" lon="2.5680480">
        <ele>447.5</ele>
        <time>2020-02-23T12:12:05Z</time>
      </trkpt>
      <trkpt lat="39.5628900" lon="2.5680480">
        <ele>447.5</ele>
        <time>2020-02-23T12:12:06Z</time>
      </trkpt>
      <trkpt lat="39.5628900" lon="2.5680480">
        <ele>447.5</ele>
        <time>2020-02-23T12:12:07Z</time>
      </trkpt>
      <trkpt lat="39.5628900" lon="2.5680480">
        <ele>447.5</ele>
        <time>2020-02-23T12:12:08Z</time>
      </trkpt>
      <trkpt lat="39.5628900" lon="2.5680480">
        <ele>447.5</ele>
        <time>2020-02-23T12:12:10Z</time>
      </trkpt>
      <trkpt lat="39.5628900" lon="2.5680480">
        <ele>447.5</ele>
        <time>2020-02-23T12:12:11Z</time>
      </trkpt>
      <trkpt lat="39.5628900" lon="2.5680480">
        <ele>447.5</ele>
        <time>2020-02-23T12:12:12Z</time>
      </trkpt>
      <trkpt lat="39.5628900" lon="2.5680480">
        <ele>447.5</ele>
        <time>2020-02-23T12:12:13Z</time>
      </trkpt>
      <trkpt lat="39.5628900" lon="2.5680480">
        <ele>447.5</ele>
        <time>2020-02-23T12:12:14Z</time>
      </trkpt>
      <trkpt lat="39.5628890" lon="2.5680490">
        <ele>447.5</ele>
        <time>2020-02-23T12:12:16Z</time>
      </trkpt>
      <trkpt lat="39.5628860" lon="2.5680480">
        <ele>447.6</ele>
        <time>2020-02-23T12:12:18Z</time>
      </trkpt>
      <trkpt lat="39.5628840" lon="2.5680470">
        <ele>447.6</ele>
        <time>2020-02-23T12:12:19Z</time>
      </trkpt>
      <trkpt lat="39.5628830" lon="2.5680440">
        <ele>447.6</ele>
        <time>2020-02-23T12:12:21Z</time>
      </trkpt>
      <trkpt lat="39.5628830" lon="2.5680430">
        <ele>447.6</ele>
        <time>2020-02-23T12:12:23Z</time>
      </trkpt>
      <trkpt lat="39.5628830" lon="2.5680430">
        <ele>447.6</ele>
        <time>2020-02-23T12:12:24Z</time>
      </trkpt>
      <trkpt lat="39.5628830" lon="2.5680430">
        <ele>447.6</ele>
        <time>2020-02-23T12:12:25Z</time>
      </trkpt>
      <trkpt lat="39.5628820" lon="2.5680420">
        <ele>447.6</ele>
        <time>2020-02-23T12:12:27Z</time>
      </trkpt>
      <trkpt lat="39.5628820" lon="2.5680420">
        <ele>447.6</ele>
        <time>2020-02-23T12:12:28Z</time>
      </trkpt>
      <trkpt lat="39.5628840" lon="2.5680410">
        <ele>447.6</ele>
        <time>2020-02-23T12:12:30Z</time>
      </trkpt>
      <trkpt lat="39.5628850" lon="2.5680400">
        <ele>447.6</ele>
        <time>2020-02-23T12:12:31Z</time>
      </trkpt>
      <trkpt lat="39.5628850" lon="2.5680400">
        <ele>447.6</ele>
        <time>2020-02-23T12:12:33Z</time>
      </trkpt>
      <trkpt lat="39.5628850" lon="2.5680400">
        <ele>447.6</ele>
        <time>2020-02-23T12:12:34Z</time>
      </trkpt>
      <trkpt lat="39.5628850" lon="2.5680400">
        <ele>447.6</ele>
        <time>2020-02-23T12:12:36Z</time>
      </trkpt>
      <trkpt lat="39.5628850" lon="2.5680400">
        <ele>447.6</ele>
        <time>2020-02-23T12:12:37Z</time>
      </trkpt>
      <trkpt lat="39.5628850" lon="2.5680400">
        <ele>447.6</ele>
        <time>2020-02-23T12:12:38Z</time>
      </trkpt>
      <trkpt lat="39.5628850" lon="2.5680400">
        <ele>447.6</ele>
        <time>2020-02-23T12:12:40Z</time>
      </trkpt>
      <trkpt lat="39.5628850" lon="2.5680400">
        <ele>447.6</ele>
        <time>2020-02-23T12:12:42Z</time>
      </trkpt>
      <trkpt lat="39.5628850" lon="2.5680400">
        <ele>447.6</ele>
        <time>2020-02-23T12:12:43Z</time>
      </trkpt>
      <trkpt lat="39.5628850" lon="2.5680400">
        <ele>447.6</ele>
        <time>2020-02-23T12:12:44Z</time>
      </trkpt>
      <trkpt lat="39.5628850" lon="2.5680400">
        <ele>447.6</ele>
        <time>2020-02-23T12:12:46Z</time>
      </trkpt>
      <trkpt lat="39.5628850" lon="2.5680400">
        <ele>447.6</ele>
        <time>2020-02-23T12:12:47Z</time>
      </trkpt>
      <trkpt lat="39.5628850" lon="2.5680400">
        <ele>447.6</ele>
        <time>2020-02-23T12:12:49Z</time>
      </trkpt>
      <trkpt lat="39.5628850" lon="2.5680400">
        <ele>447.6</ele>
        <time>2020-02-23T12:12:50Z</time>
      </trkpt>
      <trkpt lat="39.5628850" lon="2.5680400">
        <ele>447.6</ele>
        <time>2020-02-23T12:12:51Z</time>
      </trkpt>
      <trkpt lat="39.5628850" lon="2.5680400">
        <ele>447.6</ele>
        <time>2020-02-23T12:12:53Z</time>
      </trkpt>
      <trkpt lat="39.5628850" lon="2.5680400">
        <ele>447.6</ele>
        <time>2020-02-23T12:12:54Z</time>
      </trkpt>
      <trkpt lat="39.5628850" lon="2.5680400">
        <ele>447.6</ele>
        <time>2020-02-23T12:12:55Z</time>
      </trkpt>
      <trkpt lat="39.5628850" lon="2.5680400">
        <ele>447.6</ele>
        <time>2020-02-23T12:12:57Z</time>
      </trkpt>
      <trkpt lat="39.5628850" lon="2.5680400">
        <ele>447.6</ele>
        <time>2020-02-23T12:12:59Z</time>
      </trkpt>
      <trkpt lat="39.5628860" lon="2.5680400">
        <ele>447.6</ele>
        <time>2020-02-23T12:13:00Z</time>
      </trkpt>
      <trkpt lat="39.5628860" lon="2.5680400">
        <ele>447.6</ele>
        <time>2020-02-23T12:13:01Z</time>
      </trkpt>
      <trkpt lat="39.5628860" lon="2.5680400">
        <ele>447.6</ele>
        <time>2020-02-23T12:13:03Z</time>
      </trkpt>
      <trkpt lat="39.5628850" lon="2.5680380">
        <ele>447.6</ele>
        <time>2020-02-23T12:13:05Z</time>
      </trkpt>
      <trkpt lat="39.5628840" lon="2.5680380">
        <ele>447.6</ele>
        <time>2020-02-23T12:13:06Z</time>
      </trkpt>
      <trkpt lat="39.5628830" lon="2.5680380">
        <ele>447.6</ele>
        <time>2020-02-23T12:13:07Z</time>
      </trkpt>
      <trkpt lat="39.5628840" lon="2.5680380">
        <ele>447.6</ele>
        <time>2020-02-23T12:13:09Z</time>
      </trkpt>
      <trkpt lat="39.5628850" lon="2.5680380">
        <ele>447.6</ele>
        <time>2020-02-23T12:13:11Z</time>
      </trkpt>
      <trkpt lat="39.5628850" lon="2.5680380">
        <ele>447.6</ele>
        <time>2020-02-23T12:13:13Z</time>
      </trkpt>
      <trkpt lat="39.5628850" lon="2.5680380">
        <ele>447.6</ele>
        <time>2020-02-23T12:13:15Z</time>
      </trkpt>
      <trkpt lat="39.5628850" lon="2.5680380">
        <ele>447.6</ele>
        <time>2020-02-23T12:13:17Z</time>
      </trkpt>
      <trkpt lat="39.5628850" lon="2.5680380">
        <ele>447.6</ele>
        <time>2020-02-23T12:13:18Z</time>
      </trkpt>
      <trkpt lat="39.5628850" lon="2.5680380">
        <ele>447.6</ele>
        <time>2020-02-23T12:13:20Z</time>
      </trkpt>
      <trkpt lat="39.5628850" lon="2.5680380">
        <ele>447.6</ele>
        <time>2020-02-23T12:13:22Z</time>
      </trkpt>
      <trkpt lat="39.5628850" lon="2.5680380">
        <ele>447.6</ele>
        <time>2020-02-23T12:13:23Z</time>
      </trkpt>
      <trkpt lat="39.5628840" lon="2.5680400">
        <ele>447.6</ele>
        <time>2020-02-23T12:13:25Z</time>
      </trkpt>
      <trkpt lat="39.5628840" lon="2.5680400">
        <ele>447.6</ele>
        <time>2020-02-23T12:13:27Z</time>
      </trkpt>
      <trkpt lat="39.5628850" lon="2.5680400">
        <ele>447.6</ele>
        <time>2020-02-23T12:13:28Z</time>
      </trkpt>
      <trkpt lat="39.5628860" lon="2.5680390">
        <ele>447.6</ele>
        <time>2020-02-23T12:13:30Z</time>
      </trkpt>
      <trkpt lat="39.5628860" lon="2.5680390">
        <ele>447.6</ele>
        <time>2020-02-23T12:13:32Z</time>
      </trkpt>
      <trkpt lat="39.5628860" lon="2.5680390">
        <ele>447.6</ele>
        <time>2020-02-23T12:13:34Z</time>
      </trkpt>
      <trkpt lat="39.5628860" lon="2.5680390">
        <ele>447.6</ele>
        <time>2020-02-23T12:13:36Z</time>
      </trkpt>
      <trkpt lat="39.5628860" lon="2.5680390">
        <ele>447.6</ele>
        <time>2020-02-23T12:13:37Z</time>
      </trkpt>
      <trkpt lat="39.5628860" lon="2.5680380">
        <ele>447.6</ele>
        <time>2020-02-23T12:13:39Z</time>
      </trkpt>
      <trkpt lat="39.5628860" lon="2.5680380">
        <ele>447.6</ele>
        <time>2020-02-23T12:13:40Z</time>
      </trkpt>
      <trkpt lat="39.5628860" lon="2.5680380">
        <ele>447.6</ele>
        <time>2020-02-23T12:13:42Z</time>
      </trkpt>
      <trkpt lat="39.5628860" lon="2.5680390">
        <ele>447.6</ele>
        <time>2020-02-23T12:13:43Z</time>
      </trkpt>
      <trkpt lat="39.5628860" lon="2.5680390">
        <ele>447.6</ele>
        <time>2020-02-23T12:13:44Z</time>
      </trkpt>
      <trkpt lat="39.5628860" lon="2.5680400">
        <ele>447.6</ele>
        <time>2020-02-23T12:13:45Z</time>
      </trkpt>
      <trkpt lat="39.5628860" lon="2.5680400">
        <ele>447.6</ele>
        <time>2020-02-23T12:13:47Z</time>
      </trkpt>
      <trkpt lat="39.5628860" lon="2.5680400">
        <ele>447.6</ele>
        <time>2020-02-23T12:13:48Z</time>
      </trkpt>
      <trkpt lat="39.5628860" lon="2.5680400">
        <ele>447.6</ele>
        <time>2020-02-23T12:13:49Z</time>
      </trkpt>
      <trkpt lat="39.5628860" lon="2.5680400">
        <ele>447.6</ele>
        <time>2020-02-23T12:13:50Z</time>
      </trkpt>
      <trkpt lat="39.5628860" lon="2.5680400">
        <ele>447.6</ele>
        <time>2020-02-23T12:13:52Z</time>
      </trkpt>
      <trkpt lat="39.5628860" lon="2.5680400">
        <ele>447.6</ele>
        <time>2020-02-23T12:13:53Z</time>
      </trkpt>
      <trkpt lat="39.5628860" lon="2.5680400">
        <ele>447.6</ele>
        <time>2020-02-23T12:13:55Z</time>
      </trkpt>
      <trkpt lat="39.5628870" lon="2.5680400">
        <ele>447.6</ele>
        <time>2020-02-23T12:13:56Z</time>
      </trkpt>
      <trkpt lat="39.5628870" lon="2.5680410">
        <ele>447.6</ele>
        <time>2020-02-23T12:13:58Z</time>
      </trkpt>
      <trkpt lat="39.5628870" lon="2.5680410">
        <ele>447.6</ele>
        <time>2020-02-23T12:13:59Z</time>
      </trkpt>
      <trkpt lat="39.5628880" lon="2.5680400">
        <ele>447.6</ele>
        <time>2020-02-23T12:14:01Z</time>
      </trkpt>
      <trkpt lat="39.5628880" lon="2.5680400">
        <ele>447.6</ele>
        <time>2020-02-23T12:14:02Z</time>
      </trkpt>
      <trkpt lat="39.5628870" lon="2.5680390">
        <ele>447.6</ele>
        <time>2020-02-23T12:14:04Z</time>
      </trkpt>
      <trkpt lat="39.5628870" lon="2.5680390">
        <ele>447.6</ele>
        <time>2020-02-23T12:14:05Z</time>
      </trkpt>
      <trkpt lat="39.5628870" lon="2.5680400">
        <ele>447.6</ele>
        <time>2020-02-23T12:14:07Z</time>
      </trkpt>
      <trkpt lat="39.5628860" lon="2.5680370">
        <ele>447.6</ele>
        <time>2020-02-23T12:14:09Z</time>
      </trkpt>
      <trkpt lat="39.5628850" lon="2.5680360">
        <ele>447.6</ele>
        <time>2020-02-23T12:14:11Z</time>
      </trkpt>
      <trkpt lat="39.5628850" lon="2.5680370">
        <ele>447.6</ele>
        <time>2020-02-23T12:14:13Z</time>
      </trkpt>
      <trkpt lat="39.5628850" lon="2.5680370">
        <ele>447.6</ele>
        <time>2020-02-23T12:14:14Z</time>
      </trkpt>
      <trkpt lat="39.5628850" lon="2.5680370">
        <ele>447.6</ele>
        <time>2020-02-23T12:14:15Z</time>
      </trkpt>
      <trkpt lat="39.5628850" lon="2.5680370">
        <ele>447.6</ele>
        <time>2020-02-23T12:14:16Z</time>
      </trkpt>
      <trkpt lat="39.5628850" lon="2.5680370">
        <ele>447.6</ele>
        <time>2020-02-23T12:14:18Z</time>
      </trkpt>
      <trkpt lat="39.5628850" lon="2.5680370">
        <ele>447.6</ele>
        <time>2020-02-23T12:14:20Z</time>
      </trkpt>
      <trkpt lat="39.5628850" lon="2.5680370">
        <ele>447.6</ele>
        <time>2020-02-23T12:14:21Z</time>
      </trkpt>
      <trkpt lat="39.5628850" lon="2.5680370">
        <ele>447.6</ele>
        <time>2020-02-23T12:14:23Z</time>
      </trkpt>
      <trkpt lat="39.5628850" lon="2.5680370">
        <ele>447.6</ele>
        <time>2020-02-23T12:14:24Z</time>
      </trkpt>
      <trkpt lat="39.5628850" lon="2.5680370">
        <ele>447.6</ele>
        <time>2020-02-23T12:14:25Z</time>
      </trkpt>
      <trkpt lat="39.5628850" lon="2.5680370">
        <ele>447.6</ele>
        <time>2020-02-23T12:14:26Z</time>
      </trkpt>
      <trkpt lat="39.5628850" lon="2.5680370">
        <ele>447.6</ele>
        <time>2020-02-23T12:14:28Z</time>
      </trkpt>
      <trkpt lat="39.5628850" lon="2.5680370">
        <ele>447.6</ele>
        <time>2020-02-23T12:14:30Z</time>
      </trkpt>
      <trkpt lat="39.5628850" lon="2.5680370">
        <ele>447.6</ele>
        <time>2020-02-23T12:14:31Z</time>
      </trkpt>
      <trkpt lat="39.5628840" lon="2.5680380">
        <ele>447.6</ele>
        <time>2020-02-23T12:14:33Z</time>
      </trkpt>
      <trkpt lat="39.5628820" lon="2.5680390">
        <ele>447.6</ele>
        <time>2020-02-23T12:14:35Z</time>
      </trkpt>
      <trkpt lat="39.5628790" lon="2.5680400">
        <ele>447.6</ele>
        <time>2020-02-23T12:14:37Z</time>
      </trkpt>
      <trkpt lat="39.5628790" lon="2.5680410">
        <ele>447.6</ele>
        <time>2020-02-23T12:14:38Z</time>
      </trkpt>
      <trkpt lat="39.5628790" lon="2.5680410">
        <ele>447.6</ele>
        <time>2020-02-23T12:14:39Z</time>
      </trkpt>
      <trkpt lat="39.5628790" lon="2.5680410">
        <ele>447.6</ele>
        <time>2020-02-23T12:14:41Z</time>
      </trkpt>
      <trkpt lat="39.5628790" lon="2.5680410">
        <ele>447.6</ele>
        <time>2020-02-23T12:14:42Z</time>
      </trkpt>
      <trkpt lat="39.5628790" lon="2.5680410">
        <ele>447.6</ele>
        <time>2020-02-23T12:14:43Z</time>
      </trkpt>
      <trkpt lat="39.5628790" lon="2.5680410">
        <ele>447.6</ele>
        <time>2020-02-23T12:14:45Z</time>
      </trkpt>
      <trkpt lat="39.5628790" lon="2.5680410">
        <ele>447.6</ele>
        <time>2020-02-23T12:14:46Z</time>
      </trkpt>
      <trkpt lat="39.5628790" lon="2.5680410">
        <ele>447.6</ele>
        <time>2020-02-23T12:14:48Z</time>
      </trkpt>
      <trkpt lat="39.5628790" lon="2.5680410">
        <ele>447.6</ele>
        <time>2020-02-23T12:14:49Z</time>
      </trkpt>
      <trkpt lat="39.5628790" lon="2.5680410">
        <ele>447.6</ele>
        <time>2020-02-23T12:14:50Z</time>
      </trkpt>
      <trkpt lat="39.5628790" lon="2.5680410">
        <ele>447.6</ele>
        <time>2020-02-23T12:14:52Z</time>
      </trkpt>
      <trkpt lat="39.5628790" lon="2.5680410">
        <ele>447.6</ele>
        <time>2020-02-23T12:14:53Z</time>
      </trkpt>
      <trkpt lat="39.5628790" lon="2.5680410">
        <ele>447.6</ele>
        <time>2020-02-23T12:14:55Z</time>
      </trkpt>
      <trkpt lat="39.5628790" lon="2.5680410">
        <ele>447.6</ele>
        <time>2020-02-23T12:14:56Z</time>
      </trkpt>
      <trkpt lat="39.5628800" lon="2.5680410">
        <ele>447.6</ele>
        <time>2020-02-23T12:14:58Z</time>
      </trkpt>
      <trkpt lat="39.5628800" lon="2.5680410">
        <ele>447.6</ele>
        <time>2020-02-23T12:15:00Z</time>
      </trkpt>
      <trkpt lat="39.5628810" lon="2.5680410">
        <ele>447.6</ele>
        <time>2020-02-23T12:15:01Z</time>
      </trkpt>
      <trkpt lat="39.5628810" lon="2.5680410">
        <ele>447.6</ele>
        <time>2020-02-23T12:15:03Z</time>
      </trkpt>
      <trkpt lat="39.5628810" lon="2.5680410">
        <ele>447.6</ele>
        <time>2020-02-23T12:15:04Z</time>
      </trkpt>
      <trkpt lat="39.5628810" lon="2.5680410">
        <ele>447.6</ele>
        <time>2020-02-23T12:15:06Z</time>
      </trkpt>
      <trkpt lat="39.5628810" lon="2.5680410">
        <ele>447.6</ele>
        <time>2020-02-23T12:15:08Z</time>
      </trkpt>
      <trkpt lat="39.5628810" lon="2.5680410">
        <ele>447.6</ele>
        <time>2020-02-23T12:15:10Z</time>
      </trkpt>
      <trkpt lat="39.5628790" lon="2.5680440">
        <ele>447.6</ele>
        <time>2020-02-23T12:15:12Z</time>
      </trkpt>
      <trkpt lat="39.5628790" lon="2.5680440">
        <ele>447.6</ele>
        <time>2020-02-23T12:15:14Z</time>
      </trkpt>
      <trkpt lat="39.5628790" lon="2.5680440">
        <ele>447.6</ele>
        <time>2020-02-23T12:15:15Z</time>
      </trkpt>
      <trkpt lat="39.5628790" lon="2.5680440">
        <ele>447.6</ele>
        <time>2020-02-23T12:15:16Z</time>
      </trkpt>
      <trkpt lat="39.5628790" lon="2.5680430">
        <ele>447.6</ele>
        <time>2020-02-23T12:15:18Z</time>
      </trkpt>
      <trkpt lat="39.5628790" lon="2.5680420">
        <ele>447.7</ele>
        <time>2020-02-23T12:15:20Z</time>
      </trkpt>
      <trkpt lat="39.5628790" lon="2.5680410">
        <ele>447.7</ele>
        <time>2020-02-23T12:15:21Z</time>
      </trkpt>
      <trkpt lat="39.5628790" lon="2.5680410">
        <ele>447.7</ele>
        <time>2020-02-23T12:15:22Z</time>
      </trkpt>
      <trkpt lat="39.5628790" lon="2.5680410">
        <ele>447.7</ele>
        <time>2020-02-23T12:15:24Z</time>
      </trkpt>
      <trkpt lat="39.5628790" lon="2.5680410">
        <ele>447.7</ele>
        <time>2020-02-23T12:15:26Z</time>
      </trkpt>
      <trkpt lat="39.5628790" lon="2.5680410">
        <ele>447.7</ele>
        <time>2020-02-23T12:15:27Z</time>
      </trkpt>
      <trkpt lat="39.5628790" lon="2.5680410">
        <ele>447.7</ele>
        <time>2020-02-23T12:15:29Z</time>
      </trkpt>
      <trkpt lat="39.5628790" lon="2.5680410">
        <ele>447.7</ele>
        <time>2020-02-23T12:15:30Z</time>
      </trkpt>
      <trkpt lat="39.5628790" lon="2.5680410">
        <ele>447.7</ele>
        <time>2020-02-23T12:15:32Z</time>
      </trkpt>
      <trkpt lat="39.5628790" lon="2.5680410">
        <ele>447.7</ele>
        <time>2020-02-23T12:15:33Z</time>
      </trkpt>
      <trkpt lat="39.5628780" lon="2.5680400">
        <ele>447.7</ele>
        <time>2020-02-23T12:15:35Z</time>
      </trkpt>
      <trkpt lat="39.5628780" lon="2.5680390">
        <ele>447.7</ele>
        <time>2020-02-23T12:15:36Z</time>
      </trkpt>
      <trkpt lat="39.5628780" lon="2.5680390">
        <ele>447.7</ele>
        <time>2020-02-23T12:15:38Z</time>
      </trkpt>
      <trkpt lat="39.5628780" lon="2.5680390">
        <ele>447.7</ele>
        <time>2020-02-23T12:15:40Z</time>
      </trkpt>
      <trkpt lat="39.5628780" lon="2.5680390">
        <ele>447.7</ele>
        <time>2020-02-23T12:15:42Z</time>
      </trkpt>
      <trkpt lat="39.5628780" lon="2.5680390">
        <ele>447.7</ele>
        <time>2020-02-23T12:15:43Z</time>
      </trkpt>
      <trkpt lat="39.5628780" lon="2.5680390">
        <ele>447.7</ele>
        <time>2020-02-23T12:15:45Z</time>
      </trkpt>
      <trkpt lat="39.5628770" lon="2.5680390">
        <ele>447.7</ele>
        <time>2020-02-23T12:15:47Z</time>
      </trkpt>
      <trkpt lat="39.5628770" lon="2.5680390">
        <ele>447.7</ele>
        <time>2020-02-23T12:15:48Z</time>
      </trkpt>
      <trkpt lat="39.5628770" lon="2.5680390">
        <ele>447.7</ele>
        <time>2020-02-23T12:15:49Z</time>
      </trkpt>
      <trkpt lat="39.5628780" lon="2.5680400">
        <ele>447.7</ele>
        <time>2020-02-23T12:15:51Z</time>
      </trkpt>
      <trkpt lat="39.5628780" lon="2.5680400">
        <ele>447.7</ele>
        <time>2020-02-23T12:15:52Z</time>
      </trkpt>
      <trkpt lat="39.5628780" lon="2.5680400">
        <ele>447.7</ele>
        <time>2020-02-23T12:15:53Z</time>
      </trkpt>
      <trkpt lat="39.5628780" lon="2.5680400">
        <ele>447.7</ele>
        <time>2020-02-23T12:15:55Z</time>
      </trkpt>
      <trkpt lat="39.5628780" lon="2.5680400">
        <ele>447.7</ele>
        <time>2020-02-23T12:15:57Z</time>
      </trkpt>
      <trkpt lat="39.5628780" lon="2.5680400">
        <ele>447.7</ele>
        <time>2020-02-23T12:15:58Z</time>
      </trkpt>
      <trkpt lat="39.5628780" lon="2.5680400">
        <ele>447.7</ele>
        <time>2020-02-23T12:15:59Z</time>
      </trkpt>
      <trkpt lat="39.5628780" lon="2.5680400">
        <ele>447.7</ele>
        <time>2020-02-23T12:16:00Z</time>
      </trkpt>
      <trkpt lat="39.5628780" lon="2.5680400">
        <ele>447.7</ele>
        <time>2020-02-23T12:16:02Z</time>
      </trkpt>
      <trkpt lat="39.5628780" lon="2.5680400">
        <ele>447.7</ele>
        <time>2020-02-23T12:16:04Z</time>
      </trkpt>
      <trkpt lat="39.5628780" lon="2.5680400">
        <ele>447.7</ele>
        <time>2020-02-23T12:16:06Z</time>
      </trkpt>
      <trkpt lat="39.5628780" lon="2.5680400">
        <ele>447.7</ele>
        <time>2020-02-23T12:16:08Z</time>
      </trkpt>
      <trkpt lat="39.5628780" lon="2.5680400">
        <ele>447.7</ele>
        <time>2020-02-23T12:16:09Z</time>
      </trkpt>
      <trkpt lat="39.5628780" lon="2.5680400">
        <ele>447.7</ele>
        <time>2020-02-23T12:16:10Z</time>
      </trkpt>
      <trkpt lat="39.5628780" lon="2.5680400">
        <ele>447.7</ele>
        <time>2020-02-23T12:16:12Z</time>
      </trkpt>
      <trkpt lat="39.5628780" lon="2.5680400">
        <ele>447.7</ele>
        <time>2020-02-23T12:16:13Z</time>
      </trkpt>
      <trkpt lat="39.5628780" lon="2.5680400">
        <ele>447.7</ele>
        <time>2020-02-23T12:16:15Z</time>
      </trkpt>
      <trkpt lat="39.5628780" lon="2.5680400">
        <ele>447.7</ele>
        <time>2020-02-23T12:16:16Z</time>
      </trkpt>
      <trkpt lat="39.5628780" lon="2.5680400">
        <ele>447.7</ele>
        <time>2020-02-23T12:16:18Z</time>
      </trkpt>
      <trkpt lat="39.5628780" lon="2.5680400">
        <ele>447.7</ele>
        <time>2020-02-23T12:16:20Z</time>
      </trkpt>
      <trkpt lat="39.5628780" lon="2.5680400">
        <ele>447.7</ele>
        <time>2020-02-23T12:16:21Z</time>
      </trkpt>
      <trkpt lat="39.5628780" lon="2.5680400">
        <ele>447.7</ele>
        <time>2020-02-23T12:16:23Z</time>
      </trkpt>
      <trkpt lat="39.5628780" lon="2.5680400">
        <ele>447.7</ele>
        <time>2020-02-23T12:16:24Z</time>
      </trkpt>
      <trkpt lat="39.5628780" lon="2.5680400">
        <ele>447.7</ele>
        <time>2020-02-23T12:16:26Z</time>
      </trkpt>
      <trkpt lat="39.5628780" lon="2.5680400">
        <ele>447.7</ele>
        <time>2020-02-23T12:16:28Z</time>
      </trkpt>
      <trkpt lat="39.5628780" lon="2.5680400">
        <ele>447.7</ele>
        <time>2020-02-23T12:16:30Z</time>
      </trkpt>
      <trkpt lat="39.5628780" lon="2.5680400">
        <ele>447.7</ele>
        <time>2020-02-23T12:16:31Z</time>
      </trkpt>
      <trkpt lat="39.5628780" lon="2.5680400">
        <ele>447.7</ele>
        <time>2020-02-23T12:16:32Z</time>
      </trkpt>
      <trkpt lat="39.5628810" lon="2.5680420">
        <ele>447.7</ele>
        <time>2020-02-23T12:16:34Z</time>
      </trkpt>
      <trkpt lat="39.5628820" lon="2.5680410">
        <ele>447.7</ele>
        <time>2020-02-23T12:16:36Z</time>
      </trkpt>
      <trkpt lat="39.5628840" lon="2.5680370">
        <ele>447.7</ele>
        <time>2020-02-23T12:16:37Z</time>
      </trkpt>
      <trkpt lat="39.5628850" lon="2.5680330">
        <ele>447.7</ele>
        <time>2020-02-23T12:16:39Z</time>
      </trkpt>
      <trkpt lat="39.5628840" lon="2.5680340">
        <ele>447.7</ele>
        <time>2020-02-23T12:16:41Z</time>
      </trkpt>
      <trkpt lat="39.5628840" lon="2.5680340">
        <ele>447.7</ele>
        <time>2020-02-23T12:16:43Z</time>
      </trkpt>
      <trkpt lat="39.5628840" lon="2.5680340">
        <ele>447.7</ele>
        <time>2020-02-23T12:16:44Z</time>
      </trkpt>
      <trkpt lat="39.5628840" lon="2.5680340">
        <ele>447.7</ele>
        <time>2020-02-23T12:16:46Z</time>
      </trkpt>
      <trkpt lat="39.5628850" lon="2.5680340">
        <ele>447.7</ele>
        <time>2020-02-23T12:16:48Z</time>
      </trkpt>
      <trkpt lat="39.5628850" lon="2.5680340">
        <ele>447.7</ele>
        <time>2020-02-23T12:16:50Z</time>
      </trkpt>
      <trkpt lat="39.5628850" lon="2.5680340">
        <ele>447.7</ele>
        <time>2020-02-23T12:16:51Z</time>
      </trkpt>
      <trkpt lat="39.5628850" lon="2.5680340">
        <ele>447.7</ele>
        <time>2020-02-23T12:16:52Z</time>
      </trkpt>
      <trkpt lat="39.5628850" lon="2.5680340">
        <ele>447.7</ele>
        <time>2020-02-23T12:16:54Z</time>
      </trkpt>
      <trkpt lat="39.5628850" lon="2.5680340">
        <ele>447.7</ele>
        <time>2020-02-23T12:16:56Z</time>
      </trkpt>
      <trkpt lat="39.5628850" lon="2.5680340">
        <ele>447.7</ele>
        <time>2020-02-23T12:16:58Z</time>
      </trkpt>
      <trkpt lat="39.5628850" lon="2.5680340">
        <ele>447.7</ele>
        <time>2020-02-23T12:17:00Z</time>
      </trkpt>
      <trkpt lat="39.5628850" lon="2.5680340">
        <ele>447.7</ele>
        <time>2020-02-23T12:17:01Z</time>
      </trkpt>
      <trkpt lat="39.5628850" lon="2.5680340">
        <ele>447.7</ele>
        <time>2020-02-23T12:17:03Z</time>
      </trkpt>
      <trkpt lat="39.5628850" lon="2.5680340">
        <ele>447.7</ele>
        <time>2020-02-23T12:17:05Z</time>
      </trkpt>
      <trkpt lat="39.5628850" lon="2.5680340">
        <ele>447.7</ele>
        <time>2020-02-23T12:17:06Z</time>
      </trkpt>
      <trkpt lat="39.5628850" lon="2.5680340">
        <ele>447.7</ele>
        <time>2020-02-23T12:17:08Z</time>
      </trkpt>
      <trkpt lat="39.5628850" lon="2.5680340">
        <ele>447.7</ele>
        <time>2020-02-23T12:17:09Z</time>
      </trkpt>
      <trkpt lat="39.5628850" lon="2.5680340">
        <ele>447.7</ele>
        <time>2020-02-23T12:17:11Z</time>
      </trkpt>
      <trkpt lat="39.5628850" lon="2.5680340">
        <ele>447.7</ele>
        <time>2020-02-23T12:17:12Z</time>
      </trkpt>
      <trkpt lat="39.5628850" lon="2.5680340">
        <ele>447.7</ele>
        <time>2020-02-23T12:17:14Z</time>
      </trkpt>
      <trkpt lat="39.5628850" lon="2.5680340">
        <ele>447.7</ele>
        <time>2020-02-23T12:17:16Z</time>
      </trkpt>
      <trkpt lat="39.5628850" lon="2.5680340">
        <ele>447.7</ele>
        <time>2020-02-23T12:17:18Z</time>
      </trkpt>
      <trkpt lat="39.5628850" lon="2.5680340">
        <ele>447.7</ele>
        <time>2020-02-23T12:17:20Z</time>
      </trkpt>
      <trkpt lat="39.5628850" lon="2.5680340">
        <ele>447.7</ele>
        <time>2020-02-23T12:17:22Z</time>
      </trkpt>
      <trkpt lat="39.5628850" lon="2.5680340">
        <ele>447.7</ele>
        <time>2020-02-23T12:17:23Z</time>
      </trkpt>
      <trkpt lat="39.5628850" lon="2.5680340">
        <ele>447.7</ele>
        <time>2020-02-23T12:17:24Z</time>
      </trkpt>
      <trkpt lat="39.5628860" lon="2.5680330">
        <ele>447.7</ele>
        <time>2020-02-23T12:17:26Z</time>
      </trkpt>
      <trkpt lat="39.5628870" lon="2.5680330">
        <ele>447.7</ele>
        <time>2020-02-23T12:17:27Z</time>
      </trkpt>
      <trkpt lat="39.5628880" lon="2.5680330">
        <ele>447.7</ele>
        <time>2020-02-23T12:17:28Z</time>
      </trkpt>
      <trkpt lat="39.5628890" lon="2.5680330">
        <ele>447.7</ele>
        <time>2020-02-23T12:17:30Z</time>
      </trkpt>
      <trkpt lat="39.5628890" lon="2.5680330">
        <ele>447.7</ele>
        <time>2020-02-23T12:17:31Z</time>
      </trkpt>
      <trkpt lat="39.5628900" lon="2.5680330">
        <ele>447.7</ele>
        <time>2020-02-23T12:17:33Z</time>
      </trkpt>
      <trkpt lat="39.5628890" lon="2.5680320">
        <ele>447.7</ele>
        <time>2020-02-23T12:17:34Z</time>
      </trkpt>
      <trkpt lat="39.5628890" lon="2.5680320">
        <ele>447.7</ele>
        <time>2020-02-23T12:17:36Z</time>
      </trkpt>
      <trkpt lat="39.5628890" lon="2.5680320">
        <ele>447.7</ele>
        <time>2020-02-23T12:17:37Z</time>
      </trkpt>
      <trkpt lat="39.5628890" lon="2.5680320">
        <ele>447.7</ele>
        <time>2020-02-23T12:17:38Z</time>
      </trkpt>
      <trkpt lat="39.5628890" lon="2.5680320">
        <ele>447.7</ele>
        <time>2020-02-23T12:17:40Z</time>
      </trkpt>
      <trkpt lat="39.5628890" lon="2.5680320">
        <ele>447.7</ele>
        <time>2020-02-23T12:17:41Z</time>
      </trkpt>
      <trkpt lat="39.5628890" lon="2.5680320">
        <ele>447.7</ele>
        <time>2020-02-23T12:17:42Z</time>
      </trkpt>
      <trkpt lat="39.5628890" lon="2.5680320">
        <ele>447.7</ele>
        <time>2020-02-23T12:17:44Z</time>
      </trkpt>
      <trkpt lat="39.5628890" lon="2.5680320">
        <ele>447.7</ele>
        <time>2020-02-23T12:17:45Z</time>
      </trkpt>
      <trkpt lat="39.5628890" lon="2.5680320">
        <ele>447.7</ele>
        <time>2020-02-23T12:17:47Z</time>
      </trkpt>
      <trkpt lat="39.5628890" lon="2.5680320">
        <ele>447.7</ele>
        <time>2020-02-23T12:17:49Z</time>
      </trkpt>
      <trkpt lat="39.5628890" lon="2.5680320">
        <ele>447.7</ele>
        <time>2020-02-23T12:17:50Z</time>
      </trkpt>
      <trkpt lat="39.5628890" lon="2.5680320">
        <ele>447.7</ele>
        <time>2020-02-23T12:17:52Z</time>
      </trkpt>
      <trkpt lat="39.5628880" lon="2.5680350">
        <ele>447.7</ele>
        <time>2020-02-23T12:17:53Z</time>
      </trkpt>
      <trkpt lat="39.5628860" lon="2.5680370">
        <ele>447.7</ele>
        <time>2020-02-23T12:17:54Z</time>
      </trkpt>
      <trkpt lat="39.5628840" lon="2.5680390">
        <ele>447.7</ele>
        <time>2020-02-23T12:17:56Z</time>
      </trkpt>
      <trkpt lat="39.5628820" lon="2.5680410">
        <ele>447.7</ele>
        <time>2020-02-23T12:17:57Z</time>
      </trkpt>
      <trkpt lat="39.5628820" lon="2.5680390">
        <ele>447.7</ele>
        <time>2020-02-23T12:17:59Z</time>
      </trkpt>
      <trkpt lat="39.5628820" lon="2.5680390">
        <ele>447.7</ele>
        <time>2020-02-23T12:18:00Z</time>
      </trkpt>
      <trkpt lat="39.5628830" lon="2.5680370">
        <ele>447.7</ele>
        <time>2020-02-23T12:18:01Z</time>
      </trkpt>
      <trkpt lat="39.5628840" lon="2.5680350">
        <ele>447.7</ele>
        <time>2020-02-23T12:18:02Z</time>
      </trkpt>
      <trkpt lat="39.5628850" lon="2.5680340">
        <ele>447.7</ele>
        <time>2020-02-23T12:18:03Z</time>
      </trkpt>
      <trkpt lat="39.5628850" lon="2.5680340">
        <ele>447.7</ele>
        <time>2020-02-23T12:18:05Z</time>
      </trkpt>
      <trkpt lat="39.5628850" lon="2.5680350">
        <ele>447.7</ele>
        <time>2020-02-23T12:18:07Z</time>
      </trkpt>
      <trkpt lat="39.5628840" lon="2.5680350">
        <ele>447.7</ele>
        <time>2020-02-23T12:18:08Z</time>
      </trkpt>
      <trkpt lat="39.5628840" lon="2.5680350">
        <ele>447.7</ele>
        <time>2020-02-23T12:18:09Z</time>
      </trkpt>
      <trkpt lat="39.5628840" lon="2.5680350">
        <ele>447.7</ele>
        <time>2020-02-23T12:18:11Z</time>
      </trkpt>
      <trkpt lat="39.5628840" lon="2.5680350">
        <ele>447.7</ele>
        <time>2020-02-23T12:18:12Z</time>
      </trkpt>
      <trkpt lat="39.5628840" lon="2.5680350">
        <ele>447.7</ele>
        <time>2020-02-23T12:18:14Z</time>
      </trkpt>
      <trkpt lat="39.5628840" lon="2.5680350">
        <ele>447.7</ele>
        <time>2020-02-23T12:18:16Z</time>
      </trkpt>
      <trkpt lat="39.5628840" lon="2.5680350">
        <ele>447.7</ele>
        <time>2020-02-23T12:18:18Z</time>
      </trkpt>
      <trkpt lat="39.5628840" lon="2.5680340">
        <ele>447.7</ele>
        <time>2020-02-23T12:18:20Z</time>
      </trkpt>
      <trkpt lat="39.5628850" lon="2.5680330">
        <ele>447.7</ele>
        <time>2020-02-23T12:18:22Z</time>
      </trkpt>
      <trkpt lat="39.5628860" lon="2.5680320">
        <ele>447.7</ele>
        <time>2020-02-23T12:18:23Z</time>
      </trkpt>
      <trkpt lat="39.5628890" lon="2.5680300">
        <ele>447.8</ele>
        <time>2020-02-23T12:18:25Z</time>
      </trkpt>
      <trkpt lat="39.5628890" lon="2.5680290">
        <ele>447.8</ele>
        <time>2020-02-23T12:18:27Z</time>
      </trkpt>
      <trkpt lat="39.5628870" lon="2.5680290">
        <ele>447.8</ele>
        <time>2020-02-23T12:18:28Z</time>
      </trkpt>
      <trkpt lat="39.5628860" lon="2.5680270">
        <ele>447.8</ele>
        <time>2020-02-23T12:18:30Z</time>
      </trkpt>
      <trkpt lat="39.5628860" lon="2.5680270">
        <ele>447.8</ele>
        <time>2020-02-23T12:18:32Z</time>
      </trkpt>
      <trkpt lat="39.5628860" lon="2.5680270">
        <ele>447.8</ele>
        <time>2020-02-23T12:18:34Z</time>
      </trkpt>
      <trkpt lat="39.5628880" lon="2.5680250">
        <ele>447.8</ele>
        <time>2020-02-23T12:18:36Z</time>
      </trkpt>
      <trkpt lat="39.5628890" lon="2.5680260">
        <ele>447.8</ele>
        <time>2020-02-23T12:18:38Z</time>
      </trkpt>
      <trkpt lat="39.5628890" lon="2.5680270">
        <ele>447.8</ele>
        <time>2020-02-23T12:18:40Z</time>
      </trkpt>
      <trkpt lat="39.5628890" lon="2.5680270">
        <ele>447.8</ele>
        <time>2020-02-23T12:18:41Z</time>
      </trkpt>
      <trkpt lat="39.5628890" lon="2.5680270">
        <ele>447.8</ele>
        <time>2020-02-23T12:18:42Z</time>
      </trkpt>
      <trkpt lat="39.5628890" lon="2.5680270">
        <ele>447.8</ele>
        <time>2020-02-23T12:18:43Z</time>
      </trkpt>
      <trkpt lat="39.5628890" lon="2.5680270">
        <ele>447.8</ele>
        <time>2020-02-23T12:18:45Z</time>
      </trkpt>
      <trkpt lat="39.5628890" lon="2.5680270">
        <ele>447.8</ele>
        <time>2020-02-23T12:18:46Z</time>
      </trkpt>
      <trkpt lat="39.5628890" lon="2.5680260">
        <ele>447.8</ele>
        <time>2020-02-23T12:18:48Z</time>
      </trkpt>
      <trkpt lat="39.5628880" lon="2.5680270">
        <ele>447.8</ele>
        <time>2020-02-23T12:18:49Z</time>
      </trkpt>
      <trkpt lat="39.5628880" lon="2.5680280">
        <ele>447.8</ele>
        <time>2020-02-23T12:18:51Z</time>
      </trkpt>
      <trkpt lat="39.5628880" lon="2.5680290">
        <ele>447.8</ele>
        <time>2020-02-23T12:18:52Z</time>
      </trkpt>
      <trkpt lat="39.5628880" lon="2.5680280">
        <ele>447.8</ele>
        <time>2020-02-23T12:18:53Z</time>
      </trkpt>
      <trkpt lat="39.5628900" lon="2.5680230">
        <ele>447.8</ele>
        <time>2020-02-23T12:18:54Z</time>
      </trkpt>
      <trkpt lat="39.5628910" lon="2.5680120">
        <ele>447.8</ele>
        <time>2020-02-23T12:18:56Z</time>
      </trkpt>
      <trkpt lat="39.5628930" lon="2.5680030">
        <ele>447.8</ele>
        <time>2020-02-23T12:18:57Z</time>
      </trkpt>
      <trkpt lat="39.5629020" lon="2.5679780">
        <ele>447.9</ele>
        <time>2020-02-23T12:18:59Z</time>
      </trkpt>
      <trkpt lat="39.5629120" lon="2.5679510">
        <ele>447.9</ele>
        <time>2020-02-23T12:19:01Z</time>
      </trkpt>
      <trkpt lat="39.5629130" lon="2.5679430">
        <ele>447.9</ele>
        <time>2020-02-23T12:19:02Z</time>
      </trkpt>
      <trkpt lat="39.5629100" lon="2.5679520">
        <ele>447.9</ele>
        <time>2020-02-23T12:19:03Z</time>
      </trkpt>
      <trkpt lat="39.5629130" lon="2.5679450">
        <ele>448.0</ele>
        <time>2020-02-23T12:19:04Z</time>
      </trkpt>
      <trkpt lat="39.5629210" lon="2.5679130">
        <ele>447.9</ele>
        <time>2020-02-23T12:19:05Z</time>
      </trkpt>
      <trkpt lat="39.5629250" lon="2.5678760">
        <ele>447.9</ele>
        <time>2020-02-23T12:19:06Z</time>
      </trkpt>
      <trkpt lat="39.5629290" lon="2.5678380">
        <ele>447.9</ele>
        <time>2020-02-23T12:19:08Z</time>
      </trkpt>
      <trkpt lat="39.5629300" lon="2.5678270">
        <ele>447.9</ele>
        <time>2020-02-23T12:19:09Z</time>
      </trkpt>
      <trkpt lat="39.5629290" lon="2.5678070">
        <ele>447.8</ele>
        <time>2020-02-23T12:19:11Z</time>
      </trkpt>
      <trkpt lat="39.5629330" lon="2.5677710">
        <ele>447.8</ele>
        <time>2020-02-23T12:19:12Z</time>
      </trkpt>
      <trkpt lat="39.5629380" lon="2.5677490">
        <ele>447.8</ele>
        <time>2020-02-23T12:19:13Z</time>
      </trkpt>
      <trkpt lat="39.5629450" lon="2.5677210">
        <ele>447.8</ele>
        <time>2020-02-23T12:19:15Z</time>
      </trkpt>
      <trkpt lat="39.5629490" lon="2.5677100">
        <ele>447.8</ele>
        <time>2020-02-23T12:19:16Z</time>
      </trkpt>
      <trkpt lat="39.5629520" lon="2.5676990">
        <ele>447.8</ele>
        <time>2020-02-23T12:19:17Z</time>
      </trkpt>
      <trkpt lat="39.5629590" lon="2.5676750">
        <ele>447.7</ele>
        <time>2020-02-23T12:19:19Z</time>
      </trkpt>
      <trkpt lat="39.5629710" lon="2.5676500">
        <ele>447.7</ele>
        <time>2020-02-23T12:19:21Z</time>
      </trkpt>
      <trkpt lat="39.5629790" lon="2.5676300">
        <ele>447.7</ele>
        <time>2020-02-23T12:19:22Z</time>
      </trkpt>
      <trkpt lat="39.5629800" lon="2.5676140">
        <ele>447.6</ele>
        <time>2020-02-23T12:19:23Z</time>
      </trkpt>
      <trkpt lat="39.5629850" lon="2.5675930">
        <ele>447.6</ele>
        <time>2020-02-23T12:19:24Z</time>
      </trkpt>
      <trkpt lat="39.5629900" lon="2.5675750">
        <ele>447.6</ele>
        <time>2020-02-23T12:19:26Z</time>
      </trkpt>
      <trkpt lat="39.5630070" lon="2.5675190">
        <ele>447.5</ele>
        <time>2020-02-23T12:19:28Z</time>
      </trkpt>
      <trkpt lat="39.5630120" lon="2.5674980">
        <ele>447.4</ele>
        <time>2020-02-23T12:19:30Z</time>
      </trkpt>
      <trkpt lat="39.5630170" lon="2.5674770">
        <ele>447.3</ele>
        <time>2020-02-23T12:19:31Z</time>
      </trkpt>
      <trkpt lat="39.5630240" lon="2.5674570">
        <ele>447.3</ele>
        <time>2020-02-23T12:19:32Z</time>
      </trkpt>
      <trkpt lat="39.5630290" lon="2.5674420">
        <ele>447.2</ele>
        <time>2020-02-23T12:19:33Z</time>
      </trkpt>
      <trkpt lat="39.5630410" lon="2.5673990">
        <ele>447.1</ele>
        <time>2020-02-23T12:19:35Z</time>
      </trkpt>
      <trkpt lat="39.5630460" lon="2.5673750">
        <ele>447.0</ele>
        <time>2020-02-23T12:19:37Z</time>
      </trkpt>
      <trkpt lat="39.5630520" lon="2.5673410">
        <ele>446.9</ele>
        <time>2020-02-23T12:19:39Z</time>
      </trkpt>
      <trkpt lat="39.5630490" lon="2.5673300">
        <ele>446.9</ele>
        <time>2020-02-23T12:19:40Z</time>
      </trkpt>
      <trkpt lat="39.5630350" lon="2.5673130">
        <ele>446.8</ele>
        <time>2020-02-23T12:19:42Z</time>
      </trkpt>
      <trkpt lat="39.5630350" lon="2.5673110">
        <ele>446.7</ele>
        <time>2020-02-23T12:19:43Z</time>
      </trkpt>
      <trkpt lat="39.5630420" lon="2.5673080">
        <ele>446.7</ele>
        <time>2020-02-23T12:19:45Z</time>
      </trkpt>
      <trkpt lat="39.5630440" lon="2.5673050">
        <ele>446.7</ele>
        <time>2020-02-23T12:19:46Z</time>
      </trkpt>
      <trkpt lat="39.5630480" lon="2.5672950">
        <ele>446.7</ele>
        <time>2020-02-23T12:19:47Z</time>
      </trkpt>
      <trkpt lat="39.5630410" lon="2.5672910">
        <ele>446.6</ele>
        <time>2020-02-23T12:19:48Z</time>
      </trkpt>
      <trkpt lat="39.5630400" lon="2.5672900">
        <ele>446.6</ele>
        <time>2020-02-23T12:19:49Z</time>
      </trkpt>
      <trkpt lat="39.5630440" lon="2.5672850">
        <ele>446.6</ele>
        <time>2020-02-23T12:19:52Z</time>
      </trkpt>
      <trkpt lat="39.5630450" lon="2.5672850">
        <ele>446.6</ele>
        <time>2020-02-23T12:19:53Z</time>
      </trkpt>
      <trkpt lat="39.5630470" lon="2.5672840">
        <ele>446.6</ele>
        <time>2020-02-23T12:19:55Z</time>
      </trkpt>
      <trkpt lat="39.5630490" lon="2.5672790">
        <ele>446.5</ele>
        <time>2020-02-23T12:19:56Z</time>
      </trkpt>
      <trkpt lat="39.5630560" lon="2.5672660">
        <ele>446.5</ele>
        <time>2020-02-23T12:19:58Z</time>
      </trkpt>
      <trkpt lat="39.5630620" lon="2.5672570">
        <ele>446.4</ele>
        <time>2020-02-23T12:19:59Z</time>
      </trkpt>
      <trkpt lat="39.5630670" lon="2.5672490">
        <ele>446.4</ele>
        <time>2020-02-23T12:20:01Z</time>
      </trkpt>
      <trkpt lat="39.5630740" lon="2.5672340">
        <ele>446.3</ele>
        <time>2020-02-23T12:20:02Z</time>
      </trkpt>
      <trkpt lat="39.5630760" lon="2.5672220">
        <ele>446.2</ele>
        <time>2020-02-23T12:20:04Z</time>
      </trkpt>
      <trkpt lat="39.5630650" lon="2.5672060">
        <ele>446.1</ele>
        <time>2020-02-23T12:20:05Z</time>
      </trkpt>
      <trkpt lat="39.5630510" lon="2.5671880">
        <ele>446.0</ele>
        <time>2020-02-23T12:20:06Z</time>
      </trkpt>
      <trkpt lat="39.5630410" lon="2.5671810">
        <ele>445.9</ele>
        <time>2020-02-23T12:20:07Z</time>
      </trkpt>
      <trkpt lat="39.5630260" lon="2.5671620">
        <ele>445.7</ele>
        <time>2020-02-23T12:20:09Z</time>
      </trkpt>
      <trkpt lat="39.5630200" lon="2.5671520">
        <ele>445.7</ele>
        <time>2020-02-23T12:20:10Z</time>
      </trkpt>
      <trkpt lat="39.5630060" lon="2.5671370">
        <ele>445.6</ele>
        <time>2020-02-23T12:20:12Z</time>
      </trkpt>
      <trkpt lat="39.5629960" lon="2.5671320">
        <ele>447.6</ele>
        <time>2020-02-23T12:20:14Z</time>
      </trkpt>
      <trkpt lat="39.5629870" lon="2.5671260">
        <ele>447.8</ele>
        <time>2020-02-23T12:20:15Z</time>
      </trkpt>
      <trkpt lat="39.5629680" lon="2.5671150">
        <ele>448.1</ele>
        <time>2020-02-23T12:20:16Z</time>
      </trkpt>
      <trkpt lat="39.5629600" lon="2.5671090">
        <ele>448.2</ele>
        <time>2020-02-23T12:20:18Z</time>
      </trkpt>
      <trkpt lat="39.5629520" lon="2.5671040">
        <ele>448.4</ele>
        <time>2020-02-23T12:20:19Z</time>
      </trkpt>
      <trkpt lat="39.5629380" lon="2.5670870">
        <ele>448.7</ele>
        <time>2020-02-23T12:20:20Z</time>
      </trkpt>
      <trkpt lat="39.5629190" lon="2.5670640">
        <ele>449.0</ele>
        <time>2020-02-23T12:20:22Z</time>
      </trkpt>
      <trkpt lat="39.5629070" lon="2.5670510">
        <ele>449.2</ele>
        <time>2020-02-23T12:20:24Z</time>
      </trkpt>
      <trkpt lat="39.5628920" lon="2.5670410">
        <ele>449.5</ele>
        <time>2020-02-23T12:20:25Z</time>
      </trkpt>
      <trkpt lat="39.5628810" lon="2.5670340">
        <ele>449.6</ele>
        <time>2020-02-23T12:20:27Z</time>
      </trkpt>
      <trkpt lat="39.5628700" lon="2.5670240">
        <ele>449.8</ele>
        <time>2020-02-23T12:20:28Z</time>
      </trkpt>
      <trkpt lat="39.5628610" lon="2.5670140">
        <ele>450.0</ele>
        <time>2020-02-23T12:20:29Z</time>
      </trkpt>
      <trkpt lat="39.5628450" lon="2.5669990">
        <ele>450.2</ele>
        <time>2020-02-23T12:20:31Z</time>
      </trkpt>
      <trkpt lat="39.5628280" lon="2.5669890">
        <ele>450.5</ele>
        <time>2020-02-23T12:20:33Z</time>
      </trkpt>
      <trkpt lat="39.5628200" lon="2.5669840">
        <ele>450.6</ele>
        <time>2020-02-23T12:20:34Z</time>
      </trkpt>
      <trkpt lat="39.5628110" lon="2.5669800">
        <ele>450.7</ele>
        <time>2020-02-23T12:20:35Z</time>
      </trkpt>
      <trkpt lat="39.5627940" lon="2.5669760">
        <ele>450.9</ele>
        <time>2020-02-23T12:20:36Z</time>
      </trkpt>
      <trkpt lat="39.5627860" lon="2.5669750">
        <ele>451.1</ele>
        <time>2020-02-23T12:20:38Z</time>
      </trkpt>
      <trkpt lat="39.5627790" lon="2.5669750">
        <ele>451.1</ele>
        <time>2020-02-23T12:20:39Z</time>
      </trkpt>
      <trkpt lat="39.5627710" lon="2.5669740">
        <ele>451.2</ele>
        <time>2020-02-23T12:20:40Z</time>
      </trkpt>
      <trkpt lat="39.5627520" lon="2.5669760">
        <ele>451.5</ele>
        <time>2020-02-23T12:20:42Z</time>
      </trkpt>
      <trkpt lat="39.5627460" lon="2.5669780">
        <ele>451.5</ele>
        <time>2020-02-23T12:20:43Z</time>
      </trkpt>
      <trkpt lat="39.5627400" lon="2.5669770">
        <ele>451.6</ele>
        <time>2020-02-23T12:20:45Z</time>
      </trkpt>
      <trkpt lat="39.5627290" lon="2.5669740">
        <ele>451.8</ele>
        <time>2020-02-23T12:20:46Z</time>
      </trkpt>
      <trkpt lat="39.5627210" lon="2.5669740">
        <ele>451.8</ele>
        <time>2020-02-23T12:20:48Z</time>
      </trkpt>
      <trkpt lat="39.5627070" lon="2.5669760">
        <ele>452.0</ele>
        <time>2020-02-23T12:20:49Z</time>
      </trkpt>
      <trkpt lat="39.5626920" lon="2.5669750">
        <ele>452.2</ele>
        <time>2020-02-23T12:20:50Z</time>
      </trkpt>
      <trkpt lat="39.5626850" lon="2.5669730">
        <ele>452.2</ele>
        <time>2020-02-23T12:20:53Z</time>
      </trkpt>
      <trkpt lat="39.5626770" lon="2.5669700">
        <ele>452.3</ele>
        <time>2020-02-23T12:20:54Z</time>
      </trkpt>
      <trkpt lat="39.5626700" lon="2.5669680">
        <ele>452.4</ele>
        <time>2020-02-23T12:20:55Z</time>
      </trkpt>
      <trkpt lat="39.5626640" lon="2.5669630">
        <ele>452.4</ele>
        <time>2020-02-23T12:20:57Z</time>
      </trkpt>
      <trkpt lat="39.5626550" lon="2.5669460">
        <ele>452.6</ele>
        <time>2020-02-23T12:20:58Z</time>
      </trkpt>
      <trkpt lat="39.5626510" lon="2.5669360">
        <ele>452.7</ele>
        <time>2020-02-23T12:21:00Z</time>
      </trkpt>
      <trkpt lat="39.5626450" lon="2.5669190">
        <ele>452.8</ele>
        <time>2020-02-23T12:21:02Z</time>
      </trkpt>
      <trkpt lat="39.5626410" lon="2.5669090">
        <ele>452.9</ele>
        <time>2020-02-23T12:21:03Z</time>
      </trkpt>
      <trkpt lat="39.5626350" lon="2.5668970">
        <ele>452.9</ele>
        <time>2020-02-23T12:21:05Z</time>
      </trkpt>
      <trkpt lat="39.5626290" lon="2.5668820">
        <ele>453.0</ele>
        <time>2020-02-23T12:21:06Z</time>
      </trkpt>
      <trkpt lat="39.5626250" lon="2.5668750">
        <ele>453.0</ele>
        <time>2020-02-23T12:21:08Z</time>
      </trkpt>
      <trkpt lat="39.5626220" lon="2.5668690">
        <ele>453.1</ele>
        <time>2020-02-23T12:21:10Z</time>
      </trkpt>
      <trkpt lat="39.5626210" lon="2.5668610">
        <ele>453.1</ele>
        <time>2020-02-23T12:21:11Z</time>
      </trkpt>
      <trkpt lat="39.5626220" lon="2.5668490">
        <ele>453.2</ele>
        <time>2020-02-23T12:21:13Z</time>
      </trkpt>
      <trkpt lat="39.5626230" lon="2.5668320">
        <ele>453.3</ele>
        <time>2020-02-23T12:21:15Z</time>
      </trkpt>
      <trkpt lat="39.5626220" lon="2.5668190">
        <ele>453.3</ele>
        <time>2020-02-23T12:21:16Z</time>
      </trkpt>
      <trkpt lat="39.5626200" lon="2.5668080">
        <ele>453.3</ele>
        <time>2020-02-23T12:21:18Z</time>
      </trkpt>
      <trkpt lat="39.5626190" lon="2.5667950">
        <ele>453.4</ele>
        <time>2020-02-23T12:21:19Z</time>
      </trkpt>
      <trkpt lat="39.5626180" lon="2.5667820">
        <ele>453.4</ele>
        <time>2020-02-23T12:21:20Z</time>
      </trkpt>
      <trkpt lat="39.5626130" lon="2.5667580">
        <ele>453.5</ele>
        <time>2020-02-23T12:21:22Z</time>
      </trkpt>
      <trkpt lat="39.5626100" lon="2.5667450">
        <ele>453.5</ele>
        <time>2020-02-23T12:21:23Z</time>
      </trkpt>
      <trkpt lat="39.5626070" lon="2.5667330">
        <ele>453.5</ele>
        <time>2020-02-23T12:21:24Z</time>
      </trkpt>
      <trkpt lat="39.5626040" lon="2.5667050">
        <ele>453.6</ele>
        <time>2020-02-23T12:21:26Z</time>
      </trkpt>
      <trkpt lat="39.5626010" lon="2.5666930">
        <ele>453.6</ele>
        <time>2020-02-23T12:21:28Z</time>
      </trkpt>
      <trkpt lat="39.5625990" lon="2.5666820">
        <ele>453.6</ele>
        <time>2020-02-23T12:21:29Z</time>
      </trkpt>
      <trkpt lat="39.5625940" lon="2.5666650">
        <ele>453.7</ele>
        <time>2020-02-23T12:21:30Z</time>
      </trkpt>
      <trkpt lat="39.5625880" lon="2.5666490">
        <ele>453.7</ele>
        <time>2020-02-23T12:21:32Z</time>
      </trkpt>
      <trkpt lat="39.5625810" lon="2.5666350">
        <ele>453.7</ele>
        <time>2020-02-23T12:21:33Z</time>
      </trkpt>
      <trkpt lat="39.5625770" lon="2.5666230">
        <ele>453.7</ele>
        <time>2020-02-23T12:21:34Z</time>
      </trkpt>
      <trkpt lat="39.5625760" lon="2.5666070">
        <ele>453.8</ele>
        <time>2020-02-23T12:21:35Z</time>
      </trkpt>
      <trkpt lat="39.5625750" lon="2.5665840">
        <ele>453.8</ele>
        <time>2020-02-23T12:21:36Z</time>
      </trkpt>
      <trkpt lat="39.5625730" lon="2.5665720">
        <ele>453.8</ele>
        <time>2020-02-23T12:21:38Z</time>
      </trkpt>
      <trkpt lat="39.5625650" lon="2.5665610">
        <ele>453.8</ele>
        <time>2020-02-23T12:21:39Z</time>
      </trkpt>
      <trkpt lat="39.5625470" lon="2.5665520">
        <ele>453.9</ele>
        <time>2020-02-23T12:21:41Z</time>
      </trkpt>
      <trkpt lat="39.5625310" lon="2.5665390">
        <ele>453.9</ele>
        <time>2020-02-23T12:21:43Z</time>
      </trkpt>
      <trkpt lat="39.5625180" lon="2.5665260">
        <ele>454.0</ele>
        <time>2020-02-23T12:21:44Z</time>
      </trkpt>
      <trkpt lat="39.5625100" lon="2.5665150">
        <ele>454.0</ele>
        <time>2020-02-23T12:21:45Z</time>
      </trkpt>
      <trkpt lat="39.5625000" lon="2.5664960">
        <ele>454.1</ele>
        <time>2020-02-23T12:21:46Z</time>
      </trkpt>
      <trkpt lat="39.5624870" lon="2.5664780">
        <ele>454.1</ele>
        <time>2020-02-23T12:21:48Z</time>
      </trkpt>
      <trkpt lat="39.5624790" lon="2.5664720">
        <ele>454.2</ele>
        <time>2020-02-23T12:21:50Z</time>
      </trkpt>
      <trkpt lat="39.5624720" lon="2.5664660">
        <ele>454.2</ele>
        <time>2020-02-23T12:21:51Z</time>
      </trkpt>
      <trkpt lat="39.5624600" lon="2.5664620">
        <ele>454.3</ele>
        <time>2020-02-23T12:21:52Z</time>
      </trkpt>
      <trkpt lat="39.5624320" lon="2.5664490">
        <ele>454.5</ele>
        <time>2020-02-23T12:21:54Z</time>
      </trkpt>
      <trkpt lat="39.5624260" lon="2.5664450">
        <ele>454.5</ele>
        <time>2020-02-23T12:21:56Z</time>
      </trkpt>
      <trkpt lat="39.5624140" lon="2.5664400">
        <ele>454.6</ele>
        <time>2020-02-23T12:21:57Z</time>
      </trkpt>
      <trkpt lat="39.5624010" lon="2.5664370">
        <ele>454.7</ele>
        <time>2020-02-23T12:22:00Z</time>
      </trkpt>
      <trkpt lat="39.5623890" lon="2.5664310">
        <ele>454.8</ele>
        <time>2020-02-23T12:22:01Z</time>
      </trkpt>
      <trkpt lat="39.5623790" lon="2.5664280">
        <ele>454.9</ele>
        <time>2020-02-23T12:22:03Z</time>
      </trkpt>
      <trkpt lat="39.5623670" lon="2.5664230">
        <ele>455.0</ele>
        <time>2020-02-23T12:22:04Z</time>
      </trkpt>
      <trkpt lat="39.5623550" lon="2.5664190">
        <ele>455.1</ele>
        <time>2020-02-23T12:22:05Z</time>
      </trkpt>
      <trkpt lat="39.5623440" lon="2.5664120">
        <ele>455.2</ele>
        <time>2020-02-23T12:22:08Z</time>
      </trkpt>
      <trkpt lat="39.5623360" lon="2.5664050">
        <ele>455.3</ele>
        <time>2020-02-23T12:22:09Z</time>
      </trkpt>
      <trkpt lat="39.5623160" lon="2.5663890">
        <ele>455.5</ele>
        <time>2020-02-23T12:22:11Z</time>
      </trkpt>
      <trkpt lat="39.5623060" lon="2.5663800">
        <ele>455.7</ele>
        <time>2020-02-23T12:22:14Z</time>
      </trkpt>
      <trkpt lat="39.5622860" lon="2.5663680">
        <ele>455.9</ele>
        <time>2020-02-23T12:22:15Z</time>
      </trkpt>
      <trkpt lat="39.5622780" lon="2.5663660">
        <ele>456.0</ele>
        <time>2020-02-23T12:22:17Z</time>
      </trkpt>
      <trkpt lat="39.5622690" lon="2.5663590">
        <ele>456.1</ele>
        <time>2020-02-23T12:22:19Z</time>
      </trkpt>
      <trkpt lat="39.5622460" lon="2.5663420">
        <ele>456.4</ele>
        <time>2020-02-23T12:22:21Z</time>
      </trkpt>
      <trkpt lat="39.5622370" lon="2.5663330">
        <ele>456.5</ele>
        <time>2020-02-23T12:22:22Z</time>
      </trkpt>
      <trkpt lat="39.5622320" lon="2.5663290">
        <ele>456.5</ele>
        <time>2020-02-23T12:22:24Z</time>
      </trkpt>
      <trkpt lat="39.5622270" lon="2.5663270">
        <ele>456.6</ele>
        <time>2020-02-23T12:22:26Z</time>
      </trkpt>
      <trkpt lat="39.5622170" lon="2.5663150">
        <ele>456.8</ele>
        <time>2020-02-23T12:22:27Z</time>
      </trkpt>
      <trkpt lat="39.5622100" lon="2.5663070">
        <ele>456.9</ele>
        <time>2020-02-23T12:22:28Z</time>
      </trkpt>
      <trkpt lat="39.5622040" lon="2.5662980">
        <ele>457.0</ele>
        <time>2020-02-23T12:22:30Z</time>
      </trkpt>
      <trkpt lat="39.5621980" lon="2.5662880">
        <ele>457.1</ele>
        <time>2020-02-23T12:22:33Z</time>
      </trkpt>
      <trkpt lat="39.5621940" lon="2.5662820">
        <ele>457.1</ele>
        <time>2020-02-23T12:22:34Z</time>
      </trkpt>
      <trkpt lat="39.5621880" lon="2.5662720">
        <ele>457.2</ele>
        <time>2020-02-23T12:22:36Z</time>
      </trkpt>
      <trkpt lat="39.5621880" lon="2.5662640">
        <ele>457.3</ele>
        <time>2020-02-23T12:22:37Z</time>
      </trkpt>
      <trkpt lat="39.5621830" lon="2.5662530">
        <ele>457.4</ele>
        <time>2020-02-23T12:22:39Z</time>
      </trkpt>
      <trkpt lat="39.5621800" lon="2.5662440">
        <ele>457.5</ele>
        <time>2020-02-23T12:22:40Z</time>
      </trkpt>
      <trkpt lat="39.5621650" lon="2.5662180">
        <ele>457.8</ele>
        <time>2020-02-23T12:22:42Z</time>
      </trkpt>
      <trkpt lat="39.5621600" lon="2.5662120">
        <ele>457.9</ele>
        <time>2020-02-23T12:22:44Z</time>
      </trkpt>
      <trkpt lat="39.5621570" lon="2.5662070">
        <ele>458.0</ele>
        <time>2020-02-23T12:22:46Z</time>
      </trkpt>
      <trkpt lat="39.5621500" lon="2.5661960">
        <ele>458.1</ele>
        <time>2020-02-23T12:22:48Z</time>
      </trkpt>
      <trkpt lat="39.5621460" lon="2.5661870">
        <ele>458.2</ele>
        <time>2020-02-23T12:22:50Z</time>
      </trkpt>
      <trkpt lat="39.5621450" lon="2.5661760">
        <ele>458.3</ele>
        <time>2020-02-23T12:22:51Z</time>
      </trkpt>
      <trkpt lat="39.5621420" lon="2.5661670">
        <ele>458.4</ele>
        <time>2020-02-23T12:22:53Z</time>
      </trkpt>
      <trkpt lat="39.5621390" lon="2.5661610">
        <ele>458.5</ele>
        <time>2020-02-23T12:22:54Z</time>
      </trkpt>
      <trkpt lat="39.5621330" lon="2.5661490">
        <ele>458.6</ele>
        <time>2020-02-23T12:22:56Z</time>
      </trkpt>
      <trkpt lat="39.5621290" lon="2.5661390">
        <ele>458.7</ele>
        <time>2020-02-23T12:22:57Z</time>
      </trkpt>
      <trkpt lat="39.5621230" lon="2.5661320">
        <ele>458.8</ele>
        <time>2020-02-23T12:22:59Z</time>
      </trkpt>
      <trkpt lat="39.5621140" lon="2.5661120">
        <ele>459.0</ele>
        <time>2020-02-23T12:23:00Z</time>
      </trkpt>
      <trkpt lat="39.5621060" lon="2.5661010">
        <ele>459.1</ele>
        <time>2020-02-23T12:23:02Z</time>
      </trkpt>
      <trkpt lat="39.5620980" lon="2.5660910">
        <ele>459.2</ele>
        <time>2020-02-23T12:23:03Z</time>
      </trkpt>
      <trkpt lat="39.5620890" lon="2.5660750">
        <ele>459.4</ele>
        <time>2020-02-23T12:23:04Z</time>
      </trkpt>
      <trkpt lat="39.5620820" lon="2.5660620">
        <ele>459.5</ele>
        <time>2020-02-23T12:23:07Z</time>
      </trkpt>
      <trkpt lat="39.5620780" lon="2.5660540">
        <ele>459.6</ele>
        <time>2020-02-23T12:23:08Z</time>
      </trkpt>
      <trkpt lat="39.5620700" lon="2.5660450">
        <ele>459.7</ele>
        <time>2020-02-23T12:23:09Z</time>
      </trkpt>
      <trkpt lat="39.5620590" lon="2.5660320">
        <ele>459.9</ele>
        <time>2020-02-23T12:23:11Z</time>
      </trkpt>
      <trkpt lat="39.5620510" lon="2.5660220">
        <ele>460.0</ele>
        <time>2020-02-23T12:23:13Z</time>
      </trkpt>
      <trkpt lat="39.5620370" lon="2.5660060">
        <ele>460.3</ele>
        <time>2020-02-23T12:23:14Z</time>
      </trkpt>
      <trkpt lat="39.5620290" lon="2.5659990">
        <ele>460.4</ele>
        <time>2020-02-23T12:23:16Z</time>
      </trkpt>
      <trkpt lat="39.5620160" lon="2.5659910">
        <ele>460.6</ele>
        <time>2020-02-23T12:23:17Z</time>
      </trkpt>
      <trkpt lat="39.5620080" lon="2.5659850">
        <ele>460.7</ele>
        <time>2020-02-23T12:23:19Z</time>
      </trkpt>
      <trkpt lat="39.5619950" lon="2.5659730">
        <ele>460.9</ele>
        <time>2020-02-23T12:23:20Z</time>
      </trkpt>
      <trkpt lat="39.5619910" lon="2.5659690">
        <ele>461.0</ele>
        <time>2020-02-23T12:23:22Z</time>
      </trkpt>
      <trkpt lat="39.5619870" lon="2.5659610">
        <ele>461.1</ele>
        <time>2020-02-23T12:23:23Z</time>
      </trkpt>
      <trkpt lat="39.5619820" lon="2.5659570">
        <ele>461.2</ele>
        <time>2020-02-23T12:23:25Z</time>
      </trkpt>
      <trkpt lat="39.5619760" lon="2.5659530">
        <ele>461.3</ele>
        <time>2020-02-23T12:23:26Z</time>
      </trkpt>
      <trkpt lat="39.5619660" lon="2.5659490">
        <ele>461.4</ele>
        <time>2020-02-23T12:23:27Z</time>
      </trkpt>
      <trkpt lat="39.5619550" lon="2.5659420">
        <ele>461.6</ele>
        <time>2020-02-23T12:23:30Z</time>
      </trkpt>
      <trkpt lat="39.5619400" lon="2.5659300">
        <ele>461.9</ele>
        <time>2020-02-23T12:23:31Z</time>
      </trkpt>
      <trkpt lat="39.5619260" lon="2.5659220">
        <ele>462.1</ele>
        <time>2020-02-23T12:23:34Z</time>
      </trkpt>
      <trkpt lat="39.5619070" lon="2.5659140">
        <ele>462.4</ele>
        <time>2020-02-23T12:23:35Z</time>
      </trkpt>
      <trkpt lat="39.5618970" lon="2.5659080">
        <ele>462.6</ele>
        <time>2020-02-23T12:23:37Z</time>
      </trkpt>
      <trkpt lat="39.5618750" lon="2.5658980">
        <ele>462.9</ele>
        <time>2020-02-23T12:23:39Z</time>
      </trkpt>
      <trkpt lat="39.5618640" lon="2.5658940">
        <ele>463.1</ele>
        <time>2020-02-23T12:23:42Z</time>
      </trkpt>
      <trkpt lat="39.5618560" lon="2.5658940">
        <ele>463.2</ele>
        <time>2020-02-23T12:23:43Z</time>
      </trkpt>
      <trkpt lat="39.5618530" lon="2.5658950">
        <ele>463.3</ele>
        <time>2020-02-23T12:23:44Z</time>
      </trkpt>
      <trkpt lat="39.5618420" lon="2.5659040">
        <ele>463.5</ele>
        <time>2020-02-23T12:23:45Z</time>
      </trkpt>
      <trkpt lat="39.5618380" lon="2.5659070">
        <ele>463.6</ele>
        <time>2020-02-23T12:23:47Z</time>
      </trkpt>
      <trkpt lat="39.5618350" lon="2.5659100">
        <ele>463.6</ele>
        <time>2020-02-23T12:23:48Z</time>
      </trkpt>
      <trkpt lat="39.5618320" lon="2.5659100">
        <ele>463.7</ele>
        <time>2020-02-23T12:23:49Z</time>
      </trkpt>
      <trkpt lat="39.5618230" lon="2.5659090">
        <ele>463.8</ele>
        <time>2020-02-23T12:23:51Z</time>
      </trkpt>
      <trkpt lat="39.5618110" lon="2.5659130">
        <ele>464.0</ele>
        <time>2020-02-23T12:23:52Z</time>
      </trkpt>
      <trkpt lat="39.5618010" lon="2.5659170">
        <ele>464.2</ele>
        <time>2020-02-23T12:23:54Z</time>
      </trkpt>
      <trkpt lat="39.5617930" lon="2.5659190">
        <ele>464.4</ele>
        <time>2020-02-23T12:23:56Z</time>
      </trkpt>
      <trkpt lat="39.5617810" lon="2.5659160">
        <ele>464.6</ele>
        <time>2020-02-23T12:23:58Z</time>
      </trkpt>
      <trkpt lat="39.5617760" lon="2.5659120">
        <ele>464.7</ele>
        <time>2020-02-23T12:23:59Z</time>
      </trkpt>
      <trkpt lat="39.5617700" lon="2.5659080">
        <ele>464.8</ele>
        <time>2020-02-23T12:24:00Z</time>
      </trkpt>
      <trkpt lat="39.5617650" lon="2.5659040">
        <ele>464.9</ele>
        <time>2020-02-23T12:24:02Z</time>
      </trkpt>
      <trkpt lat="39.5617540" lon="2.5658940">
        <ele>465.1</ele>
        <time>2020-02-23T12:24:04Z</time>
      </trkpt>
      <trkpt lat="39.5617530" lon="2.5658910">
        <ele>465.1</ele>
        <time>2020-02-23T12:24:05Z</time>
      </trkpt>
      <trkpt lat="39.5617450" lon="2.5658780">
        <ele>465.4</ele>
        <time>2020-02-23T12:24:06Z</time>
      </trkpt>
      <trkpt lat="39.5617360" lon="2.5658660">
        <ele>465.6</ele>
        <time>2020-02-23T12:24:08Z</time>
      </trkpt>
      <trkpt lat="39.5617300" lon="2.5658560">
        <ele>465.8</ele>
        <time>2020-02-23T12:24:09Z</time>
      </trkpt>
      <trkpt lat="39.5617260" lon="2.5658500">
        <ele>465.9</ele>
        <time>2020-02-23T12:24:10Z</time>
      </trkpt>
      <trkpt lat="39.5617210" lon="2.5658370">
        <ele>466.1</ele>
        <time>2020-02-23T12:24:11Z</time>
      </trkpt>
      <trkpt lat="39.5617150" lon="2.5658270">
        <ele>466.3</ele>
        <time>2020-02-23T12:24:13Z</time>
      </trkpt>
      <trkpt lat="39.5617110" lon="2.5658170">
        <ele>466.4</ele>
        <time>2020-02-23T12:24:14Z</time>
      </trkpt>
      <trkpt lat="39.5617060" lon="2.5658100">
        <ele>466.6</ele>
        <time>2020-02-23T12:24:15Z</time>
      </trkpt>
      <trkpt lat="39.5616960" lon="2.5657990">
        <ele>466.8</ele>
        <time>2020-02-23T12:24:17Z</time>
      </trkpt>
      <trkpt lat="39.5616880" lon="2.5657910">
        <ele>467.0</ele>
        <time>2020-02-23T12:24:19Z</time>
      </trkpt>
      <trkpt lat="39.5616780" lon="2.5657800">
        <ele>467.2</ele>
        <time>2020-02-23T12:24:20Z</time>
      </trkpt>
      <trkpt lat="39.5616600" lon="2.5657650">
        <ele>467.6</ele>
        <time>2020-02-23T12:24:22Z</time>
      </trkpt>
      <trkpt lat="39.5616500" lon="2.5657580">
        <ele>467.8</ele>
        <time>2020-02-23T12:24:24Z</time>
      </trkpt>
      <trkpt lat="39.5616340" lon="2.5657510">
        <ele>468.1</ele>
        <time>2020-02-23T12:24:26Z</time>
      </trkpt>
      <trkpt lat="39.5616200" lon="2.5657450">
        <ele>468.4</ele>
        <time>2020-02-23T12:24:27Z</time>
      </trkpt>
      <trkpt lat="39.5616130" lon="2.5657400">
        <ele>468.5</ele>
        <time>2020-02-23T12:24:29Z</time>
      </trkpt>
      <trkpt lat="39.5616080" lon="2.5657360">
        <ele>468.6</ele>
        <time>2020-02-23T12:24:30Z</time>
      </trkpt>
      <trkpt lat="39.5615990" lon="2.5657280">
        <ele>468.8</ele>
        <time>2020-02-23T12:24:31Z</time>
      </trkpt>
      <trkpt lat="39.5615900" lon="2.5657240">
        <ele>469.0</ele>
        <time>2020-02-23T12:24:34Z</time>
      </trkpt>
      <trkpt lat="39.5615780" lon="2.5657270">
        <ele>469.1</ele>
        <time>2020-02-23T12:24:35Z</time>
      </trkpt>
      <trkpt lat="39.5615670" lon="2.5657290">
        <ele>469.3</ele>
        <time>2020-02-23T12:24:36Z</time>
      </trkpt>
      <trkpt lat="39.5615570" lon="2.5657310">
        <ele>469.4</ele>
        <time>2020-02-23T12:24:38Z</time>
      </trkpt>
      <trkpt lat="39.5615490" lon="2.5657320">
        <ele>469.5</ele>
        <time>2020-02-23T12:24:39Z</time>
      </trkpt>
      <trkpt lat="39.5615370" lon="2.5657340">
        <ele>469.7</ele>
        <time>2020-02-23T12:24:40Z</time>
      </trkpt>
      <trkpt lat="39.5615330" lon="2.5657340">
        <ele>469.8</ele>
        <time>2020-02-23T12:24:42Z</time>
      </trkpt>
      <trkpt lat="39.5615180" lon="2.5657330">
        <ele>470.0</ele>
        <time>2020-02-23T12:24:43Z</time>
      </trkpt>
      <trkpt lat="39.5614980" lon="2.5657340">
        <ele>470.3</ele>
        <time>2020-02-23T12:24:44Z</time>
      </trkpt>
      <trkpt lat="39.5614890" lon="2.5657350">
        <ele>470.4</ele>
        <time>2020-02-23T12:24:45Z</time>
      </trkpt>
      <trkpt lat="39.5614790" lon="2.5657350">
        <ele>470.5</ele>
        <time>2020-02-23T12:24:48Z</time>
      </trkpt>
      <trkpt lat="39.5614700" lon="2.5657360">
        <ele>470.7</ele>
        <time>2020-02-23T12:24:49Z</time>
      </trkpt>
      <trkpt lat="39.5614600" lon="2.5657360">
        <ele>470.8</ele>
        <time>2020-02-23T12:24:50Z</time>
      </trkpt>
      <trkpt lat="39.5614510" lon="2.5657370">
        <ele>470.9</ele>
        <time>2020-02-23T12:24:51Z</time>
      </trkpt>
      <trkpt lat="39.5614410" lon="2.5657370">
        <ele>471.1</ele>
        <time>2020-02-23T12:24:52Z</time>
      </trkpt>
      <trkpt lat="39.5614270" lon="2.5657360">
        <ele>471.2</ele>
        <time>2020-02-23T12:24:55Z</time>
      </trkpt>
      <trkpt lat="39.5614190" lon="2.5657360">
        <ele>471.3</ele>
        <time>2020-02-23T12:24:56Z</time>
      </trkpt>
      <trkpt lat="39.5614040" lon="2.5657400">
        <ele>471.5</ele>
        <time>2020-02-23T12:24:58Z</time>
      </trkpt>
      <trkpt lat="39.5613880" lon="2.5657340">
        <ele>471.7</ele>
        <time>2020-02-23T12:24:59Z</time>
      </trkpt>
      <trkpt lat="39.5613810" lon="2.5657320">
        <ele>471.8</ele>
        <time>2020-02-23T12:25:01Z</time>
      </trkpt>
      <trkpt lat="39.5613700" lon="2.5657290">
        <ele>471.9</ele>
        <time>2020-02-23T12:25:02Z</time>
      </trkpt>
      <trkpt lat="39.5613500" lon="2.5657190">
        <ele>472.1</ele>
        <time>2020-02-23T12:25:04Z</time>
      </trkpt>
      <trkpt lat="39.5613440" lon="2.5657140">
        <ele>472.2</ele>
        <time>2020-02-23T12:25:05Z</time>
      </trkpt>
      <trkpt lat="39.5613370" lon="2.5657070">
        <ele>472.3</ele>
        <time>2020-02-23T12:25:07Z</time>
      </trkpt>
      <trkpt lat="39.5613230" lon="2.5656870">
        <ele>472.5</ele>
        <time>2020-02-23T12:25:08Z</time>
      </trkpt>
      <trkpt lat="39.5613080" lon="2.5656700">
        <ele>472.7</ele>
        <time>2020-02-23T12:25:10Z</time>
      </trkpt>
      <trkpt lat="39.5613010" lon="2.5656610">
        <ele>472.9</ele>
        <time>2020-02-23T12:25:12Z</time>
      </trkpt>
      <trkpt lat="39.5612940" lon="2.5656530">
        <ele>473.0</ele>
        <time>2020-02-23T12:25:13Z</time>
      </trkpt>
      <trkpt lat="39.5612890" lon="2.5656450">
        <ele>473.1</ele>
        <time>2020-02-23T12:25:15Z</time>
      </trkpt>
      <trkpt lat="39.5612780" lon="2.5656400">
        <ele>473.2</ele>
        <time>2020-02-23T12:25:16Z</time>
      </trkpt>
      <trkpt lat="39.5612690" lon="2.5656340">
        <ele>473.3</ele>
        <time>2020-02-23T12:25:17Z</time>
      </trkpt>
      <trkpt lat="39.5612490" lon="2.5656160">
        <ele>473.6</ele>
        <time>2020-02-23T12:25:19Z</time>
      </trkpt>
      <trkpt lat="39.5612390" lon="2.5656080">
        <ele>473.8</ele>
        <time>2020-02-23T12:25:21Z</time>
      </trkpt>
      <trkpt lat="39.5612270" lon="2.5655980">
        <ele>473.9</ele>
        <time>2020-02-23T12:25:22Z</time>
      </trkpt>
      <trkpt lat="39.5612200" lon="2.5655910">
        <ele>474.0</ele>
        <time>2020-02-23T12:25:24Z</time>
      </trkpt>
      <trkpt lat="39.5612140" lon="2.5655820">
        <ele>474.1</ele>
        <time>2020-02-23T12:25:25Z</time>
      </trkpt>
      <trkpt lat="39.5612060" lon="2.5655630">
        <ele>474.4</ele>
        <time>2020-02-23T12:25:26Z</time>
      </trkpt>
      <trkpt lat="39.5612030" lon="2.5655460">
        <ele>474.6</ele>
        <time>2020-02-23T12:25:28Z</time>
      </trkpt>
      <trkpt lat="39.5611980" lon="2.5655310">
        <ele>474.7</ele>
        <time>2020-02-23T12:25:29Z</time>
      </trkpt>
      <trkpt lat="39.5611930" lon="2.5655220">
        <ele>474.8</ele>
        <time>2020-02-23T12:25:30Z</time>
      </trkpt>
      <trkpt lat="39.5611890" lon="2.5655120">
        <ele>474.9</ele>
        <time>2020-02-23T12:25:32Z</time>
      </trkpt>
      <trkpt lat="39.5611950" lon="2.5654960">
        <ele>475.0</ele>
        <time>2020-02-23T12:25:33Z</time>
      </trkpt>
      <trkpt lat="39.5612040" lon="2.5654830">
        <ele>475.2</ele>
        <time>2020-02-23T12:25:35Z</time>
      </trkpt>
      <trkpt lat="39.5612070" lon="2.5654710">
        <ele>475.3</ele>
        <time>2020-02-23T12:25:37Z</time>
      </trkpt>
      <trkpt lat="39.5612100" lon="2.5654570">
        <ele>475.4</ele>
        <time>2020-02-23T12:25:39Z</time>
      </trkpt>
      <trkpt lat="39.5612120" lon="2.5654420">
        <ele>475.5</ele>
        <time>2020-02-23T12:25:40Z</time>
      </trkpt>
      <trkpt lat="39.5612130" lon="2.5654250">
        <ele>475.5</ele>
        <time>2020-02-23T12:25:42Z</time>
      </trkpt>
      <trkpt lat="39.5612140" lon="2.5654230">
        <ele>475.6</ele>
        <time>2020-02-23T12:25:43Z</time>
      </trkpt>
      <trkpt lat="39.5612150" lon="2.5654090">
        <ele>475.7</ele>
        <time>2020-02-23T12:25:45Z</time>
      </trkpt>
      <trkpt lat="39.5612090" lon="2.5654130">
        <ele>475.7</ele>
        <time>2020-02-23T12:25:46Z</time>
      </trkpt>
      <trkpt lat="39.5612020" lon="2.5654240">
        <ele>475.8</ele>
        <time>2020-02-23T12:25:47Z</time>
      </trkpt>
      <trkpt lat="39.5611960" lon="2.5654370">
        <ele>475.8</ele>
        <time>2020-02-23T12:25:49Z</time>
      </trkpt>
      <trkpt lat="39.5611870" lon="2.5654370">
        <ele>475.9</ele>
        <time>2020-02-23T12:25:51Z</time>
      </trkpt>
      <trkpt lat="39.5611870" lon="2.5654360">
        <ele>475.9</ele>
        <time>2020-02-23T12:25:54Z</time>
      </trkpt>
      <trkpt lat="39.5611880" lon="2.5654370">
        <ele>475.9</ele>
        <time>2020-02-23T12:25:55Z</time>
      </trkpt>
      <trkpt lat="39.5611880" lon="2.5654380">
        <ele>476.0</ele>
        <time>2020-02-23T12:25:57Z</time>
      </trkpt>
      <trkpt lat="39.5611890" lon="2.5654380">
        <ele>476.0</ele>
        <time>2020-02-23T12:25:58Z</time>
      </trkpt>
      <trkpt lat="39.5611890" lon="2.5654390">
        <ele>476.0</ele>
        <time>2020-02-23T12:25:59Z</time>
      </trkpt>
      <trkpt lat="39.5611900" lon="2.5654390">
        <ele>476.0</ele>
        <time>2020-02-23T12:26:01Z</time>
      </trkpt>
      <trkpt lat="39.5611900" lon="2.5654390">
        <ele>476.0</ele>
        <time>2020-02-23T12:26:02Z</time>
      </trkpt>
      <trkpt lat="39.5611830" lon="2.5654600">
        <ele>476.1</ele>
        <time>2020-02-23T12:26:04Z</time>
      </trkpt>
      <trkpt lat="39.5611720" lon="2.5654730">
        <ele>476.1</ele>
        <time>2020-02-23T12:26:06Z</time>
      </trkpt>
      <trkpt lat="39.5611700" lon="2.5654840">
        <ele>476.1</ele>
        <time>2020-02-23T12:26:07Z</time>
      </trkpt>
      <trkpt lat="39.5611700" lon="2.5654930">
        <ele>476.1</ele>
        <time>2020-02-23T12:26:08Z</time>
      </trkpt>
      <trkpt lat="39.5611700" lon="2.5655020">
        <ele>476.2</ele>
        <time>2020-02-23T12:26:09Z</time>
      </trkpt>
      <trkpt lat="39.5611680" lon="2.5655020">
        <ele>476.2</ele>
        <time>2020-02-23T12:26:10Z</time>
      </trkpt>
      <trkpt lat="39.5611680" lon="2.5654870">
        <ele>476.2</ele>
        <time>2020-02-23T12:26:12Z</time>
      </trkpt>
      <trkpt lat="39.5611650" lon="2.5654900">
        <ele>476.2</ele>
        <time>2020-02-23T12:26:13Z</time>
      </trkpt>
      <trkpt lat="39.5611660" lon="2.5654940">
        <ele>476.2</ele>
        <time>2020-02-23T12:26:15Z</time>
      </trkpt>
      <trkpt lat="39.5611660" lon="2.5654940">
        <ele>476.2</ele>
        <time>2020-02-23T12:26:18Z</time>
      </trkpt>
      <trkpt lat="39.5611660" lon="2.5654920">
        <ele>476.2</ele>
        <time>2020-02-23T12:26:19Z</time>
      </trkpt>
      <trkpt lat="39.5611660" lon="2.5654870">
        <ele>476.2</ele>
        <time>2020-02-23T12:26:21Z</time>
      </trkpt>
      <trkpt lat="39.5611660" lon="2.5654860">
        <ele>476.2</ele>
        <time>2020-02-23T12:26:24Z</time>
      </trkpt>
      <trkpt lat="39.5611650" lon="2.5654850">
        <ele>476.2</ele>
        <time>2020-02-23T12:26:26Z</time>
      </trkpt>
      <trkpt lat="39.5611650" lon="2.5654850">
        <ele>476.2</ele>
        <time>2020-02-23T12:26:27Z</time>
      </trkpt>
      <trkpt lat="39.5611650" lon="2.5654840">
        <ele>476.2</ele>
        <time>2020-02-23T12:26:30Z</time>
      </trkpt>
      <trkpt lat="39.5611690" lon="2.5654770">
        <ele>476.3</ele>
        <time>2020-02-23T12:26:31Z</time>
      </trkpt>
      <trkpt lat="39.5611710" lon="2.5654720">
        <ele>476.3</ele>
        <time>2020-02-23T12:26:33Z</time>
      </trkpt>
      <trkpt lat="39.5611720" lon="2.5654710">
        <ele>476.3</ele>
        <time>2020-02-23T12:26:34Z</time>
      </trkpt>
      <trkpt lat="39.5611700" lon="2.5654740">
        <ele>476.3</ele>
        <time>2020-02-23T12:26:35Z</time>
      </trkpt>
      <trkpt lat="39.5611680" lon="2.5654780">
        <ele>476.3</ele>
        <time>2020-02-23T12:26:37Z</time>
      </trkpt>
      <trkpt lat="39.5611680" lon="2.5654790">
        <ele>476.3</ele>
        <time>2020-02-23T12:26:38Z</time>
      </trkpt>
      <trkpt lat="39.5611700" lon="2.5654780">
        <ele>476.4</ele>
        <time>2020-02-23T12:26:40Z</time>
      </trkpt>
      <trkpt lat="39.5611700" lon="2.5654780">
        <ele>476.4</ele>
        <time>2020-02-23T12:26:41Z</time>
      </trkpt>
      <trkpt lat="39.5611700" lon="2.5654780">
        <ele>476.4</ele>
        <time>2020-02-23T12:26:43Z</time>
      </trkpt>
      <trkpt lat="39.5611700" lon="2.5654780">
        <ele>476.4</ele>
        <time>2020-02-23T12:26:45Z</time>
      </trkpt>
      <trkpt lat="39.5611700" lon="2.5654780">
        <ele>476.5</ele>
        <time>2020-02-23T12:26:46Z</time>
      </trkpt>
      <trkpt lat="39.5611700" lon="2.5654770">
        <ele>476.5</ele>
        <time>2020-02-23T12:26:47Z</time>
      </trkpt>
      <trkpt lat="39.5611700" lon="2.5654760">
        <ele>476.5</ele>
        <time>2020-02-23T12:26:49Z</time>
      </trkpt>
      <trkpt lat="39.5611700" lon="2.5654760">
        <ele>476.5</ele>
        <time>2020-02-23T12:26:51Z</time>
      </trkpt>
      <trkpt lat="39.5611700" lon="2.5654760">
        <ele>476.5</ele>
        <time>2020-02-23T12:26:52Z</time>
      </trkpt>
      <trkpt lat="39.5611700" lon="2.5654760">
        <ele>476.5</ele>
        <time>2020-02-23T12:26:53Z</time>
      </trkpt>
      <trkpt lat="39.5611700" lon="2.5654760">
        <ele>476.5</ele>
        <time>2020-02-23T12:26:55Z</time>
      </trkpt>
      <trkpt lat="39.5611700" lon="2.5654760">
        <ele>476.5</ele>
        <time>2020-02-23T12:26:56Z</time>
      </trkpt>
      <trkpt lat="39.5611700" lon="2.5654760">
        <ele>476.5</ele>
        <time>2020-02-23T12:26:58Z</time>
      </trkpt>
      <trkpt lat="39.5611700" lon="2.5654760">
        <ele>476.5</ele>
        <time>2020-02-23T12:26:59Z</time>
      </trkpt>
      <trkpt lat="39.5611700" lon="2.5654760">
        <ele>476.5</ele>
        <time>2020-02-23T12:27:00Z</time>
      </trkpt>
      <trkpt lat="39.5611720" lon="2.5654790">
        <ele>476.5</ele>
        <time>2020-02-23T12:27:01Z</time>
      </trkpt>
      <trkpt lat="39.5611740" lon="2.5654940">
        <ele>476.4</ele>
        <time>2020-02-23T12:27:03Z</time>
      </trkpt>
      <trkpt lat="39.5611760" lon="2.5655060">
        <ele>476.4</ele>
        <time>2020-02-23T12:27:05Z</time>
      </trkpt>
      <trkpt lat="39.5611750" lon="2.5655130">
        <ele>476.4</ele>
        <time>2020-02-23T12:27:06Z</time>
      </trkpt>
      <trkpt lat="39.5611750" lon="2.5655150">
        <ele>476.4</ele>
        <time>2020-02-23T12:27:07Z</time>
      </trkpt>
      <trkpt lat="39.5611790" lon="2.5655160">
        <ele>476.4</ele>
        <time>2020-02-23T12:27:09Z</time>
      </trkpt>
      <trkpt lat="39.5611790" lon="2.5655150">
        <ele>476.4</ele>
        <time>2020-02-23T12:27:10Z</time>
      </trkpt>
      <trkpt lat="39.5611780" lon="2.5655080">
        <ele>476.5</ele>
        <time>2020-02-23T12:27:11Z</time>
      </trkpt>
      <trkpt lat="39.5611810" lon="2.5655110">
        <ele>476.5</ele>
        <time>2020-02-23T12:27:13Z</time>
      </trkpt>
      <trkpt lat="39.5611860" lon="2.5655080">
        <ele>476.5</ele>
        <time>2020-02-23T12:27:15Z</time>
      </trkpt>
      <trkpt lat="39.5611870" lon="2.5655040">
        <ele>476.5</ele>
        <time>2020-02-23T12:27:17Z</time>
      </trkpt>
      <trkpt lat="39.5611870" lon="2.5655040">
        <ele>476.5</ele>
        <time>2020-02-23T12:27:19Z</time>
      </trkpt>
      <trkpt lat="39.5611870" lon="2.5654940">
        <ele>476.5</ele>
        <time>2020-02-23T12:27:20Z</time>
      </trkpt>
      <trkpt lat="39.5611780" lon="2.5654900">
        <ele>476.5</ele>
        <time>2020-02-23T12:27:22Z</time>
      </trkpt>
      <trkpt lat="39.5611720" lon="2.5654930">
        <ele>476.5</ele>
        <time>2020-02-23T12:27:23Z</time>
      </trkpt>
      <trkpt lat="39.5611680" lon="2.5654950">
        <ele>476.4</ele>
        <time>2020-02-23T12:27:24Z</time>
      </trkpt>
      <trkpt lat="39.5611710" lon="2.5654970">
        <ele>476.5</ele>
        <time>2020-02-23T12:27:25Z</time>
      </trkpt>
      <trkpt lat="39.5611790" lon="2.5654960">
        <ele>476.5</ele>
        <time>2020-02-23T12:27:26Z</time>
      </trkpt>
      <trkpt lat="39.5611850" lon="2.5654970">
        <ele>476.6</ele>
        <time>2020-02-23T12:27:28Z</time>
      </trkpt>
      <trkpt lat="39.5611840" lon="2.5654970">
        <ele>476.6</ele>
        <time>2020-02-23T12:27:29Z</time>
      </trkpt>
      <trkpt lat="39.5611860" lon="2.5654980">
        <ele>476.6</ele>
        <time>2020-02-23T12:27:30Z</time>
      </trkpt>
      <trkpt lat="39.5611910" lon="2.5654990">
        <ele>476.6</ele>
        <time>2020-02-23T12:27:32Z</time>
      </trkpt>
      <trkpt lat="39.5611950" lon="2.5655000">
        <ele>476.6</ele>
        <time>2020-02-23T12:27:33Z</time>
      </trkpt>
      <trkpt lat="39.5612000" lon="2.5655010">
        <ele>476.6</ele>
        <time>2020-02-23T12:27:35Z</time>
      </trkpt>
      <trkpt lat="39.5612050" lon="2.5655020">
        <ele>476.6</ele>
        <time>2020-02-23T12:27:37Z</time>
      </trkpt>
      <trkpt lat="39.5612070" lon="2.5655040">
        <ele>476.6</ele>
        <time>2020-02-23T12:27:39Z</time>
      </trkpt>
      <trkpt lat="39.5612160" lon="2.5655090">
        <ele>476.6</ele>
        <time>2020-02-23T12:27:40Z</time>
      </trkpt>
      <trkpt lat="39.5612230" lon="2.5655120">
        <ele>476.6</ele>
        <time>2020-02-23T12:27:42Z</time>
      </trkpt>
      <trkpt lat="39.5612230" lon="2.5655110">
        <ele>476.6</ele>
        <time>2020-02-23T12:27:43Z</time>
      </trkpt>
      <trkpt lat="39.5612220" lon="2.5655110">
        <ele>476.6</ele>
        <time>2020-02-23T12:27:45Z</time>
      </trkpt>
      <trkpt lat="39.5612220" lon="2.5655100">
        <ele>476.6</ele>
        <time>2020-02-23T12:27:47Z</time>
      </trkpt>
      <trkpt lat="39.5612220" lon="2.5655100">
        <ele>476.6</ele>
        <time>2020-02-23T12:27:49Z</time>
      </trkpt>
      <trkpt lat="39.5612220" lon="2.5655100">
        <ele>476.6</ele>
        <time>2020-02-23T12:27:50Z</time>
      </trkpt>
      <trkpt lat="39.5612220" lon="2.5655100">
        <ele>476.6</ele>
        <time>2020-02-23T12:27:52Z</time>
      </trkpt>
      <trkpt lat="39.5612220" lon="2.5655100">
        <ele>476.6</ele>
        <time>2020-02-23T12:27:53Z</time>
      </trkpt>
      <trkpt lat="39.5612220" lon="2.5655100">
        <ele>476.6</ele>
        <time>2020-02-23T12:27:54Z</time>
      </trkpt>
      <trkpt lat="39.5612220" lon="2.5655080">
        <ele>476.6</ele>
        <time>2020-02-23T12:27:56Z</time>
      </trkpt>
      <trkpt lat="39.5612220" lon="2.5655070">
        <ele>476.6</ele>
        <time>2020-02-23T12:27:57Z</time>
      </trkpt>
      <trkpt lat="39.5612230" lon="2.5655080">
        <ele>476.6</ele>
        <time>2020-02-23T12:27:58Z</time>
      </trkpt>
      <trkpt lat="39.5612260" lon="2.5655110">
        <ele>476.6</ele>
        <time>2020-02-23T12:27:59Z</time>
      </trkpt>
      <trkpt lat="39.5612280" lon="2.5655140">
        <ele>476.6</ele>
        <time>2020-02-23T12:28:01Z</time>
      </trkpt>
      <trkpt lat="39.5612320" lon="2.5655120">
        <ele>476.6</ele>
        <time>2020-02-23T12:28:03Z</time>
      </trkpt>
      <trkpt lat="39.5612330" lon="2.5655110">
        <ele>476.6</ele>
        <time>2020-02-23T12:28:04Z</time>
      </trkpt>
      <trkpt lat="39.5612340" lon="2.5655100">
        <ele>476.6</ele>
        <time>2020-02-23T12:28:06Z</time>
      </trkpt>
      <trkpt lat="39.5612330" lon="2.5655120">
        <ele>476.6</ele>
        <time>2020-02-23T12:28:07Z</time>
      </trkpt>
      <trkpt lat="39.5612290" lon="2.5655140">
        <ele>476.6</ele>
        <time>2020-02-23T12:28:09Z</time>
      </trkpt>
      <trkpt lat="39.5612280" lon="2.5655140">
        <ele>476.6</ele>
        <time>2020-02-23T12:28:10Z</time>
      </trkpt>
      <trkpt lat="39.5612240" lon="2.5655090">
        <ele>476.6</ele>
        <time>2020-02-23T12:28:12Z</time>
      </trkpt>
      <trkpt lat="39.5612220" lon="2.5655030">
        <ele>476.6</ele>
        <time>2020-02-23T12:28:14Z</time>
      </trkpt>
      <trkpt lat="39.5612240" lon="2.5655040">
        <ele>476.6</ele>
        <time>2020-02-23T12:28:15Z</time>
      </trkpt>
      <trkpt lat="39.5612250" lon="2.5655040">
        <ele>476.6</ele>
        <time>2020-02-23T12:28:16Z</time>
      </trkpt>
      <trkpt lat="39.5612230" lon="2.5655040">
        <ele>476.6</ele>
        <time>2020-02-23T12:28:18Z</time>
      </trkpt>
      <trkpt lat="39.5612220" lon="2.5655040">
        <ele>476.6</ele>
        <time>2020-02-23T12:28:19Z</time>
      </trkpt>
      <trkpt lat="39.5612210" lon="2.5655050">
        <ele>476.6</ele>
        <time>2020-02-23T12:28:21Z</time>
      </trkpt>
      <trkpt lat="39.5612210" lon="2.5655050">
        <ele>476.6</ele>
        <time>2020-02-23T12:28:22Z</time>
      </trkpt>
      <trkpt lat="39.5612210" lon="2.5655050">
        <ele>476.6</ele>
        <time>2020-02-23T12:28:23Z</time>
      </trkpt>
      <trkpt lat="39.5612210" lon="2.5655050">
        <ele>476.6</ele>
        <time>2020-02-23T12:28:24Z</time>
      </trkpt>
      <trkpt lat="39.5612210" lon="2.5655050">
        <ele>476.6</ele>
        <time>2020-02-23T12:28:26Z</time>
      </trkpt>
      <trkpt lat="39.5612210" lon="2.5655050">
        <ele>476.6</ele>
        <time>2020-02-23T12:28:27Z</time>
      </trkpt>
      <trkpt lat="39.5612250" lon="2.5655060">
        <ele>476.6</ele>
        <time>2020-02-23T12:28:29Z</time>
      </trkpt>
      <trkpt lat="39.5612290" lon="2.5655070">
        <ele>476.6</ele>
        <time>2020-02-23T12:28:30Z</time>
      </trkpt>
      <trkpt lat="39.5612300" lon="2.5655090">
        <ele>476.6</ele>
        <time>2020-02-23T12:28:31Z</time>
      </trkpt>
      <trkpt lat="39.5612280" lon="2.5655040">
        <ele>476.6</ele>
        <time>2020-02-23T12:28:33Z</time>
      </trkpt>
      <trkpt lat="39.5612270" lon="2.5654990">
        <ele>476.6</ele>
        <time>2020-02-23T12:28:35Z</time>
      </trkpt>
      <trkpt lat="39.5612330" lon="2.5655140">
        <ele>476.6</ele>
        <time>2020-02-23T12:28:37Z</time>
      </trkpt>
      <trkpt lat="39.5612350" lon="2.5655070">
        <ele>476.6</ele>
        <time>2020-02-23T12:28:38Z</time>
      </trkpt>
      <trkpt lat="39.5612370" lon="2.5655060">
        <ele>476.6</ele>
        <time>2020-02-23T12:28:39Z</time>
      </trkpt>
      <trkpt lat="39.5612360" lon="2.5655100">
        <ele>476.6</ele>
        <time>2020-02-23T12:28:41Z</time>
      </trkpt>
      <trkpt lat="39.5612330" lon="2.5655060">
        <ele>476.6</ele>
        <time>2020-02-23T12:28:44Z</time>
      </trkpt>
      <trkpt lat="39.5612330" lon="2.5655050">
        <ele>476.6</ele>
        <time>2020-02-23T12:28:45Z</time>
      </trkpt>
      <trkpt lat="39.5612290" lon="2.5655050">
        <ele>476.6</ele>
        <time>2020-02-23T12:28:47Z</time>
      </trkpt>
      <trkpt lat="39.5612280" lon="2.5655060">
        <ele>476.6</ele>
        <time>2020-02-23T12:28:48Z</time>
      </trkpt>
      <trkpt lat="39.5612270" lon="2.5655080">
        <ele>476.6</ele>
        <time>2020-02-23T12:28:50Z</time>
      </trkpt>
      <trkpt lat="39.5612250" lon="2.5655090">
        <ele>476.6</ele>
        <time>2020-02-23T12:28:52Z</time>
      </trkpt>
      <trkpt lat="39.5612240" lon="2.5655090">
        <ele>476.6</ele>
        <time>2020-02-23T12:28:54Z</time>
      </trkpt>
      <trkpt lat="39.5612240" lon="2.5655100">
        <ele>476.6</ele>
        <time>2020-02-23T12:28:55Z</time>
      </trkpt>
      <trkpt lat="39.5612240" lon="2.5655100">
        <ele>476.6</ele>
        <time>2020-02-23T12:28:57Z</time>
      </trkpt>
      <trkpt lat="39.5612100" lon="2.5655200">
        <ele>476.6</ele>
        <time>2020-02-23T12:28:59Z</time>
      </trkpt>
      <trkpt lat="39.5612090" lon="2.5655210">
        <ele>476.6</ele>
        <time>2020-02-23T12:29:01Z</time>
      </trkpt>
      <trkpt lat="39.5612090" lon="2.5655210">
        <ele>476.6</ele>
        <time>2020-02-23T12:29:03Z</time>
      </trkpt>
      <trkpt lat="39.5612090" lon="2.5655210">
        <ele>476.6</ele>
        <time>2020-02-23T12:29:04Z</time>
      </trkpt>
      <trkpt lat="39.5612020" lon="2.5655160">
        <ele>476.6</ele>
        <time>2020-02-23T12:29:06Z</time>
      </trkpt>
      <trkpt lat="39.5612000" lon="2.5655150">
        <ele>476.6</ele>
        <time>2020-02-23T12:29:07Z</time>
      </trkpt>
      <trkpt lat="39.5612030" lon="2.5655130">
        <ele>476.6</ele>
        <time>2020-02-23T12:29:09Z</time>
      </trkpt>
      <trkpt lat="39.5612050" lon="2.5655190">
        <ele>476.6</ele>
        <time>2020-02-23T12:29:10Z</time>
      </trkpt>
      <trkpt lat="39.5612020" lon="2.5655200">
        <ele>476.6</ele>
        <time>2020-02-23T12:29:11Z</time>
      </trkpt>
      <trkpt lat="39.5611870" lon="2.5655140">
        <ele>476.6</ele>
        <time>2020-02-23T12:29:13Z</time>
      </trkpt>
      <trkpt lat="39.5611840" lon="2.5655120">
        <ele>476.5</ele>
        <time>2020-02-23T12:29:14Z</time>
      </trkpt>
      <trkpt lat="39.5611780" lon="2.5655130">
        <ele>476.5</ele>
        <time>2020-02-23T12:29:15Z</time>
      </trkpt>
      <trkpt lat="39.5611760" lon="2.5655110">
        <ele>476.5</ele>
        <time>2020-02-23T12:29:17Z</time>
      </trkpt>
      <trkpt lat="39.5611780" lon="2.5655080">
        <ele>476.5</ele>
        <time>2020-02-23T12:29:18Z</time>
      </trkpt>
      <trkpt lat="39.5611800" lon="2.5655050">
        <ele>476.4</ele>
        <time>2020-02-23T12:29:19Z</time>
      </trkpt>
      <trkpt lat="39.5611790" lon="2.5655020">
        <ele>476.4</ele>
        <time>2020-02-23T12:29:21Z</time>
      </trkpt>
      <trkpt lat="39.5611790" lon="2.5655020">
        <ele>476.4</ele>
        <time>2020-02-23T12:29:22Z</time>
      </trkpt>
      <trkpt lat="39.5611790" lon="2.5655020">
        <ele>476.4</ele>
        <time>2020-02-23T12:29:23Z</time>
      </trkpt>
      <trkpt lat="39.5611780" lon="2.5655010">
        <ele>476.3</ele>
        <time>2020-02-23T12:29:25Z</time>
      </trkpt>
      <trkpt lat="39.5611790" lon="2.5655010">
        <ele>476.3</ele>
        <time>2020-02-23T12:29:26Z</time>
      </trkpt>
      <trkpt lat="39.5611630" lon="2.5654950">
        <ele>476.1</ele>
        <time>2020-02-23T12:29:28Z</time>
      </trkpt>
      <trkpt lat="39.5611600" lon="2.5654960">
        <ele>476.1</ele>
        <time>2020-02-23T12:29:29Z</time>
      </trkpt>
      <trkpt lat="39.5611590" lon="2.5654970">
        <ele>476.1</ele>
        <time>2020-02-23T12:29:31Z</time>
      </trkpt>
      <trkpt lat="39.5611590" lon="2.5654990">
        <ele>476.0</ele>
        <time>2020-02-23T12:29:32Z</time>
      </trkpt>
      <trkpt lat="39.5611580" lon="2.5655000">
        <ele>476.0</ele>
        <time>2020-02-23T12:29:34Z</time>
      </trkpt>
      <trkpt lat="39.5611570" lon="2.5655020">
        <ele>476.0</ele>
        <time>2020-02-23T12:29:35Z</time>
      </trkpt>
      <trkpt lat="39.5611560" lon="2.5655030">
        <ele>476.0</ele>
        <time>2020-02-23T12:29:37Z</time>
      </trkpt>
      <trkpt lat="39.5611560" lon="2.5655050">
        <ele>476.0</ele>
        <time>2020-02-23T12:29:38Z</time>
      </trkpt>
      <trkpt lat="39.5611550" lon="2.5655070">
        <ele>475.9</ele>
        <time>2020-02-23T12:29:39Z</time>
      </trkpt>
      <trkpt lat="39.5611540" lon="2.5655080">
        <ele>475.9</ele>
        <time>2020-02-23T12:29:40Z</time>
      </trkpt>
      <trkpt lat="39.5611530" lon="2.5655100">
        <ele>475.9</ele>
        <time>2020-02-23T12:29:42Z</time>
      </trkpt>
      <trkpt lat="39.5611530" lon="2.5655110">
        <ele>475.9</ele>
        <time>2020-02-23T12:29:44Z</time>
      </trkpt>
      <trkpt lat="39.5611520" lon="2.5655130">
        <ele>475.8</ele>
        <time>2020-02-23T12:29:46Z</time>
      </trkpt>
      <trkpt lat="39.5611510" lon="2.5655140">
        <ele>475.8</ele>
        <time>2020-02-23T12:29:48Z</time>
      </trkpt>
      <trkpt lat="39.5611500" lon="2.5655160">
        <ele>475.8</ele>
        <time>2020-02-23T12:29:50Z</time>
      </trkpt>
      <trkpt lat="39.5611500" lon="2.5655170">
        <ele>475.8</ele>
        <time>2020-02-23T12:29:51Z</time>
      </trkpt>
      <trkpt lat="39.5611490" lon="2.5655190">
        <ele>475.7</ele>
        <time>2020-02-23T12:29:53Z</time>
      </trkpt>
      <trkpt lat="39.5611480" lon="2.5655210">
        <ele>475.7</ele>
        <time>2020-02-23T12:29:54Z</time>
      </trkpt>
      <trkpt lat="39.5611470" lon="2.5655220">
        <ele>475.7</ele>
        <time>2020-02-23T12:29:56Z</time>
      </trkpt>
      <trkpt lat="39.5611470" lon="2.5655240">
        <ele>475.6</ele>
        <time>2020-02-23T12:29:58Z</time>
      </trkpt>
      <trkpt lat="39.5611460" lon="2.5655250">
        <ele>475.6</ele>
        <time>2020-02-23T12:30:00Z</time>
      </trkpt>
      <trkpt lat="39.5611450" lon="2.5655270">
        <ele>475.5</ele>
        <time>2020-02-23T12:30:01Z</time>
      </trkpt>
      <trkpt lat="39.5611440" lon="2.5655280">
        <ele>475.5</ele>
        <time>2020-02-23T12:30:03Z</time>
      </trkpt>
      <trkpt lat="39.5611440" lon="2.5655300">
        <ele>475.5</ele>
        <time>2020-02-23T12:30:04Z</time>
      </trkpt>
      <trkpt lat="39.5611430" lon="2.5655320">
        <ele>475.5</ele>
        <time>2020-02-23T12:30:06Z</time>
      </trkpt>
      <trkpt lat="39.5611420" lon="2.5655330">
        <ele>475.4</ele>
        <time>2020-02-23T12:30:07Z</time>
      </trkpt>
      <trkpt lat="39.5611410" lon="2.5655350">
        <ele>475.4</ele>
        <time>2020-02-23T12:30:09Z</time>
      </trkpt>
      <trkpt lat="39.5611410" lon="2.5655360">
        <ele>475.4</ele>
        <time>2020-02-23T12:30:11Z</time>
      </trkpt>
      <trkpt lat="39.5611400" lon="2.5655380">
        <ele>475.4</ele>
        <time>2020-02-23T12:30:12Z</time>
      </trkpt>
      <trkpt lat="39.5611390" lon="2.5655390">
        <ele>475.3</ele>
        <time>2020-02-23T12:30:14Z</time>
      </trkpt>
      <trkpt lat="39.5611380" lon="2.5655410">
        <ele>475.3</ele>
        <time>2020-02-23T12:30:15Z</time>
      </trkpt>
      <trkpt lat="39.5611380" lon="2.5655430">
        <ele>475.3</ele>
        <time>2020-02-23T12:30:17Z</time>
      </trkpt>
      <trkpt lat="39.5611370" lon="2.5655440">
        <ele>475.3</ele>
        <time>2020-02-23T12:30:19Z</time>
      </trkpt>
      <trkpt lat="39.5611360" lon="2.5655460">
        <ele>475.1</ele>
        <time>2020-02-23T12:30:20Z</time>
      </trkpt>
      <trkpt lat="39.5611350" lon="2.5655470">
        <ele>475.0</ele>
        <time>2020-02-23T12:30:22Z</time>
      </trkpt>
      <trkpt lat="39.5611350" lon="2.5655490">
        <ele>475.0</ele>
        <time>2020-02-23T12:30:23Z</time>
      </trkpt>
      <trkpt lat="39.5611340" lon="2.5655500">
        <ele>475.0</ele>
        <time>2020-02-23T12:30:24Z</time>
      </trkpt>
      <trkpt lat="39.5611330" lon="2.5655520">
        <ele>475.0</ele>
        <time>2020-02-23T12:30:26Z</time>
      </trkpt>
      <trkpt lat="39.5611320" lon="2.5655540">
        <ele>475.0</ele>
        <time>2020-02-23T12:30:27Z</time>
      </trkpt>
      <trkpt lat="39.5611320" lon="2.5655550">
        <ele>474.9</ele>
        <time>2020-02-23T12:30:29Z</time>
      </trkpt>
      <trkpt lat="39.5611310" lon="2.5655570">
        <ele>474.9</ele>
        <time>2020-02-23T12:30:31Z</time>
      </trkpt>
      <trkpt lat="39.5611300" lon="2.5655580">
        <ele>474.9</ele>
        <time>2020-02-23T12:30:33Z</time>
      </trkpt>
      <trkpt lat="39.5611290" lon="2.5655600">
        <ele>474.9</ele>
        <time>2020-02-23T12:30:35Z</time>
      </trkpt>
      <trkpt lat="39.5611290" lon="2.5655610">
        <ele>474.8</ele>
        <time>2020-02-23T12:30:36Z</time>
      </trkpt>
      <trkpt lat="39.5611280" lon="2.5655630">
        <ele>474.8</ele>
        <time>2020-02-23T12:30:37Z</time>
      </trkpt>
      <trkpt lat="39.5611270" lon="2.5655640">
        <ele>474.8</ele>
        <time>2020-02-23T12:30:38Z</time>
      </trkpt>
      <trkpt lat="39.5611260" lon="2.5655660">
        <ele>474.7</ele>
        <time>2020-02-23T12:30:40Z</time>
      </trkpt>
      <trkpt lat="39.5611260" lon="2.5655680">
        <ele>474.7</ele>
        <time>2020-02-23T12:30:42Z</time>
      </trkpt>
      <trkpt lat="39.5611250" lon="2.5655690">
        <ele>474.7</ele>
        <time>2020-02-23T12:30:43Z</time>
      </trkpt>
      <trkpt lat="39.5611240" lon="2.5655710">
        <ele>474.6</ele>
        <time>2020-02-23T12:30:44Z</time>
      </trkpt>
      <trkpt lat="39.5611230" lon="2.5655720">
        <ele>474.6</ele>
        <time>2020-02-23T12:30:45Z</time>
      </trkpt>
      <trkpt lat="39.5611230" lon="2.5655740">
        <ele>474.6</ele>
        <time>2020-02-23T12:30:46Z</time>
      </trkpt>
      <trkpt lat="39.5611220" lon="2.5655750">
        <ele>474.6</ele>
        <time>2020-02-23T12:30:48Z</time>
      </trkpt>
      <trkpt lat="39.5611210" lon="2.5655770">
        <ele>474.5</ele>
        <time>2020-02-23T12:30:49Z</time>
      </trkpt>
      <trkpt lat="39.5610740" lon="2.5656220">
        <ele>474.4</ele>
        <time>2020-02-23T12:30:51Z</time>
      </trkpt>
      <trkpt lat="39.5610390" lon="2.5656400">
        <ele>474.5</ele>
        <time>2020-02-23T12:30:52Z</time>
      </trkpt>
      <trkpt lat="39.5610040" lon="2.5656450">
        <ele>474.9</ele>
        <time>2020-02-23T12:30:53Z</time>
      </trkpt>
      <trkpt lat="39.5609580" lon="2.5656410">
        <ele>475.2</ele>
        <time>2020-02-23T12:30:54Z</time>
      </trkpt>
      <trkpt lat="39.5608940" lon="2.5656500">
        <ele>476.2</ele>
        <time>2020-02-23T12:30:56Z</time>
      </trkpt>
      <trkpt lat="39.5608330" lon="2.5656600">
        <ele>477.5</ele>
        <time>2020-02-23T12:30:57Z</time>
      </trkpt>
      <trkpt lat="39.5607850" lon="2.5656650">
        <ele>477.9</ele>
        <time>2020-02-23T12:30:59Z</time>
      </trkpt>
      <trkpt lat="39.5606210" lon="2.5656160">
        <ele>477.6</ele>
        <time>2020-02-23T12:31:01Z</time>
      </trkpt>
      <trkpt lat="39.5605670" lon="2.5655950">
        <ele>476.0</ele>
        <time>2020-02-23T12:31:03Z</time>
      </trkpt>
      <trkpt lat="39.5604810" lon="2.5655520">
        <ele>473.8</ele>
        <time>2020-02-23T12:31:05Z</time>
      </trkpt>
      <trkpt lat="39.5604480" lon="2.5655370">
        <ele>472.7</ele>
        <time>2020-02-23T12:31:06Z</time>
      </trkpt>
      <trkpt lat="39.5601700" lon="2.5654650">
        <ele>462.2</ele>
        <time>2020-02-23T12:31:08Z</time>
      </trkpt>
      <trkpt lat="39.5600780" lon="2.5654820">
        <ele>459.1</ele>
        <time>2020-02-23T12:31:09Z</time>
      </trkpt>
      <trkpt lat="39.5600090" lon="2.5655430">
        <ele>453.8</ele>
        <time>2020-02-23T12:31:10Z</time>
      </trkpt>
      <trkpt lat="39.5599600" lon="2.5655680">
        <ele>451.7</ele>
        <time>2020-02-23T12:31:13Z</time>
      </trkpt>
      <trkpt lat="39.5599400" lon="2.5655320">
        <ele>450.7</ele>
        <time>2020-02-23T12:31:14Z</time>
      </trkpt>
      <trkpt lat="39.5599160" lon="2.5655080">
        <ele>451.1</ele>
        <time>2020-02-23T12:31:16Z</time>
      </trkpt>
      <trkpt lat="39.5598830" lon="2.5654690">
        <ele>450.1</ele>
        <time>2020-02-23T12:31:17Z</time>
      </trkpt>
      <trkpt lat="39.5597600" lon="2.5654250">
        <ele>444.4</ele>
        <time>2020-02-23T12:31:19Z</time>
      </trkpt>
      <trkpt lat="39.5597090" lon="2.5654140">
        <ele>441.3</ele>
        <time>2020-02-23T12:31:21Z</time>
      </trkpt>
      <trkpt lat="39.5596640" lon="2.5654230">
        <ele>439.8</ele>
        <time>2020-02-23T12:31:22Z</time>
      </trkpt>
      <trkpt lat="39.5596120" lon="2.5654400">
        <ele>436.3</ele>
        <time>2020-02-23T12:31:23Z</time>
      </trkpt>
      <trkpt lat="39.5595560" lon="2.5654460">
        <ele>434.9</ele>
        <time>2020-02-23T12:31:24Z</time>
      </trkpt>
      <trkpt lat="39.5594460" lon="2.5654970">
        <ele>428.6</ele>
        <time>2020-02-23T12:31:26Z</time>
      </trkpt>
      <trkpt lat="39.5593690" lon="2.5655330">
        <ele>425.2</ele>
        <time>2020-02-23T12:31:28Z</time>
      </trkpt>
      <trkpt lat="39.5593280" lon="2.5655430">
        <ele>423.8</ele>
        <time>2020-02-23T12:31:30Z</time>
      </trkpt>
      <trkpt lat="39.5592900" lon="2.5655330">
        <ele>422.5</ele>
        <time>2020-02-23T12:31:31Z</time>
      </trkpt>
      <trkpt lat="39.5592530" lon="2.5655270">
        <ele>421.2</ele>
        <time>2020-02-23T12:31:32Z</time>
      </trkpt>
      <trkpt lat="39.5591330" lon="2.5655340">
        <ele>415.8</ele>
        <time>2020-02-23T12:31:35Z</time>
      </trkpt>
      <trkpt lat="39.5590300" lon="2.5655420">
        <ele>412.0</ele>
        <time>2020-02-23T12:31:36Z</time>
      </trkpt>
      <trkpt lat="39.5589500" lon="2.5655420">
        <ele>408.8</ele>
        <time>2020-02-23T12:31:37Z</time>
      </trkpt>
      <trkpt lat="39.5588600" lon="2.5655440">
        <ele>406.6</ele>
        <time>2020-02-23T12:31:39Z</time>
      </trkpt>
      <trkpt lat="39.5588670" lon="2.5655550">
        <ele>406.6</ele>
        <time>2020-02-23T12:31:41Z</time>
      </trkpt>
      <trkpt lat="39.5588660" lon="2.5655640">
        <ele>406.6</ele>
        <time>2020-02-23T12:31:42Z</time>
      </trkpt>
      <trkpt lat="39.5588190" lon="2.5655600">
        <ele>404.4</ele>
        <time>2020-02-23T12:31:44Z</time>
      </trkpt>
      <trkpt lat="39.5587790" lon="2.5655360">
        <ele>403.4</ele>
        <time>2020-02-23T12:31:46Z</time>
      </trkpt>
      <trkpt lat="39.5587590" lon="2.5655100">
        <ele>403.9</ele>
        <time>2020-02-23T12:31:47Z</time>
      </trkpt>
      <trkpt lat="39.5587390" lon="2.5654860">
        <ele>403.0</ele>
        <time>2020-02-23T12:31:49Z</time>
      </trkpt>
      <trkpt lat="39.5587290" lon="2.5654790">
        <ele>403.5</ele>
        <time>2020-02-23T12:31:50Z</time>
      </trkpt>
      <trkpt lat="39.5586880" lon="2.5654940">
        <ele>401.2</ele>
        <time>2020-02-23T12:31:51Z</time>
      </trkpt>
      <trkpt lat="39.5585810" lon="2.5655260">
        <ele>397.8</ele>
        <time>2020-02-23T12:31:53Z</time>
      </trkpt>
      <trkpt lat="39.5585120" lon="2.5655760">
        <ele>395.4</ele>
        <time>2020-02-23T12:31:54Z</time>
      </trkpt>
      <trkpt lat="39.5584390" lon="2.5656130">
        <ele>393.2</ele>
        <time>2020-02-23T12:31:55Z</time>
      </trkpt>
      <trkpt lat="39.5583680" lon="2.5656430">
        <ele>391.6</ele>
        <time>2020-02-23T12:31:56Z</time>
      </trkpt>
      <trkpt lat="39.5583070" lon="2.5656730">
        <ele>389.4</ele>
        <time>2020-02-23T12:31:57Z</time>
      </trkpt>
      <trkpt lat="39.5582120" lon="2.5657040">
        <ele>386.7</ele>
        <time>2020-02-23T12:31:59Z</time>
      </trkpt>
      <trkpt lat="39.5581820" lon="2.5657280">
        <ele>386.1</ele>
        <time>2020-02-23T12:32:00Z</time>
      </trkpt>
      <trkpt lat="39.5581760" lon="2.5657420">
        <ele>385.6</ele>
        <time>2020-02-23T12:32:01Z</time>
      </trkpt>
      <trkpt lat="39.5581720" lon="2.5657670">
        <ele>385.5</ele>
        <time>2020-02-23T12:32:03Z</time>
      </trkpt>
      <trkpt lat="39.5581660" lon="2.5657830">
        <ele>384.9</ele>
        <time>2020-02-23T12:32:04Z</time>
      </trkpt>
      <trkpt lat="39.5581610" lon="2.5657980">
        <ele>384.9</ele>
        <time>2020-02-23T12:32:05Z</time>
      </trkpt>
      <trkpt lat="39.5581420" lon="2.5658080">
        <ele>384.3</ele>
        <time>2020-02-23T12:32:06Z</time>
      </trkpt>
      <trkpt lat="39.5580390" lon="2.5658090">
        <ele>382.5</ele>
        <time>2020-02-23T12:32:08Z</time>
      </trkpt>
      <trkpt lat="39.5579580" lon="2.5658230">
        <ele>380.6</ele>
        <time>2020-02-23T12:32:09Z</time>
      </trkpt>
      <trkpt lat="39.5578570" lon="2.5658490">
        <ele>379.5</ele>
        <time>2020-02-23T12:32:10Z</time>
      </trkpt>
      <trkpt lat="39.5576790" lon="2.5658990">
        <ele>377.2</ele>
        <time>2020-02-23T12:32:12Z</time>
      </trkpt>
      <trkpt lat="39.5575110" lon="2.5659780">
        <ele>375.1</ele>
        <time>2020-02-23T12:32:14Z</time>
      </trkpt>
      <trkpt lat="39.5574440" lon="2.5660230">
        <ele>374.2</ele>
        <time>2020-02-23T12:32:15Z</time>
      </trkpt>
      <trkpt lat="39.5573830" lon="2.5660680">
        <ele>373.5</ele>
        <time>2020-02-23T12:32:16Z</time>
      </trkpt>
      <trkpt lat="39.5572640" lon="2.5661630">
        <ele>372.0</ele>
        <time>2020-02-23T12:32:18Z</time>
      </trkpt>
      <trkpt lat="39.5572060" lon="2.5661940">
        <ele>371.4</ele>
        <time>2020-02-23T12:32:19Z</time>
      </trkpt>
      <trkpt lat="39.5570940" lon="2.5662210">
        <ele>370.2</ele>
        <time>2020-02-23T12:32:21Z</time>
      </trkpt>
      <trkpt lat="39.5570540" lon="2.5662350">
        <ele>370.0</ele>
        <time>2020-02-23T12:32:22Z</time>
      </trkpt>
      <trkpt lat="39.5570200" lon="2.5662430">
        <ele>369.7</ele>
        <time>2020-02-23T12:32:23Z</time>
      </trkpt>
      <trkpt lat="39.5569670" lon="2.5662650">
        <ele>368.5</ele>
        <time>2020-02-23T12:32:25Z</time>
      </trkpt>
      <trkpt lat="39.5569380" lon="2.5662890">
        <ele>368.5</ele>
        <time>2020-02-23T12:32:26Z</time>
      </trkpt>
      <trkpt lat="39.5569300" lon="2.5662970">
        <ele>367.6</ele>
        <time>2020-02-23T12:32:27Z</time>
      </trkpt>
      <trkpt lat="39.5569070" lon="2.5663230">
        <ele>367.5</ele>
        <time>2020-02-23T12:32:28Z</time>
      </trkpt>
      <trkpt lat="39.5568740" lon="2.5663670">
        <ele>366.6</ele>
        <time>2020-02-23T12:32:30Z</time>
      </trkpt>
      <trkpt lat="39.5568580" lon="2.5663880">
        <ele>365.8</ele>
        <time>2020-02-23T12:32:31Z</time>
      </trkpt>
      <trkpt lat="39.5568470" lon="2.5664020">
        <ele>365.7</ele>
        <time>2020-02-23T12:32:32Z</time>
      </trkpt>
      <trkpt lat="39.5568110" lon="2.5664590">
        <ele>364.8</ele>
        <time>2020-02-23T12:32:35Z</time>
      </trkpt>
      <trkpt lat="39.5567920" lon="2.5664850">
        <ele>363.9</ele>
        <time>2020-02-23T12:32:36Z</time>
      </trkpt>
      <trkpt lat="39.5567740" lon="2.5665120">
        <ele>363.1</ele>
        <time>2020-02-23T12:32:37Z</time>
      </trkpt>
      <trkpt lat="39.5566300" lon="2.5666580">
        <ele>359.0</ele>
        <time>2020-02-23T12:32:39Z</time>
      </trkpt>
      <trkpt lat="39.5565530" lon="2.5667100">
        <ele>357.4</ele>
        <time>2020-02-23T12:32:40Z</time>
      </trkpt>
      <trkpt lat="39.5564090" lon="2.5668240">
        <ele>352.4</ele>
        <time>2020-02-23T12:32:42Z</time>
      </trkpt>
      <trkpt lat="39.5563400" lon="2.5668770">
        <ele>350.4</ele>
        <time>2020-02-23T12:32:43Z</time>
      </trkpt>
      <trkpt lat="39.5562020" lon="2.5669590">
        <ele>346.7</ele>
        <time>2020-02-23T12:32:45Z</time>
      </trkpt>
      <trkpt lat="39.5561350" lon="2.5669930">
        <ele>344.9</ele>
        <time>2020-02-23T12:32:46Z</time>
      </trkpt>
      <trkpt lat="39.5560150" lon="2.5670100">
        <ele>344.2</ele>
        <time>2020-02-23T12:32:48Z</time>
      </trkpt>
      <trkpt lat="39.5559700" lon="2.5669920">
        <ele>343.6</ele>
        <time>2020-02-23T12:32:49Z</time>
      </trkpt>
      <trkpt lat="39.5558960" lon="2.5669230">
        <ele>345.4</ele>
        <time>2020-02-23T12:32:51Z</time>
      </trkpt>
      <trkpt lat="39.5558480" lon="2.5668860">
        <ele>346.1</ele>
        <time>2020-02-23T12:32:52Z</time>
      </trkpt>
      <trkpt lat="39.5558030" lon="2.5668470">
        <ele>345.9</ele>
        <time>2020-02-23T12:32:53Z</time>
      </trkpt>
      <trkpt lat="39.5557580" lon="2.5667980">
        <ele>346.1</ele>
        <time>2020-02-23T12:32:54Z</time>
      </trkpt>
      <trkpt lat="39.5556850" lon="2.5666240">
        <ele>347.0</ele>
        <time>2020-02-23T12:32:56Z</time>
      </trkpt>
      <trkpt lat="39.5556570" lon="2.5665860">
        <ele>346.6</ele>
        <time>2020-02-23T12:32:58Z</time>
      </trkpt>
      <trkpt lat="39.5556540" lon="2.5665470">
        <ele>346.7</ele>
        <time>2020-02-23T12:33:00Z</time>
      </trkpt>
      <trkpt lat="39.5556590" lon="2.5665260">
        <ele>346.7</ele>
        <time>2020-02-23T12:33:01Z</time>
      </trkpt>
      <trkpt lat="39.5556660" lon="2.5665230">
        <ele>346.7</ele>
        <time>2020-02-23T12:33:03Z</time>
      </trkpt>
      <trkpt lat="39.5556600" lon="2.5665080">
        <ele>346.8</ele>
        <time>2020-02-23T12:33:04Z</time>
      </trkpt>
      <trkpt lat="39.5553870" lon="2.5663140">
        <ele>339.6</ele>
        <time>2020-02-23T12:33:06Z</time>
      </trkpt>
      <trkpt lat="39.5553220" lon="2.5662650">
        <ele>338.3</ele>
        <time>2020-02-23T12:33:07Z</time>
      </trkpt>
      <trkpt lat="39.5552070" lon="2.5662020">
        <ele>336.5</ele>
        <time>2020-02-23T12:33:08Z</time>
      </trkpt>
      <trkpt lat="39.5551040" lon="2.5661880">
        <ele>335.2</ele>
        <time>2020-02-23T12:33:09Z</time>
      </trkpt>
      <trkpt lat="39.5549350" lon="2.5661510">
        <ele>332.6</ele>
        <time>2020-02-23T12:33:11Z</time>
      </trkpt>
      <trkpt lat="39.5548190" lon="2.5660260">
        <ele>329.6</ele>
        <time>2020-02-23T12:33:13Z</time>
      </trkpt>
      <trkpt lat="39.5547660" lon="2.5658640">
        <ele>327.7</ele>
        <time>2020-02-23T12:33:15Z</time>
      </trkpt>
      <trkpt lat="39.5547210" lon="2.5658180">
        <ele>327.1</ele>
        <time>2020-02-23T12:33:16Z</time>
      </trkpt>
      <trkpt lat="39.5546700" lon="2.5657810">
        <ele>326.6</ele>
        <time>2020-02-23T12:33:17Z</time>
      </trkpt>
      <trkpt lat="39.5545960" lon="2.5657520">
        <ele>326.1</ele>
        <time>2020-02-23T12:33:18Z</time>
      </trkpt>
      <trkpt lat="39.5545040" lon="2.5657490">
        <ele>325.6</ele>
        <time>2020-02-23T12:33:19Z</time>
      </trkpt>
      <trkpt lat="39.5543300" lon="2.5658320">
        <ele>324.6</ele>
        <time>2020-02-23T12:33:21Z</time>
      </trkpt>
      <trkpt lat="39.5542070" lon="2.5659610">
        <ele>323.0</ele>
        <time>2020-02-23T12:33:23Z</time>
      </trkpt>
      <trkpt lat="39.5541470" lon="2.5659920">
        <ele>322.2</ele>
        <time>2020-02-23T12:33:24Z</time>
      </trkpt>
      <trkpt lat="39.5540080" lon="2.5659870">
        <ele>319.3</ele>
        <time>2020-02-23T12:33:26Z</time>
      </trkpt>
      <trkpt lat="39.5538560" lon="2.5660630">
        <ele>315.3</ele>
        <time>2020-02-23T12:33:28Z</time>
      </trkpt>
      <trkpt lat="39.5537240" lon="2.5661740">
        <ele>311.4</ele>
        <time>2020-02-23T12:33:30Z</time>
      </trkpt>
      <trkpt lat="39.5536600" lon="2.5662430">
        <ele>309.6</ele>
        <time>2020-02-23T12:33:31Z</time>
      </trkpt>
      <trkpt lat="39.5536030" lon="2.5662980">
        <ele>308.1</ele>
        <time>2020-02-23T12:33:32Z</time>
      </trkpt>
      <trkpt lat="39.5535060" lon="2.5663830">
        <ele>305.6</ele>
        <time>2020-02-23T12:33:34Z</time>
      </trkpt>
      <trkpt lat="39.5534510" lon="2.5664450">
        <ele>304.1</ele>
        <time>2020-02-23T12:33:35Z</time>
      </trkpt>
      <trkpt lat="39.5533940" lon="2.5665870">
        <ele>301.9</ele>
        <time>2020-02-23T12:33:37Z</time>
      </trkpt>
      <trkpt lat="39.5533620" lon="2.5667090">
        <ele>300.5</ele>
        <time>2020-02-23T12:33:39Z</time>
      </trkpt>
      <trkpt lat="39.5533360" lon="2.5667340">
        <ele>300.1</ele>
        <time>2020-02-23T12:33:40Z</time>
      </trkpt>
      <trkpt lat="39.5533050" lon="2.5667430">
        <ele>299.7</ele>
        <time>2020-02-23T12:33:42Z</time>
      </trkpt>
      <trkpt lat="39.5532880" lon="2.5667470">
        <ele>298.1</ele>
        <time>2020-02-23T12:33:43Z</time>
      </trkpt>
      <trkpt lat="39.5532460" lon="2.5667440">
        <ele>297.0</ele>
        <time>2020-02-23T12:33:45Z</time>
      </trkpt>
      <trkpt lat="39.5531960" lon="2.5667280">
        <ele>295.7</ele>
        <time>2020-02-23T12:33:46Z</time>
      </trkpt>
      <trkpt lat="39.5531390" lon="2.5667230">
        <ele>294.3</ele>
        <time>2020-02-23T12:33:48Z</time>
      </trkpt>
      <trkpt lat="39.5527650" lon="2.5666800">
        <ele>286.1</ele>
        <time>2020-02-23T12:33:50Z</time>
      </trkpt>
      <trkpt lat="39.5526520" lon="2.5666550">
        <ele>283.8</ele>
        <time>2020-02-23T12:33:52Z</time>
      </trkpt>
      <trkpt lat="39.5525640" lon="2.5666550">
        <ele>282.1</ele>
        <time>2020-02-23T12:33:53Z</time>
      </trkpt>
      <trkpt lat="39.5523910" lon="2.5666890">
        <ele>278.8</ele>
        <time>2020-02-23T12:33:55Z</time>
      </trkpt>
      <trkpt lat="39.5522500" lon="2.5667420">
        <ele>276.3</ele>
        <time>2020-02-23T12:33:57Z</time>
      </trkpt>
      <trkpt lat="39.5521010" lon="2.5668010">
        <ele>273.4</ele>
        <time>2020-02-23T12:33:59Z</time>
      </trkpt>
      <trkpt lat="39.5520220" lon="2.5668180">
        <ele>271.8</ele>
        <time>2020-02-23T12:34:00Z</time>
      </trkpt>
      <trkpt lat="39.5519530" lon="2.5668640">
        <ele>270.4</ele>
        <time>2020-02-23T12:34:01Z</time>
      </trkpt>
      <trkpt lat="39.5519140" lon="2.5669120">
        <ele>269.2</ele>
        <time>2020-02-23T12:34:02Z</time>
      </trkpt>
      <trkpt lat="39.5518890" lon="2.5669390">
        <ele>268.5</ele>
        <time>2020-02-23T12:34:03Z</time>
      </trkpt>
      <trkpt lat="39.5518800" lon="2.5669430">
        <ele>268.2</ele>
        <time>2020-02-23T12:34:04Z</time>
      </trkpt>
      <trkpt lat="39.5518510" lon="2.5669830">
        <ele>267.1</ele>
        <time>2020-02-23T12:34:06Z</time>
      </trkpt>
      <trkpt lat="39.5518410" lon="2.5669960">
        <ele>266.7</ele>
        <time>2020-02-23T12:34:07Z</time>
      </trkpt>
      <trkpt lat="39.5518300" lon="2.5670090">
        <ele>266.4</ele>
        <time>2020-02-23T12:34:08Z</time>
      </trkpt>
      <trkpt lat="39.5518260" lon="2.5670300">
        <ele>266.0</ele>
        <time>2020-02-23T12:34:09Z</time>
      </trkpt>
      <trkpt lat="39.5518180" lon="2.5670550">
        <ele>265.6</ele>
        <time>2020-02-23T12:34:11Z</time>
      </trkpt>
      <trkpt lat="39.5518200" lon="2.5670450">
        <ele>265.4</ele>
        <time>2020-02-23T12:34:13Z</time>
      </trkpt>
      <trkpt lat="39.5518230" lon="2.5670430">
        <ele>265.3</ele>
        <time>2020-02-23T12:34:14Z</time>
      </trkpt>
      <trkpt lat="39.5518250" lon="2.5670400">
        <ele>265.3</ele>
        <time>2020-02-23T12:34:16Z</time>
      </trkpt>
      <trkpt lat="39.5518280" lon="2.5670370">
        <ele>265.2</ele>
        <time>2020-02-23T12:34:18Z</time>
      </trkpt>
      <trkpt lat="39.5518310" lon="2.5670350">
        <ele>265.1</ele>
        <time>2020-02-23T12:34:19Z</time>
      </trkpt>
      <trkpt lat="39.5518340" lon="2.5670320">
        <ele>265.0</ele>
        <time>2020-02-23T12:34:21Z</time>
      </trkpt>
      <trkpt lat="39.5518370" lon="2.5670300">
        <ele>265.0</ele>
        <time>2020-02-23T12:34:23Z</time>
      </trkpt>
      <trkpt lat="39.5518400" lon="2.5670270">
        <ele>264.9</ele>
        <time>2020-02-23T12:34:25Z</time>
      </trkpt>
      <trkpt lat="39.5518420" lon="2.5670240">
        <ele>264.8</ele>
        <time>2020-02-23T12:34:26Z</time>
      </trkpt>
      <trkpt lat="39.5518450" lon="2.5670220">
        <ele>264.8</ele>
        <time>2020-02-23T12:34:28Z</time>
      </trkpt>
      <trkpt lat="39.5518480" lon="2.5670190">
        <ele>264.7</ele>
        <time>2020-02-23T12:34:29Z</time>
      </trkpt>
      <trkpt lat="39.5518760" lon="2.5669880">
        <ele>264.0</ele>
        <time>2020-02-23T12:34:32Z</time>
      </trkpt>
      <trkpt lat="39.5518960" lon="2.5669570">
        <ele>263.5</ele>
        <time>2020-02-23T12:34:33Z</time>
      </trkpt>
      <trkpt lat="39.5519040" lon="2.5669440">
        <ele>263.3</ele>
        <time>2020-02-23T12:34:35Z</time>
      </trkpt>
      <trkpt lat="39.5519080" lon="2.5669390">
        <ele>263.2</ele>
        <time>2020-02-23T12:34:36Z</time>
      </trkpt>
      <trkpt lat="39.5519130" lon="2.5669350">
        <ele>263.1</ele>
        <time>2020-02-23T12:34:38Z</time>
      </trkpt>
      <trkpt lat="39.5519130" lon="2.5669350">
        <ele>263.1</ele>
        <time>2020-02-23T12:34:39Z</time>
      </trkpt>
      <trkpt lat="39.5519140" lon="2.5669340">
        <ele>263.1</ele>
        <time>2020-02-23T12:34:40Z</time>
      </trkpt>
      <trkpt lat="39.5519170" lon="2.5669330">
        <ele>263.0</ele>
        <time>2020-02-23T12:34:42Z</time>
      </trkpt>
      <trkpt lat="39.5519190" lon="2.5669310">
        <ele>263.0</ele>
        <time>2020-02-23T12:34:44Z</time>
      </trkpt>
      <trkpt lat="39.5519240" lon="2.5669220">
        <ele>262.8</ele>
        <time>2020-02-23T12:34:45Z</time>
      </trkpt>
      <trkpt lat="39.5519460" lon="2.5668890">
        <ele>262.3</ele>
        <time>2020-02-23T12:34:47Z</time>
      </trkpt>
      <trkpt lat="39.5519600" lon="2.5668490">
        <ele>261.6</ele>
        <time>2020-02-23T12:34:49Z</time>
      </trkpt>
      <trkpt lat="39.5519770" lon="2.5668050">
        <ele>260.8</ele>
        <time>2020-02-23T12:34:50Z</time>
      </trkpt>
      <trkpt lat="39.5519840" lon="2.5667820">
        <ele>260.4</ele>
        <time>2020-02-23T12:34:52Z</time>
      </trkpt>
      <trkpt lat="39.5519870" lon="2.5667700">
        <ele>260.2</ele>
        <time>2020-02-23T12:34:53Z</time>
      </trkpt>
      <trkpt lat="39.5520020" lon="2.5667230">
        <ele>259.6</ele>
        <time>2020-02-23T12:34:54Z</time>
      </trkpt>
      <trkpt lat="39.5520070" lon="2.5667030">
        <ele>259.3</ele>
        <time>2020-02-23T12:34:55Z</time>
      </trkpt>
      <trkpt lat="39.5520180" lon="2.5666770">
        <ele>258.9</ele>
        <time>2020-02-23T12:34:56Z</time>
      </trkpt>
      <trkpt lat="39.5520360" lon="2.5666440">
        <ele>257.2</ele>
        <time>2020-02-23T12:34:58Z</time>
      </trkpt>
      <trkpt lat="39.5520710" lon="2.5666080">
        <ele>256.6</ele>
        <time>2020-02-23T12:34:59Z</time>
      </trkpt>
      <trkpt lat="39.5521060" lon="2.5665770">
        <ele>256.0</ele>
        <time>2020-02-23T12:35:00Z</time>
      </trkpt>
      <trkpt lat="39.5521530" lon="2.5665200">
        <ele>255.1</ele>
        <time>2020-02-23T12:35:02Z</time>
      </trkpt>
      <trkpt lat="39.5521750" lon="2.5664880">
        <ele>254.6</ele>
        <time>2020-02-23T12:35:03Z</time>
      </trkpt>
      <trkpt lat="39.5522610" lon="2.5663590">
        <ele>252.5</ele>
        <time>2020-02-23T12:35:05Z</time>
      </trkpt>
      <trkpt lat="39.5523030" lon="2.5663190">
        <ele>251.7</ele>
        <time>2020-02-23T12:35:07Z</time>
      </trkpt>
      <trkpt lat="39.5523440" lon="2.5662750">
        <ele>250.8</ele>
        <time>2020-02-23T12:35:08Z</time>
      </trkpt>
      <trkpt lat="39.5524660" lon="2.5661810">
        <ele>248.4</ele>
        <time>2020-02-23T12:35:10Z</time>
      </trkpt>
      <trkpt lat="39.5525350" lon="2.5661330">
        <ele>247.1</ele>
        <time>2020-02-23T12:35:12Z</time>
      </trkpt>
      <trkpt lat="39.5526120" lon="2.5660230">
        <ele>245.2</ele>
        <time>2020-02-23T12:35:14Z</time>
      </trkpt>
      <trkpt lat="39.5526430" lon="2.5659260">
        <ele>243.1</ele>
        <time>2020-02-23T12:35:15Z</time>
      </trkpt>
      <trkpt lat="39.5526290" lon="2.5658530">
        <ele>238.9</ele>
        <time>2020-02-23T12:35:18Z</time>
      </trkpt>
      <trkpt lat="39.5526000" lon="2.5658360">
        <ele>238.5</ele>
        <time>2020-02-23T12:35:19Z</time>
      </trkpt>
      <trkpt lat="39.5525780" lon="2.5658290">
        <ele>237.0</ele>
        <time>2020-02-23T12:35:20Z</time>
      </trkpt>
      <trkpt lat="39.5525450" lon="2.5658120">
        <ele>234.1</ele>
        <time>2020-02-23T12:35:21Z</time>
      </trkpt>
      <trkpt lat="39.5525070" lon="2.5657430">
        <ele>231.2</ele>
        <time>2020-02-23T12:35:22Z</time>
      </trkpt>
      <trkpt lat="39.5525280" lon="2.5656750">
        <ele>228.2</ele>
        <time>2020-02-23T12:35:25Z</time>
      </trkpt>
      <trkpt lat="39.5525780" lon="2.5656550">
        <ele>229.9</ele>
        <time>2020-02-23T12:35:26Z</time>
      </trkpt>
      <trkpt lat="39.5526280" lon="2.5656440">
        <ele>229.1</ele>
        <time>2020-02-23T12:35:28Z</time>
      </trkpt>
      <trkpt lat="39.5526710" lon="2.5656140">
        <ele>230.4</ele>
        <time>2020-02-23T12:35:30Z</time>
      </trkpt>
      <trkpt lat="39.5526400" lon="2.5656180">
        <ele>229.1</ele>
        <time>2020-02-23T12:35:32Z</time>
      </trkpt>
      <trkpt lat="39.5526400" lon="2.5656090">
        <ele>228.6</ele>
        <time>2020-02-23T12:35:34Z</time>
      </trkpt>
      <trkpt lat="39.5526540" lon="2.5656040">
        <ele>227.0</ele>
        <time>2020-02-23T12:35:35Z</time>
      </trkpt>
      <trkpt lat="39.5526670" lon="2.5655980">
        <ele>227.4</ele>
        <time>2020-02-23T12:35:36Z</time>
      </trkpt>
      <trkpt lat="39.5526810" lon="2.5655930">
        <ele>227.0</ele>
        <time>2020-02-23T12:35:38Z</time>
      </trkpt>
      <trkpt lat="39.5526950" lon="2.5655880">
        <ele>226.5</ele>
        <time>2020-02-23T12:35:38Z</time>
      </trkpt>
      <trkpt lat="39.5526950" lon="2.5655880">
        <ele>226.1</ele>
        <time>2020-02-23T12:35:39Z</time>
      </trkpt>
      <trkpt lat="39.5526950" lon="2.5655880">
        <ele>225.7</ele>
        <time>2020-02-23T12:35:39Z</time>
      </trkpt>
      <trkpt lat="39.5527010" lon="2.5655830">
        <ele>226.2</ele>
        <time>2020-02-23T12:35:41Z</time>
      </trkpt>
      <trkpt lat="39.5527040" lon="2.5655430">
        <ele>224.6</ele>
        <time>2020-02-23T12:35:44Z</time>
      </trkpt>
      <trkpt lat="39.5526900" lon="2.5655260">
        <ele>223.1</ele>
        <time>2020-02-23T12:35:45Z</time>
      </trkpt>
      <trkpt lat="39.5526920" lon="2.5654970">
        <ele>221.6</ele>
        <time>2020-02-23T12:35:48Z</time>
      </trkpt>
      <trkpt lat="39.5526900" lon="2.5654880">
        <ele>221.4</ele>
        <time>2020-02-23T12:35:49Z</time>
      </trkpt>
      <trkpt lat="39.5526870" lon="2.5654750">
        <ele>221.2</ele>
        <time>2020-02-23T12:35:50Z</time>
      </trkpt>
      <trkpt lat="39.5526790" lon="2.5654620">
        <ele>220.9</ele>
        <time>2020-02-23T12:35:51Z</time>
      </trkpt>
      <trkpt lat="39.5526710" lon="2.5654490">
        <ele>220.6</ele>
        <time>2020-02-23T12:35:52Z</time>
      </trkpt>
      <trkpt lat="39.5525520" lon="2.5653860">
        <ele>218.0</ele>
        <time>2020-02-23T12:35:55Z</time>
      </trkpt>
      <trkpt lat="39.5524700" lon="2.5653740">
        <ele>216.2</ele>
        <time>2020-02-23T12:35:56Z</time>
      </trkpt>
      <trkpt lat="39.5522440" lon="2.5653800">
        <ele>211.0</ele>
        <time>2020-02-23T12:35:57Z</time>
      </trkpt>
      <trkpt lat="39.5521970" lon="2.5653790">
        <ele>209.8</ele>
        <time>2020-02-23T12:35:58Z</time>
      </trkpt>
      <trkpt lat="39.5521730" lon="2.5653810">
        <ele>209.3</ele>
        <time>2020-02-23T12:35:59Z</time>
      </trkpt>
      <trkpt lat="39.5521160" lon="2.5653820">
        <ele>207.9</ele>
        <time>2020-02-23T12:36:00Z</time>
      </trkpt>
      <trkpt lat="39.5520750" lon="2.5654060">
        <ele>206.8</ele>
        <time>2020-02-23T12:36:02Z</time>
      </trkpt>
      <trkpt lat="39.5520500" lon="2.5654250">
        <ele>206.1</ele>
        <time>2020-02-23T12:36:03Z</time>
      </trkpt>
      <trkpt lat="39.5520230" lon="2.5654350">
        <ele>205.3</ele>
        <time>2020-02-23T12:36:04Z</time>
      </trkpt>
      <trkpt lat="39.5519710" lon="2.5654380">
        <ele>203.9</ele>
        <time>2020-02-23T12:36:05Z</time>
      </trkpt>
      <trkpt lat="39.5519350" lon="2.5654370">
        <ele>202.8</ele>
        <time>2020-02-23T12:36:07Z</time>
      </trkpt>
      <trkpt lat="39.5517580" lon="2.5654160">
        <ele>198.3</ele>
        <time>2020-02-23T12:36:10Z</time>
      </trkpt>
      <trkpt lat="39.5516390" lon="2.5653890">
        <ele>195.2</ele>
        <time>2020-02-23T12:36:11Z</time>
      </trkpt>
      <trkpt lat="39.5514730" lon="2.5654150">
        <ele>191.6</ele>
        <time>2020-02-23T12:36:13Z</time>
      </trkpt>
      <trkpt lat="39.5514080" lon="2.5654670">
        <ele>190.2</ele>
        <time>2020-02-23T12:36:14Z</time>
      </trkpt>
      <trkpt lat="39.5513580" lon="2.5655300">
        <ele>188.9</ele>
        <time>2020-02-23T12:36:15Z</time>
      </trkpt>
      <trkpt lat="39.5512810" lon="2.5656350">
        <ele>187.0</ele>
        <time>2020-02-23T12:36:17Z</time>
      </trkpt>
      <trkpt lat="39.5512050" lon="2.5657490">
        <ele>184.8</ele>
        <time>2020-02-23T12:36:19Z</time>
      </trkpt>
      <trkpt lat="39.5511790" lon="2.5657760">
        <ele>184.2</ele>
        <time>2020-02-23T12:36:20Z</time>
      </trkpt>
      <trkpt lat="39.5511650" lon="2.5657900">
        <ele>183.8</ele>
        <time>2020-02-23T12:36:21Z</time>
      </trkpt>
      <trkpt lat="39.5511560" lon="2.5658040">
        <ele>183.5</ele>
        <time>2020-02-23T12:36:22Z</time>
      </trkpt>
      <trkpt lat="39.5511290" lon="2.5658270">
        <ele>182.9</ele>
        <time>2020-02-23T12:36:25Z</time>
      </trkpt>
      <trkpt lat="39.5511170" lon="2.5658360">
        <ele>182.7</ele>
        <time>2020-02-23T12:36:26Z</time>
      </trkpt>
      <trkpt lat="39.5510810" lon="2.5658690">
        <ele>181.9</ele>
        <time>2020-02-23T12:36:27Z</time>
      </trkpt>
      <trkpt lat="39.5510360" lon="2.5659150">
        <ele>180.8</ele>
        <time>2020-02-23T12:36:28Z</time>
      </trkpt>
      <trkpt lat="39.5509180" lon="2.5660670">
        <ele>177.9</ele>
        <time>2020-02-23T12:36:30Z</time>
      </trkpt>
      <trkpt lat="39.5507960" lon="2.5661910">
        <ele>175.7</ele>
        <time>2020-02-23T12:36:32Z</time>
      </trkpt>
      <trkpt lat="39.5507380" lon="2.5662540">
        <ele>174.7</ele>
        <time>2020-02-23T12:36:33Z</time>
      </trkpt>
      <trkpt lat="39.5506360" lon="2.5663830">
        <ele>172.7</ele>
        <time>2020-02-23T12:36:35Z</time>
      </trkpt>
      <trkpt lat="39.5505340" lon="2.5665040">
        <ele>170.4</ele>
        <time>2020-02-23T12:36:37Z</time>
      </trkpt>
      <trkpt lat="39.5505010" lon="2.5665680">
        <ele>169.6</ele>
        <time>2020-02-23T12:36:38Z</time>
      </trkpt>
      <trkpt lat="39.5504670" lon="2.5666380">
        <ele>168.7</ele>
        <time>2020-02-23T12:36:39Z</time>
      </trkpt>
      <trkpt lat="39.5504320" lon="2.5667200">
        <ele>167.6</ele>
        <time>2020-02-23T12:36:40Z</time>
      </trkpt>
      <trkpt lat="39.5503580" lon="2.5668620">
        <ele>165.8</ele>
        <time>2020-02-23T12:36:42Z</time>
      </trkpt>
      <trkpt lat="39.5502220" lon="2.5668910">
        <ele>164.1</ele>
        <time>2020-02-23T12:36:44Z</time>
      </trkpt>
      <trkpt lat="39.5501430" lon="2.5668630">
        <ele>163.2</ele>
        <time>2020-02-23T12:36:45Z</time>
      </trkpt>
      <trkpt lat="39.5500660" lon="2.5668270">
        <ele>162.4</ele>
        <time>2020-02-23T12:36:46Z</time>
      </trkpt>
      <trkpt lat="39.5499220" lon="2.5667960">
        <ele>161.0</ele>
        <time>2020-02-23T12:36:48Z</time>
      </trkpt>
      <trkpt lat="39.5497760" lon="2.5667720">
        <ele>159.5</ele>
        <time>2020-02-23T12:36:50Z</time>
      </trkpt>
      <trkpt lat="39.5496960" lon="2.5667600">
        <ele>158.8</ele>
        <time>2020-02-23T12:36:51Z</time>
      </trkpt>
      <trkpt lat="39.5495180" lon="2.5667860">
        <ele>157.4</ele>
        <time>2020-02-23T12:36:53Z</time>
      </trkpt>
      <trkpt lat="39.5494270" lon="2.5668040">
        <ele>156.8</ele>
        <time>2020-02-23T12:36:54Z</time>
      </trkpt>
      <trkpt lat="39.5492300" lon="2.5668110">
        <ele>155.6</ele>
        <time>2020-02-23T12:36:56Z</time>
      </trkpt>
      <trkpt lat="39.5491390" lon="2.5668230">
        <ele>155.1</ele>
        <time>2020-02-23T12:36:57Z</time>
      </trkpt>
      <trkpt lat="39.5490550" lon="2.5668410">
        <ele>154.7</ele>
        <time>2020-02-23T12:36:58Z</time>
      </trkpt>
      <trkpt lat="39.5489320" lon="2.5669450">
        <ele>154.1</ele>
        <time>2020-02-23T12:37:00Z</time>
      </trkpt>
      <trkpt lat="39.5488350" lon="2.5671170">
        <ele>153.6</ele>
        <time>2020-02-23T12:37:02Z</time>
      </trkpt>
      <trkpt lat="39.5487610" lon="2.5672840">
        <ele>153.1</ele>
        <time>2020-02-23T12:37:04Z</time>
      </trkpt>
      <trkpt lat="39.5487220" lon="2.5673600">
        <ele>152.9</ele>
        <time>2020-02-23T12:37:05Z</time>
      </trkpt>
      <trkpt lat="39.5486110" lon="2.5675240">
        <ele>152.5</ele>
        <time>2020-02-23T12:37:07Z</time>
      </trkpt>
      <trkpt lat="39.5485490" lon="2.5676000">
        <ele>152.3</ele>
        <time>2020-02-23T12:37:08Z</time>
      </trkpt>
      <trkpt lat="39.5484340" lon="2.5677140">
        <ele>151.9</ele>
        <time>2020-02-23T12:37:10Z</time>
      </trkpt>
      <trkpt lat="39.5483650" lon="2.5677910">
        <ele>151.6</ele>
        <time>2020-02-23T12:37:12Z</time>
      </trkpt>
      <trkpt lat="39.5483480" lon="2.5678310">
        <ele>151.5</ele>
        <time>2020-02-23T12:37:13Z</time>
      </trkpt>
      <trkpt lat="39.5483540" lon="2.5679030">
        <ele>151.4</ele>
        <time>2020-02-23T12:37:15Z</time>
      </trkpt>
      <trkpt lat="39.5483440" lon="2.5679370">
        <ele>151.2</ele>
        <time>2020-02-23T12:32:47Z</time>
      </trkpt>
      <trkpt lat="39.5483710" lon="2.5679400">
        <ele>151.1</ele>
        <time>2020-02-23T12:34:46Z</time>
      </trkpt>
      <trkpt lat="39.5483790" lon="2.5677490">
        <ele>150.6</ele>
        <time>2020-02-23T12:38:10Z</time>
      </trkpt>
      <trkpt lat="39.5483810" lon="2.5679840">
        <ele>149.7</ele>
        <time>2020-02-23T12:38:49Z</time>
      </trkpt>
      <trkpt lat="39.5484500" lon="2.5682100">
        <ele>149.0</ele>
        <time>2020-02-23T12:38:58Z</time>
      </trkpt>
      <trkpt lat="39.5485410" lon="2.5684160">
        <ele>148.5</ele>
        <time>2020-02-23T12:39:05Z</time>
      </trkpt>
      <trkpt lat="39.5485710" lon="2.5686350">
        <ele>148.1</ele>
        <time>2020-02-23T12:39:12Z</time>
      </trkpt>
      <trkpt lat="39.5484470" lon="2.5688600">
        <ele>147.6</ele>
        <time>2020-02-23T12:39:20Z</time>
      </trkpt>
      <trkpt lat="39.5482850" lon="2.5689920">
        <ele>147.1</ele>
        <time>2020-02-23T12:39:25Z</time>
      </trkpt>
      <trkpt lat="39.5480810" lon="2.5690370">
        <ele>146.4</ele>
        <time>2020-02-23T12:39:31Z</time>
      </trkpt>
      <trkpt lat="39.5478800" lon="2.5690670">
        <ele>145.7</ele>
        <time>2020-02-23T12:39:37Z</time>
      </trkpt>
      <trkpt lat="39.5477130" lon="2.5691410">
        <ele>145.3</ele>
        <time>2020-02-23T12:39:43Z</time>
      </trkpt>
      <trkpt lat="39.5476120" lon="2.5693630">
        <ele>145.0</ele>
        <time>2020-02-23T12:39:50Z</time>
      </trkpt>
      <trkpt lat="39.5474530" lon="2.5695140">
        <ele>145.3</ele>
        <time>2020-02-23T12:39:56Z</time>
      </trkpt>
      <trkpt lat="39.5472830" lon="2.5696400">
        <ele>146.1</ele>
        <time>2020-02-23T12:40:03Z</time>
      </trkpt>
      <trkpt lat="39.5471300" lon="2.5698040">
        <ele>146.7</ele>
        <time>2020-02-23T12:40:11Z</time>
      </trkpt>
      <trkpt lat="39.5470030" lon="2.5699900">
        <ele>147.2</ele>
        <time>2020-02-23T12:40:19Z</time>
      </trkpt>
      <trkpt lat="39.5468830" lon="2.5701630">
        <ele>147.6</ele>
        <time>2020-02-23T12:40:27Z</time>
      </trkpt>
      <trkpt lat="39.5467530" lon="2.5703470">
        <ele>147.7</ele>
        <time>2020-02-23T12:40:36Z</time>
      </trkpt>
      <trkpt lat="39.5466190" lon="2.5705140">
        <ele>147.6</ele>
        <time>2020-02-23T12:40:44Z</time>
      </trkpt>
      <trkpt lat="39.5465550" lon="2.5707140">
        <ele>148.1</ele>
        <time>2020-02-23T12:41:37Z</time>
      </trkpt>
      <trkpt lat="39.5465050" lon="2.5709420">
        <ele>148.6</ele>
        <time>2020-02-23T12:41:48Z</time>
      </trkpt>
      <trkpt lat="39.5463330" lon="2.5710480">
        <ele>148.8</ele>
        <time>2020-02-23T12:41:57Z</time>
      </trkpt>
      <trkpt lat="39.5461580" lon="2.5711340">
        <ele>148.8</ele>
        <time>2020-02-23T12:42:05Z</time>
      </trkpt>
      <trkpt lat="39.5459880" lon="2.5712420">
        <ele>148.7</ele>
        <time>2020-02-23T12:42:14Z</time>
      </trkpt>
      <trkpt lat="39.5458170" lon="2.5712710">
        <ele>148.6</ele>
        <time>2020-02-23T12:44:10Z</time>
      </trkpt>
      <trkpt lat="39.5456320" lon="2.5713670">
        <ele>148.6</ele>
        <time>2020-02-23T12:44:18Z</time>
      </trkpt>
      <trkpt lat="39.5454460" lon="2.5714080">
        <ele>148.5</ele>
        <time>2020-02-23T12:44:24Z</time>
      </trkpt>
      <trkpt lat="39.5455240" lon="2.5713770">
        <ele>148.5</ele>
        <time>2020-02-23T12:45:14Z</time>
      </trkpt>
      <trkpt lat="39.5457040" lon="2.5713380">
        <ele>148.4</ele>
        <time>2020-02-23T12:45:29Z</time>
      </trkpt>
      <trkpt lat="39.5458710" lon="2.5712530">
        <ele>148.3</ele>
        <time>2020-02-23T12:45:43Z</time>
      </trkpt>
      <trkpt lat="39.5460450" lon="2.5712080">
        <ele>148.3</ele>
        <time>2020-02-23T12:45:57Z</time>
      </trkpt>
      <trkpt lat="39.5462130" lon="2.5710940">
        <ele>148.2</ele>
        <time>2020-02-23T12:46:11Z</time>
      </trkpt>
      <trkpt lat="39.5463900" lon="2.5710140">
        <ele>148.2</ele>
        <time>2020-02-23T12:46:26Z</time>
      </trkpt>
      <trkpt lat="39.5465330" lon="2.5708630">
        <ele>148.1</ele>
        <time>2020-02-23T12:46:44Z</time>
      </trkpt>
      <trkpt lat="39.5465740" lon="2.5706590">
        <ele>148.0</ele>
        <time>2020-02-23T12:47:00Z</time>
      </trkpt>
      <trkpt lat="39.5466110" lon="2.5706720">
        <ele>148.0</ele>
        <time>2020-02-23T12:47:04Z</time>
      </trkpt>
      <trkpt lat="39.5467920" lon="2.5706020">
        <ele>151.2</ele>
        <time>2020-02-23T12:47:21Z</time>
      </trkpt>
      <trkpt lat="39.5469530" lon="2.5704810">
        <ele>153.7</ele>
        <time>2020-02-23T12:47:38Z</time>
      </trkpt>
      <trkpt lat="39.5471150" lon="2.5703570">
        <ele>156.9</ele>
        <time>2020-02-23T12:47:55Z</time>
      </trkpt>
      <trkpt lat="39.5472860" lon="2.5702890">
        <ele>161.2</ele>
        <time>2020-02-23T12:48:16Z</time>
      </trkpt>
      <trkpt lat="39.5474610" lon="2.5702440">
        <ele>167.0</ele>
        <time>2020-02-23T12:48:52Z</time>
      </trkpt>
      <trkpt lat="39.5476240" lon="2.5701570">
        <ele>172.9</ele>
        <time>2020-02-23T12:49:58Z</time>
      </trkpt>
      <trkpt lat="39.5477860" lon="2.5701460">
        <ele>178.6</ele>
        <time>2020-02-23T12:51:05Z</time>
      </trkpt>
      <trkpt lat="39.5479660" lon="2.5701130">
        <ele>185.3</ele>
        <time>2020-02-23T12:51:32Z</time>
      </trkpt>
      <trkpt lat="39.5481470" lon="2.5700670">
        <ele>192.6</ele>
        <time>2020-02-23T12:52:03Z</time>
      </trkpt>
      <trkpt lat="39.5483110" lon="2.5700530">
        <ele>199.0</ele>
        <time>2020-02-23T12:52:47Z</time>
      </trkpt>
      <trkpt lat="39.5484930" lon="2.5700300">
        <ele>205.3</ele>
        <time>2020-02-23T12:53:20Z</time>
      </trkpt>
      <trkpt lat="39.5486700" lon="2.5699900">
        <ele>211.1</ele>
        <time>2020-02-23T12:53:53Z</time>
      </trkpt>
      <trkpt lat="39.5487600" lon="2.5701650">
        <ele>216.7</ele>
        <time>2020-02-23T12:54:40Z</time>
      </trkpt>
      <trkpt lat="39.5488190" lon="2.5702930">
        <ele>220.4</ele>
        <time>2020-02-23T12:54:53Z</time>
      </trkpt>
      <trkpt lat="39.5489730" lon="2.5704240">
        <ele>224.9</ele>
        <time>2020-02-23T12:55:15Z</time>
      </trkpt>
      <trkpt lat="39.5491030" lon="2.5705730">
        <ele>227.1</ele>
        <time>2020-02-23T12:55:42Z</time>
      </trkpt>
      <trkpt lat="39.5491680" lon="2.5707910">
        <ele>228.2</ele>
        <time>2020-02-23T12:55:50Z</time>
      </trkpt>
      <trkpt lat="39.5492300" lon="2.5709390">
        <ele>229.8</ele>
        <time>2020-02-23T12:55:57Z</time>
      </trkpt>
      <trkpt lat="39.5493900" lon="2.5709790">
        <ele>232.5</ele>
        <time>2020-02-23T12:56:24Z</time>
      </trkpt>
      <trkpt lat="39.5494740" lon="2.5712100">
        <ele>234.4</ele>
        <time>2020-02-23T12:56:32Z</time>
      </trkpt>
      <trkpt lat="39.5495480" lon="2.5711840">
        <ele>235.8</ele>
        <time>2020-02-23T13:01:57Z</time>
      </trkpt>
      <trkpt lat="39.5496590" lon="2.5709940">
        <ele>238.6</ele>
        <time>2020-02-23T13:02:08Z</time>
      </trkpt>
      <trkpt lat="39.5497360" lon="2.5707650">
        <ele>241.5</ele>
        <time>2020-02-23T13:02:21Z</time>
      </trkpt>
      <trkpt lat="39.5498250" lon="2.5705630">
        <ele>244.0</ele>
        <time>2020-02-23T13:02:35Z</time>
      </trkpt>
      <trkpt lat="39.5498990" lon="2.5703580">
        <ele>246.7</ele>
        <time>2020-02-23T13:02:49Z</time>
      </trkpt>
      <trkpt lat="39.5498860" lon="2.5703820">
        <ele>247.0</ele>
        <time>2020-02-23T13:05:58Z</time>
      </trkpt>
      <trkpt lat="39.5498250" lon="2.5705810">
        <ele>244.0</ele>
        <time>2020-02-23T13:06:47Z</time>
      </trkpt>
      <trkpt lat="39.5497560" lon="2.5707980">
        <ele>240.9</ele>
        <time>2020-02-23T13:06:50Z</time>
      </trkpt>
      <trkpt lat="39.5496410" lon="2.5710920">
        <ele>236.4</ele>
        <time>2020-02-23T13:06:53Z</time>
      </trkpt>
      <trkpt lat="39.5495390" lon="2.5713040">
        <ele>232.0</ele>
        <time>2020-02-23T13:06:55Z</time>
      </trkpt>
      <trkpt lat="39.5494330" lon="2.5715510">
        <ele>227.8</ele>
        <time>2020-02-23T13:06:57Z</time>
      </trkpt>
      <trkpt lat="39.5493220" lon="2.5718180">
        <ele>226.0</ele>
        <time>2020-02-23T13:06:59Z</time>
      </trkpt>
      <trkpt lat="39.5492190" lon="2.5720670">
        <ele>225.2</ele>
        <time>2020-02-23T13:07:01Z</time>
      </trkpt>
      <trkpt lat="39.5491170" lon="2.5722950">
        <ele>224.9</ele>
        <time>2020-02-23T13:07:03Z</time>
      </trkpt>
      <trkpt lat="39.5490210" lon="2.5725020">
        <ele>224.8</ele>
        <time>2020-02-23T13:07:05Z</time>
      </trkpt>
      <trkpt lat="39.5488950" lon="2.5727690">
        <ele>224.3</ele>
        <time>2020-02-23T13:07:08Z</time>
      </trkpt>
      <trkpt lat="39.5487880" lon="2.5730070">
        <ele>223.3</ele>
        <time>2020-02-23T13:07:11Z</time>
      </trkpt>
      <trkpt lat="39.5486930" lon="2.5732440">
        <ele>221.2</ele>
        <time>2020-02-23T13:07:14Z</time>
      </trkpt>
      <trkpt lat="39.5486220" lon="2.5734110">
        <ele>218.6</ele>
        <time>2020-02-23T13:07:16Z</time>
      </trkpt>
      <trkpt lat="39.5485080" lon="2.5736910">
        <ele>213.6</ele>
        <time>2020-02-23T13:07:19Z</time>
      </trkpt>
      <trkpt lat="39.5484740" lon="2.5739750">
        <ele>208.7</ele>
        <time>2020-02-23T13:07:22Z</time>
      </trkpt>
      <trkpt lat="39.5484690" lon="2.5742120">
        <ele>205.1</ele>
        <time>2020-02-23T13:07:25Z</time>
      </trkpt>
      <trkpt lat="39.5485150" lon="2.5744430">
        <ele>201.5</ele>
        <time>2020-02-23T13:07:28Z</time>
      </trkpt>
      <trkpt lat="39.5485370" lon="2.5745270">
        <ele>200.3</ele>
        <time>2020-02-23T13:07:29Z</time>
      </trkpt>
      <trkpt lat="39.5486640" lon="2.5747900">
        <ele>195.6</ele>
        <time>2020-02-23T13:07:32Z</time>
      </trkpt>
      <trkpt lat="39.5487180" lon="2.5748780">
        <ele>193.8</ele>
        <time>2020-02-23T13:07:33Z</time>
      </trkpt>
      <trkpt lat="39.5488380" lon="2.5750650">
        <ele>189.7</ele>
        <time>2020-02-23T13:07:35Z</time>
      </trkpt>
      <trkpt lat="39.5489690" lon="2.5752730">
        <ele>185.0</ele>
        <time>2020-02-23T13:07:37Z</time>
      </trkpt>
      <trkpt lat="39.5491170" lon="2.5754890">
        <ele>179.3</ele>
        <time>2020-02-23T13:07:39Z</time>
      </trkpt>
      <trkpt lat="39.5492770" lon="2.5757120">
        <ele>173.7</ele>
        <time>2020-02-23T13:07:41Z</time>
      </trkpt>
      <trkpt lat="39.5494410" lon="2.5759430">
        <ele>168.9</ele>
        <time>2020-02-23T13:07:43Z</time>
      </trkpt>
      <trkpt lat="39.5495640" lon="2.5761540">
        <ele>166.4</ele>
        <time>2020-02-23T13:07:45Z</time>
      </trkpt>
      <trkpt lat="39.5497190" lon="2.5764160">
        <ele>163.2</ele>
        <time>2020-02-23T13:07:48Z</time>
      </trkpt>
      <trkpt lat="39.5498340" lon="2.5765710">
        <ele>160.5</ele>
        <time>2020-02-23T13:07:50Z</time>
      </trkpt>
      <trkpt lat="39.5500120" lon="2.5766750">
        <ele>157.9</ele>
        <time>2020-02-23T13:07:53Z</time>
      </trkpt>
      <trkpt lat="39.5501660" lon="2.5765730">
        <ele>156.1</ele>
        <time>2020-02-23T13:07:58Z</time>
      </trkpt>
      <trkpt lat="39.5501940" lon="2.5765130">
        <ele>155.7</ele>
        <time>2020-02-23T13:08:00Z</time>
      </trkpt>
      <trkpt lat="39.5501950" lon="2.5762760">
        <ele>154.0</ele>
        <time>2020-02-23T13:08:42Z</time>
      </trkpt>
      <trkpt lat="39.5501410" lon="2.5760250">
        <ele>151.8</ele>
        <time>2020-02-23T13:08:46Z</time>
      </trkpt>
      <trkpt lat="39.5500990" lon="2.5757300">
        <ele>148.7</ele>
        <time>2020-02-23T13:08:49Z</time>
      </trkpt>
      <trkpt lat="39.5500790" lon="2.5753880">
        <ele>146.2</ele>
        <time>2020-02-23T13:08:52Z</time>
      </trkpt>
      <trkpt lat="39.5500710" lon="2.5751540">
        <ele>144.9</ele>
        <time>2020-02-23T13:08:54Z</time>
      </trkpt>
      <trkpt lat="39.5500810" lon="2.5750370">
        <ele>144.3</ele>
        <time>2020-02-23T13:08:55Z</time>
      </trkpt>
      <trkpt lat="39.5502010" lon="2.5747620">
        <ele>142.7</ele>
        <time>2020-02-23T13:08:58Z</time>
      </trkpt>
      <trkpt lat="39.5503840" lon="2.5746740">
        <ele>141.1</ele>
        <time>2020-02-23T13:09:01Z</time>
      </trkpt>
      <trkpt lat="39.5505420" lon="2.5748670">
        <ele>139.4</ele>
        <time>2020-02-23T13:09:04Z</time>
      </trkpt>
      <trkpt lat="39.5506210" lon="2.5751160">
        <ele>137.4</ele>
        <time>2020-02-23T13:09:07Z</time>
      </trkpt>
      <trkpt lat="39.5506510" lon="2.5751980">
        <ele>136.7</ele>
        <time>2020-02-23T13:09:08Z</time>
      </trkpt>
      <trkpt lat="39.5507460" lon="2.5754890">
        <ele>134.3</ele>
        <time>2020-02-23T13:09:11Z</time>
      </trkpt>
      <trkpt lat="39.5508470" lon="2.5758010">
        <ele>132.6</ele>
        <time>2020-02-23T13:09:14Z</time>
      </trkpt>
      <trkpt lat="39.5509600" lon="2.5761030">
        <ele>131.2</ele>
        <time>2020-02-23T13:09:17Z</time>
      </trkpt>
      <trkpt lat="39.5510230" lon="2.5763340">
        <ele>131.0</ele>
        <time>2020-02-23T13:09:19Z</time>
      </trkpt>
      <trkpt lat="39.5510610" lon="2.5765860">
        <ele>130.9</ele>
        <time>2020-02-23T13:09:21Z</time>
      </trkpt>
      <trkpt lat="39.5510720" lon="2.5768380">
        <ele>131.3</ele>
        <time>2020-02-23T13:09:23Z</time>
      </trkpt>
      <trkpt lat="39.5510420" lon="2.5770880">
        <ele>131.7</ele>
        <time>2020-02-23T13:09:25Z</time>
      </trkpt>
      <trkpt lat="39.5510360" lon="2.5772550">
        <ele>131.9</ele>
        <time>2020-02-23T13:09:27Z</time>
      </trkpt>
      <trkpt lat="39.5510480" lon="2.5775300">
        <ele>132.3</ele>
        <time>2020-02-23T13:09:31Z</time>
      </trkpt>
      <trkpt lat="39.5511710" lon="2.5776810">
        <ele>135.6</ele>
        <time>2020-02-23T13:09:40Z</time>
      </trkpt>
      <trkpt lat="39.5512330" lon="2.5776850">
        <ele>137.0</ele>
        <time>2020-02-23T13:09:44Z</time>
      </trkpt>
      <trkpt lat="39.5514110" lon="2.5777220">
        <ele>141.1</ele>
        <time>2020-02-23T13:09:54Z</time>
      </trkpt>
      <trkpt lat="39.5515970" lon="2.5777800">
        <ele>145.0</ele>
        <time>2020-02-23T13:10:07Z</time>
      </trkpt>
      <trkpt lat="39.5517720" lon="2.5778470">
        <ele>148.7</ele>
        <time>2020-02-23T13:10:17Z</time>
      </trkpt>
      <trkpt lat="39.5519510" lon="2.5779040">
        <ele>151.8</ele>
        <time>2020-02-23T13:10:29Z</time>
      </trkpt>
      <trkpt lat="39.5521260" lon="2.5779750">
        <ele>154.2</ele>
        <time>2020-02-23T13:10:41Z</time>
      </trkpt>
      <trkpt lat="39.5522220" lon="2.5779260">
        <ele>155.4</ele>
        <time>2020-02-23T13:10:48Z</time>
      </trkpt>
      <trkpt lat="39.5523900" lon="2.5778220">
        <ele>158.6</ele>
        <time>2020-02-23T13:10:57Z</time>
      </trkpt>
      <trkpt lat="39.5525340" lon="2.5777090">
        <ele>161.5</ele>
        <time>2020-02-23T13:11:05Z</time>
      </trkpt>
      <trkpt lat="39.5526910" lon="2.5775500">
        <ele>164.5</ele>
        <time>2020-02-23T13:11:22Z</time>
      </trkpt>
      <trkpt lat="39.5527050" lon="2.5775560">
        <ele>164.7</ele>
        <time>2020-02-23T13:11:23Z</time>
      </trkpt>
      <trkpt lat="39.5527890" lon="2.5775530">
        <ele>165.5</ele>
        <time>2020-02-23T13:11:28Z</time>
      </trkpt>
      <trkpt lat="39.5529760" lon="2.5774990">
        <ele>167.6</ele>
        <time>2020-02-23T13:11:37Z</time>
      </trkpt>
      <trkpt lat="39.5531700" lon="2.5775550">
        <ele>168.7</ele>
        <time>2020-02-23T13:11:45Z</time>
      </trkpt>
      <trkpt lat="39.5533500" lon="2.5775790">
        <ele>168.3</ele>
        <time>2020-02-23T13:11:55Z</time>
      </trkpt>
      <trkpt lat="39.5534850" lon="2.5776090">
        <ele>167.9</ele>
        <time>2020-02-23T13:13:53Z</time>
      </trkpt>
      <trkpt lat="39.5535900" lon="2.5778300">
        <ele>166.8</ele>
        <time>2020-02-23T13:13:58Z</time>
      </trkpt>
      <trkpt lat="39.5537150" lon="2.5778100">
        <ele>165.8</ele>
        <time>2020-02-23T13:14:05Z</time>
      </trkpt>
      <trkpt lat="39.5537410" lon="2.5777210">
        <ele>165.2</ele>
        <time>2020-02-23T13:14:07Z</time>
      </trkpt>
      <trkpt lat="39.5537960" lon="2.5775100">
        <ele>164.6</ele>
        <time>2020-02-23T13:14:11Z</time>
      </trkpt>
      <trkpt lat="39.5538000" lon="2.5772780">
        <ele>164.5</ele>
        <time>2020-02-23T13:14:15Z</time>
      </trkpt>
      <trkpt lat="39.5538440" lon="2.5770490">
        <ele>165.1</ele>
        <time>2020-02-23T13:14:20Z</time>
      </trkpt>
      <trkpt lat="39.5539940" lon="2.5769140">
        <ele>166.1</ele>
        <time>2020-02-23T13:14:27Z</time>
      </trkpt>
      <trkpt lat="39.5541740" lon="2.5770080">
        <ele>166.9</ele>
        <time>2020-02-23T13:15:19Z</time>
      </trkpt>
      <trkpt lat="39.5542430" lon="2.5772410">
        <ele>166.4</ele>
        <time>2020-02-23T13:15:24Z</time>
      </trkpt>
      <trkpt lat="39.5542390" lon="2.5773130">
        <ele>166.3</ele>
        <time>2020-02-23T13:15:25Z</time>
      </trkpt>
      <trkpt lat="39.5543070" lon="2.5775540">
        <ele>166.8</ele>
        <time>2020-02-23T13:15:29Z</time>
      </trkpt>
      <trkpt lat="39.5544370" lon="2.5777450">
        <ele>168.3</ele>
        <time>2020-02-23T13:15:35Z</time>
      </trkpt>
      <trkpt lat="39.5545400" lon="2.5779860">
        <ele>171.1</ele>
        <time>2020-02-23T13:15:42Z</time>
      </trkpt>
      <trkpt lat="39.5546110" lon="2.5782270">
        <ele>172.3</ele>
        <time>2020-02-23T13:15:48Z</time>
      </trkpt>
      <trkpt lat="39.5546840" lon="2.5784560">
        <ele>172.2</ele>
        <time>2020-02-23T13:15:55Z</time>
      </trkpt>
      <trkpt lat="39.5547360" lon="2.5786930">
        <ele>171.8</ele>
        <time>2020-02-23T13:16:05Z</time>
      </trkpt>
      <trkpt lat="39.5547920" lon="2.5789520">
        <ele>170.7</ele>
        <time>2020-02-23T13:16:52Z</time>
      </trkpt>
      <trkpt lat="39.5547790" lon="2.5792050">
        <ele>169.7</ele>
        <time>2020-02-23T13:16:57Z</time>
      </trkpt>
      <trkpt lat="39.5546770" lon="2.5794610">
        <ele>168.3</ele>
        <time>2020-02-23T13:17:02Z</time>
      </trkpt>
      <trkpt lat="39.5545480" lon="2.5796830">
        <ele>167.6</ele>
        <time>2020-02-23T13:17:07Z</time>
      </trkpt>
      <trkpt lat="39.5544530" lon="2.5798400">
        <ele>167.2</ele>
        <time>2020-02-23T13:17:10Z</time>
      </trkpt>
      <trkpt lat="39.5543150" lon="2.5800330">
        <ele>166.8</ele>
        <time>2020-02-23T13:17:13Z</time>
      </trkpt>
      <trkpt lat="39.5541800" lon="2.5802040">
        <ele>166.5</ele>
        <time>2020-02-23T13:17:16Z</time>
      </trkpt>
      <trkpt lat="39.5540280" lon="2.5803800">
        <ele>166.3</ele>
        <time>2020-02-23T13:17:19Z</time>
      </trkpt>
      <trkpt lat="39.5539910" lon="2.5804330">
        <ele>166.3</ele>
        <time>2020-02-23T13:17:20Z</time>
      </trkpt>
      <trkpt lat="39.5538770" lon="2.5806040">
        <ele>166.1</ele>
        <time>2020-02-23T13:17:23Z</time>
      </trkpt>
      <trkpt lat="39.5537700" lon="2.5807930">
        <ele>165.9</ele>
        <time>2020-02-23T13:17:26Z</time>
      </trkpt>
      <trkpt lat="39.5536610" lon="2.5810590">
        <ele>165.2</ele>
        <time>2020-02-23T13:17:30Z</time>
      </trkpt>
      <trkpt lat="39.5536430" lon="2.5811280">
        <ele>165.0</ele>
        <time>2020-02-23T13:17:31Z</time>
      </trkpt>
      <trkpt lat="39.5535920" lon="2.5814140">
        <ele>164.0</ele>
        <time>2020-02-23T13:17:35Z</time>
      </trkpt>
      <trkpt lat="39.5535360" lon="2.5816480">
        <ele>162.7</ele>
        <time>2020-02-23T13:17:38Z</time>
      </trkpt>
      <trkpt lat="39.5534600" lon="2.5819340">
        <ele>160.7</ele>
        <time>2020-02-23T13:17:42Z</time>
      </trkpt>
      <trkpt lat="39.5534460" lon="2.5820050">
        <ele>160.1</ele>
        <time>2020-02-23T13:17:43Z</time>
      </trkpt>
      <trkpt lat="39.5534260" lon="2.5823140">
        <ele>158.3</ele>
        <time>2020-02-23T13:17:47Z</time>
      </trkpt>
      <trkpt lat="39.5534170" lon="2.5824010">
        <ele>157.7</ele>
        <time>2020-02-23T13:17:48Z</time>
      </trkpt>
      <trkpt lat="39.5534050" lon="2.5826770">
        <ele>155.2</ele>
        <time>2020-02-23T13:17:51Z</time>
      </trkpt>
      <trkpt lat="39.5533890" lon="2.5829330">
        <ele>152.2</ele>
        <time>2020-02-23T13:17:54Z</time>
      </trkpt>
      <trkpt lat="39.5533780" lon="2.5831900">
        <ele>147.8</ele>
        <time>2020-02-23T13:17:57Z</time>
      </trkpt>
      <trkpt lat="39.5533490" lon="2.5834870">
        <ele>141.8</ele>
        <time>2020-02-23T13:18:00Z</time>
      </trkpt>
      <trkpt lat="39.5533460" lon="2.5835900">
        <ele>139.6</ele>
        <time>2020-02-23T13:18:01Z</time>
      </trkpt>
      <trkpt lat="39.5533760" lon="2.5839390">
        <ele>131.3</ele>
        <time>2020-02-23T13:18:04Z</time>
      </trkpt>
      <trkpt lat="39.5534000" lon="2.5841890">
        <ele>125.5</ele>
        <time>2020-02-23T13:18:06Z</time>
      </trkpt>
      <trkpt lat="39.5534220" lon="2.5844420">
        <ele>121.0</ele>
        <time>2020-02-23T13:18:08Z</time>
      </trkpt>
      <trkpt lat="39.5534210" lon="2.5846570">
        <ele>119.4</ele>
        <time>2020-02-23T13:18:10Z</time>
      </trkpt>
      <trkpt lat="39.5533400" lon="2.5849130">
        <ele>118.8</ele>
        <time>2020-02-23T13:18:13Z</time>
      </trkpt>
      <trkpt lat="39.5532390" lon="2.5851350">
        <ele>116.7</ele>
        <time>2020-02-23T13:18:16Z</time>
      </trkpt>
      <trkpt lat="39.5532060" lon="2.5852130">
        <ele>116.2</ele>
        <time>2020-02-23T13:18:17Z</time>
      </trkpt>
      <trkpt lat="39.5530880" lon="2.5854560">
        <ele>115.1</ele>
        <time>2020-02-23T13:18:20Z</time>
      </trkpt>
      <trkpt lat="39.5529980" lon="2.5856060">
        <ele>112.6</ele>
        <time>2020-02-23T13:18:22Z</time>
      </trkpt>
      <trkpt lat="39.5528000" lon="2.5856950">
        <ele>108.7</ele>
        <time>2020-02-23T13:18:26Z</time>
      </trkpt>
      <trkpt lat="39.5528630" lon="2.5858980">
        <ele>104.7</ele>
        <time>2020-02-23T13:18:31Z</time>
      </trkpt>
      <trkpt lat="39.5529410" lon="2.5859290">
        <ele>103.4</ele>
        <time>2020-02-23T13:18:33Z</time>
      </trkpt>
      <trkpt lat="39.5529840" lon="2.5859500">
        <ele>102.6</ele>
        <time>2020-02-23T13:18:34Z</time>
      </trkpt>
      <trkpt lat="39.5531710" lon="2.5860660">
        <ele>99.7</ele>
        <time>2020-02-23T13:18:38Z</time>
      </trkpt>
      <trkpt lat="39.5532200" lon="2.5861040">
        <ele>99.0</ele>
        <time>2020-02-23T13:18:39Z</time>
      </trkpt>
      <trkpt lat="39.5533750" lon="2.5862960">
        <ele>95.6</ele>
        <time>2020-02-23T13:18:43Z</time>
      </trkpt>
      <trkpt lat="39.5534140" lon="2.5863340">
        <ele>94.7</ele>
        <time>2020-02-23T13:18:44Z</time>
      </trkpt>
      <trkpt lat="39.5536190" lon="2.5864860">
        <ele>90.3</ele>
        <time>2020-02-23T13:18:48Z</time>
      </trkpt>
      <trkpt lat="39.5537830" lon="2.5866070">
        <ele>88.5</ele>
        <time>2020-02-23T13:18:51Z</time>
      </trkpt>
      <trkpt lat="39.5540160" lon="2.5867440">
        <ele>86.2</ele>
        <time>2020-02-23T13:18:54Z</time>
      </trkpt>
      <trkpt lat="39.5542370" lon="2.5869320">
        <ele>83.9</ele>
        <time>2020-02-23T13:18:57Z</time>
      </trkpt>
      <trkpt lat="39.5544170" lon="2.5870670">
        <ele>81.2</ele>
        <time>2020-02-23T13:19:00Z</time>
      </trkpt>
      <trkpt lat="39.5544900" lon="2.5871130">
        <ele>80.2</ele>
        <time>2020-02-23T13:19:10Z</time>
      </trkpt>
    </trkseg>
  </trk>
</gpx>
